<?xml version="1.0" encoding="UTF-8" standalone="no" ?>
<gpx xmlns="http://www.topografix.com/GPX/1/1" xmlns:xsi="http://www.w3.org/2001/XMLSchema-instance" xsi:schemaLocation="http://www.topografix.com/GPX/1/1 http://www.topografix.com/GPX/1/1/gpx.xsd" version="1.1" creator="VisuGPX - https://www.visugpx.com">
  <metadata>
    <name>2012-05-18-1 Roussel Balcons du Glandasse</name>
    <desc><![CDATA[2012-05-18-1 Roussel Balcons du Glandasse]]></desc>
  </metadata>
  <trk>
    <name><![CDATA[Balcons du glandasse]]></name>
    <trkseg>
      <trkpt lat="44.84235" lon="5.42353">
        <ele>1368.7540283</ele>
        <time>2011-10-02T07:15:15Z</time>
      </trkpt>
      <trkpt lat="44.84235" lon="5.42354">
        <ele>1368.7540283</ele>
        <time>2011-10-02T07:15:16Z</time>
      </trkpt>
      <trkpt lat="44.8424" lon="5.42358">
        <ele>1368.7490234</ele>
        <time>2011-10-02T07:16:15Z</time>
      </trkpt>
      <trkpt lat="44.84235" lon="5.42363">
        <ele>1369.026001</ele>
        <time>2011-10-02T07:16:23Z</time>
      </trkpt>
      <trkpt lat="44.84236" lon="5.42363">
        <ele>1369.2769775</ele>
        <time>2011-10-02T07:16:34Z</time>
      </trkpt>
      <trkpt lat="44.8424" lon="5.42376">
        <ele>1369.072998</ele>
        <time>2011-10-02T07:16:40Z</time>
      </trkpt>
      <trkpt lat="44.84245" lon="5.42399">
        <ele>1369.4689941</ele>
        <time>2011-10-02T07:16:47Z</time>
      </trkpt>
      <trkpt lat="44.84248" lon="5.42407">
        <ele>1369.5720215</ele>
        <time>2011-10-02T07:16:52Z</time>
      </trkpt>
      <trkpt lat="44.84251" lon="5.42425">
        <ele>1369.5999756</ele>
        <time>2011-10-02T07:17:00Z</time>
      </trkpt>
      <trkpt lat="44.84242" lon="5.42438">
        <ele>1369.9370117</ele>
        <time>2011-10-02T07:17:07Z</time>
      </trkpt>
      <trkpt lat="44.84241" lon="5.42444">
        <ele>1369.8459473</ele>
        <time>2011-10-02T07:17:10Z</time>
      </trkpt>
      <trkpt lat="44.84244" lon="5.42462">
        <ele>1369.3210449</ele>
        <time>2011-10-02T07:17:17Z</time>
      </trkpt>
      <trkpt lat="44.84243" lon="5.42476">
        <ele>1368.8599854</ele>
        <time>2011-10-02T07:17:22Z</time>
      </trkpt>
      <trkpt lat="44.84244" lon="5.42494">
        <ele>1368.230957</ele>
        <time>2011-10-02T07:17:26Z</time>
      </trkpt>
      <trkpt lat="44.84246" lon="5.42513">
        <ele>1369.2139893</ele>
        <time>2011-10-02T07:17:33Z</time>
      </trkpt>
      <trkpt lat="44.8425" lon="5.42528">
        <ele>1371.6669922</ele>
        <time>2011-10-02T07:17:40Z</time>
      </trkpt>
      <trkpt lat="44.84254" lon="5.42542">
        <ele>1373.6739502</ele>
        <time>2011-10-02T07:17:47Z</time>
      </trkpt>
      <trkpt lat="44.84256" lon="5.42549">
        <ele>1375.2929688</ele>
        <time>2011-10-02T07:17:52Z</time>
      </trkpt>
      <trkpt lat="44.84259" lon="5.42547">
        <ele>1376.2700195</ele>
        <time>2011-10-02T07:18:00Z</time>
      </trkpt>
      <trkpt lat="44.84262" lon="5.42546">
        <ele>1376.3470459</ele>
        <time>2011-10-02T07:18:06Z</time>
      </trkpt>
      <trkpt lat="44.84262" lon="5.42545">
        <ele>1376.6120605</ele>
        <time>2011-10-02T07:18:11Z</time>
      </trkpt>
      <trkpt lat="44.84261" lon="5.42548">
        <ele>1376.6669922</ele>
        <time>2011-10-02T07:18:13Z</time>
      </trkpt>
      <trkpt lat="44.84261" lon="5.42553">
        <ele>1376.9830322</ele>
        <time>2011-10-02T07:18:18Z</time>
      </trkpt>
      <trkpt lat="44.84256" lon="5.4256">
        <ele>1377.552002</ele>
        <time>2011-10-02T07:18:25Z</time>
      </trkpt>
      <trkpt lat="44.84248" lon="5.42558">
        <ele>1379.1519775</ele>
        <time>2011-10-02T07:18:32Z</time>
      </trkpt>
      <trkpt lat="44.8424" lon="5.42557">
        <ele>1380.1219482</ele>
        <time>2011-10-02T07:18:38Z</time>
      </trkpt>
      <trkpt lat="44.84236" lon="5.42556">
        <ele>1380.7349854</ele>
        <time>2011-10-02T07:18:41Z</time>
      </trkpt>
      <trkpt lat="44.84232" lon="5.42557">
        <ele>1381.2950439</ele>
        <time>2011-10-02T07:18:45Z</time>
      </trkpt>
      <trkpt lat="44.84222" lon="5.42564">
        <ele>1382.7679443</ele>
        <time>2011-10-02T07:18:53Z</time>
      </trkpt>
      <trkpt lat="44.8422" lon="5.42565">
        <ele>1384.0670166</ele>
        <time>2011-10-02T07:18:59Z</time>
      </trkpt>
      <trkpt lat="44.84216" lon="5.4257">
        <ele>1384.9720459</ele>
        <time>2011-10-02T07:19:06Z</time>
      </trkpt>
      <trkpt lat="44.84214" lon="5.42575">
        <ele>1386.3260498</ele>
        <time>2011-10-02T07:19:12Z</time>
      </trkpt>
      <trkpt lat="44.84211" lon="5.42583">
        <ele>1387.5849609</ele>
        <time>2011-10-02T07:19:18Z</time>
      </trkpt>
      <trkpt lat="44.84205" lon="5.42589">
        <ele>1388.5510254</ele>
        <time>2011-10-02T07:19:25Z</time>
      </trkpt>
      <trkpt lat="44.84202" lon="5.42588">
        <ele>1388.8669434</ele>
        <time>2011-10-02T07:19:31Z</time>
      </trkpt>
      <trkpt lat="44.84199" lon="5.426">
        <ele>1389.4129639</ele>
        <time>2011-10-02T07:19:38Z</time>
      </trkpt>
      <trkpt lat="44.84193" lon="5.42611">
        <ele>1390.8110352</ele>
        <time>2011-10-02T07:19:44Z</time>
      </trkpt>
      <trkpt lat="44.84189" lon="5.42621">
        <ele>1392.1490479</ele>
        <time>2011-10-02T07:19:51Z</time>
      </trkpt>
      <trkpt lat="44.84185" lon="5.42626">
        <ele>1392.7889404</ele>
        <time>2011-10-02T07:19:56Z</time>
      </trkpt>
      <trkpt lat="44.84175" lon="5.42632">
        <ele>1394.9799805</ele>
        <time>2011-10-02T07:20:03Z</time>
      </trkpt>
      <trkpt lat="44.84169" lon="5.42634">
        <ele>1396.901001</ele>
        <time>2011-10-02T07:20:10Z</time>
      </trkpt>
      <trkpt lat="44.84162" lon="5.42637">
        <ele>1397.8909912</ele>
        <time>2011-10-02T07:20:17Z</time>
      </trkpt>
      <trkpt lat="44.8416" lon="5.42639">
        <ele>1398.2989502</ele>
        <time>2011-10-02T07:20:19Z</time>
      </trkpt>
      <trkpt lat="44.84152" lon="5.42644">
        <ele>1399.9770508</ele>
        <time>2011-10-02T07:20:27Z</time>
      </trkpt>
      <trkpt lat="44.84151" lon="5.42644">
        <ele>1400.2159424</ele>
        <time>2011-10-02T07:20:28Z</time>
      </trkpt>
      <trkpt lat="44.84145" lon="5.42648">
        <ele>1401.2889404</ele>
        <time>2011-10-02T07:20:36Z</time>
      </trkpt>
      <trkpt lat="44.84139" lon="5.42651">
        <ele>1401.9439697</ele>
        <time>2011-10-02T07:20:44Z</time>
      </trkpt>
      <trkpt lat="44.84139" lon="5.42651">
        <ele>1402.2110596</ele>
        <time>2011-10-02T07:20:52Z</time>
      </trkpt>
      <trkpt lat="44.84131" lon="5.4265">
        <ele>1402.9520264</ele>
        <time>2011-10-02T07:22:24Z</time>
      </trkpt>
      <trkpt lat="44.84126" lon="5.42655">
        <ele>1403.3809814</ele>
        <time>2011-10-02T07:23:07Z</time>
      </trkpt>
      <trkpt lat="44.84125" lon="5.42655">
        <ele>1403.493042</ele>
        <time>2011-10-02T07:23:08Z</time>
      </trkpt>
      <trkpt lat="44.84119" lon="5.42662">
        <ele>1404.3840332</ele>
        <time>2011-10-02T07:23:14Z</time>
      </trkpt>
      <trkpt lat="44.84111" lon="5.42672">
        <ele>1405.8900146</ele>
        <time>2011-10-02T07:23:21Z</time>
      </trkpt>
      <trkpt lat="44.84105" lon="5.42683">
        <ele>1406.6409912</ele>
        <time>2011-10-02T07:23:27Z</time>
      </trkpt>
      <trkpt lat="44.84096" lon="5.42698">
        <ele>1407.9759521</ele>
        <time>2011-10-02T07:23:34Z</time>
      </trkpt>
      <trkpt lat="44.84093" lon="5.42704">
        <ele>1408.8879395</ele>
        <time>2011-10-02T07:23:37Z</time>
      </trkpt>
      <trkpt lat="44.84089" lon="5.4271">
        <ele>1409.9379883</ele>
        <time>2011-10-02T07:23:41Z</time>
      </trkpt>
      <trkpt lat="44.84083" lon="5.42718">
        <ele>1411.5360107</ele>
        <time>2011-10-02T07:23:46Z</time>
      </trkpt>
      <trkpt lat="44.84076" lon="5.42724">
        <ele>1413.0209961</ele>
        <time>2011-10-02T07:23:52Z</time>
      </trkpt>
      <trkpt lat="44.84068" lon="5.42728">
        <ele>1414.8929443</ele>
        <time>2011-10-02T07:23:59Z</time>
      </trkpt>
      <trkpt lat="44.84056" lon="5.42736">
        <ele>1417.25</ele>
        <time>2011-10-02T07:24:08Z</time>
      </trkpt>
      <trkpt lat="44.84052" lon="5.42739">
        <ele>1418.05896</ele>
        <time>2011-10-02T07:24:11Z</time>
      </trkpt>
      <trkpt lat="44.84046" lon="5.42743">
        <ele>1419.3179932</ele>
        <time>2011-10-02T07:24:16Z</time>
      </trkpt>
      <trkpt lat="44.84036" lon="5.4275">
        <ele>1420.717041</ele>
        <time>2011-10-02T07:24:23Z</time>
      </trkpt>
      <trkpt lat="44.84027" lon="5.42757">
        <ele>1421.2370605</ele>
        <time>2011-10-02T07:24:28Z</time>
      </trkpt>
      <trkpt lat="44.84016" lon="5.42767">
        <ele>1421.6090088</ele>
        <time>2011-10-02T07:24:34Z</time>
      </trkpt>
      <trkpt lat="44.84007" lon="5.4278">
        <ele>1422.7840576</ele>
        <time>2011-10-02T07:24:41Z</time>
      </trkpt>
      <trkpt lat="44.84002" lon="5.4279">
        <ele>1424.1689453</ele>
        <time>2011-10-02T07:24:47Z</time>
      </trkpt>
      <trkpt lat="44.83996" lon="5.42802">
        <ele>1426.0770264</ele>
        <time>2011-10-02T07:24:54Z</time>
      </trkpt>
      <trkpt lat="44.83994" lon="5.42805">
        <ele>1426.3709717</ele>
        <time>2011-10-02T07:24:56Z</time>
      </trkpt>
      <trkpt lat="44.83984" lon="5.42812">
        <ele>1428.4429932</ele>
        <time>2011-10-02T07:25:03Z</time>
      </trkpt>
      <trkpt lat="44.83974" lon="5.42815">
        <ele>1431.0949707</ele>
        <time>2011-10-02T07:25:11Z</time>
      </trkpt>
      <trkpt lat="44.83965" lon="5.4282">
        <ele>1433.1689453</ele>
        <time>2011-10-02T07:25:19Z</time>
      </trkpt>
      <trkpt lat="44.83956" lon="5.42822">
        <ele>1434.8010254</ele>
        <time>2011-10-02T07:25:26Z</time>
      </trkpt>
      <trkpt lat="44.83947" lon="5.42824">
        <ele>1436.0200195</ele>
        <time>2011-10-02T07:25:33Z</time>
      </trkpt>
      <trkpt lat="44.83939" lon="5.42825">
        <ele>1436.7850342</ele>
        <time>2011-10-02T07:25:39Z</time>
      </trkpt>
      <trkpt lat="44.83932" lon="5.42827">
        <ele>1437.8659668</ele>
        <time>2011-10-02T07:25:45Z</time>
      </trkpt>
      <trkpt lat="44.83924" lon="5.4283">
        <ele>1438.5679932</ele>
        <time>2011-10-02T07:25:50Z</time>
      </trkpt>
      <trkpt lat="44.83915" lon="5.42832">
        <ele>1440.0970459</ele>
        <time>2011-10-02T07:25:57Z</time>
      </trkpt>
      <trkpt lat="44.8391" lon="5.42834">
        <ele>1440.776001</ele>
        <time>2011-10-02T07:26:00Z</time>
      </trkpt>
      <trkpt lat="44.83899" lon="5.42838">
        <ele>1442.0250244</ele>
        <time>2011-10-02T07:26:08Z</time>
      </trkpt>
      <trkpt lat="44.83889" lon="5.4284">
        <ele>1443.4820557</ele>
        <time>2011-10-02T07:26:15Z</time>
      </trkpt>
      <trkpt lat="44.83874" lon="5.42844">
        <ele>1445.8299561</ele>
        <time>2011-10-02T07:26:24Z</time>
      </trkpt>
      <trkpt lat="44.83857" lon="5.42847">
        <ele>1447.5269775</ele>
        <time>2011-10-02T07:26:34Z</time>
      </trkpt>
      <trkpt lat="44.83844" lon="5.42852">
        <ele>1448.7280273</ele>
        <time>2011-10-02T07:26:42Z</time>
      </trkpt>
      <trkpt lat="44.83831" lon="5.42857">
        <ele>1449.8179932</ele>
        <time>2011-10-02T07:26:50Z</time>
      </trkpt>
      <trkpt lat="44.83821" lon="5.42863">
        <ele>1450.6009521</ele>
        <time>2011-10-02T07:26:55Z</time>
      </trkpt>
      <trkpt lat="44.83816" lon="5.42868">
        <ele>1451.2340088</ele>
        <time>2011-10-02T07:26:59Z</time>
      </trkpt>
      <trkpt lat="44.838" lon="5.42879">
        <ele>1451.0319824</ele>
        <time>2011-10-02T07:27:05Z</time>
      </trkpt>
      <trkpt lat="44.83781" lon="5.42888">
        <ele>1450.217041</ele>
        <time>2011-10-02T07:27:10Z</time>
      </trkpt>
      <trkpt lat="44.83764" lon="5.42897">
        <ele>1450.9899902</ele>
        <time>2011-10-02T07:27:16Z</time>
      </trkpt>
      <trkpt lat="44.83749" lon="5.42909">
        <ele>1451.0240479</ele>
        <time>2011-10-02T07:27:22Z</time>
      </trkpt>
      <trkpt lat="44.83742" lon="5.42928">
        <ele>1450.8719482</ele>
        <time>2011-10-02T07:27:27Z</time>
      </trkpt>
      <trkpt lat="44.83741" lon="5.42944">
        <ele>1451.6920166</ele>
        <time>2011-10-02T07:27:32Z</time>
      </trkpt>
      <trkpt lat="44.83743" lon="5.42964">
        <ele>1452.9980469</ele>
        <time>2011-10-02T07:27:38Z</time>
      </trkpt>
      <trkpt lat="44.8374" lon="5.42975">
        <ele>1453.6829834</ele>
        <time>2011-10-02T07:27:42Z</time>
      </trkpt>
      <trkpt lat="44.83743" lon="5.4299">
        <ele>1454.9759521</ele>
        <time>2011-10-02T07:27:49Z</time>
      </trkpt>
      <trkpt lat="44.83741" lon="5.43006">
        <ele>1456.1870117</ele>
        <time>2011-10-02T07:27:56Z</time>
      </trkpt>
      <trkpt lat="44.83738" lon="5.43019">
        <ele>1457.2800293</ele>
        <time>2011-10-02T07:28:02Z</time>
      </trkpt>
      <trkpt lat="44.83736" lon="5.43023">
        <ele>1457.7180176</ele>
        <time>2011-10-02T07:28:04Z</time>
      </trkpt>
      <trkpt lat="44.83736" lon="5.43034">
        <ele>1459.0980225</ele>
        <time>2011-10-02T07:28:09Z</time>
      </trkpt>
      <trkpt lat="44.83735" lon="5.43036">
        <ele>1459.3979492</ele>
        <time>2011-10-02T07:28:10Z</time>
      </trkpt>
      <trkpt lat="44.83729" lon="5.43052">
        <ele>1461.2459717</ele>
        <time>2011-10-02T07:28:17Z</time>
      </trkpt>
      <trkpt lat="44.83724" lon="5.43072">
        <ele>1463.6610107</ele>
        <time>2011-10-02T07:28:26Z</time>
      </trkpt>
      <trkpt lat="44.83715" lon="5.43085">
        <ele>1465.1610107</ele>
        <time>2011-10-02T07:28:34Z</time>
      </trkpt>
      <trkpt lat="44.83708" lon="5.43101">
        <ele>1466.5760498</ele>
        <time>2011-10-02T07:28:42Z</time>
      </trkpt>
      <trkpt lat="44.83699" lon="5.43117">
        <ele>1467.3790283</ele>
        <time>2011-10-02T07:28:50Z</time>
      </trkpt>
      <trkpt lat="44.83691" lon="5.43132">
        <ele>1468.7490234</ele>
        <time>2011-10-02T07:28:57Z</time>
      </trkpt>
      <trkpt lat="44.83687" lon="5.43138">
        <ele>1469.4040527</ele>
        <time>2011-10-02T07:29:00Z</time>
      </trkpt>
      <trkpt lat="44.83687" lon="5.43147">
        <ele>1470.2969971</ele>
        <time>2011-10-02T07:29:04Z</time>
      </trkpt>
      <trkpt lat="44.83685" lon="5.43164">
        <ele>1471.1209717</ele>
        <time>2011-10-02T07:29:11Z</time>
      </trkpt>
      <trkpt lat="44.83677" lon="5.43179">
        <ele>1472.4589844</ele>
        <time>2011-10-02T07:29:18Z</time>
      </trkpt>
      <trkpt lat="44.83672" lon="5.43187">
        <ele>1473.4229736</ele>
        <time>2011-10-02T07:29:24Z</time>
      </trkpt>
      <trkpt lat="44.83664" lon="5.43193">
        <ele>1474.3929443</ele>
        <time>2011-10-02T07:29:29Z</time>
      </trkpt>
      <trkpt lat="44.83661" lon="5.43196">
        <ele>1474.7729492</ele>
        <time>2011-10-02T07:29:31Z</time>
      </trkpt>
      <trkpt lat="44.83654" lon="5.43199">
        <ele>1475.243042</ele>
        <time>2011-10-02T07:29:36Z</time>
      </trkpt>
      <trkpt lat="44.83645" lon="5.43202">
        <ele>1475.7280273</ele>
        <time>2011-10-02T07:29:41Z</time>
      </trkpt>
      <trkpt lat="44.83638" lon="5.43203">
        <ele>1477.0689697</ele>
        <time>2011-10-02T07:29:47Z</time>
      </trkpt>
      <trkpt lat="44.83632" lon="5.43203">
        <ele>1477.6719971</ele>
        <time>2011-10-02T07:29:50Z</time>
      </trkpt>
      <trkpt lat="44.83624" lon="5.43203">
        <ele>1478.6080322</ele>
        <time>2011-10-02T07:29:55Z</time>
      </trkpt>
      <trkpt lat="44.83617" lon="5.43203">
        <ele>1479.3409424</ele>
        <time>2011-10-02T07:29:58Z</time>
      </trkpt>
      <trkpt lat="44.83602" lon="5.43202">
        <ele>1480.5799561</ele>
        <time>2011-10-02T07:30:05Z</time>
      </trkpt>
      <trkpt lat="44.8359" lon="5.43208">
        <ele>1481.5319824</ele>
        <time>2011-10-02T07:30:12Z</time>
      </trkpt>
      <trkpt lat="44.83577" lon="5.43214">
        <ele>1482.5980225</ele>
        <time>2011-10-02T07:30:20Z</time>
      </trkpt>
      <trkpt lat="44.83566" lon="5.43222">
        <ele>1483.4210205</ele>
        <time>2011-10-02T07:30:26Z</time>
      </trkpt>
      <trkpt lat="44.83561" lon="5.43229">
        <ele>1484.3349609</ele>
        <time>2011-10-02T07:30:32Z</time>
      </trkpt>
      <trkpt lat="44.83548" lon="5.43238">
        <ele>1486.072998</ele>
        <time>2011-10-02T07:30:40Z</time>
      </trkpt>
      <trkpt lat="44.83534" lon="5.43246">
        <ele>1487.723999</ele>
        <time>2011-10-02T07:30:49Z</time>
      </trkpt>
      <trkpt lat="44.83524" lon="5.43247">
        <ele>1488.7080078</ele>
        <time>2011-10-02T07:30:55Z</time>
      </trkpt>
      <trkpt lat="44.83511" lon="5.43247">
        <ele>1490.2380371</ele>
        <time>2011-10-02T07:31:02Z</time>
      </trkpt>
      <trkpt lat="44.83499" lon="5.43248">
        <ele>1491.6280518</ele>
        <time>2011-10-02T07:31:09Z</time>
      </trkpt>
      <trkpt lat="44.8349" lon="5.43246">
        <ele>1492.776001</ele>
        <time>2011-10-02T07:31:15Z</time>
      </trkpt>
      <trkpt lat="44.83479" lon="5.43245">
        <ele>1493.5799561</ele>
        <time>2011-10-02T07:31:21Z</time>
      </trkpt>
      <trkpt lat="44.83465" lon="5.43246">
        <ele>1495.1030273</ele>
        <time>2011-10-02T07:31:29Z</time>
      </trkpt>
      <trkpt lat="44.83461" lon="5.43247">
        <ele>1495.5340576</ele>
        <time>2011-10-02T07:31:32Z</time>
      </trkpt>
      <trkpt lat="44.83449" lon="5.43253">
        <ele>1496.651001</ele>
        <time>2011-10-02T07:31:39Z</time>
      </trkpt>
      <trkpt lat="44.83443" lon="5.43257">
        <ele>1498.0550537</ele>
        <time>2011-10-02T07:31:44Z</time>
      </trkpt>
      <trkpt lat="44.83438" lon="5.43255">
        <ele>1499.3120117</ele>
        <time>2011-10-02T07:31:54Z</time>
      </trkpt>
      <trkpt lat="44.83435" lon="5.43258">
        <ele>1499.9029541</ele>
        <time>2011-10-02T07:32:01Z</time>
      </trkpt>
      <trkpt lat="44.83434" lon="5.43259">
        <ele>1500.0219727</ele>
        <time>2011-10-02T07:32:02Z</time>
      </trkpt>
      <trkpt lat="44.83429" lon="5.43264">
        <ele>1501.0889893</ele>
        <time>2011-10-02T07:32:09Z</time>
      </trkpt>
      <trkpt lat="44.83422" lon="5.43272">
        <ele>1501.8530273</ele>
        <time>2011-10-02T07:32:26Z</time>
      </trkpt>
      <trkpt lat="44.83419" lon="5.43285">
        <ele>1503.282959</ele>
        <time>2011-10-02T07:32:33Z</time>
      </trkpt>
      <trkpt lat="44.83417" lon="5.43304">
        <ele>1505.5570068</ele>
        <time>2011-10-02T07:32:42Z</time>
      </trkpt>
      <trkpt lat="44.83413" lon="5.43315">
        <ele>1507.0699463</ele>
        <time>2011-10-02T07:32:49Z</time>
      </trkpt>
      <trkpt lat="44.83408" lon="5.43333">
        <ele>1509.1989746</ele>
        <time>2011-10-02T07:32:59Z</time>
      </trkpt>
      <trkpt lat="44.83402" lon="5.43349">
        <ele>1511.5710449</ele>
        <time>2011-10-02T07:33:08Z</time>
      </trkpt>
      <trkpt lat="44.834" lon="5.43356">
        <ele>1512.6419678</ele>
        <time>2011-10-02T07:33:12Z</time>
      </trkpt>
      <trkpt lat="44.83396" lon="5.43369">
        <ele>1514.3790283</ele>
        <time>2011-10-02T07:33:19Z</time>
      </trkpt>
      <trkpt lat="44.83389" lon="5.43382">
        <ele>1516.0030518</ele>
        <time>2011-10-02T07:33:26Z</time>
      </trkpt>
      <trkpt lat="44.83382" lon="5.43398">
        <ele>1518.8520508</ele>
        <time>2011-10-02T07:33:35Z</time>
      </trkpt>
      <trkpt lat="44.83375" lon="5.43418">
        <ele>1521.2110596</ele>
        <time>2011-10-02T07:33:45Z</time>
      </trkpt>
      <trkpt lat="44.83372" lon="5.43428">
        <ele>1522.3780518</ele>
        <time>2011-10-02T07:33:50Z</time>
      </trkpt>
      <trkpt lat="44.83377" lon="5.43438">
        <ele>1524.2519531</ele>
        <time>2011-10-02T07:33:56Z</time>
      </trkpt>
      <trkpt lat="44.8338" lon="5.43442">
        <ele>1525.3950195</ele>
        <time>2011-10-02T07:34:01Z</time>
      </trkpt>
      <trkpt lat="44.8338" lon="5.4344">
        <ele>1526.5930176</ele>
        <time>2011-10-02T07:35:37Z</time>
      </trkpt>
      <trkpt lat="44.8338" lon="5.4344">
        <ele>1526.7790527</ele>
        <time>2011-10-02T07:35:39Z</time>
      </trkpt>
      <trkpt lat="44.83373" lon="5.4344">
        <ele>1526.8590088</ele>
        <time>2011-10-02T07:35:44Z</time>
      </trkpt>
      <trkpt lat="44.83371" lon="5.43453">
        <ele>1527.6149902</ele>
        <time>2011-10-02T07:35:51Z</time>
      </trkpt>
      <trkpt lat="44.83371" lon="5.43468">
        <ele>1529.9980469</ele>
        <time>2011-10-02T07:35:59Z</time>
      </trkpt>
      <trkpt lat="44.8337" lon="5.43482">
        <ele>1531.4110107</ele>
        <time>2011-10-02T07:36:06Z</time>
      </trkpt>
      <trkpt lat="44.83368" lon="5.43497">
        <ele>1533.4389648</ele>
        <time>2011-10-02T07:36:14Z</time>
      </trkpt>
      <trkpt lat="44.83367" lon="5.43515">
        <ele>1535.3690186</ele>
        <time>2011-10-02T07:36:23Z</time>
      </trkpt>
      <trkpt lat="44.83366" lon="5.43528">
        <ele>1537.6779785</ele>
        <time>2011-10-02T07:36:30Z</time>
      </trkpt>
      <trkpt lat="44.83367" lon="5.43539">
        <ele>1539.3740234</ele>
        <time>2011-10-02T07:36:37Z</time>
      </trkpt>
      <trkpt lat="44.83366" lon="5.43554">
        <ele>1540.6619873</ele>
        <time>2011-10-02T07:36:45Z</time>
      </trkpt>
      <trkpt lat="44.83368" lon="5.43573">
        <ele>1542.0610352</ele>
        <time>2011-10-02T07:36:54Z</time>
      </trkpt>
      <trkpt lat="44.83376" lon="5.43593">
        <ele>1542.2790527</ele>
        <time>2011-10-02T07:37:02Z</time>
      </trkpt>
      <trkpt lat="44.83385" lon="5.43601">
        <ele>1542.1729736</ele>
        <time>2011-10-02T07:37:06Z</time>
      </trkpt>
      <trkpt lat="44.83397" lon="5.43599">
        <ele>1542.2939453</ele>
        <time>2011-10-02T07:37:10Z</time>
      </trkpt>
      <trkpt lat="44.83412" lon="5.43594">
        <ele>1544.105957</ele>
        <time>2011-10-02T07:37:17Z</time>
      </trkpt>
      <trkpt lat="44.8342" lon="5.43591">
        <ele>1545.2340088</ele>
        <time>2011-10-02T07:37:23Z</time>
      </trkpt>
      <trkpt lat="44.83427" lon="5.43594">
        <ele>1545.5269775</ele>
        <time>2011-10-02T07:37:28Z</time>
      </trkpt>
      <trkpt lat="44.8343" lon="5.43607">
        <ele>1546.6240234</ele>
        <time>2011-10-02T07:37:35Z</time>
      </trkpt>
      <trkpt lat="44.83429" lon="5.43619">
        <ele>1548.3470459</ele>
        <time>2011-10-02T07:37:41Z</time>
      </trkpt>
      <trkpt lat="44.83427" lon="5.43628">
        <ele>1549.9489746</ele>
        <time>2011-10-02T07:37:46Z</time>
      </trkpt>
      <trkpt lat="44.83426" lon="5.43639">
        <ele>1552.1459961</ele>
        <time>2011-10-02T07:37:52Z</time>
      </trkpt>
      <trkpt lat="44.83425" lon="5.43645">
        <ele>1553.7089844</ele>
        <time>2011-10-02T07:37:56Z</time>
      </trkpt>
      <trkpt lat="44.83424" lon="5.43653">
        <ele>1554.7280273</ele>
        <time>2011-10-02T07:38:00Z</time>
      </trkpt>
      <trkpt lat="44.83424" lon="5.43657">
        <ele>1555.4599609</ele>
        <time>2011-10-02T07:38:02Z</time>
      </trkpt>
      <trkpt lat="44.83424" lon="5.43665">
        <ele>1557.4799805</ele>
        <time>2011-10-02T07:38:07Z</time>
      </trkpt>
      <trkpt lat="44.83423" lon="5.43674">
        <ele>1559.8010254</ele>
        <time>2011-10-02T07:38:16Z</time>
      </trkpt>
      <trkpt lat="44.83424" lon="5.43674">
        <ele>1560.3449707</ele>
        <time>2011-10-02T07:38:31Z</time>
      </trkpt>
      <trkpt lat="44.83424" lon="5.43672">
        <ele>1560.4189453</ele>
        <time>2011-10-02T07:38:34Z</time>
      </trkpt>
      <trkpt lat="44.83424" lon="5.43673">
        <ele>1560.552002</ele>
        <time>2011-10-02T07:38:36Z</time>
      </trkpt>
      <trkpt lat="44.83424" lon="5.43675">
        <ele>1560.6760254</ele>
        <time>2011-10-02T07:38:38Z</time>
      </trkpt>
      <trkpt lat="44.83424" lon="5.43686">
        <ele>1562.723999</ele>
        <time>2011-10-02T07:38:48Z</time>
      </trkpt>
      <trkpt lat="44.83424" lon="5.43693">
        <ele>1563.6689453</ele>
        <time>2011-10-02T07:38:55Z</time>
      </trkpt>
      <trkpt lat="44.83423" lon="5.43695">
        <ele>1564.0379639</ele>
        <time>2011-10-02T07:38:57Z</time>
      </trkpt>
      <trkpt lat="44.83421" lon="5.43698">
        <ele>1565.0810547</ele>
        <time>2011-10-02T07:39:03Z</time>
      </trkpt>
      <trkpt lat="44.83419" lon="5.43701">
        <ele>1566.0360107</ele>
        <time>2011-10-02T07:39:08Z</time>
      </trkpt>
      <trkpt lat="44.83416" lon="5.43705">
        <ele>1567.3079834</ele>
        <time>2011-10-02T07:39:15Z</time>
      </trkpt>
      <trkpt lat="44.83416" lon="5.43708">
        <ele>1567.5629883</ele>
        <time>2011-10-02T07:39:18Z</time>
      </trkpt>
      <trkpt lat="44.83412" lon="5.43717">
        <ele>1569.0560303</ele>
        <time>2011-10-02T07:39:27Z</time>
      </trkpt>
      <trkpt lat="44.83408" lon="5.43725">
        <ele>1571.1070557</ele>
        <time>2011-10-02T07:39:36Z</time>
      </trkpt>
      <trkpt lat="44.83402" lon="5.43731">
        <ele>1572.5350342</ele>
        <time>2011-10-02T07:39:45Z</time>
      </trkpt>
      <trkpt lat="44.83401" lon="5.43733">
        <ele>1572.8370361</ele>
        <time>2011-10-02T07:39:47Z</time>
      </trkpt>
      <trkpt lat="44.83397" lon="5.43745">
        <ele>1574.8590088</ele>
        <time>2011-10-02T07:39:58Z</time>
      </trkpt>
      <trkpt lat="44.83394" lon="5.43748">
        <ele>1575.592041</ele>
        <time>2011-10-02T07:40:09Z</time>
      </trkpt>
      <trkpt lat="44.8339" lon="5.43756">
        <ele>1577.0469971</ele>
        <time>2011-10-02T07:40:17Z</time>
      </trkpt>
      <trkpt lat="44.8339" lon="5.43757">
        <ele>1577.1550293</ele>
        <time>2011-10-02T07:40:18Z</time>
      </trkpt>
      <trkpt lat="44.83385" lon="5.4376">
        <ele>1578.1350098</ele>
        <time>2011-10-02T07:40:24Z</time>
      </trkpt>
      <trkpt lat="44.83383" lon="5.43763">
        <ele>1578.80896</ele>
        <time>2011-10-02T07:40:28Z</time>
      </trkpt>
      <trkpt lat="44.83382" lon="5.43768">
        <ele>1579.4549561</ele>
        <time>2011-10-02T07:40:32Z</time>
      </trkpt>
      <trkpt lat="44.83383" lon="5.43775">
        <ele>1580.6099854</ele>
        <time>2011-10-02T07:40:38Z</time>
      </trkpt>
      <trkpt lat="44.83382" lon="5.43787">
        <ele>1581.9759521</ele>
        <time>2011-10-02T07:40:47Z</time>
      </trkpt>
      <trkpt lat="44.83381" lon="5.43793">
        <ele>1582.9439697</ele>
        <time>2011-10-02T07:40:52Z</time>
      </trkpt>
      <trkpt lat="44.83381" lon="5.43798">
        <ele>1583.6340332</ele>
        <time>2011-10-02T07:40:57Z</time>
      </trkpt>
      <trkpt lat="44.83381" lon="5.43799">
        <ele>1583.6469727</ele>
        <time>2011-10-02T07:41:04Z</time>
      </trkpt>
      <trkpt lat="44.8338" lon="5.43799">
        <ele>1583.6209717</ele>
        <time>2011-10-02T07:41:08Z</time>
      </trkpt>
      <trkpt lat="44.83384" lon="5.43811">
        <ele>1583.9620361</ele>
        <time>2011-10-02T07:41:15Z</time>
      </trkpt>
      <trkpt lat="44.83389" lon="5.43828">
        <ele>1584.5970459</ele>
        <time>2011-10-02T07:41:24Z</time>
      </trkpt>
      <trkpt lat="44.83393" lon="5.43843">
        <ele>1585.9699707</ele>
        <time>2011-10-02T07:41:32Z</time>
      </trkpt>
      <trkpt lat="44.83395" lon="5.43851">
        <ele>1587.0129395</ele>
        <time>2011-10-02T07:41:37Z</time>
      </trkpt>
      <trkpt lat="44.83397" lon="5.43867">
        <ele>1588.6779785</ele>
        <time>2011-10-02T07:41:45Z</time>
      </trkpt>
      <trkpt lat="44.83396" lon="5.43878">
        <ele>1590.1429443</ele>
        <time>2011-10-02T07:41:52Z</time>
      </trkpt>
      <trkpt lat="44.83396" lon="5.43878">
        <ele>1590.7819824</ele>
        <time>2011-10-02T07:41:56Z</time>
      </trkpt>
      <trkpt lat="44.83397" lon="5.43879">
        <ele>1591.0830078</ele>
        <time>2011-10-02T07:41:59Z</time>
      </trkpt>
      <trkpt lat="44.83395" lon="5.43888">
        <ele>1592.2519531</ele>
        <time>2011-10-02T07:42:07Z</time>
      </trkpt>
      <trkpt lat="44.83394" lon="5.43896">
        <ele>1593.7550049</ele>
        <time>2011-10-02T07:42:16Z</time>
      </trkpt>
      <trkpt lat="44.83394" lon="5.43905">
        <ele>1595.6729736</ele>
        <time>2011-10-02T07:42:25Z</time>
      </trkpt>
      <trkpt lat="44.83392" lon="5.43915">
        <ele>1597.2459717</ele>
        <time>2011-10-02T07:42:34Z</time>
      </trkpt>
      <trkpt lat="44.83392" lon="5.43927">
        <ele>1598.9090576</ele>
        <time>2011-10-02T07:42:44Z</time>
      </trkpt>
      <trkpt lat="44.83392" lon="5.4394">
        <ele>1601.1419678</ele>
        <time>2011-10-02T07:42:55Z</time>
      </trkpt>
      <trkpt lat="44.83391" lon="5.43953">
        <ele>1602.8570557</ele>
        <time>2011-10-02T07:43:06Z</time>
      </trkpt>
      <trkpt lat="44.83388" lon="5.43965">
        <ele>1604.8609619</ele>
        <time>2011-10-02T07:43:16Z</time>
      </trkpt>
      <trkpt lat="44.83384" lon="5.43976">
        <ele>1607.1080322</ele>
        <time>2011-10-02T07:43:26Z</time>
      </trkpt>
      <trkpt lat="44.83381" lon="5.43991">
        <ele>1609.1459961</ele>
        <time>2011-10-02T07:43:38Z</time>
      </trkpt>
      <trkpt lat="44.83377" lon="5.44005">
        <ele>1610.631958</ele>
        <time>2011-10-02T07:43:49Z</time>
      </trkpt>
      <trkpt lat="44.83376" lon="5.44008">
        <ele>1610.9620361</ele>
        <time>2011-10-02T07:43:53Z</time>
      </trkpt>
      <trkpt lat="44.83378" lon="5.44014">
        <ele>1611.5310059</ele>
        <time>2011-10-02T07:44:00Z</time>
      </trkpt>
      <trkpt lat="44.83379" lon="5.44013">
        <ele>1610.7939453</ele>
        <time>2011-10-02T07:44:07Z</time>
      </trkpt>
      <trkpt lat="44.83378" lon="5.44011">
        <ele>1610.9749756</ele>
        <time>2011-10-02T07:45:54Z</time>
      </trkpt>
      <trkpt lat="44.83374" lon="5.44015">
        <ele>1611.7719727</ele>
        <time>2011-10-02T07:46:03Z</time>
      </trkpt>
      <trkpt lat="44.83368" lon="5.4402">
        <ele>1612.31604</ele>
        <time>2011-10-02T07:47:45Z</time>
      </trkpt>
      <trkpt lat="44.83358" lon="5.44032">
        <ele>1611.8809814</ele>
        <time>2011-10-02T07:47:53Z</time>
      </trkpt>
      <trkpt lat="44.83348" lon="5.44039">
        <ele>1611.7070313</ele>
        <time>2011-10-02T07:47:57Z</time>
      </trkpt>
      <trkpt lat="44.83334" lon="5.44037">
        <ele>1610.81604</ele>
        <time>2011-10-02T07:48:01Z</time>
      </trkpt>
      <trkpt lat="44.83323" lon="5.44037">
        <ele>1610.3170166</ele>
        <time>2011-10-02T07:48:05Z</time>
      </trkpt>
      <trkpt lat="44.83311" lon="5.44041">
        <ele>1611.7060547</ele>
        <time>2011-10-02T07:48:12Z</time>
      </trkpt>
      <trkpt lat="44.833" lon="5.44049">
        <ele>1613.3570557</ele>
        <time>2011-10-02T07:48:20Z</time>
      </trkpt>
      <trkpt lat="44.83286" lon="5.44059">
        <ele>1614.2769775</ele>
        <time>2011-10-02T07:48:29Z</time>
      </trkpt>
      <trkpt lat="44.83273" lon="5.44063">
        <ele>1614.0129395</ele>
        <time>2011-10-02T07:48:35Z</time>
      </trkpt>
      <trkpt lat="44.83264" lon="5.44062">
        <ele>1613.3659668</ele>
        <time>2011-10-02T07:48:37Z</time>
      </trkpt>
      <trkpt lat="44.83247" lon="5.44064">
        <ele>1611.947998</ele>
        <time>2011-10-02T07:48:41Z</time>
      </trkpt>
      <trkpt lat="44.83235" lon="5.4407">
        <ele>1612.5030518</ele>
        <time>2011-10-02T07:48:48Z</time>
      </trkpt>
      <trkpt lat="44.8323" lon="5.44086">
        <ele>1612.7889404</ele>
        <time>2011-10-02T07:48:53Z</time>
      </trkpt>
      <trkpt lat="44.83229" lon="5.4411">
        <ele>1612.0300293</ele>
        <time>2011-10-02T07:48:57Z</time>
      </trkpt>
      <trkpt lat="44.83225" lon="5.44148">
        <ele>1608.9350586</ele>
        <time>2011-10-02T07:49:02Z</time>
      </trkpt>
      <trkpt lat="44.83223" lon="5.44173">
        <ele>1604.8320313</ele>
        <time>2011-10-02T07:49:06Z</time>
      </trkpt>
      <trkpt lat="44.83219" lon="5.44194">
        <ele>1601.605957</ele>
        <time>2011-10-02T07:49:10Z</time>
      </trkpt>
      <trkpt lat="44.83213" lon="5.44217">
        <ele>1599.0040283</ele>
        <time>2011-10-02T07:49:14Z</time>
      </trkpt>
      <trkpt lat="44.83213" lon="5.44223">
        <ele>1598.5429688</ele>
        <time>2011-10-02T07:49:15Z</time>
      </trkpt>
      <trkpt lat="44.83217" lon="5.44239">
        <ele>1597.2889404</ele>
        <time>2011-10-02T07:49:20Z</time>
      </trkpt>
      <trkpt lat="44.8322" lon="5.44259">
        <ele>1598.7600098</ele>
        <time>2011-10-02T07:49:27Z</time>
      </trkpt>
      <trkpt lat="44.83219" lon="5.44276">
        <ele>1602.0500488</ele>
        <time>2011-10-02T07:49:35Z</time>
      </trkpt>
      <trkpt lat="44.83216" lon="5.443">
        <ele>1604.473999</ele>
        <time>2011-10-02T07:49:45Z</time>
      </trkpt>
      <trkpt lat="44.83213" lon="5.44317">
        <ele>1605.9439697</ele>
        <time>2011-10-02T07:49:53Z</time>
      </trkpt>
      <trkpt lat="44.83212" lon="5.44338">
        <ele>1607.4389648</ele>
        <time>2011-10-02T07:50:02Z</time>
      </trkpt>
      <trkpt lat="44.8321" lon="5.44355">
        <ele>1607.9100342</ele>
        <time>2011-10-02T07:50:10Z</time>
      </trkpt>
      <trkpt lat="44.83213" lon="5.44361">
        <ele>1607.9370117</ele>
        <time>2011-10-02T07:50:15Z</time>
      </trkpt>
      <trkpt lat="44.83216" lon="5.44363">
        <ele>1608.0129395</ele>
        <time>2011-10-02T07:50:17Z</time>
      </trkpt>
      <trkpt lat="44.83215" lon="5.44371">
        <ele>1608.1650391</ele>
        <time>2011-10-02T07:50:22Z</time>
      </trkpt>
      <trkpt lat="44.83212" lon="5.44382">
        <ele>1607.8690186</ele>
        <time>2011-10-02T07:50:27Z</time>
      </trkpt>
      <trkpt lat="44.8321" lon="5.44382">
        <ele>1607.7399902</ele>
        <time>2011-10-02T07:50:28Z</time>
      </trkpt>
      <trkpt lat="44.83207" lon="5.44382">
        <ele>1607.5019531</ele>
        <time>2011-10-02T07:50:30Z</time>
      </trkpt>
      <trkpt lat="44.83202" lon="5.44395">
        <ele>1606.6020508</ele>
        <time>2011-10-02T07:50:34Z</time>
      </trkpt>
      <trkpt lat="44.83203" lon="5.44432">
        <ele>1604.4219971</ele>
        <time>2011-10-02T07:50:41Z</time>
      </trkpt>
      <trkpt lat="44.832" lon="5.44462">
        <ele>1603.6660156</ele>
        <time>2011-10-02T07:50:46Z</time>
      </trkpt>
      <trkpt lat="44.83199" lon="5.4447">
        <ele>1603.4530029</ele>
        <time>2011-10-02T07:50:47Z</time>
      </trkpt>
      <trkpt lat="44.83197" lon="5.44496">
        <ele>1602.3869629</ele>
        <time>2011-10-02T07:50:50Z</time>
      </trkpt>
      <trkpt lat="44.83189" lon="5.44547">
        <ele>1598.5610352</ele>
        <time>2011-10-02T07:50:55Z</time>
      </trkpt>
      <trkpt lat="44.83189" lon="5.44579">
        <ele>1595.7180176</ele>
        <time>2011-10-02T07:50:59Z</time>
      </trkpt>
      <trkpt lat="44.83192" lon="5.44609">
        <ele>1592.1639404</ele>
        <time>2011-10-02T07:51:03Z</time>
      </trkpt>
      <trkpt lat="44.83197" lon="5.44635">
        <ele>1588.4790039</ele>
        <time>2011-10-02T07:51:08Z</time>
      </trkpt>
      <trkpt lat="44.83196" lon="5.4466">
        <ele>1586.8449707</ele>
        <time>2011-10-02T07:51:12Z</time>
      </trkpt>
      <trkpt lat="44.83191" lon="5.44683">
        <ele>1586.2220459</ele>
        <time>2011-10-02T07:51:18Z</time>
      </trkpt>
      <trkpt lat="44.83183" lon="5.44704">
        <ele>1587.0970459</ele>
        <time>2011-10-02T07:51:24Z</time>
      </trkpt>
      <trkpt lat="44.83176" lon="5.44719">
        <ele>1587.842041</ele>
        <time>2011-10-02T07:51:29Z</time>
      </trkpt>
      <trkpt lat="44.83165" lon="5.44739">
        <ele>1588.4019775</ele>
        <time>2011-10-02T07:51:35Z</time>
      </trkpt>
      <trkpt lat="44.83157" lon="5.4477">
        <ele>1587.9990234</ele>
        <time>2011-10-02T07:51:41Z</time>
      </trkpt>
      <trkpt lat="44.83144" lon="5.44801">
        <ele>1584.9730225</ele>
        <time>2011-10-02T07:51:47Z</time>
      </trkpt>
      <trkpt lat="44.83137" lon="5.44813">
        <ele>1583.4239502</ele>
        <time>2011-10-02T07:51:50Z</time>
      </trkpt>
      <trkpt lat="44.83133" lon="5.44851">
        <ele>1579.9029541</ele>
        <time>2011-10-02T07:51:55Z</time>
      </trkpt>
      <trkpt lat="44.83126" lon="5.44888">
        <ele>1577.9649658</ele>
        <time>2011-10-02T07:52:00Z</time>
      </trkpt>
      <trkpt lat="44.83123" lon="5.4491">
        <ele>1577.25</ele>
        <time>2011-10-02T07:52:03Z</time>
      </trkpt>
      <trkpt lat="44.83119" lon="5.44934">
        <ele>1576.7750244</ele>
        <time>2011-10-02T07:52:07Z</time>
      </trkpt>
      <trkpt lat="44.83105" lon="5.44971">
        <ele>1575.3780518</ele>
        <time>2011-10-02T07:52:13Z</time>
      </trkpt>
      <trkpt lat="44.83096" lon="5.44989">
        <ele>1574.5360107</ele>
        <time>2011-10-02T07:52:16Z</time>
      </trkpt>
      <trkpt lat="44.83085" lon="5.45018">
        <ele>1572.4620361</ele>
        <time>2011-10-02T07:52:20Z</time>
      </trkpt>
      <trkpt lat="44.83054" lon="5.45069">
        <ele>1568.4179688</ele>
        <time>2011-10-02T07:52:27Z</time>
      </trkpt>
      <trkpt lat="44.83032" lon="5.45112">
        <ele>1564.651001</ele>
        <time>2011-10-02T07:52:32Z</time>
      </trkpt>
      <trkpt lat="44.83023" lon="5.45128">
        <ele>1562.2330322</ele>
        <time>2011-10-02T07:52:34Z</time>
      </trkpt>
      <trkpt lat="44.83012" lon="5.45142">
        <ele>1559.3929443</ele>
        <time>2011-10-02T07:52:36Z</time>
      </trkpt>
      <trkpt lat="44.82989" lon="5.4517">
        <ele>1554.1379395</ele>
        <time>2011-10-02T07:52:40Z</time>
      </trkpt>
      <trkpt lat="44.82963" lon="5.45217">
        <ele>1546.9229736</ele>
        <time>2011-10-02T07:52:46Z</time>
      </trkpt>
      <trkpt lat="44.82954" lon="5.45235">
        <ele>1543.2519531</ele>
        <time>2011-10-02T07:52:48Z</time>
      </trkpt>
      <trkpt lat="44.82953" lon="5.45274">
        <ele>1535.7110596</ele>
        <time>2011-10-02T07:52:52Z</time>
      </trkpt>
      <trkpt lat="44.82957" lon="5.45283">
        <ele>1534.006958</ele>
        <time>2011-10-02T07:52:53Z</time>
      </trkpt>
      <trkpt lat="44.82969" lon="5.45301">
        <ele>1530.8280029</ele>
        <time>2011-10-02T07:52:55Z</time>
      </trkpt>
      <trkpt lat="44.82989" lon="5.45337">
        <ele>1526.0279541</ele>
        <time>2011-10-02T07:53:00Z</time>
      </trkpt>
      <trkpt lat="44.82996" lon="5.45349">
        <ele>1523.5749512</ele>
        <time>2011-10-02T07:53:04Z</time>
      </trkpt>
      <trkpt lat="44.83002" lon="5.4535">
        <ele>1521.6409912</ele>
        <time>2011-10-02T07:55:28Z</time>
      </trkpt>
      <trkpt lat="44.82994" lon="5.45351">
        <ele>1521.2919922</ele>
        <time>2011-10-02T07:55:32Z</time>
      </trkpt>
      <trkpt lat="44.82984" lon="5.45355">
        <ele>1520.6309814</ele>
        <time>2011-10-02T07:55:34Z</time>
      </trkpt>
      <trkpt lat="44.82955" lon="5.45371">
        <ele>1518.572998</ele>
        <time>2011-10-02T07:55:39Z</time>
      </trkpt>
      <trkpt lat="44.8295" lon="5.45377">
        <ele>1517.9019775</ele>
        <time>2011-10-02T07:55:40Z</time>
      </trkpt>
      <trkpt lat="44.82935" lon="5.45393">
        <ele>1515.8029785</ele>
        <time>2011-10-02T07:55:43Z</time>
      </trkpt>
      <trkpt lat="44.82914" lon="5.45408">
        <ele>1511.9909668</ele>
        <time>2011-10-02T07:55:47Z</time>
      </trkpt>
      <trkpt lat="44.8289" lon="5.45415">
        <ele>1507.5419922</ele>
        <time>2011-10-02T07:55:52Z</time>
      </trkpt>
      <trkpt lat="44.82877" lon="5.45428">
        <ele>1505.5980225</ele>
        <time>2011-10-02T07:55:56Z</time>
      </trkpt>
      <trkpt lat="44.82867" lon="5.45437">
        <ele>1503.8129883</ele>
        <time>2011-10-02T07:56:00Z</time>
      </trkpt>
      <trkpt lat="44.82861" lon="5.45442">
        <ele>1502.3809814</ele>
        <time>2011-10-02T07:56:05Z</time>
      </trkpt>
      <trkpt lat="44.82857" lon="5.45447">
        <ele>1501.8859863</ele>
        <time>2011-10-02T07:56:07Z</time>
      </trkpt>
      <trkpt lat="44.82848" lon="5.45455">
        <ele>1499.9630127</ele>
        <time>2011-10-02T07:56:11Z</time>
      </trkpt>
      <trkpt lat="44.82834" lon="5.45479">
        <ele>1494.9680176</ele>
        <time>2011-10-02T07:56:17Z</time>
      </trkpt>
      <trkpt lat="44.82822" lon="5.45497">
        <ele>1490.3599854</ele>
        <time>2011-10-02T07:56:22Z</time>
      </trkpt>
      <trkpt lat="44.8281" lon="5.45507">
        <ele>1485.6479492</ele>
        <time>2011-10-02T07:56:27Z</time>
      </trkpt>
      <trkpt lat="44.82807" lon="5.45508">
        <ele>1485.6379395</ele>
        <time>2011-10-02T07:56:28Z</time>
      </trkpt>
      <trkpt lat="44.82797" lon="5.45518">
        <ele>1481.7049561</ele>
        <time>2011-10-02T07:56:32Z</time>
      </trkpt>
      <trkpt lat="44.82795" lon="5.45522">
        <ele>1480.7259521</ele>
        <time>2011-10-02T07:56:33Z</time>
      </trkpt>
      <trkpt lat="44.82776" lon="5.45548">
        <ele>1475.2469482</ele>
        <time>2011-10-02T07:56:38Z</time>
      </trkpt>
      <trkpt lat="44.82771" lon="5.45554">
        <ele>1474.0689697</ele>
        <time>2011-10-02T07:56:39Z</time>
      </trkpt>
      <trkpt lat="44.82753" lon="5.45569">
        <ele>1469.151001</ele>
        <time>2011-10-02T07:56:43Z</time>
      </trkpt>
      <trkpt lat="44.82738" lon="5.4558">
        <ele>1464.68396</ele>
        <time>2011-10-02T07:56:47Z</time>
      </trkpt>
      <trkpt lat="44.82725" lon="5.45583">
        <ele>1460.3909912</ele>
        <time>2011-10-02T07:56:51Z</time>
      </trkpt>
      <trkpt lat="44.8272" lon="5.45589">
        <ele>1458.5689697</ele>
        <time>2011-10-02T07:56:54Z</time>
      </trkpt>
      <trkpt lat="44.82719" lon="5.45589">
        <ele>1457.7700195</ele>
        <time>2011-10-02T07:56:55Z</time>
      </trkpt>
      <trkpt lat="44.82719" lon="5.4558">
        <ele>1455.0350342</ele>
        <time>2011-10-02T07:57:00Z</time>
      </trkpt>
      <trkpt lat="44.82708" lon="5.45584">
        <ele>1452.6219482</ele>
        <time>2011-10-02T07:57:04Z</time>
      </trkpt>
      <trkpt lat="44.82693" lon="5.45589">
        <ele>1448.1290283</ele>
        <time>2011-10-02T07:57:09Z</time>
      </trkpt>
      <trkpt lat="44.82683" lon="5.45598">
        <ele>1445.0980225</ele>
        <time>2011-10-02T07:57:13Z</time>
      </trkpt>
      <trkpt lat="44.82682" lon="5.456">
        <ele>1444.572998</ele>
        <time>2011-10-02T07:57:14Z</time>
      </trkpt>
      <trkpt lat="44.82668" lon="5.45608">
        <ele>1442.9110107</ele>
        <time>2011-10-02T07:57:20Z</time>
      </trkpt>
      <trkpt lat="44.82664" lon="5.4561">
        <ele>1442.473999</ele>
        <time>2011-10-02T07:57:21Z</time>
      </trkpt>
      <trkpt lat="44.82648" lon="5.4562">
        <ele>1439.322998</ele>
        <time>2011-10-02T07:57:26Z</time>
      </trkpt>
      <trkpt lat="44.82637" lon="5.45632">
        <ele>1437.256958</ele>
        <time>2011-10-02T07:57:30Z</time>
      </trkpt>
      <trkpt lat="44.82623" lon="5.45645">
        <ele>1435.8170166</ele>
        <time>2011-10-02T07:57:34Z</time>
      </trkpt>
      <trkpt lat="44.82614" lon="5.45652">
        <ele>1434.0479736</ele>
        <time>2011-10-02T07:57:37Z</time>
      </trkpt>
      <trkpt lat="44.82599" lon="5.45668">
        <ele>1430.1550293</ele>
        <time>2011-10-02T07:57:41Z</time>
      </trkpt>
      <trkpt lat="44.82584" lon="5.45681">
        <ele>1426.5150146</ele>
        <time>2011-10-02T07:57:45Z</time>
      </trkpt>
      <trkpt lat="44.82574" lon="5.45685">
        <ele>1422.230957</ele>
        <time>2011-10-02T07:57:49Z</time>
      </trkpt>
      <trkpt lat="44.82577" lon="5.45686">
        <ele>1420.5970459</ele>
        <time>2011-10-02T07:57:55Z</time>
      </trkpt>
      <trkpt lat="44.82574" lon="5.45686">
        <ele>1420.6149902</ele>
        <time>2011-10-02T07:58:01Z</time>
      </trkpt>
      <trkpt lat="44.82568" lon="5.45694">
        <ele>1420.6020508</ele>
        <time>2011-10-02T07:58:08Z</time>
      </trkpt>
      <trkpt lat="44.82559" lon="5.45697">
        <ele>1420.7850342</ele>
        <time>2011-10-02T07:58:12Z</time>
      </trkpt>
      <trkpt lat="44.82548" lon="5.45711">
        <ele>1420.9949951</ele>
        <time>2011-10-02T07:58:18Z</time>
      </trkpt>
      <trkpt lat="44.82548" lon="5.45712">
        <ele>1420.2939453</ele>
        <time>2011-10-02T07:58:24Z</time>
      </trkpt>
      <trkpt lat="44.82543" lon="5.45718">
        <ele>1420.2419434</ele>
        <time>2011-10-02T07:58:36Z</time>
      </trkpt>
      <trkpt lat="44.82538" lon="5.45731">
        <ele>1420.7080078</ele>
        <time>2011-10-02T07:58:42Z</time>
      </trkpt>
      <trkpt lat="44.82533" lon="5.45752">
        <ele>1421.0050049</ele>
        <time>2011-10-02T07:58:48Z</time>
      </trkpt>
      <trkpt lat="44.82524" lon="5.45781">
        <ele>1420.6899414</ele>
        <time>2011-10-02T07:58:53Z</time>
      </trkpt>
      <trkpt lat="44.82517" lon="5.45803">
        <ele>1421.1540527</ele>
        <time>2011-10-02T07:58:58Z</time>
      </trkpt>
      <trkpt lat="44.82513" lon="5.45818">
        <ele>1422.7089844</ele>
        <time>2011-10-02T07:59:03Z</time>
      </trkpt>
      <trkpt lat="44.82507" lon="5.4583">
        <ele>1423.9389648</ele>
        <time>2011-10-02T07:59:07Z</time>
      </trkpt>
      <trkpt lat="44.82497" lon="5.45847">
        <ele>1425.3480225</ele>
        <time>2011-10-02T07:59:13Z</time>
      </trkpt>
      <trkpt lat="44.82494" lon="5.45864">
        <ele>1426.1009521</ele>
        <time>2011-10-02T07:59:18Z</time>
      </trkpt>
      <trkpt lat="44.82484" lon="5.45873">
        <ele>1425.5889893</ele>
        <time>2011-10-02T07:59:22Z</time>
      </trkpt>
      <trkpt lat="44.82477" lon="5.45876">
        <ele>1425.0439453</ele>
        <time>2011-10-02T07:59:24Z</time>
      </trkpt>
      <trkpt lat="44.82465" lon="5.45885">
        <ele>1424.019043</ele>
        <time>2011-10-02T07:59:31Z</time>
      </trkpt>
      <trkpt lat="44.82462" lon="5.45886">
        <ele>1424.0300293</ele>
        <time>2011-10-02T07:59:32Z</time>
      </trkpt>
      <trkpt lat="44.82443" lon="5.45899">
        <ele>1423.2740479</ele>
        <time>2011-10-02T07:59:37Z</time>
      </trkpt>
      <trkpt lat="44.82434" lon="5.45912">
        <ele>1422.5219727</ele>
        <time>2011-10-02T07:59:41Z</time>
      </trkpt>
      <trkpt lat="44.82432" lon="5.45915">
        <ele>1422.4680176</ele>
        <time>2011-10-02T07:59:42Z</time>
      </trkpt>
      <trkpt lat="44.82419" lon="5.45929">
        <ele>1423.7359619</ele>
        <time>2011-10-02T07:59:48Z</time>
      </trkpt>
      <trkpt lat="44.82412" lon="5.45935">
        <ele>1424.3139648</ele>
        <time>2011-10-02T07:59:51Z</time>
      </trkpt>
      <trkpt lat="44.82404" lon="5.45951">
        <ele>1424.7810059</ele>
        <time>2011-10-02T07:59:56Z</time>
      </trkpt>
      <trkpt lat="44.82401" lon="5.45954">
        <ele>1425.243042</ele>
        <time>2011-10-02T08:00:00Z</time>
      </trkpt>
      <trkpt lat="44.82399" lon="5.45953">
        <ele>1425.7480469</ele>
        <time>2011-10-02T08:00:06Z</time>
      </trkpt>
      <trkpt lat="44.82404" lon="5.45959">
        <ele>1425.8570557</ele>
        <time>2011-10-02T08:00:22Z</time>
      </trkpt>
      <trkpt lat="44.82394" lon="5.45939">
        <ele>1426.1409912</ele>
        <time>2011-10-02T08:00:47Z</time>
      </trkpt>
      <trkpt lat="44.82396" lon="5.45935">
        <ele>1426.3979492</ele>
        <time>2011-10-02T08:00:54Z</time>
      </trkpt>
      <trkpt lat="44.82393" lon="5.45933">
        <ele>1426.5839844</ele>
        <time>2011-10-02T08:01:02Z</time>
      </trkpt>
      <trkpt lat="44.82393" lon="5.45933">
        <ele>1426.5839844</ele>
        <time>2011-10-02T08:01:03Z</time>
      </trkpt>
      <trkpt lat="44.82376" lon="5.45937">
        <ele>1426.9890137</ele>
        <time>2011-10-02T08:01:08Z</time>
      </trkpt>
      <trkpt lat="44.8237" lon="5.45952">
        <ele>1427.7640381</ele>
        <time>2011-10-02T08:01:12Z</time>
      </trkpt>
      <trkpt lat="44.82359" lon="5.45963">
        <ele>1428.2709961</ele>
        <time>2011-10-02T08:01:16Z</time>
      </trkpt>
      <trkpt lat="44.82351" lon="5.45972">
        <ele>1428.368042</ele>
        <time>2011-10-02T08:01:20Z</time>
      </trkpt>
      <trkpt lat="44.82342" lon="5.45981">
        <ele>1428.4360352</ele>
        <time>2011-10-02T08:01:25Z</time>
      </trkpt>
      <trkpt lat="44.82328" lon="5.45993">
        <ele>1429.4489746</ele>
        <time>2011-10-02T08:01:31Z</time>
      </trkpt>
      <trkpt lat="44.82322" lon="5.46">
        <ele>1430.0710449</ele>
        <time>2011-10-02T08:01:34Z</time>
      </trkpt>
      <trkpt lat="44.82322" lon="5.46023">
        <ele>1431.4499512</ele>
        <time>2011-10-02T08:01:39Z</time>
      </trkpt>
      <trkpt lat="44.82321" lon="5.46052">
        <ele>1432.1390381</ele>
        <time>2011-10-02T08:01:44Z</time>
      </trkpt>
      <trkpt lat="44.82321" lon="5.46071">
        <ele>1432.2530518</ele>
        <time>2011-10-02T08:01:48Z</time>
      </trkpt>
      <trkpt lat="44.82321" lon="5.46081">
        <ele>1432.0849609</ele>
        <time>2011-10-02T08:01:50Z</time>
      </trkpt>
      <trkpt lat="44.82326" lon="5.46105">
        <ele>1431.7249756</ele>
        <time>2011-10-02T08:01:56Z</time>
      </trkpt>
      <trkpt lat="44.82338" lon="5.46127">
        <ele>1432.1860352</ele>
        <time>2011-10-02T08:02:02Z</time>
      </trkpt>
      <trkpt lat="44.82346" lon="5.46144">
        <ele>1433.4780273</ele>
        <time>2011-10-02T08:02:07Z</time>
      </trkpt>
      <trkpt lat="44.82349" lon="5.46157">
        <ele>1434.4580078</ele>
        <time>2011-10-02T08:02:11Z</time>
      </trkpt>
      <trkpt lat="44.82347" lon="5.46177">
        <ele>1435.1190186</ele>
        <time>2011-10-02T08:02:17Z</time>
      </trkpt>
      <trkpt lat="44.82349" lon="5.46188">
        <ele>1435.4899902</ele>
        <time>2011-10-02T08:02:21Z</time>
      </trkpt>
      <trkpt lat="44.82348" lon="5.4619">
        <ele>1435.5279541</ele>
        <time>2011-10-02T08:02:22Z</time>
      </trkpt>
      <trkpt lat="44.82347" lon="5.46206">
        <ele>1435.8330078</ele>
        <time>2011-10-02T08:02:27Z</time>
      </trkpt>
      <trkpt lat="44.82347" lon="5.46209">
        <ele>1435.8809814</ele>
        <time>2011-10-02T08:02:28Z</time>
      </trkpt>
      <trkpt lat="44.8234" lon="5.46232">
        <ele>1435.9179688</ele>
        <time>2011-10-02T08:02:34Z</time>
      </trkpt>
      <trkpt lat="44.82337" lon="5.46247">
        <ele>1435.5450439</ele>
        <time>2011-10-02T08:02:39Z</time>
      </trkpt>
      <trkpt lat="44.82333" lon="5.46267">
        <ele>1435.348999</ele>
        <time>2011-10-02T08:02:44Z</time>
      </trkpt>
      <trkpt lat="44.82328" lon="5.46284">
        <ele>1435.9420166</ele>
        <time>2011-10-02T08:02:48Z</time>
      </trkpt>
      <trkpt lat="44.82322" lon="5.46298">
        <ele>1436.8260498</ele>
        <time>2011-10-02T08:02:52Z</time>
      </trkpt>
      <trkpt lat="44.82317" lon="5.4632">
        <ele>1438.0649414</ele>
        <time>2011-10-02T08:02:59Z</time>
      </trkpt>
      <trkpt lat="44.82318" lon="5.46335">
        <ele>1438.3409424</ele>
        <time>2011-10-02T08:03:03Z</time>
      </trkpt>
      <trkpt lat="44.82323" lon="5.46358">
        <ele>1439.3649902</ele>
        <time>2011-10-02T08:03:09Z</time>
      </trkpt>
      <trkpt lat="44.82325" lon="5.46364">
        <ele>1439.6009521</ele>
        <time>2011-10-02T08:03:11Z</time>
      </trkpt>
      <trkpt lat="44.82325" lon="5.46375">
        <ele>1440.6219482</ele>
        <time>2011-10-02T08:03:15Z</time>
      </trkpt>
      <trkpt lat="44.82326" lon="5.46391">
        <ele>1441.7659912</ele>
        <time>2011-10-02T08:03:20Z</time>
      </trkpt>
      <trkpt lat="44.82324" lon="5.46411">
        <ele>1442.6739502</ele>
        <time>2011-10-02T08:03:26Z</time>
      </trkpt>
      <trkpt lat="44.82314" lon="5.46433">
        <ele>1442.3800049</ele>
        <time>2011-10-02T08:03:31Z</time>
      </trkpt>
      <trkpt lat="44.8231" lon="5.4645">
        <ele>1441.7449951</ele>
        <time>2011-10-02T08:03:36Z</time>
      </trkpt>
      <trkpt lat="44.82311" lon="5.46462">
        <ele>1441.9709473</ele>
        <time>2011-10-02T08:03:41Z</time>
      </trkpt>
      <trkpt lat="44.82309" lon="5.46471">
        <ele>1442.0820313</ele>
        <time>2011-10-02T08:03:44Z</time>
      </trkpt>
      <trkpt lat="44.82296" lon="5.46494">
        <ele>1441.6300049</ele>
        <time>2011-10-02T08:03:50Z</time>
      </trkpt>
      <trkpt lat="44.82288" lon="5.46506">
        <ele>1441.5949707</ele>
        <time>2011-10-02T08:03:53Z</time>
      </trkpt>
      <trkpt lat="44.82276" lon="5.46517">
        <ele>1441.7550049</ele>
        <time>2011-10-02T08:03:58Z</time>
      </trkpt>
      <trkpt lat="44.8226" lon="5.46531">
        <ele>1441.9730225</ele>
        <time>2011-10-02T08:04:03Z</time>
      </trkpt>
      <trkpt lat="44.82252" lon="5.4654">
        <ele>1441.9909668</ele>
        <time>2011-10-02T08:04:05Z</time>
      </trkpt>
      <trkpt lat="44.82229" lon="5.46569">
        <ele>1441.131958</ele>
        <time>2011-10-02T08:04:11Z</time>
      </trkpt>
      <trkpt lat="44.82209" lon="5.46596">
        <ele>1439.631958</ele>
        <time>2011-10-02T08:04:17Z</time>
      </trkpt>
      <trkpt lat="44.82198" lon="5.46614">
        <ele>1439.18396</ele>
        <time>2011-10-02T08:04:21Z</time>
      </trkpt>
      <trkpt lat="44.82187" lon="5.46643">
        <ele>1438.7480469</ele>
        <time>2011-10-02T08:04:26Z</time>
      </trkpt>
      <trkpt lat="44.82177" lon="5.46668">
        <ele>1439.2490234</ele>
        <time>2011-10-02T08:04:32Z</time>
      </trkpt>
      <trkpt lat="44.82175" lon="5.46698">
        <ele>1440.4659424</ele>
        <time>2011-10-02T08:04:37Z</time>
      </trkpt>
      <trkpt lat="44.82173" lon="5.46728">
        <ele>1442.5860596</ele>
        <time>2011-10-02T08:04:43Z</time>
      </trkpt>
      <trkpt lat="44.82176" lon="5.46752">
        <ele>1442.6999512</ele>
        <time>2011-10-02T08:04:47Z</time>
      </trkpt>
      <trkpt lat="44.82167" lon="5.46782">
        <ele>1441.7359619</ele>
        <time>2011-10-02T08:04:52Z</time>
      </trkpt>
      <trkpt lat="44.82164" lon="5.4679">
        <ele>1441.4699707</ele>
        <time>2011-10-02T08:04:53Z</time>
      </trkpt>
      <trkpt lat="44.82156" lon="5.46827">
        <ele>1440.6280518</ele>
        <time>2011-10-02T08:04:58Z</time>
      </trkpt>
      <trkpt lat="44.82152" lon="5.46846">
        <ele>1440.8549805</ele>
        <time>2011-10-02T08:05:02Z</time>
      </trkpt>
      <trkpt lat="44.82143" lon="5.46864">
        <ele>1441.7459717</ele>
        <time>2011-10-02T08:05:07Z</time>
      </trkpt>
      <trkpt lat="44.82131" lon="5.46871">
        <ele>1441.4040527</ele>
        <time>2011-10-02T08:05:10Z</time>
      </trkpt>
      <trkpt lat="44.82108" lon="5.46863">
        <ele>1439.4780273</ele>
        <time>2011-10-02T08:05:14Z</time>
      </trkpt>
      <trkpt lat="44.82085" lon="5.46867">
        <ele>1435.8540039</ele>
        <time>2011-10-02T08:05:19Z</time>
      </trkpt>
      <trkpt lat="44.82076" lon="5.46875">
        <ele>1435.1149902</ele>
        <time>2011-10-02T08:05:21Z</time>
      </trkpt>
      <trkpt lat="44.82069" lon="5.46891">
        <ele>1433.1300049</ele>
        <time>2011-10-02T08:05:24Z</time>
      </trkpt>
      <trkpt lat="44.82076" lon="5.46918">
        <ele>1430.8260498</ele>
        <time>2011-10-02T08:05:28Z</time>
      </trkpt>
      <trkpt lat="44.82082" lon="5.46942">
        <ele>1429.7540283</ele>
        <time>2011-10-02T08:05:30Z</time>
      </trkpt>
      <trkpt lat="44.82091" lon="5.47">
        <ele>1427.8929443</ele>
        <time>2011-10-02T08:05:35Z</time>
      </trkpt>
      <trkpt lat="44.82088" lon="5.47026">
        <ele>1427.0710449</ele>
        <time>2011-10-02T08:05:39Z</time>
      </trkpt>
      <trkpt lat="44.82085" lon="5.47076">
        <ele>1423.4730225</ele>
        <time>2011-10-02T08:05:44Z</time>
      </trkpt>
      <trkpt lat="44.82082" lon="5.47096">
        <ele>1422.4069824</ele>
        <time>2011-10-02T08:05:46Z</time>
      </trkpt>
      <trkpt lat="44.82084" lon="5.47151">
        <ele>1416.8509521</ele>
        <time>2011-10-02T08:05:51Z</time>
      </trkpt>
      <trkpt lat="44.82083" lon="5.47168">
        <ele>1415.743042</ele>
        <time>2011-10-02T08:05:52Z</time>
      </trkpt>
      <trkpt lat="44.82069" lon="5.47233">
        <ele>1409.7249756</ele>
        <time>2011-10-02T08:05:57Z</time>
      </trkpt>
      <trkpt lat="44.82064" lon="5.47254">
        <ele>1407.2979736</ele>
        <time>2011-10-02T08:05:59Z</time>
      </trkpt>
      <trkpt lat="44.82058" lon="5.47278">
        <ele>1404.8719482</ele>
        <time>2011-10-02T08:06:02Z</time>
      </trkpt>
      <trkpt lat="44.82058" lon="5.47296">
        <ele>1403.5610352</ele>
        <time>2011-10-02T08:06:05Z</time>
      </trkpt>
      <trkpt lat="44.82057" lon="5.47321">
        <ele>1402.8520508</ele>
        <time>2011-10-02T08:06:10Z</time>
      </trkpt>
      <trkpt lat="44.82056" lon="5.4734">
        <ele>1402.4100342</ele>
        <time>2011-10-02T08:06:13Z</time>
      </trkpt>
      <trkpt lat="44.82074" lon="5.4737">
        <ele>1401.8370361</ele>
        <time>2011-10-02T08:06:17Z</time>
      </trkpt>
      <trkpt lat="44.82085" lon="5.47411">
        <ele>1400.7989502</ele>
        <time>2011-10-02T08:06:21Z</time>
      </trkpt>
      <trkpt lat="44.82075" lon="5.47429">
        <ele>1399.131958</ele>
        <time>2011-10-02T08:06:24Z</time>
      </trkpt>
      <trkpt lat="44.82074" lon="5.47464">
        <ele>1394.6870117</ele>
        <time>2011-10-02T08:06:28Z</time>
      </trkpt>
      <trkpt lat="44.82077" lon="5.475">
        <ele>1389.8640137</ele>
        <time>2011-10-02T08:06:31Z</time>
      </trkpt>
      <trkpt lat="44.82074" lon="5.47541">
        <ele>1382.8840332</ele>
        <time>2011-10-02T08:06:35Z</time>
      </trkpt>
      <trkpt lat="44.82072" lon="5.47562">
        <ele>1381.1199951</ele>
        <time>2011-10-02T08:06:37Z</time>
      </trkpt>
      <trkpt lat="44.82073" lon="5.47582">
        <ele>1377.7800293</ele>
        <time>2011-10-02T08:06:39Z</time>
      </trkpt>
      <trkpt lat="44.82073" lon="5.47619">
        <ele>1371.7900391</ele>
        <time>2011-10-02T08:06:43Z</time>
      </trkpt>
      <trkpt lat="44.82071" lon="5.47638">
        <ele>1369.276001</ele>
        <time>2011-10-02T08:06:45Z</time>
      </trkpt>
      <trkpt lat="44.82064" lon="5.47686">
        <ele>1362.894043</ele>
        <time>2011-10-02T08:06:50Z</time>
      </trkpt>
      <trkpt lat="44.82056" lon="5.477">
        <ele>1359.9909668</ele>
        <time>2011-10-02T08:06:54Z</time>
      </trkpt>
      <trkpt lat="44.82056" lon="5.47699">
        <ele>1359.7380371</ele>
        <time>2011-10-02T08:06:55Z</time>
      </trkpt>
      <trkpt lat="44.82053" lon="5.47695">
        <ele>1360.0880127</ele>
        <time>2011-10-02T08:07:04Z</time>
      </trkpt>
      <trkpt lat="44.82057" lon="5.47693">
        <ele>1359.7039795</ele>
        <time>2011-10-02T08:07:41Z</time>
      </trkpt>
      <trkpt lat="44.82053" lon="5.47694">
        <ele>1359.1619873</ele>
        <time>2011-10-02T08:07:48Z</time>
      </trkpt>
      <trkpt lat="44.82053" lon="5.47696">
        <ele>1358.8010254</ele>
        <time>2011-10-02T08:08:00Z</time>
      </trkpt>
      <trkpt lat="44.82045" lon="5.47691">
        <ele>1357.68396</ele>
        <time>2011-10-02T08:11:14Z</time>
      </trkpt>
      <trkpt lat="44.82045" lon="5.47691">
        <ele>1357.644043</ele>
        <time>2011-10-02T08:11:30Z</time>
      </trkpt>
      <trkpt lat="44.82046" lon="5.47685">
        <ele>1357.2540283</ele>
        <time>2011-10-02T08:11:35Z</time>
      </trkpt>
      <trkpt lat="44.82051" lon="5.47683">
        <ele>1356.5959473</ele>
        <time>2011-10-02T08:13:29Z</time>
      </trkpt>
      <trkpt lat="44.82045" lon="5.47667">
        <ele>1355.5100098</ele>
        <time>2011-10-02T08:13:35Z</time>
      </trkpt>
      <trkpt lat="44.82034" lon="5.47657">
        <ele>1353.7070313</ele>
        <time>2011-10-02T08:13:39Z</time>
      </trkpt>
      <trkpt lat="44.82018" lon="5.47646">
        <ele>1351.4069824</ele>
        <time>2011-10-02T08:13:43Z</time>
      </trkpt>
      <trkpt lat="44.81998" lon="5.47619">
        <ele>1347.5100098</ele>
        <time>2011-10-02T08:13:49Z</time>
      </trkpt>
      <trkpt lat="44.81995" lon="5.47615">
        <ele>1346.6560059</ele>
        <time>2011-10-02T08:13:50Z</time>
      </trkpt>
      <trkpt lat="44.81974" lon="5.47589">
        <ele>1341.072998</ele>
        <time>2011-10-02T08:13:56Z</time>
      </trkpt>
      <trkpt lat="44.81964" lon="5.47569">
        <ele>1336.1369629</ele>
        <time>2011-10-02T08:14:01Z</time>
      </trkpt>
      <trkpt lat="44.81956" lon="5.4755">
        <ele>1332.3950195</ele>
        <time>2011-10-02T08:14:06Z</time>
      </trkpt>
      <trkpt lat="44.81947" lon="5.47529">
        <ele>1329.6870117</ele>
        <time>2011-10-02T08:14:11Z</time>
      </trkpt>
      <trkpt lat="44.81931" lon="5.47511">
        <ele>1326.2969971</ele>
        <time>2011-10-02T08:14:15Z</time>
      </trkpt>
      <trkpt lat="44.81926" lon="5.47506">
        <ele>1325.0839844</ele>
        <time>2011-10-02T08:14:16Z</time>
      </trkpt>
      <trkpt lat="44.81907" lon="5.47475">
        <ele>1316.8280029</ele>
        <time>2011-10-02T08:14:21Z</time>
      </trkpt>
      <trkpt lat="44.8189" lon="5.47441">
        <ele>1307.5019531</ele>
        <time>2011-10-02T08:14:26Z</time>
      </trkpt>
      <trkpt lat="44.81883" lon="5.47408">
        <ele>1299.0360107</ele>
        <time>2011-10-02T08:14:32Z</time>
      </trkpt>
      <trkpt lat="44.81878" lon="5.47392">
        <ele>1296.6450195</ele>
        <time>2011-10-02T08:14:35Z</time>
      </trkpt>
      <trkpt lat="44.81869" lon="5.47368">
        <ele>1291.0810547</ele>
        <time>2011-10-02T08:14:40Z</time>
      </trkpt>
      <trkpt lat="44.8186" lon="5.47346">
        <ele>1286.0159912</ele>
        <time>2011-10-02T08:14:45Z</time>
      </trkpt>
      <trkpt lat="44.81845" lon="5.47316">
        <ele>1279.6750488</ele>
        <time>2011-10-02T08:14:51Z</time>
      </trkpt>
      <trkpt lat="44.81833" lon="5.47283">
        <ele>1273.5</ele>
        <time>2011-10-02T08:14:56Z</time>
      </trkpt>
      <trkpt lat="44.81815" lon="5.47251">
        <ele>1268.3360596</ele>
        <time>2011-10-02T08:15:01Z</time>
      </trkpt>
      <trkpt lat="44.81797" lon="5.47237">
        <ele>1262.993042</ele>
        <time>2011-10-02T08:15:05Z</time>
      </trkpt>
      <trkpt lat="44.81785" lon="5.47228">
        <ele>1259.6860352</ele>
        <time>2011-10-02T08:15:08Z</time>
      </trkpt>
      <trkpt lat="44.81776" lon="5.47223">
        <ele>1257.4019775</ele>
        <time>2011-10-02T08:15:12Z</time>
      </trkpt>
      <trkpt lat="44.8177" lon="5.47221">
        <ele>1257.0909424</ele>
        <time>2011-10-02T08:15:15Z</time>
      </trkpt>
      <trkpt lat="44.81758" lon="5.47218">
        <ele>1257.9790039</ele>
        <time>2011-10-02T08:15:21Z</time>
      </trkpt>
      <trkpt lat="44.81747" lon="5.47214">
        <ele>1258.2370605</ele>
        <time>2011-10-02T08:15:26Z</time>
      </trkpt>
      <trkpt lat="44.81728" lon="5.47202">
        <ele>1257.8900146</ele>
        <time>2011-10-02T08:15:33Z</time>
      </trkpt>
      <trkpt lat="44.81709" lon="5.47187">
        <ele>1257.342041</ele>
        <time>2011-10-02T08:15:39Z</time>
      </trkpt>
      <trkpt lat="44.81689" lon="5.47172">
        <ele>1256.4050293</ele>
        <time>2011-10-02T08:15:45Z</time>
      </trkpt>
      <trkpt lat="44.81674" lon="5.4715">
        <ele>1254.868042</ele>
        <time>2011-10-02T08:15:50Z</time>
      </trkpt>
      <trkpt lat="44.81655" lon="5.47131">
        <ele>1253.1889648</ele>
        <time>2011-10-02T08:15:55Z</time>
      </trkpt>
      <trkpt lat="44.81648" lon="5.47123">
        <ele>1252.2010498</ele>
        <time>2011-10-02T08:15:57Z</time>
      </trkpt>
      <trkpt lat="44.81629" lon="5.47109">
        <ele>1249.1679688</ele>
        <time>2011-10-02T08:16:02Z</time>
      </trkpt>
      <trkpt lat="44.81613" lon="5.47094">
        <ele>1245.4329834</ele>
        <time>2011-10-02T08:16:07Z</time>
      </trkpt>
      <trkpt lat="44.81592" lon="5.47075">
        <ele>1240.8850098</ele>
        <time>2011-10-02T08:16:12Z</time>
      </trkpt>
      <trkpt lat="44.81581" lon="5.47062">
        <ele>1237.6810303</ele>
        <time>2011-10-02T08:16:15Z</time>
      </trkpt>
      <trkpt lat="44.81574" lon="5.47055">
        <ele>1236.4279785</ele>
        <time>2011-10-02T08:16:17Z</time>
      </trkpt>
      <trkpt lat="44.81557" lon="5.47039">
        <ele>1231.6230469</ele>
        <time>2011-10-02T08:16:21Z</time>
      </trkpt>
      <trkpt lat="44.81553" lon="5.47034">
        <ele>1230.2919922</ele>
        <time>2011-10-02T08:16:22Z</time>
      </trkpt>
      <trkpt lat="44.81543" lon="5.47022">
        <ele>1227.8149414</ele>
        <time>2011-10-02T08:16:24Z</time>
      </trkpt>
      <trkpt lat="44.81516" lon="5.46995">
        <ele>1220.9770508</ele>
        <time>2011-10-02T08:16:30Z</time>
      </trkpt>
      <trkpt lat="44.8151" lon="5.46991">
        <ele>1219.3769531</ele>
        <time>2011-10-02T08:16:33Z</time>
      </trkpt>
      <trkpt lat="44.81509" lon="5.46986">
        <ele>1220.7619629</ele>
        <time>2011-10-02T08:16:42Z</time>
      </trkpt>
      <trkpt lat="44.81506" lon="5.46979">
        <ele>1221.8869629</ele>
        <time>2011-10-02T08:16:49Z</time>
      </trkpt>
      <trkpt lat="44.81504" lon="5.46973">
        <ele>1222.5789795</ele>
        <time>2011-10-02T08:16:56Z</time>
      </trkpt>
      <trkpt lat="44.81501" lon="5.4697">
        <ele>1223.4229736</ele>
        <time>2011-10-02T08:17:09Z</time>
      </trkpt>
      <trkpt lat="44.81493" lon="5.46963">
        <ele>1224.3239746</ele>
        <time>2011-10-02T08:17:16Z</time>
      </trkpt>
      <trkpt lat="44.81483" lon="5.46957">
        <ele>1226.0109863</ele>
        <time>2011-10-02T08:17:23Z</time>
      </trkpt>
      <trkpt lat="44.8148" lon="5.46955">
        <ele>1226.5360107</ele>
        <time>2011-10-02T08:17:25Z</time>
      </trkpt>
      <trkpt lat="44.81472" lon="5.4695">
        <ele>1227.9090576</ele>
        <time>2011-10-02T08:17:32Z</time>
      </trkpt>
      <trkpt lat="44.81469" lon="5.46947">
        <ele>1228.4909668</ele>
        <time>2011-10-02T08:17:35Z</time>
      </trkpt>
      <trkpt lat="44.81457" lon="5.46941">
        <ele>1230.5</ele>
        <time>2011-10-02T08:17:44Z</time>
      </trkpt>
      <trkpt lat="44.81454" lon="5.46939">
        <ele>1231.5340576</ele>
        <time>2011-10-02T08:17:48Z</time>
      </trkpt>
      <trkpt lat="44.81448" lon="5.46939">
        <ele>1233.3570557</ele>
        <time>2011-10-02T08:17:54Z</time>
      </trkpt>
      <trkpt lat="44.8144" lon="5.46939">
        <ele>1235.3530273</ele>
        <time>2011-10-02T08:18:02Z</time>
      </trkpt>
      <trkpt lat="44.81438" lon="5.46933">
        <ele>1238.19104</ele>
        <time>2011-10-02T08:18:17Z</time>
      </trkpt>
      <trkpt lat="44.81432" lon="5.46932">
        <ele>1239.4560547</ele>
        <time>2011-10-02T08:18:23Z</time>
      </trkpt>
      <trkpt lat="44.8143" lon="5.46924">
        <ele>1240.519043</ele>
        <time>2011-10-02T08:18:29Z</time>
      </trkpt>
      <trkpt lat="44.81425" lon="5.4692">
        <ele>1241.526001</ele>
        <time>2011-10-02T08:18:34Z</time>
      </trkpt>
      <trkpt lat="44.81418" lon="5.46915">
        <ele>1242.7230225</ele>
        <time>2011-10-02T08:18:40Z</time>
      </trkpt>
      <trkpt lat="44.81407" lon="5.46909">
        <ele>1244.3179932</ele>
        <time>2011-10-02T08:18:47Z</time>
      </trkpt>
      <trkpt lat="44.81397" lon="5.46904">
        <ele>1245.8590088</ele>
        <time>2011-10-02T08:18:54Z</time>
      </trkpt>
      <trkpt lat="44.8139" lon="5.46898">
        <ele>1247.1550293</ele>
        <time>2011-10-02T08:19:00Z</time>
      </trkpt>
      <trkpt lat="44.81384" lon="5.46892">
        <ele>1248.5620117</ele>
        <time>2011-10-02T08:19:07Z</time>
      </trkpt>
      <trkpt lat="44.8138" lon="5.46888">
        <ele>1249.6929932</ele>
        <time>2011-10-02T08:19:12Z</time>
      </trkpt>
      <trkpt lat="44.81379" lon="5.46885">
        <ele>1250.3580322</ele>
        <time>2011-10-02T08:19:16Z</time>
      </trkpt>
      <trkpt lat="44.81374" lon="5.46881">
        <ele>1251.4709473</ele>
        <time>2011-10-02T08:19:21Z</time>
      </trkpt>
      <trkpt lat="44.81367" lon="5.46875">
        <ele>1252.730957</ele>
        <time>2011-10-02T08:19:26Z</time>
      </trkpt>
      <trkpt lat="44.81356" lon="5.46867">
        <ele>1254.9689941</ele>
        <time>2011-10-02T08:19:35Z</time>
      </trkpt>
      <trkpt lat="44.81355" lon="5.46866">
        <ele>1255.2180176</ele>
        <time>2011-10-02T08:19:36Z</time>
      </trkpt>
      <trkpt lat="44.81347" lon="5.46856">
        <ele>1256.730957</ele>
        <time>2011-10-02T08:19:43Z</time>
      </trkpt>
      <trkpt lat="44.81342" lon="5.46853">
        <ele>1257.973999</ele>
        <time>2011-10-02T08:19:47Z</time>
      </trkpt>
      <trkpt lat="44.81336" lon="5.46849">
        <ele>1259.5119629</ele>
        <time>2011-10-02T08:19:52Z</time>
      </trkpt>
      <trkpt lat="44.81331" lon="5.46848">
        <ele>1261.0510254</ele>
        <time>2011-10-02T08:20:00Z</time>
      </trkpt>
      <trkpt lat="44.81329" lon="5.46848">
        <ele>1261.5600586</ele>
        <time>2011-10-02T08:20:09Z</time>
      </trkpt>
      <trkpt lat="44.81328" lon="5.46849">
        <ele>1261.8430176</ele>
        <time>2011-10-02T08:20:14Z</time>
      </trkpt>
      <trkpt lat="44.81325" lon="5.4684">
        <ele>1263.75</ele>
        <time>2011-10-02T08:20:40Z</time>
      </trkpt>
      <trkpt lat="44.81328" lon="5.46841">
        <ele>1265.1689453</ele>
        <time>2011-10-02T08:20:46Z</time>
      </trkpt>
      <trkpt lat="44.81319" lon="5.46854">
        <ele>1269.5760498</ele>
        <time>2011-10-02T08:21:12Z</time>
      </trkpt>
      <trkpt lat="44.81311" lon="5.46855">
        <ele>1270.526001</ele>
        <time>2011-10-02T08:21:19Z</time>
      </trkpt>
      <trkpt lat="44.81306" lon="5.46857">
        <ele>1271.3840332</ele>
        <time>2011-10-02T08:21:24Z</time>
      </trkpt>
      <trkpt lat="44.813" lon="5.46861">
        <ele>1272.230957</ele>
        <time>2011-10-02T08:21:28Z</time>
      </trkpt>
      <trkpt lat="44.81292" lon="5.46871">
        <ele>1274.2189941</ele>
        <time>2011-10-02T08:21:36Z</time>
      </trkpt>
      <trkpt lat="44.81287" lon="5.46877">
        <ele>1276.3509521</ele>
        <time>2011-10-02T08:21:45Z</time>
      </trkpt>
      <trkpt lat="44.81284" lon="5.46884">
        <ele>1277.0350342</ele>
        <time>2011-10-02T08:21:51Z</time>
      </trkpt>
      <trkpt lat="44.81281" lon="5.4689">
        <ele>1278.0350342</ele>
        <time>2011-10-02T08:22:03Z</time>
      </trkpt>
      <trkpt lat="44.81273" lon="5.46887">
        <ele>1278.6550293</ele>
        <time>2011-10-02T08:22:09Z</time>
      </trkpt>
      <trkpt lat="44.81273" lon="5.46886">
        <ele>1278.7370605</ele>
        <time>2011-10-02T08:22:10Z</time>
      </trkpt>
      <trkpt lat="44.81261" lon="5.46876">
        <ele>1280.2900391</ele>
        <time>2011-10-02T08:22:19Z</time>
      </trkpt>
      <trkpt lat="44.8125" lon="5.4687">
        <ele>1281.1219482</ele>
        <time>2011-10-02T08:22:25Z</time>
      </trkpt>
      <trkpt lat="44.81242" lon="5.46872">
        <ele>1282.5780029</ele>
        <time>2011-10-02T08:22:32Z</time>
      </trkpt>
      <trkpt lat="44.81237" lon="5.46874">
        <ele>1283.5209961</ele>
        <time>2011-10-02T08:22:36Z</time>
      </trkpt>
      <trkpt lat="44.8123" lon="5.46875">
        <ele>1284.6479492</ele>
        <time>2011-10-02T08:22:42Z</time>
      </trkpt>
      <trkpt lat="44.81228" lon="5.46875">
        <ele>1285.1419678</ele>
        <time>2011-10-02T08:22:46Z</time>
      </trkpt>
      <trkpt lat="44.81231" lon="5.46881">
        <ele>1285.6140137</ele>
        <time>2011-10-02T08:22:51Z</time>
      </trkpt>
      <trkpt lat="44.81221" lon="5.46886">
        <ele>1288.0820313</ele>
        <time>2011-10-02T08:23:13Z</time>
      </trkpt>
      <trkpt lat="44.81216" lon="5.46884">
        <ele>1289.2850342</ele>
        <time>2011-10-02T08:23:20Z</time>
      </trkpt>
      <trkpt lat="44.8118" lon="5.46879">
        <ele>1295.4780273</ele>
        <time>2011-10-02T08:24:02Z</time>
      </trkpt>
      <trkpt lat="44.81173" lon="5.46879">
        <ele>1296.1870117</ele>
        <time>2011-10-02T08:24:09Z</time>
      </trkpt>
      <trkpt lat="44.81169" lon="5.46877">
        <ele>1297.8969727</ele>
        <time>2011-10-02T08:24:21Z</time>
      </trkpt>
      <trkpt lat="44.81162" lon="5.46883">
        <ele>1299.30896</ele>
        <time>2011-10-02T08:24:30Z</time>
      </trkpt>
      <trkpt lat="44.81155" lon="5.46884">
        <ele>1300.0279541</ele>
        <time>2011-10-02T08:24:34Z</time>
      </trkpt>
      <trkpt lat="44.81154" lon="5.46883">
        <ele>1300.6560059</ele>
        <time>2011-10-02T08:24:40Z</time>
      </trkpt>
      <trkpt lat="44.81137" lon="5.46876">
        <ele>1302.9119873</ele>
        <time>2011-10-02T08:25:05Z</time>
      </trkpt>
      <trkpt lat="44.81131" lon="5.46873">
        <ele>1304.2910156</ele>
        <time>2011-10-02T08:25:13Z</time>
      </trkpt>
      <trkpt lat="44.8113" lon="5.46873">
        <ele>1304.7960205</ele>
        <time>2011-10-02T08:25:15Z</time>
      </trkpt>
      <trkpt lat="44.81126" lon="5.46872">
        <ele>1306.2540283</ele>
        <time>2011-10-02T08:25:22Z</time>
      </trkpt>
      <trkpt lat="44.81117" lon="5.46869">
        <ele>1307.7010498</ele>
        <time>2011-10-02T08:25:31Z</time>
      </trkpt>
      <trkpt lat="44.8111" lon="5.46868">
        <ele>1308.4239502</ele>
        <time>2011-10-02T08:25:39Z</time>
      </trkpt>
      <trkpt lat="44.81105" lon="5.46856">
        <ele>1308.5379639</ele>
        <time>2011-10-02T08:25:45Z</time>
      </trkpt>
      <trkpt lat="44.81102" lon="5.46853">
        <ele>1308.7359619</ele>
        <time>2011-10-02T08:25:50Z</time>
      </trkpt>
      <trkpt lat="44.81104" lon="5.46854">
        <ele>1309.1810303</ele>
        <time>2011-10-02T08:25:57Z</time>
      </trkpt>
      <trkpt lat="44.81106" lon="5.46848">
        <ele>1309.9160156</ele>
        <time>2011-10-02T08:26:04Z</time>
      </trkpt>
      <trkpt lat="44.81102" lon="5.46847">
        <ele>1310.0489502</ele>
        <time>2011-10-02T08:26:08Z</time>
      </trkpt>
      <trkpt lat="44.81096" lon="5.46842">
        <ele>1310.3599854</ele>
        <time>2011-10-02T08:26:14Z</time>
      </trkpt>
      <trkpt lat="44.81095" lon="5.46839">
        <ele>1311.3969727</ele>
        <time>2011-10-02T08:26:20Z</time>
      </trkpt>
      <trkpt lat="44.81087" lon="5.4684">
        <ele>1312.4310303</ele>
        <time>2011-10-02T08:26:26Z</time>
      </trkpt>
      <trkpt lat="44.81084" lon="5.46833">
        <ele>1312.9250488</ele>
        <time>2011-10-02T08:26:36Z</time>
      </trkpt>
      <trkpt lat="44.81083" lon="5.46828">
        <ele>1312.8260498</ele>
        <time>2011-10-02T08:26:42Z</time>
      </trkpt>
      <trkpt lat="44.81081" lon="5.46825">
        <ele>1313.0860596</ele>
        <time>2011-10-02T08:26:50Z</time>
      </trkpt>
      <trkpt lat="44.8108" lon="5.46823">
        <ele>1312.9449463</ele>
        <time>2011-10-02T08:26:54Z</time>
      </trkpt>
      <trkpt lat="44.81079" lon="5.46823">
        <ele>1312.8409424</ele>
        <time>2011-10-02T08:26:55Z</time>
      </trkpt>
      <trkpt lat="44.8106" lon="5.4683">
        <ele>1313.3850098</ele>
        <time>2011-10-02T08:27:04Z</time>
      </trkpt>
      <trkpt lat="44.81043" lon="5.46836">
        <ele>1313.6679688</ele>
        <time>2011-10-02T08:27:10Z</time>
      </trkpt>
      <trkpt lat="44.8103" lon="5.46842">
        <ele>1314.0570068</ele>
        <time>2011-10-02T08:27:14Z</time>
      </trkpt>
      <trkpt lat="44.81013" lon="5.46847">
        <ele>1314.0479736</ele>
        <time>2011-10-02T08:27:19Z</time>
      </trkpt>
      <trkpt lat="44.81009" lon="5.46849">
        <ele>1313.9890137</ele>
        <time>2011-10-02T08:27:21Z</time>
      </trkpt>
      <trkpt lat="44.80995" lon="5.46849">
        <ele>1313.8730469</ele>
        <time>2011-10-02T08:27:26Z</time>
      </trkpt>
      <trkpt lat="44.80983" lon="5.46846">
        <ele>1315.394043</ele>
        <time>2011-10-02T08:27:35Z</time>
      </trkpt>
      <trkpt lat="44.80989" lon="5.46836">
        <ele>1316.5250244</ele>
        <time>2011-10-02T08:27:42Z</time>
      </trkpt>
      <trkpt lat="44.80991" lon="5.46834">
        <ele>1316.81604</ele>
        <time>2011-10-02T08:27:44Z</time>
      </trkpt>
      <trkpt lat="44.80996" lon="5.46827">
        <ele>1317.3709717</ele>
        <time>2011-10-02T08:27:48Z</time>
      </trkpt>
      <trkpt lat="44.81001" lon="5.46814">
        <ele>1317.7509766</ele>
        <time>2011-10-02T08:27:56Z</time>
      </trkpt>
      <trkpt lat="44.81004" lon="5.46805">
        <ele>1318.5939941</ele>
        <time>2011-10-02T08:28:02Z</time>
      </trkpt>
      <trkpt lat="44.81007" lon="5.46799">
        <ele>1319.1309814</ele>
        <time>2011-10-02T08:28:07Z</time>
      </trkpt>
      <trkpt lat="44.81015" lon="5.46792">
        <ele>1320.2399902</ele>
        <time>2011-10-02T08:28:13Z</time>
      </trkpt>
      <trkpt lat="44.81023" lon="5.46788">
        <ele>1320.5500488</ele>
        <time>2011-10-02T08:28:18Z</time>
      </trkpt>
      <trkpt lat="44.81034" lon="5.46779">
        <ele>1320.5880127</ele>
        <time>2011-10-02T08:28:30Z</time>
      </trkpt>
      <trkpt lat="44.81039" lon="5.46766">
        <ele>1320.6760254</ele>
        <time>2011-10-02T08:28:41Z</time>
      </trkpt>
      <trkpt lat="44.81037" lon="5.4677">
        <ele>1320.8100586</ele>
        <time>2011-10-02T08:28:45Z</time>
      </trkpt>
      <trkpt lat="44.8104" lon="5.46767">
        <ele>1321.2030029</ele>
        <time>2011-10-02T08:28:48Z</time>
      </trkpt>
      <trkpt lat="44.8104" lon="5.46755">
        <ele>1322.43396</ele>
        <time>2011-10-02T08:28:55Z</time>
      </trkpt>
      <trkpt lat="44.81036" lon="5.46771">
        <ele>1323.269043</ele>
        <time>2011-10-02T08:29:18Z</time>
      </trkpt>
      <trkpt lat="44.81037" lon="5.46773">
        <ele>1323.7729492</ele>
        <time>2011-10-02T08:29:24Z</time>
      </trkpt>
      <trkpt lat="44.8103" lon="5.46776">
        <ele>1325.6309814</ele>
        <time>2011-10-02T08:29:35Z</time>
      </trkpt>
      <trkpt lat="44.81033" lon="5.46771">
        <ele>1326.2220459</ele>
        <time>2011-10-02T08:29:40Z</time>
      </trkpt>
      <trkpt lat="44.81036" lon="5.46767">
        <ele>1326.8790283</ele>
        <time>2011-10-02T08:29:45Z</time>
      </trkpt>
      <trkpt lat="44.81035" lon="5.4676">
        <ele>1327.9489746</ele>
        <time>2011-10-02T08:29:51Z</time>
      </trkpt>
      <trkpt lat="44.81036" lon="5.46757">
        <ele>1328.3909912</ele>
        <time>2011-10-02T08:29:53Z</time>
      </trkpt>
      <trkpt lat="44.81026" lon="5.46762">
        <ele>1329.4439697</ele>
        <time>2011-10-02T08:29:59Z</time>
      </trkpt>
      <trkpt lat="44.81027" lon="5.46759">
        <ele>1329.2840576</ele>
        <time>2011-10-02T08:30:06Z</time>
      </trkpt>
      <trkpt lat="44.81026" lon="5.46748">
        <ele>1329.0649414</ele>
        <time>2011-10-02T08:30:40Z</time>
      </trkpt>
      <trkpt lat="44.81018" lon="5.46745">
        <ele>1329.6669922</ele>
        <time>2011-10-02T08:30:47Z</time>
      </trkpt>
      <trkpt lat="44.81012" lon="5.46744">
        <ele>1330.5930176</ele>
        <time>2011-10-02T08:30:54Z</time>
      </trkpt>
      <trkpt lat="44.81012" lon="5.46744">
        <ele>1330.6800537</ele>
        <time>2011-10-02T08:30:58Z</time>
      </trkpt>
      <trkpt lat="44.81014" lon="5.46744">
        <ele>1330.7030029</ele>
        <time>2011-10-02T08:31:01Z</time>
      </trkpt>
      <trkpt lat="44.81008" lon="5.46746">
        <ele>1331.31604</ele>
        <time>2011-10-02T08:31:08Z</time>
      </trkpt>
      <trkpt lat="44.81003" lon="5.46748">
        <ele>1333.5460205</ele>
        <time>2011-10-02T08:31:19Z</time>
      </trkpt>
      <trkpt lat="44.80997" lon="5.4675">
        <ele>1334.3549805</ele>
        <time>2011-10-02T08:31:24Z</time>
      </trkpt>
      <trkpt lat="44.80996" lon="5.46745">
        <ele>1337.1700439</ele>
        <time>2011-10-02T08:31:37Z</time>
      </trkpt>
      <trkpt lat="44.80993" lon="5.46743">
        <ele>1338.6479492</ele>
        <time>2011-10-02T08:31:45Z</time>
      </trkpt>
      <trkpt lat="44.80993" lon="5.46747">
        <ele>1338.8509521</ele>
        <time>2011-10-02T08:31:47Z</time>
      </trkpt>
      <trkpt lat="44.80997" lon="5.46752">
        <ele>1340.1030273</ele>
        <time>2011-10-02T08:31:54Z</time>
      </trkpt>
      <trkpt lat="44.81002" lon="5.46758">
        <ele>1340.769043</ele>
        <time>2011-10-02T08:32:00Z</time>
      </trkpt>
      <trkpt lat="44.81005" lon="5.4676">
        <ele>1341.8120117</ele>
        <time>2011-10-02T08:32:05Z</time>
      </trkpt>
      <trkpt lat="44.81008" lon="5.46762">
        <ele>1343.276001</ele>
        <time>2011-10-02T08:32:11Z</time>
      </trkpt>
      <trkpt lat="44.81012" lon="5.46766">
        <ele>1344.2910156</ele>
        <time>2011-10-02T08:32:17Z</time>
      </trkpt>
      <trkpt lat="44.81016" lon="5.46768">
        <ele>1345.0799561</ele>
        <time>2011-10-02T08:32:22Z</time>
      </trkpt>
      <trkpt lat="44.81019" lon="5.4677">
        <ele>1346.2779541</ele>
        <time>2011-10-02T08:32:28Z</time>
      </trkpt>
      <trkpt lat="44.81021" lon="5.46774">
        <ele>1347.4179688</ele>
        <time>2011-10-02T08:32:33Z</time>
      </trkpt>
      <trkpt lat="44.81022" lon="5.46776">
        <ele>1348.4040527</ele>
        <time>2011-10-02T08:32:37Z</time>
      </trkpt>
      <trkpt lat="44.81023" lon="5.46778">
        <ele>1348.9229736</ele>
        <time>2011-10-02T08:32:39Z</time>
      </trkpt>
      <trkpt lat="44.81023" lon="5.46782">
        <ele>1349.5290527</ele>
        <time>2011-10-02T08:32:42Z</time>
      </trkpt>
      <trkpt lat="44.81018" lon="5.46787">
        <ele>1350.8370361</ele>
        <time>2011-10-02T08:32:49Z</time>
      </trkpt>
      <trkpt lat="44.81013" lon="5.46793">
        <ele>1352.098999</ele>
        <time>2011-10-02T08:32:56Z</time>
      </trkpt>
      <trkpt lat="44.81011" lon="5.46794">
        <ele>1352.6619873</ele>
        <time>2011-10-02T08:32:59Z</time>
      </trkpt>
      <trkpt lat="44.81007" lon="5.46794">
        <ele>1353.7910156</ele>
        <time>2011-10-02T08:33:04Z</time>
      </trkpt>
      <trkpt lat="44.81006" lon="5.46792">
        <ele>1354.9129639</ele>
        <time>2011-10-02T08:33:09Z</time>
      </trkpt>
      <trkpt lat="44.80998" lon="5.46797">
        <ele>1355.9489746</ele>
        <time>2011-10-02T08:33:16Z</time>
      </trkpt>
      <trkpt lat="44.80997" lon="5.46798">
        <ele>1356.0889893</ele>
        <time>2011-10-02T08:33:17Z</time>
      </trkpt>
      <trkpt lat="44.80993" lon="5.46788">
        <ele>1356.6949463</ele>
        <time>2011-10-02T08:33:24Z</time>
      </trkpt>
      <trkpt lat="44.80988" lon="5.4678">
        <ele>1358.2950439</ele>
        <time>2011-10-02T08:33:34Z</time>
      </trkpt>
      <trkpt lat="44.80981" lon="5.46781">
        <ele>1358.7650146</ele>
        <time>2011-10-02T08:33:39Z</time>
      </trkpt>
      <trkpt lat="44.80976" lon="5.46781">
        <ele>1359.1149902</ele>
        <time>2011-10-02T08:33:42Z</time>
      </trkpt>
      <trkpt lat="44.8097" lon="5.46786">
        <ele>1359.7679443</ele>
        <time>2011-10-02T08:33:46Z</time>
      </trkpt>
      <trkpt lat="44.80965" lon="5.46783">
        <ele>1361.2399902</ele>
        <time>2011-10-02T08:33:53Z</time>
      </trkpt>
      <trkpt lat="44.80966" lon="5.46782">
        <ele>1362.3719482</ele>
        <time>2011-10-02T08:33:59Z</time>
      </trkpt>
      <trkpt lat="44.80958" lon="5.46776">
        <ele>1363.6560059</ele>
        <time>2011-10-02T08:34:07Z</time>
      </trkpt>
      <trkpt lat="44.80955" lon="5.46776">
        <ele>1365.4909668</ele>
        <time>2011-10-02T08:34:15Z</time>
      </trkpt>
      <trkpt lat="44.80952" lon="5.46773">
        <ele>1366.8439941</ele>
        <time>2011-10-02T08:34:22Z</time>
      </trkpt>
      <trkpt lat="44.80936" lon="5.46753">
        <ele>1376.6870117</ele>
        <time>2011-10-02T08:35:14Z</time>
      </trkpt>
      <trkpt lat="44.80941" lon="5.46758">
        <ele>1378.2340088</ele>
        <time>2011-10-02T08:35:21Z</time>
      </trkpt>
      <trkpt lat="44.80942" lon="5.46758">
        <ele>1379.3969727</ele>
        <time>2011-10-02T08:35:26Z</time>
      </trkpt>
      <trkpt lat="44.80941" lon="5.46762">
        <ele>1381.7459717</ele>
        <time>2011-10-02T08:35:36Z</time>
      </trkpt>
      <trkpt lat="44.8094" lon="5.46765">
        <ele>1382.6989746</ele>
        <time>2011-10-02T08:35:41Z</time>
      </trkpt>
      <trkpt lat="44.80941" lon="5.4677">
        <ele>1383.3120117</ele>
        <time>2011-10-02T08:35:46Z</time>
      </trkpt>
      <trkpt lat="44.80943" lon="5.46775">
        <ele>1385.1550293</ele>
        <time>2011-10-02T08:35:55Z</time>
      </trkpt>
      <trkpt lat="44.80946" lon="5.46784">
        <ele>1387.1379395</ele>
        <time>2011-10-02T08:36:07Z</time>
      </trkpt>
      <trkpt lat="44.80949" lon="5.46795">
        <ele>1389.1090088</ele>
        <time>2011-10-02T08:36:18Z</time>
      </trkpt>
      <trkpt lat="44.80954" lon="5.46805">
        <ele>1390.3370361</ele>
        <time>2011-10-02T08:36:25Z</time>
      </trkpt>
      <trkpt lat="44.80957" lon="5.46812">
        <ele>1391.5340576</ele>
        <time>2011-10-02T08:36:31Z</time>
      </trkpt>
      <trkpt lat="44.80955" lon="5.46814">
        <ele>1392.4510498</ele>
        <time>2011-10-02T08:36:36Z</time>
      </trkpt>
      <trkpt lat="44.80953" lon="5.46819">
        <ele>1393.3499756</ele>
        <time>2011-10-02T08:36:42Z</time>
      </trkpt>
      <trkpt lat="44.80952" lon="5.46827">
        <ele>1394.1109619</ele>
        <time>2011-10-02T08:36:47Z</time>
      </trkpt>
      <trkpt lat="44.80943" lon="5.46831">
        <ele>1395.7929688</ele>
        <time>2011-10-02T08:36:59Z</time>
      </trkpt>
      <trkpt lat="44.80938" lon="5.46829">
        <ele>1396.7559814</ele>
        <time>2011-10-02T08:37:04Z</time>
      </trkpt>
      <trkpt lat="44.80931" lon="5.46824">
        <ele>1397.717041</ele>
        <time>2011-10-02T08:37:10Z</time>
      </trkpt>
      <trkpt lat="44.80927" lon="5.46821">
        <ele>1398.8800049</ele>
        <time>2011-10-02T08:37:16Z</time>
      </trkpt>
      <trkpt lat="44.80925" lon="5.46819">
        <ele>1399.9360352</ele>
        <time>2011-10-02T08:37:22Z</time>
      </trkpt>
      <trkpt lat="44.80922" lon="5.46819">
        <ele>1400.7290039</ele>
        <time>2011-10-02T08:37:28Z</time>
      </trkpt>
      <trkpt lat="44.8092" lon="5.46813">
        <ele>1401.8060303</ele>
        <time>2011-10-02T08:37:37Z</time>
      </trkpt>
      <trkpt lat="44.80919" lon="5.46811">
        <ele>1404.3070068</ele>
        <time>2011-10-02T08:37:54Z</time>
      </trkpt>
      <trkpt lat="44.80912" lon="5.46807">
        <ele>1405.7960205</ele>
        <time>2011-10-02T08:38:01Z</time>
      </trkpt>
      <trkpt lat="44.80904" lon="5.46806">
        <ele>1406.7099609</ele>
        <time>2011-10-02T08:38:06Z</time>
      </trkpt>
      <trkpt lat="44.809" lon="5.46807">
        <ele>1407.651001</ele>
        <time>2011-10-02T08:38:11Z</time>
      </trkpt>
      <trkpt lat="44.80897" lon="5.46808">
        <ele>1408.5579834</ele>
        <time>2011-10-02T08:38:17Z</time>
      </trkpt>
      <trkpt lat="44.80894" lon="5.4681">
        <ele>1409.7419434</ele>
        <time>2011-10-02T08:38:23Z</time>
      </trkpt>
      <trkpt lat="44.8089" lon="5.46812">
        <ele>1410.8179932</ele>
        <time>2011-10-02T08:38:28Z</time>
      </trkpt>
      <trkpt lat="44.80884" lon="5.46817">
        <ele>1411.9019775</ele>
        <time>2011-10-02T08:38:37Z</time>
      </trkpt>
      <trkpt lat="44.80882" lon="5.46822">
        <ele>1412.6860352</ele>
        <time>2011-10-02T08:38:44Z</time>
      </trkpt>
      <trkpt lat="44.80881" lon="5.46826">
        <ele>1413.8179932</ele>
        <time>2011-10-02T08:38:50Z</time>
      </trkpt>
      <trkpt lat="44.80878" lon="5.46837">
        <ele>1414.8499756</ele>
        <time>2011-10-02T08:38:58Z</time>
      </trkpt>
      <trkpt lat="44.80877" lon="5.46842">
        <ele>1415.855957</ele>
        <time>2011-10-02T08:39:04Z</time>
      </trkpt>
      <trkpt lat="44.80878" lon="5.46847">
        <ele>1416.7879639</ele>
        <time>2011-10-02T08:39:11Z</time>
      </trkpt>
      <trkpt lat="44.80878" lon="5.46852">
        <ele>1417.6109619</ele>
        <time>2011-10-02T08:39:16Z</time>
      </trkpt>
      <trkpt lat="44.80877" lon="5.46857">
        <ele>1418.2459717</ele>
        <time>2011-10-02T08:39:21Z</time>
      </trkpt>
      <trkpt lat="44.80874" lon="5.46863">
        <ele>1419.1140137</ele>
        <time>2011-10-02T08:39:27Z</time>
      </trkpt>
      <trkpt lat="44.80873" lon="5.46872">
        <ele>1419.9699707</ele>
        <time>2011-10-02T08:39:33Z</time>
      </trkpt>
      <trkpt lat="44.80872" lon="5.46878">
        <ele>1420.9420166</ele>
        <time>2011-10-02T08:39:39Z</time>
      </trkpt>
      <trkpt lat="44.80871" lon="5.46887">
        <ele>1422.7139893</ele>
        <time>2011-10-02T08:39:49Z</time>
      </trkpt>
      <trkpt lat="44.80871" lon="5.46891">
        <ele>1423.68396</ele>
        <time>2011-10-02T08:39:54Z</time>
      </trkpt>
      <trkpt lat="44.8087" lon="5.46893">
        <ele>1424.1049805</ele>
        <time>2011-10-02T08:39:58Z</time>
      </trkpt>
      <trkpt lat="44.8087" lon="5.469">
        <ele>1425.2330322</ele>
        <time>2011-10-02T08:40:06Z</time>
      </trkpt>
      <trkpt lat="44.80872" lon="5.46904">
        <ele>1426.0820313</ele>
        <time>2011-10-02T08:40:11Z</time>
      </trkpt>
      <trkpt lat="44.80871" lon="5.46906">
        <ele>1427.1099854</ele>
        <time>2011-10-02T08:40:17Z</time>
      </trkpt>
      <trkpt lat="44.80869" lon="5.46906">
        <ele>1427.5839844</ele>
        <time>2011-10-02T08:40:22Z</time>
      </trkpt>
      <trkpt lat="44.80874" lon="5.46907">
        <ele>1428.9129639</ele>
        <time>2011-10-02T08:40:31Z</time>
      </trkpt>
      <trkpt lat="44.8088" lon="5.46905">
        <ele>1429.4549561</ele>
        <time>2011-10-02T08:40:38Z</time>
      </trkpt>
      <trkpt lat="44.80885" lon="5.46902">
        <ele>1430.3249512</ele>
        <time>2011-10-02T08:40:44Z</time>
      </trkpt>
      <trkpt lat="44.80888" lon="5.46902">
        <ele>1431.0600586</ele>
        <time>2011-10-02T08:40:51Z</time>
      </trkpt>
      <trkpt lat="44.80892" lon="5.46899">
        <ele>1431.256958</ele>
        <time>2011-10-02T08:40:57Z</time>
      </trkpt>
      <trkpt lat="44.80894" lon="5.46897">
        <ele>1431.31604</ele>
        <time>2011-10-02T08:41:03Z</time>
      </trkpt>
      <trkpt lat="44.80901" lon="5.4689">
        <ele>1431.6169434</ele>
        <time>2011-10-02T08:41:08Z</time>
      </trkpt>
      <trkpt lat="44.80918" lon="5.46881">
        <ele>1432.7629395</ele>
        <time>2011-10-02T08:41:17Z</time>
      </trkpt>
      <trkpt lat="44.8092" lon="5.46879">
        <ele>1433.2130127</ele>
        <time>2011-10-02T08:41:19Z</time>
      </trkpt>
      <trkpt lat="44.80927" lon="5.46877">
        <ele>1434.7199707</ele>
        <time>2011-10-02T08:41:25Z</time>
      </trkpt>
      <trkpt lat="44.80931" lon="5.46883">
        <ele>1435.9539795</ele>
        <time>2011-10-02T08:41:30Z</time>
      </trkpt>
      <trkpt lat="44.80931" lon="5.46886">
        <ele>1436.4720459</ele>
        <time>2011-10-02T08:41:32Z</time>
      </trkpt>
      <trkpt lat="44.80929" lon="5.46891">
        <ele>1437.4630127</ele>
        <time>2011-10-02T08:41:37Z</time>
      </trkpt>
      <trkpt lat="44.80932" lon="5.46896">
        <ele>1438.8249512</ele>
        <time>2011-10-02T08:41:42Z</time>
      </trkpt>
      <trkpt lat="44.80934" lon="5.469">
        <ele>1439.8929443</ele>
        <time>2011-10-02T08:41:46Z</time>
      </trkpt>
      <trkpt lat="44.80934" lon="5.46905">
        <ele>1440.8649902</ele>
        <time>2011-10-02T08:41:55Z</time>
      </trkpt>
      <trkpt lat="44.80935" lon="5.46913">
        <ele>1442.0340576</ele>
        <time>2011-10-02T08:42:03Z</time>
      </trkpt>
      <trkpt lat="44.80936" lon="5.46918">
        <ele>1442.8520508</ele>
        <time>2011-10-02T08:42:07Z</time>
      </trkpt>
      <trkpt lat="44.80936" lon="5.46921">
        <ele>1443.2189941</ele>
        <time>2011-10-02T08:42:09Z</time>
      </trkpt>
      <trkpt lat="44.80936" lon="5.4693">
        <ele>1444.0489502</ele>
        <time>2011-10-02T08:42:18Z</time>
      </trkpt>
      <trkpt lat="44.80934" lon="5.4694">
        <ele>1444.9620361</ele>
        <time>2011-10-02T08:42:26Z</time>
      </trkpt>
      <trkpt lat="44.80933" lon="5.46941">
        <ele>1445.4150391</ele>
        <time>2011-10-02T08:42:32Z</time>
      </trkpt>
      <trkpt lat="44.80935" lon="5.4694">
        <ele>1445.6600342</ele>
        <time>2011-10-02T08:42:35Z</time>
      </trkpt>
      <trkpt lat="44.80935" lon="5.46948">
        <ele>1447.5229492</ele>
        <time>2011-10-02T08:42:43Z</time>
      </trkpt>
      <trkpt lat="44.80934" lon="5.46951">
        <ele>1448.8000488</ele>
        <time>2011-10-02T08:42:49Z</time>
      </trkpt>
      <trkpt lat="44.80934" lon="5.46959">
        <ele>1450.4399414</ele>
        <time>2011-10-02T08:42:58Z</time>
      </trkpt>
      <trkpt lat="44.80934" lon="5.46966">
        <ele>1451.4439697</ele>
        <time>2011-10-02T08:43:07Z</time>
      </trkpt>
      <trkpt lat="44.80935" lon="5.46973">
        <ele>1452.6970215</ele>
        <time>2011-10-02T08:43:15Z</time>
      </trkpt>
      <trkpt lat="44.80937" lon="5.46978">
        <ele>1453.7729492</ele>
        <time>2011-10-02T08:43:23Z</time>
      </trkpt>
      <trkpt lat="44.80937" lon="5.4698">
        <ele>1454.5250244</ele>
        <time>2011-10-02T08:43:32Z</time>
      </trkpt>
      <trkpt lat="44.80936" lon="5.46979">
        <ele>1454.9139404</ele>
        <time>2011-10-02T08:43:42Z</time>
      </trkpt>
      <trkpt lat="44.80938" lon="5.46981">
        <ele>1455.3709717</ele>
        <time>2011-10-02T08:43:47Z</time>
      </trkpt>
      <trkpt lat="44.80941" lon="5.46996">
        <ele>1456.9200439</ele>
        <time>2011-10-02T08:47:13Z</time>
      </trkpt>
      <trkpt lat="44.80939" lon="5.46996">
        <ele>1456.7929688</ele>
        <time>2011-10-02T08:47:21Z</time>
      </trkpt>
      <trkpt lat="44.80936" lon="5.46998">
        <ele>1456.5319824</ele>
        <time>2011-10-02T08:47:26Z</time>
      </trkpt>
      <trkpt lat="44.80939" lon="5.46996">
        <ele>1456.3459473</ele>
        <time>2011-10-02T08:48:30Z</time>
      </trkpt>
      <trkpt lat="44.8093" lon="5.47003">
        <ele>1456.0999756</ele>
        <time>2011-10-02T08:48:37Z</time>
      </trkpt>
      <trkpt lat="44.80922" lon="5.47013">
        <ele>1455.7719727</ele>
        <time>2011-10-02T08:48:43Z</time>
      </trkpt>
      <trkpt lat="44.8092" lon="5.47015">
        <ele>1455.6939697</ele>
        <time>2011-10-02T08:48:44Z</time>
      </trkpt>
      <trkpt lat="44.80908" lon="5.47012">
        <ele>1455.0689697</ele>
        <time>2011-10-02T08:48:48Z</time>
      </trkpt>
      <trkpt lat="44.80899" lon="5.47017">
        <ele>1453.131958</ele>
        <time>2011-10-02T08:48:53Z</time>
      </trkpt>
      <trkpt lat="44.80893" lon="5.4703">
        <ele>1451.7919922</ele>
        <time>2011-10-02T08:48:57Z</time>
      </trkpt>
      <trkpt lat="44.80883" lon="5.47028">
        <ele>1450.8850098</ele>
        <time>2011-10-02T08:49:01Z</time>
      </trkpt>
      <trkpt lat="44.8088" lon="5.47021">
        <ele>1450.7159424</ele>
        <time>2011-10-02T08:49:04Z</time>
      </trkpt>
      <trkpt lat="44.80868" lon="5.47006">
        <ele>1451.2530518</ele>
        <time>2011-10-02T08:49:10Z</time>
      </trkpt>
      <trkpt lat="44.80857" lon="5.46984">
        <ele>1451.1219482</ele>
        <time>2011-10-02T08:49:15Z</time>
      </trkpt>
      <trkpt lat="44.80844" lon="5.46958">
        <ele>1450.0830078</ele>
        <time>2011-10-02T08:49:21Z</time>
      </trkpt>
      <trkpt lat="44.80831" lon="5.46936">
        <ele>1449.6140137</ele>
        <time>2011-10-02T08:49:26Z</time>
      </trkpt>
      <trkpt lat="44.80823" lon="5.46923">
        <ele>1449.7769775</ele>
        <time>2011-10-02T08:49:31Z</time>
      </trkpt>
      <trkpt lat="44.80813" lon="5.46911">
        <ele>1450.9370117</ele>
        <time>2011-10-02T08:49:37Z</time>
      </trkpt>
      <trkpt lat="44.80811" lon="5.46907">
        <ele>1451.1159668</ele>
        <time>2011-10-02T08:49:39Z</time>
      </trkpt>
      <trkpt lat="44.80804" lon="5.46887">
        <ele>1451.7039795</ele>
        <time>2011-10-02T08:49:45Z</time>
      </trkpt>
      <trkpt lat="44.80806" lon="5.46876">
        <ele>1452.7459717</ele>
        <time>2011-10-02T08:49:49Z</time>
      </trkpt>
      <trkpt lat="44.80806" lon="5.46873">
        <ele>1453.1009521</ele>
        <time>2011-10-02T08:49:50Z</time>
      </trkpt>
      <trkpt lat="44.80806" lon="5.46869">
        <ele>1453.7709961</ele>
        <time>2011-10-02T08:49:52Z</time>
      </trkpt>
      <trkpt lat="44.80804" lon="5.46862">
        <ele>1455.0129395</ele>
        <time>2011-10-02T08:49:57Z</time>
      </trkpt>
      <trkpt lat="44.80802" lon="5.46855">
        <ele>1455.0279541</ele>
        <time>2011-10-02T08:49:59Z</time>
      </trkpt>
      <trkpt lat="44.80802" lon="5.46836">
        <ele>1453.9630127</ele>
        <time>2011-10-02T08:50:03Z</time>
      </trkpt>
      <trkpt lat="44.80808" lon="5.46818">
        <ele>1453.1259766</ele>
        <time>2011-10-02T08:50:08Z</time>
      </trkpt>
      <trkpt lat="44.80814" lon="5.46808">
        <ele>1453.3360596</ele>
        <time>2011-10-02T08:50:12Z</time>
      </trkpt>
      <trkpt lat="44.80827" lon="5.46794">
        <ele>1454.9520264</ele>
        <time>2011-10-02T08:50:19Z</time>
      </trkpt>
      <trkpt lat="44.80835" lon="5.46784">
        <ele>1456.4420166</ele>
        <time>2011-10-02T08:50:24Z</time>
      </trkpt>
      <trkpt lat="44.80841" lon="5.46775">
        <ele>1457.4320068</ele>
        <time>2011-10-02T08:50:31Z</time>
      </trkpt>
      <trkpt lat="44.80844" lon="5.46769">
        <ele>1457.8079834</ele>
        <time>2011-10-02T08:50:37Z</time>
      </trkpt>
      <trkpt lat="44.80847" lon="5.4676">
        <ele>1457.8220215</ele>
        <time>2011-10-02T08:53:05Z</time>
      </trkpt>
      <trkpt lat="44.80836" lon="5.46748">
        <ele>1457.4300537</ele>
        <time>2011-10-02T08:53:09Z</time>
      </trkpt>
      <trkpt lat="44.80824" lon="5.4674">
        <ele>1456.7440186</ele>
        <time>2011-10-02T08:53:13Z</time>
      </trkpt>
      <trkpt lat="44.80813" lon="5.46729">
        <ele>1455.9649658</ele>
        <time>2011-10-02T08:53:16Z</time>
      </trkpt>
      <trkpt lat="44.80804" lon="5.46702">
        <ele>1454.8769531</ele>
        <time>2011-10-02T08:53:21Z</time>
      </trkpt>
      <trkpt lat="44.80787" lon="5.46671">
        <ele>1453.3110352</ele>
        <time>2011-10-02T08:53:26Z</time>
      </trkpt>
      <trkpt lat="44.80786" lon="5.46645">
        <ele>1451.7270508</ele>
        <time>2011-10-02T08:53:29Z</time>
      </trkpt>
      <trkpt lat="44.80788" lon="5.46637">
        <ele>1451.1400146</ele>
        <time>2011-10-02T08:53:30Z</time>
      </trkpt>
      <trkpt lat="44.80786" lon="5.4662">
        <ele>1449.8179932</ele>
        <time>2011-10-02T08:53:33Z</time>
      </trkpt>
      <trkpt lat="44.80781" lon="5.46577">
        <ele>1447.0059814</ele>
        <time>2011-10-02T08:53:39Z</time>
      </trkpt>
      <trkpt lat="44.80767" lon="5.46568">
        <ele>1445.9840088</ele>
        <time>2011-10-02T08:53:43Z</time>
      </trkpt>
      <trkpt lat="44.80762" lon="5.46566">
        <ele>1445.6920166</ele>
        <time>2011-10-02T08:53:44Z</time>
      </trkpt>
      <trkpt lat="44.80744" lon="5.46565">
        <ele>1444.5140381</ele>
        <time>2011-10-02T08:53:47Z</time>
      </trkpt>
      <trkpt lat="44.80715" lon="5.46549">
        <ele>1442.0849609</ele>
        <time>2011-10-02T08:53:52Z</time>
      </trkpt>
      <trkpt lat="44.80693" lon="5.46531">
        <ele>1440.3139648</ele>
        <time>2011-10-02T08:53:57Z</time>
      </trkpt>
      <trkpt lat="44.80681" lon="5.46522">
        <ele>1439.394043</ele>
        <time>2011-10-02T08:54:00Z</time>
      </trkpt>
      <trkpt lat="44.80664" lon="5.46514">
        <ele>1437.8900146</ele>
        <time>2011-10-02T08:54:03Z</time>
      </trkpt>
      <trkpt lat="44.80657" lon="5.46487">
        <ele>1435.2010498</ele>
        <time>2011-10-02T08:54:07Z</time>
      </trkpt>
      <trkpt lat="44.80656" lon="5.46471">
        <ele>1433.8349609</ele>
        <time>2011-10-02T08:54:09Z</time>
      </trkpt>
      <trkpt lat="44.80654" lon="5.4644">
        <ele>1430.993042</ele>
        <time>2011-10-02T08:54:14Z</time>
      </trkpt>
      <trkpt lat="44.80647" lon="5.46435">
        <ele>1430.0510254</ele>
        <time>2011-10-02T08:54:16Z</time>
      </trkpt>
      <trkpt lat="44.8063" lon="5.46425">
        <ele>1427.2519531</ele>
        <time>2011-10-02T08:54:21Z</time>
      </trkpt>
      <trkpt lat="44.80627" lon="5.46425">
        <ele>1426.5050049</ele>
        <time>2011-10-02T08:54:22Z</time>
      </trkpt>
      <trkpt lat="44.80604" lon="5.46421">
        <ele>1421.1400146</ele>
        <time>2011-10-02T08:54:28Z</time>
      </trkpt>
      <trkpt lat="44.80601" lon="5.46417">
        <ele>1419.6400146</ele>
        <time>2011-10-02T08:54:30Z</time>
      </trkpt>
      <trkpt lat="44.80592" lon="5.46394">
        <ele>1417.1330566</ele>
        <time>2011-10-02T08:54:36Z</time>
      </trkpt>
      <trkpt lat="44.80581" lon="5.46368">
        <ele>1415.5849609</ele>
        <time>2011-10-02T08:54:40Z</time>
      </trkpt>
      <trkpt lat="44.80577" lon="5.46359">
        <ele>1415.157959</ele>
        <time>2011-10-02T08:54:41Z</time>
      </trkpt>
      <trkpt lat="44.80561" lon="5.4633">
        <ele>1413.1340332</ele>
        <time>2011-10-02T08:54:46Z</time>
      </trkpt>
      <trkpt lat="44.80552" lon="5.46314">
        <ele>1411.6920166</ele>
        <time>2011-10-02T08:54:49Z</time>
      </trkpt>
      <trkpt lat="44.80545" lon="5.46281">
        <ele>1409.8260498</ele>
        <time>2011-10-02T08:54:55Z</time>
      </trkpt>
      <trkpt lat="44.80548" lon="5.46267">
        <ele>1409.0229492</ele>
        <time>2011-10-02T08:54:59Z</time>
      </trkpt>
      <trkpt lat="44.80553" lon="5.46254">
        <ele>1409.0629883</ele>
        <time>2011-10-02T08:55:04Z</time>
      </trkpt>
      <trkpt lat="44.80553" lon="5.46243">
        <ele>1409.4520264</ele>
        <time>2011-10-02T08:55:07Z</time>
      </trkpt>
      <trkpt lat="44.80557" lon="5.46226">
        <ele>1410.0980225</ele>
        <time>2011-10-02T08:55:11Z</time>
      </trkpt>
      <trkpt lat="44.80558" lon="5.46195">
        <ele>1410.842041</ele>
        <time>2011-10-02T08:55:17Z</time>
      </trkpt>
      <trkpt lat="44.80557" lon="5.46174">
        <ele>1410.6689453</ele>
        <time>2011-10-02T08:55:21Z</time>
      </trkpt>
      <trkpt lat="44.80548" lon="5.46159">
        <ele>1410.3139648</ele>
        <time>2011-10-02T08:55:25Z</time>
      </trkpt>
      <trkpt lat="44.80547" lon="5.46154">
        <ele>1410.0679932</ele>
        <time>2011-10-02T08:55:26Z</time>
      </trkpt>
      <trkpt lat="44.80528" lon="5.46133">
        <ele>1408.381958</ele>
        <time>2011-10-02T08:55:31Z</time>
      </trkpt>
      <trkpt lat="44.80513" lon="5.46119">
        <ele>1407.2089844</ele>
        <time>2011-10-02T08:55:35Z</time>
      </trkpt>
      <trkpt lat="44.80508" lon="5.46101">
        <ele>1405.6209717</ele>
        <time>2011-10-02T08:55:39Z</time>
      </trkpt>
      <trkpt lat="44.80511" lon="5.46087">
        <ele>1405.0200195</ele>
        <time>2011-10-02T08:55:42Z</time>
      </trkpt>
      <trkpt lat="44.80503" lon="5.46061">
        <ele>1404.7359619</ele>
        <time>2011-10-02T08:55:48Z</time>
      </trkpt>
      <trkpt lat="44.80489" lon="5.46029">
        <ele>1402.855957</ele>
        <time>2011-10-02T08:55:54Z</time>
      </trkpt>
      <trkpt lat="44.80489" lon="5.4601">
        <ele>1402.0710449</ele>
        <time>2011-10-02T08:55:58Z</time>
      </trkpt>
      <trkpt lat="44.80496" lon="5.45982">
        <ele>1402.1929932</ele>
        <time>2011-10-02T08:56:03Z</time>
      </trkpt>
      <trkpt lat="44.805" lon="5.45976">
        <ele>1402.3909912</ele>
        <time>2011-10-02T08:56:04Z</time>
      </trkpt>
      <trkpt lat="44.80513" lon="5.45948">
        <ele>1404.5679932</ele>
        <time>2011-10-02T08:56:10Z</time>
      </trkpt>
      <trkpt lat="44.80513" lon="5.45944">
        <ele>1404.9949951</ele>
        <time>2011-10-02T08:56:11Z</time>
      </trkpt>
      <trkpt lat="44.80514" lon="5.45928">
        <ele>1406.7869873</ele>
        <time>2011-10-02T08:56:17Z</time>
      </trkpt>
      <trkpt lat="44.80514" lon="5.45923">
        <ele>1407.144043</ele>
        <time>2011-10-02T08:56:19Z</time>
      </trkpt>
      <trkpt lat="44.80509" lon="5.4591">
        <ele>1407.723999</ele>
        <time>2011-10-02T08:56:25Z</time>
      </trkpt>
      <trkpt lat="44.80504" lon="5.459">
        <ele>1407.8289795</ele>
        <time>2011-10-02T08:56:31Z</time>
      </trkpt>
      <trkpt lat="44.80499" lon="5.4589">
        <ele>1407.5600586</ele>
        <time>2011-10-02T08:57:28Z</time>
      </trkpt>
      <trkpt lat="44.80492" lon="5.4588">
        <ele>1407.2189941</ele>
        <time>2011-10-02T08:57:51Z</time>
      </trkpt>
      <trkpt lat="44.8048" lon="5.45878">
        <ele>1406.4210205</ele>
        <time>2011-10-02T08:57:55Z</time>
      </trkpt>
      <trkpt lat="44.80473" lon="5.45876">
        <ele>1405.7490234</ele>
        <time>2011-10-02T08:57:57Z</time>
      </trkpt>
      <trkpt lat="44.80448" lon="5.45867">
        <ele>1403.9429932</ele>
        <time>2011-10-02T08:58:03Z</time>
      </trkpt>
      <trkpt lat="44.80433" lon="5.4586">
        <ele>1403.6120605</ele>
        <time>2011-10-02T08:58:07Z</time>
      </trkpt>
      <trkpt lat="44.80421" lon="5.45856">
        <ele>1403.9840088</ele>
        <time>2011-10-02T08:58:11Z</time>
      </trkpt>
      <trkpt lat="44.80419" lon="5.45854">
        <ele>1404.2750244</ele>
        <time>2011-10-02T08:58:12Z</time>
      </trkpt>
      <trkpt lat="44.80408" lon="5.45839">
        <ele>1405.519043</ele>
        <time>2011-10-02T08:58:17Z</time>
      </trkpt>
      <trkpt lat="44.80396" lon="5.45833">
        <ele>1407.026001</ele>
        <time>2011-10-02T08:58:22Z</time>
      </trkpt>
      <trkpt lat="44.80388" lon="5.45828">
        <ele>1408.4420166</ele>
        <time>2011-10-02T08:58:27Z</time>
      </trkpt>
      <trkpt lat="44.80387" lon="5.45834">
        <ele>1408.9229736</ele>
        <time>2011-10-02T08:58:37Z</time>
      </trkpt>
      <trkpt lat="44.8038" lon="5.45833">
        <ele>1408.7640381</ele>
        <time>2011-10-02T08:58:44Z</time>
      </trkpt>
      <trkpt lat="44.80379" lon="5.4583">
        <ele>1408.7390137</ele>
        <time>2011-10-02T08:58:47Z</time>
      </trkpt>
      <trkpt lat="44.80376" lon="5.45827">
        <ele>1408.894043</ele>
        <time>2011-10-02T08:58:52Z</time>
      </trkpt>
      <trkpt lat="44.80376" lon="5.45822">
        <ele>1409.006958</ele>
        <time>2011-10-02T08:58:56Z</time>
      </trkpt>
      <trkpt lat="44.80376" lon="5.45805">
        <ele>1408.1679688</ele>
        <time>2011-10-02T08:59:02Z</time>
      </trkpt>
      <trkpt lat="44.80365" lon="5.45793">
        <ele>1407.0749512</ele>
        <time>2011-10-02T08:59:05Z</time>
      </trkpt>
      <trkpt lat="44.80355" lon="5.4578">
        <ele>1405.8979492</ele>
        <time>2011-10-02T08:59:10Z</time>
      </trkpt>
      <trkpt lat="44.80355" lon="5.45779">
        <ele>1405.6650391</ele>
        <time>2011-10-02T08:59:14Z</time>
      </trkpt>
      <trkpt lat="44.80359" lon="5.4578">
        <ele>1406.4040527</ele>
        <time>2011-10-02T08:59:21Z</time>
      </trkpt>
      <trkpt lat="44.8036" lon="5.4578">
        <ele>1406.5749512</ele>
        <time>2011-10-02T08:59:27Z</time>
      </trkpt>
      <trkpt lat="44.80362" lon="5.45774">
        <ele>1406.2889404</ele>
        <time>2011-10-02T08:59:33Z</time>
      </trkpt>
      <trkpt lat="44.80361" lon="5.45767">
        <ele>1405.5679932</ele>
        <time>2011-10-02T08:59:39Z</time>
      </trkpt>
      <trkpt lat="44.80362" lon="5.45758">
        <ele>1405.3969727</ele>
        <time>2011-10-02T08:59:43Z</time>
      </trkpt>
      <trkpt lat="44.80362" lon="5.45752">
        <ele>1405.6240234</ele>
        <time>2011-10-02T08:59:45Z</time>
      </trkpt>
      <trkpt lat="44.80364" lon="5.45739">
        <ele>1405.8800049</ele>
        <time>2011-10-02T08:59:49Z</time>
      </trkpt>
      <trkpt lat="44.80367" lon="5.45701">
        <ele>1405.7810059</ele>
        <time>2011-10-02T08:59:56Z</time>
      </trkpt>
      <trkpt lat="44.80364" lon="5.45682">
        <ele>1405.967041</ele>
        <time>2011-10-02T09:00:01Z</time>
      </trkpt>
      <trkpt lat="44.80359" lon="5.45672">
        <ele>1406.0479736</ele>
        <time>2011-10-02T09:00:05Z</time>
      </trkpt>
      <trkpt lat="44.80351" lon="5.45657">
        <ele>1405.3640137</ele>
        <time>2011-10-02T09:00:09Z</time>
      </trkpt>
      <trkpt lat="44.80349" lon="5.45641">
        <ele>1404.6500244</ele>
        <time>2011-10-02T09:00:13Z</time>
      </trkpt>
      <trkpt lat="44.8035" lon="5.45638">
        <ele>1404.4859619</ele>
        <time>2011-10-02T09:00:14Z</time>
      </trkpt>
      <trkpt lat="44.8035" lon="5.45622">
        <ele>1404.0050049</ele>
        <time>2011-10-02T09:00:19Z</time>
      </trkpt>
      <trkpt lat="44.80348" lon="5.4562">
        <ele>1403.9510498</ele>
        <time>2011-10-02T09:00:20Z</time>
      </trkpt>
      <trkpt lat="44.80343" lon="5.456">
        <ele>1403.4139404</ele>
        <time>2011-10-02T09:00:26Z</time>
      </trkpt>
      <trkpt lat="44.80347" lon="5.45588">
        <ele>1403.0369873</ele>
        <time>2011-10-02T09:00:30Z</time>
      </trkpt>
      <trkpt lat="44.80363" lon="5.45568">
        <ele>1402.7800293</ele>
        <time>2011-10-02T09:00:36Z</time>
      </trkpt>
      <trkpt lat="44.8037" lon="5.45554">
        <ele>1402.6409912</ele>
        <time>2011-10-02T09:00:40Z</time>
      </trkpt>
      <trkpt lat="44.80367" lon="5.45546">
        <ele>1402.1140137</ele>
        <time>2011-10-02T09:00:44Z</time>
      </trkpt>
      <trkpt lat="44.80351" lon="5.45536">
        <ele>1401.2650146</ele>
        <time>2011-10-02T09:00:49Z</time>
      </trkpt>
      <trkpt lat="44.8034" lon="5.45524">
        <ele>1400.2609863</ele>
        <time>2011-10-02T09:00:53Z</time>
      </trkpt>
      <trkpt lat="44.80331" lon="5.45499">
        <ele>1398.3110352</ele>
        <time>2011-10-02T09:00:58Z</time>
      </trkpt>
      <trkpt lat="44.80326" lon="5.45482">
        <ele>1397.2099609</ele>
        <time>2011-10-02T09:01:02Z</time>
      </trkpt>
      <trkpt lat="44.80323" lon="5.45478">
        <ele>1396.8699951</ele>
        <time>2011-10-02T09:01:03Z</time>
      </trkpt>
      <trkpt lat="44.80317" lon="5.45466">
        <ele>1396.0889893</ele>
        <time>2011-10-02T09:01:06Z</time>
      </trkpt>
      <trkpt lat="44.80315" lon="5.45449">
        <ele>1394.68396</ele>
        <time>2011-10-02T09:01:11Z</time>
      </trkpt>
      <trkpt lat="44.80317" lon="5.45441">
        <ele>1394.2130127</ele>
        <time>2011-10-02T09:01:18Z</time>
      </trkpt>
      <trkpt lat="44.80321" lon="5.45431">
        <ele>1393.6999512</ele>
        <time>2011-10-02T09:01:20Z</time>
      </trkpt>
      <trkpt lat="44.80322" lon="5.45405">
        <ele>1391.5319824</ele>
        <time>2011-10-02T09:01:25Z</time>
      </trkpt>
      <trkpt lat="44.80317" lon="5.45379">
        <ele>1389.9980469</ele>
        <time>2011-10-02T09:01:30Z</time>
      </trkpt>
      <trkpt lat="44.80309" lon="5.45368">
        <ele>1388.9069824</ele>
        <time>2011-10-02T09:01:34Z</time>
      </trkpt>
      <trkpt lat="44.80308" lon="5.4536">
        <ele>1388.5689697</ele>
        <time>2011-10-02T09:01:36Z</time>
      </trkpt>
      <trkpt lat="44.80308" lon="5.45354">
        <ele>1387.8339844</ele>
        <time>2011-10-02T09:01:41Z</time>
      </trkpt>
      <trkpt lat="44.80309" lon="5.45351">
        <ele>1387.6939697</ele>
        <time>2011-10-02T09:01:44Z</time>
      </trkpt>
      <trkpt lat="44.80309" lon="5.45344">
        <ele>1388.4780273</ele>
        <time>2011-10-02T09:01:50Z</time>
      </trkpt>
      <trkpt lat="44.80309" lon="5.45337">
        <ele>1388.4000244</ele>
        <time>2011-10-02T09:01:57Z</time>
      </trkpt>
      <trkpt lat="44.80308" lon="5.45331">
        <ele>1387.0310059</ele>
        <time>2011-10-02T09:02:02Z</time>
      </trkpt>
      <trkpt lat="44.80308" lon="5.4533">
        <ele>1386.5639648</ele>
        <time>2011-10-02T09:02:04Z</time>
      </trkpt>
      <trkpt lat="44.80307" lon="5.45317">
        <ele>1385.2290039</ele>
        <time>2011-10-02T09:02:10Z</time>
      </trkpt>
      <trkpt lat="44.80306" lon="5.45307">
        <ele>1384.2060547</ele>
        <time>2011-10-02T09:02:15Z</time>
      </trkpt>
      <trkpt lat="44.80308" lon="5.45284">
        <ele>1383.4520264</ele>
        <time>2011-10-02T09:02:20Z</time>
      </trkpt>
      <trkpt lat="44.80304" lon="5.4526">
        <ele>1381.8060303</ele>
        <time>2011-10-02T09:02:26Z</time>
      </trkpt>
      <trkpt lat="44.80303" lon="5.45244">
        <ele>1380.3959961</ele>
        <time>2011-10-02T09:02:30Z</time>
      </trkpt>
      <trkpt lat="44.80299" lon="5.45242">
        <ele>1379.3509521</ele>
        <time>2011-10-02T09:02:37Z</time>
      </trkpt>
      <trkpt lat="44.80296" lon="5.4523">
        <ele>1379.1309814</ele>
        <time>2011-10-02T09:02:45Z</time>
      </trkpt>
      <trkpt lat="44.80295" lon="5.45214">
        <ele>1378.6009521</ele>
        <time>2011-10-02T09:02:49Z</time>
      </trkpt>
      <trkpt lat="44.80297" lon="5.45193">
        <ele>1377.5300293</ele>
        <time>2011-10-02T09:02:53Z</time>
      </trkpt>
      <trkpt lat="44.80294" lon="5.45171">
        <ele>1376.1309814</ele>
        <time>2011-10-02T09:02:57Z</time>
      </trkpt>
      <trkpt lat="44.80293" lon="5.45153">
        <ele>1375.0649414</ele>
        <time>2011-10-02T09:03:00Z</time>
      </trkpt>
      <trkpt lat="44.80293" lon="5.45121">
        <ele>1373.2010498</ele>
        <time>2011-10-02T09:03:05Z</time>
      </trkpt>
      <trkpt lat="44.80296" lon="5.45099">
        <ele>1372.019043</ele>
        <time>2011-10-02T09:03:08Z</time>
      </trkpt>
      <trkpt lat="44.80294" lon="5.45066">
        <ele>1370.7089844</ele>
        <time>2011-10-02T09:03:12Z</time>
      </trkpt>
      <trkpt lat="44.80295" lon="5.45049">
        <ele>1369.8239746</ele>
        <time>2011-10-02T09:03:14Z</time>
      </trkpt>
      <trkpt lat="44.80287" lon="5.45031">
        <ele>1367.8129883</ele>
        <time>2011-10-02T09:03:18Z</time>
      </trkpt>
      <trkpt lat="44.8028" lon="5.45026">
        <ele>1366.9470215</ele>
        <time>2011-10-02T09:03:20Z</time>
      </trkpt>
      <trkpt lat="44.80274" lon="5.45017">
        <ele>1366.243042</ele>
        <time>2011-10-02T09:03:22Z</time>
      </trkpt>
      <trkpt lat="44.8026" lon="5.44986">
        <ele>1364.2939453</ele>
        <time>2011-10-02T09:03:27Z</time>
      </trkpt>
      <trkpt lat="44.80249" lon="5.44969">
        <ele>1362.3439941</ele>
        <time>2011-10-02T09:03:31Z</time>
      </trkpt>
      <trkpt lat="44.80239" lon="5.44964">
        <ele>1361.6330566</ele>
        <time>2011-10-02T09:03:34Z</time>
      </trkpt>
      <trkpt lat="44.80225" lon="5.44946">
        <ele>1359.5780029</ele>
        <time>2011-10-02T09:03:40Z</time>
      </trkpt>
      <trkpt lat="44.80216" lon="5.44934">
        <ele>1357.8709717</ele>
        <time>2011-10-02T09:03:45Z</time>
      </trkpt>
      <trkpt lat="44.8021" lon="5.44924">
        <ele>1356.8840332</ele>
        <time>2011-10-02T09:03:50Z</time>
      </trkpt>
      <trkpt lat="44.80204" lon="5.44906">
        <ele>1356.0200195</ele>
        <time>2011-10-02T09:03:54Z</time>
      </trkpt>
      <trkpt lat="44.80199" lon="5.44875">
        <ele>1354.8170166</ele>
        <time>2011-10-02T09:03:59Z</time>
      </trkpt>
      <trkpt lat="44.80193" lon="5.4486">
        <ele>1353.8289795</ele>
        <time>2011-10-02T09:04:02Z</time>
      </trkpt>
      <trkpt lat="44.80178" lon="5.44834">
        <ele>1351.8220215</ele>
        <time>2011-10-02T09:04:08Z</time>
      </trkpt>
      <trkpt lat="44.80173" lon="5.44832">
        <ele>1350.842041</ele>
        <time>2011-10-02T09:04:12Z</time>
      </trkpt>
      <trkpt lat="44.80173" lon="5.44833">
        <ele>1350.5980225</ele>
        <time>2011-10-02T09:04:14Z</time>
      </trkpt>
      <trkpt lat="44.8017" lon="5.44834">
        <ele>1350.8659668</ele>
        <time>2011-10-02T09:04:19Z</time>
      </trkpt>
      <trkpt lat="44.80166" lon="5.44833">
        <ele>1351.8249512</ele>
        <time>2011-10-02T09:04:26Z</time>
      </trkpt>
      <trkpt lat="44.80164" lon="5.44829">
        <ele>1351.506958</ele>
        <time>2011-10-02T09:04:33Z</time>
      </trkpt>
      <trkpt lat="44.80163" lon="5.44826">
        <ele>1350.8549805</ele>
        <time>2011-10-02T09:04:37Z</time>
      </trkpt>
      <trkpt lat="44.8016" lon="5.44812">
        <ele>1349.6779785</ele>
        <time>2011-10-02T09:04:42Z</time>
      </trkpt>
      <trkpt lat="44.80149" lon="5.44808">
        <ele>1348.3270264</ele>
        <time>2011-10-02T09:04:46Z</time>
      </trkpt>
      <trkpt lat="44.80146" lon="5.44795">
        <ele>1347.2989502</ele>
        <time>2011-10-02T09:04:49Z</time>
      </trkpt>
      <trkpt lat="44.80143" lon="5.44773">
        <ele>1346.5379639</ele>
        <time>2011-10-02T09:04:52Z</time>
      </trkpt>
      <trkpt lat="44.80125" lon="5.44739">
        <ele>1344.269043</ele>
        <time>2011-10-02T09:04:57Z</time>
      </trkpt>
      <trkpt lat="44.80114" lon="5.44718">
        <ele>1342.8800049</ele>
        <time>2011-10-02T09:05:00Z</time>
      </trkpt>
      <trkpt lat="44.80102" lon="5.44688">
        <ele>1341</ele>
        <time>2011-10-02T09:05:04Z</time>
      </trkpt>
      <trkpt lat="44.80094" lon="5.44662">
        <ele>1339.7159424</ele>
        <time>2011-10-02T09:05:07Z</time>
      </trkpt>
      <trkpt lat="44.80079" lon="5.44632">
        <ele>1337.8470459</ele>
        <time>2011-10-02T09:05:11Z</time>
      </trkpt>
      <trkpt lat="44.8007" lon="5.44607">
        <ele>1336.3189697</ele>
        <time>2011-10-02T09:05:14Z</time>
      </trkpt>
      <trkpt lat="44.80063" lon="5.4458">
        <ele>1335.2709961</ele>
        <time>2011-10-02T09:05:17Z</time>
      </trkpt>
      <trkpt lat="44.80057" lon="5.44555">
        <ele>1333.2380371</ele>
        <time>2011-10-02T09:05:21Z</time>
      </trkpt>
      <trkpt lat="44.8006" lon="5.44546">
        <ele>1331.9370117</ele>
        <time>2011-10-02T09:05:24Z</time>
      </trkpt>
      <trkpt lat="44.80061" lon="5.44547">
        <ele>1331.0880127</ele>
        <time>2011-10-02T09:05:30Z</time>
      </trkpt>
      <trkpt lat="44.80061" lon="5.44549">
        <ele>1330.8060303</ele>
        <time>2011-10-02T09:05:35Z</time>
      </trkpt>
      <trkpt lat="44.80059" lon="5.44545">
        <ele>1330.5400391</ele>
        <time>2011-10-02T09:05:41Z</time>
      </trkpt>
      <trkpt lat="44.80059" lon="5.44545">
        <ele>1330.6729736</ele>
        <time>2011-10-02T09:06:09Z</time>
      </trkpt>
      <trkpt lat="44.80048" lon="5.44531">
        <ele>1330.4570313</ele>
        <time>2011-10-02T09:06:14Z</time>
      </trkpt>
      <trkpt lat="44.80037" lon="5.4452">
        <ele>1329.7249756</ele>
        <time>2011-10-02T09:06:17Z</time>
      </trkpt>
      <trkpt lat="44.80025" lon="5.44508">
        <ele>1328.5539551</ele>
        <time>2011-10-02T09:06:20Z</time>
      </trkpt>
      <trkpt lat="44.80001" lon="5.44479">
        <ele>1326.4279785</ele>
        <time>2011-10-02T09:06:26Z</time>
      </trkpt>
      <trkpt lat="44.79984" lon="5.44457">
        <ele>1324.9040527</ele>
        <time>2011-10-02T09:06:31Z</time>
      </trkpt>
      <trkpt lat="44.79971" lon="5.44432">
        <ele>1323.0360107</ele>
        <time>2011-10-02T09:06:37Z</time>
      </trkpt>
      <trkpt lat="44.79964" lon="5.44425">
        <ele>1322.5789795</ele>
        <time>2011-10-02T09:06:39Z</time>
      </trkpt>
      <trkpt lat="44.79947" lon="5.44402">
        <ele>1321.1020508</ele>
        <time>2011-10-02T09:06:44Z</time>
      </trkpt>
      <trkpt lat="44.79921" lon="5.44363">
        <ele>1318.2370605</ele>
        <time>2011-10-02T09:06:51Z</time>
      </trkpt>
      <trkpt lat="44.7991" lon="5.44336">
        <ele>1316.5610352</ele>
        <time>2011-10-02T09:06:55Z</time>
      </trkpt>
      <trkpt lat="44.79892" lon="5.44313">
        <ele>1315.3010254</ele>
        <time>2011-10-02T09:06:59Z</time>
      </trkpt>
      <trkpt lat="44.79887" lon="5.44309">
        <ele>1314.7550049</ele>
        <time>2011-10-02T09:07:00Z</time>
      </trkpt>
      <trkpt lat="44.79876" lon="5.44301">
        <ele>1312.9949951</ele>
        <time>2011-10-02T09:07:04Z</time>
      </trkpt>
      <trkpt lat="44.79874" lon="5.443">
        <ele>1312.3929443</ele>
        <time>2011-10-02T09:07:06Z</time>
      </trkpt>
      <trkpt lat="44.79874" lon="5.443">
        <ele>1311.9620361</ele>
        <time>2011-10-02T09:07:13Z</time>
      </trkpt>
      <trkpt lat="44.79872" lon="5.44297">
        <ele>1311.8630371</ele>
        <time>2011-10-02T09:07:20Z</time>
      </trkpt>
      <trkpt lat="44.79881" lon="5.44299">
        <ele>1311.2020264</ele>
        <time>2011-10-02T09:07:40Z</time>
      </trkpt>
      <trkpt lat="44.7988" lon="5.44301">
        <ele>1309.9100342</ele>
        <time>2011-10-02T09:09:56Z</time>
      </trkpt>
      <trkpt lat="44.79878" lon="5.44302">
        <ele>1310.8709717</ele>
        <time>2011-10-02T09:10:00Z</time>
      </trkpt>
      <trkpt lat="44.79876" lon="5.44305">
        <ele>1312.0279541</ele>
        <time>2011-10-02T09:10:05Z</time>
      </trkpt>
      <trkpt lat="44.7987" lon="5.44296">
        <ele>1311.0489502</ele>
        <time>2011-10-02T09:10:37Z</time>
      </trkpt>
      <trkpt lat="44.79871" lon="5.44294">
        <ele>1309.7070313</ele>
        <time>2011-10-02T09:10:45Z</time>
      </trkpt>
      <trkpt lat="44.7987" lon="5.44292">
        <ele>1308.8320313</ele>
        <time>2011-10-02T09:12:46Z</time>
      </trkpt>
      <trkpt lat="44.79871" lon="5.44297">
        <ele>1309.2390137</ele>
        <time>2011-10-02T09:12:52Z</time>
      </trkpt>
      <trkpt lat="44.79878" lon="5.44305">
        <ele>1309.5489502</ele>
        <time>2011-10-02T09:13:27Z</time>
      </trkpt>
      <trkpt lat="44.79879" lon="5.44308">
        <ele>1310.9820557</ele>
        <time>2011-10-02T09:13:34Z</time>
      </trkpt>
      <trkpt lat="44.79877" lon="5.44307">
        <ele>1311.8029785</ele>
        <time>2011-10-02T09:13:42Z</time>
      </trkpt>
      <trkpt lat="44.79874" lon="5.44295">
        <ele>1310.3719482</ele>
        <time>2011-10-02T09:13:50Z</time>
      </trkpt>
      <trkpt lat="44.79871" lon="5.44296">
        <ele>1309.4360352</ele>
        <time>2011-10-02T09:13:59Z</time>
      </trkpt>
      <trkpt lat="44.79872" lon="5.44296">
        <ele>1309.276001</ele>
        <time>2011-10-02T09:14:24Z</time>
      </trkpt>
      <trkpt lat="44.79877" lon="5.44299">
        <ele>1309.6800537</ele>
        <time>2011-10-02T09:14:33Z</time>
      </trkpt>
      <trkpt lat="44.79877" lon="5.44301">
        <ele>1311.243042</ele>
        <time>2011-10-02T09:14:39Z</time>
      </trkpt>
      <trkpt lat="44.79879" lon="5.44305">
        <ele>1312.7480469</ele>
        <time>2011-10-02T09:14:44Z</time>
      </trkpt>
      <trkpt lat="44.79884" lon="5.4431">
        <ele>1314.2779541</ele>
        <time>2011-10-02T09:14:51Z</time>
      </trkpt>
      <trkpt lat="44.79888" lon="5.44319">
        <ele>1317.1359863</ele>
        <time>2011-10-02T09:15:03Z</time>
      </trkpt>
      <trkpt lat="44.79889" lon="5.44324">
        <ele>1318.3499756</ele>
        <time>2011-10-02T09:15:08Z</time>
      </trkpt>
      <trkpt lat="44.79891" lon="5.44329">
        <ele>1320.0639648</ele>
        <time>2011-10-02T09:15:15Z</time>
      </trkpt>
      <trkpt lat="44.79891" lon="5.44336">
        <ele>1321.0810547</ele>
        <time>2011-10-02T09:15:21Z</time>
      </trkpt>
      <trkpt lat="44.79892" lon="5.44341">
        <ele>1322.7259521</ele>
        <time>2011-10-02T09:15:28Z</time>
      </trkpt>
      <trkpt lat="44.79892" lon="5.44346">
        <ele>1323.743042</ele>
        <time>2011-10-02T09:15:33Z</time>
      </trkpt>
      <trkpt lat="44.79893" lon="5.44351">
        <ele>1325.0550537</ele>
        <time>2011-10-02T09:15:38Z</time>
      </trkpt>
      <trkpt lat="44.7989" lon="5.44359">
        <ele>1326.3520508</ele>
        <time>2011-10-02T09:15:44Z</time>
      </trkpt>
      <trkpt lat="44.79887" lon="5.44361">
        <ele>1327.0080566</ele>
        <time>2011-10-02T09:15:52Z</time>
      </trkpt>
      <trkpt lat="44.79884" lon="5.44361">
        <ele>1327.3310547</ele>
        <time>2011-10-02T09:15:57Z</time>
      </trkpt>
      <trkpt lat="44.79879" lon="5.44359">
        <ele>1327.8100586</ele>
        <time>2011-10-02T09:16:02Z</time>
      </trkpt>
      <trkpt lat="44.79877" lon="5.44355">
        <ele>1328.3620605</ele>
        <time>2011-10-02T09:16:07Z</time>
      </trkpt>
      <trkpt lat="44.79873" lon="5.44354">
        <ele>1329.9589844</ele>
        <time>2011-10-02T09:16:14Z</time>
      </trkpt>
      <trkpt lat="44.79873" lon="5.44358">
        <ele>1331.6550293</ele>
        <time>2011-10-02T09:16:20Z</time>
      </trkpt>
      <trkpt lat="44.79871" lon="5.44364">
        <ele>1333.3830566</ele>
        <time>2011-10-02T09:16:26Z</time>
      </trkpt>
      <trkpt lat="44.79873" lon="5.44365">
        <ele>1334.0639648</ele>
        <time>2011-10-02T09:16:29Z</time>
      </trkpt>
      <trkpt lat="44.79871" lon="5.44368">
        <ele>1335.355957</ele>
        <time>2011-10-02T09:16:34Z</time>
      </trkpt>
      <trkpt lat="44.7987" lon="5.44369">
        <ele>1335.980957</ele>
        <time>2011-10-02T09:16:36Z</time>
      </trkpt>
      <trkpt lat="44.79868" lon="5.44373">
        <ele>1337.5279541</ele>
        <time>2011-10-02T09:16:44Z</time>
      </trkpt>
      <trkpt lat="44.79866" lon="5.44373">
        <ele>1338.8039551</ele>
        <time>2011-10-02T09:16:51Z</time>
      </trkpt>
      <trkpt lat="44.79864" lon="5.44366">
        <ele>1340.8139648</ele>
        <time>2011-10-02T09:17:09Z</time>
      </trkpt>
      <trkpt lat="44.79861" lon="5.44364">
        <ele>1341.3740234</ele>
        <time>2011-10-02T09:17:14Z</time>
      </trkpt>
      <trkpt lat="44.79858" lon="5.44364">
        <ele>1340.9110107</ele>
        <time>2011-10-02T09:18:56Z</time>
      </trkpt>
      <trkpt lat="44.79857" lon="5.44363">
        <ele>1340.1739502</ele>
        <time>2011-10-02T09:19:09Z</time>
      </trkpt>
      <trkpt lat="44.79857" lon="5.44364">
        <ele>1339.9720459</ele>
        <time>2011-10-02T09:19:11Z</time>
      </trkpt>
      <trkpt lat="44.79858" lon="5.44364">
        <ele>1340.5290527</ele>
        <time>2011-10-02T09:19:18Z</time>
      </trkpt>
      <trkpt lat="44.79855" lon="5.44361">
        <ele>1339.7800293</ele>
        <time>2011-10-02T09:19:25Z</time>
      </trkpt>
      <trkpt lat="44.79858" lon="5.44366">
        <ele>1340.3520508</ele>
        <time>2011-10-02T09:19:31Z</time>
      </trkpt>
      <trkpt lat="44.79858" lon="5.44365">
        <ele>1340.8699951</ele>
        <time>2011-10-02T09:19:38Z</time>
      </trkpt>
      <trkpt lat="44.79854" lon="5.44363">
        <ele>1339.9699707</ele>
        <time>2011-10-02T09:19:44Z</time>
      </trkpt>
      <trkpt lat="44.79853" lon="5.44367">
        <ele>1338.6939697</ele>
        <time>2011-10-02T09:19:49Z</time>
      </trkpt>
      <trkpt lat="44.79852" lon="5.44366">
        <ele>1338.3129883</ele>
        <time>2011-10-02T09:19:50Z</time>
      </trkpt>
      <trkpt lat="44.7985" lon="5.44364">
        <ele>1337.5439453</ele>
        <time>2011-10-02T09:19:52Z</time>
      </trkpt>
      <trkpt lat="44.79849" lon="5.44376">
        <ele>1334.93396</ele>
        <time>2011-10-02T09:19:57Z</time>
      </trkpt>
      <trkpt lat="44.79847" lon="5.44376">
        <ele>1334.3909912</ele>
        <time>2011-10-02T09:19:59Z</time>
      </trkpt>
      <trkpt lat="44.79839" lon="5.44371">
        <ele>1330.9539795</ele>
        <time>2011-10-02T09:20:04Z</time>
      </trkpt>
      <trkpt lat="44.79837" lon="5.44382">
        <ele>1328.8320313</ele>
        <time>2011-10-02T09:20:07Z</time>
      </trkpt>
      <trkpt lat="44.79835" lon="5.44388">
        <ele>1327.4470215</ele>
        <time>2011-10-02T09:20:09Z</time>
      </trkpt>
      <trkpt lat="44.79831" lon="5.44384">
        <ele>1325.0040283</ele>
        <time>2011-10-02T09:20:13Z</time>
      </trkpt>
      <trkpt lat="44.79829" lon="5.44372">
        <ele>1323.1009521</ele>
        <time>2011-10-02T09:20:17Z</time>
      </trkpt>
      <trkpt lat="44.79829" lon="5.44372">
        <ele>1322.243042</ele>
        <time>2011-10-02T09:20:19Z</time>
      </trkpt>
      <trkpt lat="44.79822" lon="5.44383">
        <ele>1320.2600098</ele>
        <time>2011-10-02T09:20:24Z</time>
      </trkpt>
      <trkpt lat="44.79817" lon="5.44389">
        <ele>1318.8129883</ele>
        <time>2011-10-02T09:20:26Z</time>
      </trkpt>
      <trkpt lat="44.798" lon="5.44411">
        <ele>1312.2249756</ele>
        <time>2011-10-02T09:20:32Z</time>
      </trkpt>
      <trkpt lat="44.79797" lon="5.44414">
        <ele>1311.0179443</ele>
        <time>2011-10-02T09:20:33Z</time>
      </trkpt>
      <trkpt lat="44.7979" lon="5.44421">
        <ele>1306.5799561</ele>
        <time>2011-10-02T09:20:37Z</time>
      </trkpt>
      <trkpt lat="44.7978" lon="5.44441">
        <ele>1302.0670166</ele>
        <time>2011-10-02T09:20:42Z</time>
      </trkpt>
      <trkpt lat="44.79776" lon="5.4445">
        <ele>1300.2340088</ele>
        <time>2011-10-02T09:20:44Z</time>
      </trkpt>
      <trkpt lat="44.79765" lon="5.44472">
        <ele>1296.1829834</ele>
        <time>2011-10-02T09:20:48Z</time>
      </trkpt>
      <trkpt lat="44.79759" lon="5.44482">
        <ele>1295.1120605</ele>
        <time>2011-10-02T09:20:50Z</time>
      </trkpt>
      <trkpt lat="44.79753" lon="5.44502">
        <ele>1291.19104</ele>
        <time>2011-10-02T09:20:54Z</time>
      </trkpt>
      <trkpt lat="44.79741" lon="5.44523">
        <ele>1288.4169922</ele>
        <time>2011-10-02T09:20:59Z</time>
      </trkpt>
      <trkpt lat="44.79729" lon="5.44546">
        <ele>1286.5679932</ele>
        <time>2011-10-02T09:21:04Z</time>
      </trkpt>
      <trkpt lat="44.79725" lon="5.44561">
        <ele>1284.3000488</ele>
        <time>2011-10-02T09:21:08Z</time>
      </trkpt>
      <trkpt lat="44.79725" lon="5.44569">
        <ele>1281.8800049</ele>
        <time>2011-10-02T09:21:12Z</time>
      </trkpt>
      <trkpt lat="44.79721" lon="5.44585">
        <ele>1281.0510254</ele>
        <time>2011-10-02T09:21:17Z</time>
      </trkpt>
      <trkpt lat="44.7972" lon="5.44591">
        <ele>1280.9210205</ele>
        <time>2011-10-02T09:21:21Z</time>
      </trkpt>
      <trkpt lat="44.79715" lon="5.44604">
        <ele>1280.3050537</ele>
        <time>2011-10-02T09:21:56Z</time>
      </trkpt>
      <trkpt lat="44.79712" lon="5.44611">
        <ele>1280.4179688</ele>
        <time>2011-10-02T09:21:58Z</time>
      </trkpt>
      <trkpt lat="44.79692" lon="5.44617">
        <ele>1280.1899414</ele>
        <time>2011-10-02T09:22:03Z</time>
      </trkpt>
      <trkpt lat="44.7968" lon="5.44622">
        <ele>1280.1169434</ele>
        <time>2011-10-02T09:22:07Z</time>
      </trkpt>
      <trkpt lat="44.79671" lon="5.44625">
        <ele>1280.7449951</ele>
        <time>2011-10-02T09:22:12Z</time>
      </trkpt>
      <trkpt lat="44.79659" lon="5.44622">
        <ele>1280.6860352</ele>
        <time>2011-10-02T09:22:16Z</time>
      </trkpt>
      <trkpt lat="44.79654" lon="5.44619">
        <ele>1280.1130371</ele>
        <time>2011-10-02T09:22:20Z</time>
      </trkpt>
      <trkpt lat="44.79653" lon="5.44637">
        <ele>1279.2259521</ele>
        <time>2011-10-02T09:23:32Z</time>
      </trkpt>
      <trkpt lat="44.79649" lon="5.44645">
        <ele>1280.4470215</ele>
        <time>2011-10-02T09:23:40Z</time>
      </trkpt>
      <trkpt lat="44.79648" lon="5.44645">
        <ele>1280.4610596</ele>
        <time>2011-10-02T09:23:41Z</time>
      </trkpt>
      <trkpt lat="44.79644" lon="5.44643">
        <ele>1280.2130127</ele>
        <time>2011-10-02T09:23:48Z</time>
      </trkpt>
      <trkpt lat="44.79641" lon="5.44641">
        <ele>1280.3260498</ele>
        <time>2011-10-02T09:23:53Z</time>
      </trkpt>
      <trkpt lat="44.79633" lon="5.44635">
        <ele>1280.1209717</ele>
        <time>2011-10-02T09:23:57Z</time>
      </trkpt>
      <trkpt lat="44.79623" lon="5.44632">
        <ele>1279.4720459</ele>
        <time>2011-10-02T09:24:00Z</time>
      </trkpt>
      <trkpt lat="44.79606" lon="5.44637">
        <ele>1278.7149658</ele>
        <time>2011-10-02T09:24:06Z</time>
      </trkpt>
      <trkpt lat="44.79587" lon="5.44628">
        <ele>1278.5009766</ele>
        <time>2011-10-02T09:24:12Z</time>
      </trkpt>
      <trkpt lat="44.79577" lon="5.44636">
        <ele>1278.1070557</ele>
        <time>2011-10-02T09:24:16Z</time>
      </trkpt>
      <trkpt lat="44.79564" lon="5.44646">
        <ele>1277.8299561</ele>
        <time>2011-10-02T09:24:21Z</time>
      </trkpt>
      <trkpt lat="44.79558" lon="5.44647">
        <ele>1277.7900391</ele>
        <time>2011-10-02T09:24:23Z</time>
      </trkpt>
      <trkpt lat="44.79558" lon="5.4467">
        <ele>1277.625</ele>
        <time>2011-10-02T09:24:28Z</time>
      </trkpt>
      <trkpt lat="44.79562" lon="5.44702">
        <ele>1277.3609619</ele>
        <time>2011-10-02T09:24:34Z</time>
      </trkpt>
      <trkpt lat="44.7957" lon="5.44715">
        <ele>1277.2490234</ele>
        <time>2011-10-02T09:24:38Z</time>
      </trkpt>
      <trkpt lat="44.79576" lon="5.4472">
        <ele>1277.2299805</ele>
        <time>2011-10-02T09:24:42Z</time>
      </trkpt>
      <trkpt lat="44.79582" lon="5.44725">
        <ele>1277.2480469</ele>
        <time>2011-10-02T09:24:48Z</time>
      </trkpt>
      <trkpt lat="44.79596" lon="5.44742">
        <ele>1277.4239502</ele>
        <time>2011-10-02T09:24:54Z</time>
      </trkpt>
      <trkpt lat="44.79609" lon="5.44767">
        <ele>1277.3459473</ele>
        <time>2011-10-02T09:25:01Z</time>
      </trkpt>
      <trkpt lat="44.79618" lon="5.4479">
        <ele>1277.3599854</ele>
        <time>2011-10-02T09:25:06Z</time>
      </trkpt>
      <trkpt lat="44.79638" lon="5.4482">
        <ele>1277.5710449</ele>
        <time>2011-10-02T09:25:14Z</time>
      </trkpt>
      <trkpt lat="44.79656" lon="5.44843">
        <ele>1277.3520508</ele>
        <time>2011-10-02T09:25:20Z</time>
      </trkpt>
      <trkpt lat="44.79668" lon="5.44856">
        <ele>1277.0240479</ele>
        <time>2011-10-02T09:25:25Z</time>
      </trkpt>
      <trkpt lat="44.79679" lon="5.44877">
        <ele>1277.0820313</ele>
        <time>2011-10-02T09:25:30Z</time>
      </trkpt>
      <trkpt lat="44.79678" lon="5.44903">
        <ele>1277.3260498</ele>
        <time>2011-10-02T09:25:35Z</time>
      </trkpt>
      <trkpt lat="44.79677" lon="5.44915">
        <ele>1277.4060059</ele>
        <time>2011-10-02T09:25:37Z</time>
      </trkpt>
      <trkpt lat="44.79683" lon="5.44954">
        <ele>1277.1219482</ele>
        <time>2011-10-02T09:25:44Z</time>
      </trkpt>
      <trkpt lat="44.79684" lon="5.44957">
        <ele>1277.1290283</ele>
        <time>2011-10-02T09:25:45Z</time>
      </trkpt>
      <trkpt lat="44.79671" lon="5.44974">
        <ele>1277.0360107</ele>
        <time>2011-10-02T09:25:50Z</time>
      </trkpt>
      <trkpt lat="44.79662" lon="5.44994">
        <ele>1276.9539795</ele>
        <time>2011-10-02T09:25:54Z</time>
      </trkpt>
      <trkpt lat="44.79661" lon="5.45009">
        <ele>1276.7750244</ele>
        <time>2011-10-02T09:25:57Z</time>
      </trkpt>
      <trkpt lat="44.79668" lon="5.45038">
        <ele>1276.8909912</ele>
        <time>2011-10-02T09:26:05Z</time>
      </trkpt>
      <trkpt lat="44.79671" lon="5.4505">
        <ele>1276.5839844</ele>
        <time>2011-10-02T09:26:09Z</time>
      </trkpt>
      <trkpt lat="44.79676" lon="5.45069">
        <ele>1276.5179443</ele>
        <time>2011-10-02T09:26:13Z</time>
      </trkpt>
      <trkpt lat="44.79679" lon="5.45087">
        <ele>1276.6230469</ele>
        <time>2011-10-02T09:26:17Z</time>
      </trkpt>
      <trkpt lat="44.79681" lon="5.4509">
        <ele>1276.6629639</ele>
        <time>2011-10-02T09:26:18Z</time>
      </trkpt>
      <trkpt lat="44.79676" lon="5.45115">
        <ele>1276.5849609</ele>
        <time>2011-10-02T09:26:23Z</time>
      </trkpt>
      <trkpt lat="44.79664" lon="5.45126">
        <ele>1276.6300049</ele>
        <time>2011-10-02T09:26:27Z</time>
      </trkpt>
      <trkpt lat="44.7965" lon="5.45137">
        <ele>1276.3929443</ele>
        <time>2011-10-02T09:26:32Z</time>
      </trkpt>
      <trkpt lat="44.79638" lon="5.45142">
        <ele>1275.9720459</ele>
        <time>2011-10-02T09:26:38Z</time>
      </trkpt>
      <trkpt lat="44.79639" lon="5.45138">
        <ele>1275.9899902</ele>
        <time>2011-10-02T09:26:46Z</time>
      </trkpt>
      <trkpt lat="44.79633" lon="5.45147">
        <ele>1275.9659424</ele>
        <time>2011-10-02T09:26:51Z</time>
      </trkpt>
      <trkpt lat="44.79631" lon="5.45151">
        <ele>1276.0100098</ele>
        <time>2011-10-02T09:26:52Z</time>
      </trkpt>
      <trkpt lat="44.79624" lon="5.45176">
        <ele>1275.7850342</ele>
        <time>2011-10-02T09:26:57Z</time>
      </trkpt>
      <trkpt lat="44.79624" lon="5.45205">
        <ele>1275.7709961</ele>
        <time>2011-10-02T09:27:02Z</time>
      </trkpt>
      <trkpt lat="44.79628" lon="5.45238">
        <ele>1275.6409912</ele>
        <time>2011-10-02T09:27:08Z</time>
      </trkpt>
      <trkpt lat="44.79629" lon="5.45244">
        <ele>1275.618042</ele>
        <time>2011-10-02T09:27:09Z</time>
      </trkpt>
      <trkpt lat="44.7962" lon="5.4528">
        <ele>1275.3399658</ele>
        <time>2011-10-02T09:27:15Z</time>
      </trkpt>
      <trkpt lat="44.79607" lon="5.45294">
        <ele>1275.1219482</ele>
        <time>2011-10-02T09:27:20Z</time>
      </trkpt>
      <trkpt lat="44.79606" lon="5.45297">
        <ele>1275.1140137</ele>
        <time>2011-10-02T09:27:21Z</time>
      </trkpt>
      <trkpt lat="44.79598" lon="5.45321">
        <ele>1275.1939697</ele>
        <time>2011-10-02T09:27:26Z</time>
      </trkpt>
      <trkpt lat="44.79596" lon="5.45334">
        <ele>1275.2810059</ele>
        <time>2011-10-02T09:27:30Z</time>
      </trkpt>
      <trkpt lat="44.79598" lon="5.45334">
        <ele>1275.5770264</ele>
        <time>2011-10-02T09:27:36Z</time>
      </trkpt>
      <trkpt lat="44.79596" lon="5.45339">
        <ele>1275.1159668</ele>
        <time>2011-10-02T09:27:48Z</time>
      </trkpt>
      <trkpt lat="44.79596" lon="5.4534">
        <ele>1275.1340332</ele>
        <time>2011-10-02T09:27:49Z</time>
      </trkpt>
      <trkpt lat="44.7959" lon="5.45356">
        <ele>1275.151001</ele>
        <time>2011-10-02T09:27:54Z</time>
      </trkpt>
      <trkpt lat="44.79589" lon="5.4536">
        <ele>1275.1379395</ele>
        <time>2011-10-02T09:27:55Z</time>
      </trkpt>
      <trkpt lat="44.7958" lon="5.45384">
        <ele>1274.8649902</ele>
        <time>2011-10-02T09:28:00Z</time>
      </trkpt>
      <trkpt lat="44.79577" lon="5.45389">
        <ele>1274.8239746</ele>
        <time>2011-10-02T09:28:01Z</time>
      </trkpt>
      <trkpt lat="44.79572" lon="5.45401">
        <ele>1274.8210449</ele>
        <time>2011-10-02T09:28:03Z</time>
      </trkpt>
      <trkpt lat="44.79572" lon="5.45428">
        <ele>1274.75</ele>
        <time>2011-10-02T09:28:08Z</time>
      </trkpt>
      <trkpt lat="44.79571" lon="5.4544">
        <ele>1274.5830078</ele>
        <time>2011-10-02T09:28:11Z</time>
      </trkpt>
      <trkpt lat="44.79573" lon="5.45445">
        <ele>1274.1390381</ele>
        <time>2011-10-02T09:28:17Z</time>
      </trkpt>
      <trkpt lat="44.79572" lon="5.45438">
        <ele>1274.6550293</ele>
        <time>2011-10-02T09:31:50Z</time>
      </trkpt>
      <trkpt lat="44.79571" lon="5.4544">
        <ele>1274.5999756</ele>
        <time>2011-10-02T09:31:51Z</time>
      </trkpt>
      <trkpt lat="44.7957" lon="5.45451">
        <ele>1274.131958</ele>
        <time>2011-10-02T09:31:56Z</time>
      </trkpt>
      <trkpt lat="44.79556" lon="5.45459">
        <ele>1273.9499512</ele>
        <time>2011-10-02T09:32:02Z</time>
      </trkpt>
      <trkpt lat="44.79542" lon="5.45458">
        <ele>1274.0810547</ele>
        <time>2011-10-02T09:32:07Z</time>
      </trkpt>
      <trkpt lat="44.79536" lon="5.45464">
        <ele>1273.93396</ele>
        <time>2011-10-02T09:32:09Z</time>
      </trkpt>
      <trkpt lat="44.79525" lon="5.45483">
        <ele>1273.6989746</ele>
        <time>2011-10-02T09:32:14Z</time>
      </trkpt>
      <trkpt lat="44.79522" lon="5.45493">
        <ele>1273.6500244</ele>
        <time>2011-10-02T09:32:16Z</time>
      </trkpt>
      <trkpt lat="44.79502" lon="5.45514">
        <ele>1273.0360107</ele>
        <time>2011-10-02T09:32:21Z</time>
      </trkpt>
      <trkpt lat="44.79494" lon="5.45521">
        <ele>1272.6359863</ele>
        <time>2011-10-02T09:32:23Z</time>
      </trkpt>
      <trkpt lat="44.79476" lon="5.45539">
        <ele>1271.7950439</ele>
        <time>2011-10-02T09:32:27Z</time>
      </trkpt>
      <trkpt lat="44.79443" lon="5.45563">
        <ele>1270.7929688</ele>
        <time>2011-10-02T09:32:33Z</time>
      </trkpt>
      <trkpt lat="44.79438" lon="5.45567">
        <ele>1270.6219482</ele>
        <time>2011-10-02T09:32:34Z</time>
      </trkpt>
      <trkpt lat="44.79422" lon="5.45582">
        <ele>1269.8320313</ele>
        <time>2011-10-02T09:32:38Z</time>
      </trkpt>
      <trkpt lat="44.7941" lon="5.45603">
        <ele>1268.7469482</ele>
        <time>2011-10-02T09:32:43Z</time>
      </trkpt>
      <trkpt lat="44.79402" lon="5.45612">
        <ele>1268.1090088</ele>
        <time>2011-10-02T09:32:45Z</time>
      </trkpt>
      <trkpt lat="44.79384" lon="5.4564">
        <ele>1266.3349609</ele>
        <time>2011-10-02T09:32:51Z</time>
      </trkpt>
      <trkpt lat="44.79376" lon="5.45657">
        <ele>1265.56604</ele>
        <time>2011-10-02T09:32:55Z</time>
      </trkpt>
      <trkpt lat="44.79362" lon="5.45681">
        <ele>1265.217041</ele>
        <time>2011-10-02T09:33:02Z</time>
      </trkpt>
      <trkpt lat="44.79347" lon="5.45694">
        <ele>1264.7509766</ele>
        <time>2011-10-02T09:33:07Z</time>
      </trkpt>
      <trkpt lat="44.79327" lon="5.45715">
        <ele>1263.8409424</ele>
        <time>2011-10-02T09:33:13Z</time>
      </trkpt>
      <trkpt lat="44.79309" lon="5.4573">
        <ele>1263.0019531</ele>
        <time>2011-10-02T09:33:18Z</time>
      </trkpt>
      <trkpt lat="44.79305" lon="5.45735">
        <ele>1262.6519775</ele>
        <time>2011-10-02T09:33:20Z</time>
      </trkpt>
      <trkpt lat="44.79286" lon="5.45762">
        <ele>1262.3249512</ele>
        <time>2011-10-02T09:33:26Z</time>
      </trkpt>
      <trkpt lat="44.79271" lon="5.45776">
        <ele>1261.5710449</ele>
        <time>2011-10-02T09:33:30Z</time>
      </trkpt>
      <trkpt lat="44.79259" lon="5.45786">
        <ele>1261.0720215</ele>
        <time>2011-10-02T09:33:33Z</time>
      </trkpt>
      <trkpt lat="44.79243" lon="5.45793">
        <ele>1260.30896</ele>
        <time>2011-10-02T09:33:37Z</time>
      </trkpt>
      <trkpt lat="44.79239" lon="5.45794">
        <ele>1259.4959717</ele>
        <time>2011-10-02T09:33:42Z</time>
      </trkpt>
      <trkpt lat="44.79226" lon="5.45797">
        <ele>1258.5229492</ele>
        <time>2011-10-02T09:33:48Z</time>
      </trkpt>
      <trkpt lat="44.79208" lon="5.45811">
        <ele>1258.0059814</ele>
        <time>2011-10-02T09:33:53Z</time>
      </trkpt>
      <trkpt lat="44.79196" lon="5.45822">
        <ele>1257.9360352</ele>
        <time>2011-10-02T09:33:56Z</time>
      </trkpt>
      <trkpt lat="44.79177" lon="5.45838">
        <ele>1257.6519775</ele>
        <time>2011-10-02T09:34:01Z</time>
      </trkpt>
      <trkpt lat="44.79155" lon="5.45854">
        <ele>1256.6800537</ele>
        <time>2011-10-02T09:34:06Z</time>
      </trkpt>
      <trkpt lat="44.79129" lon="5.45866">
        <ele>1255.7280273</ele>
        <time>2011-10-02T09:34:12Z</time>
      </trkpt>
      <trkpt lat="44.79117" lon="5.45869">
        <ele>1255.4129639</ele>
        <time>2011-10-02T09:34:14Z</time>
      </trkpt>
      <trkpt lat="44.79096" lon="5.45857">
        <ele>1254.4980469</ele>
        <time>2011-10-02T09:34:18Z</time>
      </trkpt>
      <trkpt lat="44.79082" lon="5.45842">
        <ele>1253.868042</ele>
        <time>2011-10-02T09:34:21Z</time>
      </trkpt>
      <trkpt lat="44.79065" lon="5.45818">
        <ele>1252.5510254</ele>
        <time>2011-10-02T09:34:26Z</time>
      </trkpt>
      <trkpt lat="44.7904" lon="5.45771">
        <ele>1251.9060059</ele>
        <time>2011-10-02T09:34:33Z</time>
      </trkpt>
      <trkpt lat="44.79023" lon="5.45737">
        <ele>1250.8649902</ele>
        <time>2011-10-02T09:34:38Z</time>
      </trkpt>
      <trkpt lat="44.79018" lon="5.4573">
        <ele>1250.5369873</ele>
        <time>2011-10-02T09:34:39Z</time>
      </trkpt>
      <trkpt lat="44.79007" lon="5.45707">
        <ele>1249.7280273</ele>
        <time>2011-10-02T09:34:42Z</time>
      </trkpt>
      <trkpt lat="44.78998" lon="5.45694">
        <ele>1249.2590332</ele>
        <time>2011-10-02T09:34:44Z</time>
      </trkpt>
      <trkpt lat="44.78976" lon="5.45665">
        <ele>1248.5980225</ele>
        <time>2011-10-02T09:34:50Z</time>
      </trkpt>
      <trkpt lat="44.78963" lon="5.45651">
        <ele>1248.1070557</ele>
        <time>2011-10-02T09:34:53Z</time>
      </trkpt>
      <trkpt lat="44.78938" lon="5.45625">
        <ele>1246.7779541</ele>
        <time>2011-10-02T09:34:59Z</time>
      </trkpt>
      <trkpt lat="44.78933" lon="5.45622">
        <ele>1246.6040039</ele>
        <time>2011-10-02T09:35:00Z</time>
      </trkpt>
      <trkpt lat="44.78918" lon="5.45617">
        <ele>1246.1369629</ele>
        <time>2011-10-02T09:35:04Z</time>
      </trkpt>
      <trkpt lat="44.78909" lon="5.45603">
        <ele>1245.7180176</ele>
        <time>2011-10-02T09:35:07Z</time>
      </trkpt>
      <trkpt lat="44.78908" lon="5.45596">
        <ele>1245.5269775</ele>
        <time>2011-10-02T09:35:08Z</time>
      </trkpt>
      <trkpt lat="44.78891" lon="5.45556">
        <ele>1244.7840576</ele>
        <time>2011-10-02T09:35:14Z</time>
      </trkpt>
      <trkpt lat="44.78878" lon="5.45536">
        <ele>1244.2840576</ele>
        <time>2011-10-02T09:35:17Z</time>
      </trkpt>
      <trkpt lat="44.78864" lon="5.45517">
        <ele>1243.5899658</ele>
        <time>2011-10-02T09:35:21Z</time>
      </trkpt>
      <trkpt lat="44.78854" lon="5.45497">
        <ele>1242.822998</ele>
        <time>2011-10-02T09:35:25Z</time>
      </trkpt>
      <trkpt lat="44.78847" lon="5.45493">
        <ele>1242.2900391</ele>
        <time>2011-10-02T09:35:28Z</time>
      </trkpt>
      <trkpt lat="44.78841" lon="5.45483">
        <ele>1241.552002</ele>
        <time>2011-10-02T09:35:31Z</time>
      </trkpt>
      <trkpt lat="44.78833" lon="5.45471">
        <ele>1240.7729492</ele>
        <time>2011-10-02T09:35:34Z</time>
      </trkpt>
      <trkpt lat="44.78829" lon="5.4547">
        <ele>1240.43396</ele>
        <time>2011-10-02T09:35:35Z</time>
      </trkpt>
      <trkpt lat="44.78814" lon="5.45457">
        <ele>1239.3859863</ele>
        <time>2011-10-02T09:35:40Z</time>
      </trkpt>
      <trkpt lat="44.78799" lon="5.45434">
        <ele>1238.7270508</ele>
        <time>2011-10-02T09:35:45Z</time>
      </trkpt>
      <trkpt lat="44.78793" lon="5.45423">
        <ele>1238.4219971</ele>
        <time>2011-10-02T09:35:47Z</time>
      </trkpt>
      <trkpt lat="44.78785" lon="5.45415">
        <ele>1238.0570068</ele>
        <time>2011-10-02T09:35:49Z</time>
      </trkpt>
      <trkpt lat="44.78767" lon="5.45408">
        <ele>1237.2979736</ele>
        <time>2011-10-02T09:35:53Z</time>
      </trkpt>
      <trkpt lat="44.78758" lon="5.45406">
        <ele>1236.9470215</ele>
        <time>2011-10-02T09:35:55Z</time>
      </trkpt>
      <trkpt lat="44.78734" lon="5.45404">
        <ele>1235.9909668</ele>
        <time>2011-10-02T09:36:00Z</time>
      </trkpt>
      <trkpt lat="44.78719" lon="5.45406">
        <ele>1235.4659424</ele>
        <time>2011-10-02T09:36:04Z</time>
      </trkpt>
      <trkpt lat="44.787" lon="5.45399">
        <ele>1234.6479492</ele>
        <time>2011-10-02T09:36:09Z</time>
      </trkpt>
      <trkpt lat="44.78692" lon="5.454">
        <ele>1234.2130127</ele>
        <time>2011-10-02T09:36:11Z</time>
      </trkpt>
      <trkpt lat="44.78677" lon="5.45398">
        <ele>1233.3520508</ele>
        <time>2011-10-02T09:36:16Z</time>
      </trkpt>
      <trkpt lat="44.78669" lon="5.45389">
        <ele>1233.0739746</ele>
        <time>2011-10-02T09:36:19Z</time>
      </trkpt>
      <trkpt lat="44.78645" lon="5.45364">
        <ele>1232.3699951</ele>
        <time>2011-10-02T09:36:26Z</time>
      </trkpt>
      <trkpt lat="44.78638" lon="5.45357">
        <ele>1232.2039795</ele>
        <time>2011-10-02T09:36:28Z</time>
      </trkpt>
      <trkpt lat="44.78621" lon="5.45341">
        <ele>1231.2659912</ele>
        <time>2011-10-02T09:36:33Z</time>
      </trkpt>
      <trkpt lat="44.78609" lon="5.45318">
        <ele>1230.6639404</ele>
        <time>2011-10-02T09:36:37Z</time>
      </trkpt>
      <trkpt lat="44.78602" lon="5.45295">
        <ele>1230.2039795</ele>
        <time>2011-10-02T09:36:41Z</time>
      </trkpt>
      <trkpt lat="44.78601" lon="5.45289">
        <ele>1230.1219482</ele>
        <time>2011-10-02T09:36:42Z</time>
      </trkpt>
      <trkpt lat="44.78592" lon="5.4526">
        <ele>1229.2080078</ele>
        <time>2011-10-02T09:36:48Z</time>
      </trkpt>
      <trkpt lat="44.78585" lon="5.45231">
        <ele>1228.6899414</ele>
        <time>2011-10-02T09:36:53Z</time>
      </trkpt>
      <trkpt lat="44.78579" lon="5.45203">
        <ele>1228.1729736</ele>
        <time>2011-10-02T09:36:58Z</time>
      </trkpt>
      <trkpt lat="44.78574" lon="5.45168">
        <ele>1227.5009766</ele>
        <time>2011-10-02T09:37:03Z</time>
      </trkpt>
      <trkpt lat="44.78572" lon="5.4516">
        <ele>1227.3719482</ele>
        <time>2011-10-02T09:37:04Z</time>
      </trkpt>
      <trkpt lat="44.7857" lon="5.45123">
        <ele>1226.6020508</ele>
        <time>2011-10-02T09:37:09Z</time>
      </trkpt>
      <trkpt lat="44.78567" lon="5.45101">
        <ele>1225.993042</ele>
        <time>2011-10-02T09:37:12Z</time>
      </trkpt>
      <trkpt lat="44.78561" lon="5.45073">
        <ele>1225.0949707</ele>
        <time>2011-10-02T09:37:17Z</time>
      </trkpt>
      <trkpt lat="44.78555" lon="5.45069">
        <ele>1224.9580078</ele>
        <time>2011-10-02T09:37:19Z</time>
      </trkpt>
      <trkpt lat="44.78534" lon="5.45054">
        <ele>1224.1920166</ele>
        <time>2011-10-02T09:37:24Z</time>
      </trkpt>
      <trkpt lat="44.78522" lon="5.45043">
        <ele>1223.4639893</ele>
        <time>2011-10-02T09:37:28Z</time>
      </trkpt>
      <trkpt lat="44.78521" lon="5.45044">
        <ele>1223.0360107</ele>
        <time>2011-10-02T09:37:33Z</time>
      </trkpt>
      <trkpt lat="44.78518" lon="5.45043">
        <ele>1222.75</ele>
        <time>2011-10-02T09:37:58Z</time>
      </trkpt>
      <trkpt lat="44.78514" lon="5.4504">
        <ele>1222.7230225</ele>
        <time>2011-10-02T09:38:03Z</time>
      </trkpt>
      <trkpt lat="44.78509" lon="5.45035">
        <ele>1222.5489502</ele>
        <time>2011-10-02T09:38:08Z</time>
      </trkpt>
      <trkpt lat="44.785" lon="5.45022">
        <ele>1222.2159424</ele>
        <time>2011-10-02T09:38:13Z</time>
      </trkpt>
      <trkpt lat="44.78491" lon="5.45016">
        <ele>1221.8010254</ele>
        <time>2011-10-02T09:38:17Z</time>
      </trkpt>
      <trkpt lat="44.78485" lon="5.45013">
        <ele>1221.3869629</ele>
        <time>2011-10-02T09:38:43Z</time>
      </trkpt>
      <trkpt lat="44.78482" lon="5.4501">
        <ele>1221.4210205</ele>
        <time>2011-10-02T09:38:49Z</time>
      </trkpt>
      <trkpt lat="44.78482" lon="5.45005">
        <ele>1220.5980225</ele>
        <time>2011-10-02T09:38:59Z</time>
      </trkpt>
      <trkpt lat="44.78481" lon="5.45004">
        <ele>1220.4310303</ele>
        <time>2011-10-02T09:39:35Z</time>
      </trkpt>
      <trkpt lat="44.78481" lon="5.45008">
        <ele>1220.5959473</ele>
        <time>2011-10-02T09:39:42Z</time>
      </trkpt>
      <trkpt lat="44.78481" lon="5.4501">
        <ele>1220.7020264</ele>
        <time>2011-10-02T09:39:55Z</time>
      </trkpt>
      <trkpt lat="44.7848" lon="5.45012">
        <ele>1220.8000488</ele>
        <time>2011-10-02T09:40:00Z</time>
      </trkpt>
      <trkpt lat="44.78471" lon="5.45028">
        <ele>1220.7540283</ele>
        <time>2011-10-02T09:40:07Z</time>
      </trkpt>
      <trkpt lat="44.78458" lon="5.45059">
        <ele>1220.1099854</ele>
        <time>2011-10-02T09:40:13Z</time>
      </trkpt>
      <trkpt lat="44.78455" lon="5.45064">
        <ele>1220.052002</ele>
        <time>2011-10-02T09:40:14Z</time>
      </trkpt>
      <trkpt lat="44.78452" lon="5.45076">
        <ele>1219.9420166</ele>
        <time>2011-10-02T09:40:16Z</time>
      </trkpt>
      <trkpt lat="44.78442" lon="5.45103">
        <ele>1219.6700439</ele>
        <time>2011-10-02T09:40:21Z</time>
      </trkpt>
      <trkpt lat="44.7844" lon="5.45109">
        <ele>1219.6850586</ele>
        <time>2011-10-02T09:40:22Z</time>
      </trkpt>
      <trkpt lat="44.78426" lon="5.45129">
        <ele>1219.7490234</ele>
        <time>2011-10-02T09:40:27Z</time>
      </trkpt>
      <trkpt lat="44.78421" lon="5.45133">
        <ele>1219.8709717</ele>
        <time>2011-10-02T09:40:30Z</time>
      </trkpt>
      <trkpt lat="44.7841" lon="5.4514">
        <ele>1219.7869873</ele>
        <time>2011-10-02T09:40:34Z</time>
      </trkpt>
      <trkpt lat="44.78409" lon="5.45158">
        <ele>1219.3790283</ele>
        <time>2011-10-02T09:40:39Z</time>
      </trkpt>
      <trkpt lat="44.78412" lon="5.45186">
        <ele>1218.9139404</ele>
        <time>2011-10-02T09:40:45Z</time>
      </trkpt>
      <trkpt lat="44.78405" lon="5.45198">
        <ele>1218.5279541</ele>
        <time>2011-10-02T09:40:48Z</time>
      </trkpt>
      <trkpt lat="44.78401" lon="5.45201">
        <ele>1218.4949951</ele>
        <time>2011-10-02T09:40:49Z</time>
      </trkpt>
      <trkpt lat="44.78382" lon="5.45207">
        <ele>1217.5439453</ele>
        <time>2011-10-02T09:40:54Z</time>
      </trkpt>
      <trkpt lat="44.78373" lon="5.45213">
        <ele>1216.2530518</ele>
        <time>2011-10-02T09:40:58Z</time>
      </trkpt>
      <trkpt lat="44.78354" lon="5.45225">
        <ele>1214.6710205</ele>
        <time>2011-10-02T09:41:03Z</time>
      </trkpt>
      <trkpt lat="44.78331" lon="5.45232">
        <ele>1213.6829834</ele>
        <time>2011-10-02T09:41:08Z</time>
      </trkpt>
      <trkpt lat="44.78326" lon="5.45234">
        <ele>1213.4549561</ele>
        <time>2011-10-02T09:41:09Z</time>
      </trkpt>
      <trkpt lat="44.78305" lon="5.45248">
        <ele>1211.875</ele>
        <time>2011-10-02T09:41:14Z</time>
      </trkpt>
      <trkpt lat="44.78298" lon="5.45262">
        <ele>1211.1929932</ele>
        <time>2011-10-02T09:41:16Z</time>
      </trkpt>
      <trkpt lat="44.78289" lon="5.45277">
        <ele>1210.6729736</ele>
        <time>2011-10-02T09:41:18Z</time>
      </trkpt>
      <trkpt lat="44.78259" lon="5.45317">
        <ele>1209.3339844</ele>
        <time>2011-10-02T09:41:23Z</time>
      </trkpt>
      <trkpt lat="44.78246" lon="5.45331">
        <ele>1208.7889404</ele>
        <time>2011-10-02T09:41:25Z</time>
      </trkpt>
      <trkpt lat="44.78234" lon="5.45336">
        <ele>1208.1989746</ele>
        <time>2011-10-02T09:41:27Z</time>
      </trkpt>
      <trkpt lat="44.78228" lon="5.45346">
        <ele>1207.5439453</ele>
        <time>2011-10-02T09:41:31Z</time>
      </trkpt>
      <trkpt lat="44.78222" lon="5.4535">
        <ele>1207.5</ele>
        <time>2011-10-02T09:41:35Z</time>
      </trkpt>
      <trkpt lat="44.78218" lon="5.45353">
        <ele>1208.230957</ele>
        <time>2011-10-02T09:41:39Z</time>
      </trkpt>
      <trkpt lat="44.78218" lon="5.45349">
        <ele>1208.8590088</ele>
        <time>2011-10-02T09:41:43Z</time>
      </trkpt>
      <trkpt lat="44.78216" lon="5.45346">
        <ele>1208.94104</ele>
        <time>2011-10-02T09:41:46Z</time>
      </trkpt>
      <trkpt lat="44.78211" lon="5.45332">
        <ele>1208.0019531</ele>
        <time>2011-10-02T09:41:52Z</time>
      </trkpt>
      <trkpt lat="44.78203" lon="5.45329">
        <ele>1207.1600342</ele>
        <time>2011-10-02T09:41:55Z</time>
      </trkpt>
      <trkpt lat="44.78188" lon="5.45331">
        <ele>1206.2010498</ele>
        <time>2011-10-02T09:42:00Z</time>
      </trkpt>
      <trkpt lat="44.78175" lon="5.45325">
        <ele>1205.4189453</ele>
        <time>2011-10-02T09:42:03Z</time>
      </trkpt>
      <trkpt lat="44.78156" lon="5.45311">
        <ele>1203.7729492</ele>
        <time>2011-10-02T09:42:07Z</time>
      </trkpt>
      <trkpt lat="44.78141" lon="5.45301">
        <ele>1202.4210205</ele>
        <time>2011-10-02T09:42:10Z</time>
      </trkpt>
      <trkpt lat="44.78127" lon="5.4529">
        <ele>1200.9759521</ele>
        <time>2011-10-02T09:42:13Z</time>
      </trkpt>
      <trkpt lat="44.78104" lon="5.45272">
        <ele>1198.3979492</ele>
        <time>2011-10-02T09:42:18Z</time>
      </trkpt>
      <trkpt lat="44.78094" lon="5.45244">
        <ele>1196.0970459</ele>
        <time>2011-10-02T09:42:22Z</time>
      </trkpt>
      <trkpt lat="44.78088" lon="5.45231">
        <ele>1195.5849609</ele>
        <time>2011-10-02T09:42:24Z</time>
      </trkpt>
      <trkpt lat="44.78072" lon="5.45205">
        <ele>1193.7070313</ele>
        <time>2011-10-02T09:42:28Z</time>
      </trkpt>
      <trkpt lat="44.78068" lon="5.45191">
        <ele>1192.697998</ele>
        <time>2011-10-02T09:42:30Z</time>
      </trkpt>
      <trkpt lat="44.78064" lon="5.45166">
        <ele>1190.8050537</ele>
        <time>2011-10-02T09:42:34Z</time>
      </trkpt>
      <trkpt lat="44.78053" lon="5.45147">
        <ele>1189.2330322</ele>
        <time>2011-10-02T09:42:38Z</time>
      </trkpt>
      <trkpt lat="44.78035" lon="5.45138">
        <ele>1187.5720215</ele>
        <time>2011-10-02T09:42:42Z</time>
      </trkpt>
      <trkpt lat="44.78016" lon="5.45135">
        <ele>1185.7080078</ele>
        <time>2011-10-02T09:42:46Z</time>
      </trkpt>
      <trkpt lat="44.77999" lon="5.45125">
        <ele>1184.6960449</ele>
        <time>2011-10-02T09:42:49Z</time>
      </trkpt>
      <trkpt lat="44.7797" lon="5.45091">
        <ele>1182.1429443</ele>
        <time>2011-10-02T09:42:54Z</time>
      </trkpt>
      <trkpt lat="44.77946" lon="5.45032">
        <ele>1177.3280029</ele>
        <time>2011-10-02T09:43:00Z</time>
      </trkpt>
      <trkpt lat="44.77943" lon="5.45024">
        <ele>1176.5100098</ele>
        <time>2011-10-02T09:43:01Z</time>
      </trkpt>
      <trkpt lat="44.77926" lon="5.45013">
        <ele>1173.9110107</ele>
        <time>2011-10-02T09:43:05Z</time>
      </trkpt>
      <trkpt lat="44.77917" lon="5.45012">
        <ele>1172.9720459</ele>
        <time>2011-10-02T09:43:07Z</time>
      </trkpt>
      <trkpt lat="44.77911" lon="5.4501">
        <ele>1171.4110107</ele>
        <time>2011-10-02T09:43:11Z</time>
      </trkpt>
      <trkpt lat="44.7791" lon="5.45008">
        <ele>1170.644043</ele>
        <time>2011-10-02T09:43:16Z</time>
      </trkpt>
      <trkpt lat="44.77905" lon="5.45012">
        <ele>1170.4150391</ele>
        <time>2011-10-02T09:43:21Z</time>
      </trkpt>
      <trkpt lat="44.77894" lon="5.45014">
        <ele>1169.7910156</ele>
        <time>2011-10-02T09:43:24Z</time>
      </trkpt>
      <trkpt lat="44.77861" lon="5.45025">
        <ele>1167.776001</ele>
        <time>2011-10-02T09:43:30Z</time>
      </trkpt>
      <trkpt lat="44.77835" lon="5.45031">
        <ele>1165.9019775</ele>
        <time>2011-10-02T09:43:34Z</time>
      </trkpt>
      <trkpt lat="44.77795" lon="5.4503">
        <ele>1163.6479492</ele>
        <time>2011-10-02T09:43:39Z</time>
      </trkpt>
      <trkpt lat="44.77733" lon="5.45025">
        <ele>1158.8120117</ele>
        <time>2011-10-02T09:43:46Z</time>
      </trkpt>
      <trkpt lat="44.77705" lon="5.45024">
        <ele>1156.6710205</ele>
        <time>2011-10-02T09:43:49Z</time>
      </trkpt>
      <trkpt lat="44.77674" lon="5.45029">
        <ele>1153.6330566</ele>
        <time>2011-10-02T09:43:53Z</time>
      </trkpt>
      <trkpt lat="44.77664" lon="5.45041">
        <ele>1151.5209961</ele>
        <time>2011-10-02T09:43:56Z</time>
      </trkpt>
      <trkpt lat="44.77661" lon="5.45049">
        <ele>1150.381958</ele>
        <time>2011-10-02T09:43:58Z</time>
      </trkpt>
      <trkpt lat="44.77657" lon="5.45066">
        <ele>1148.9289551</ele>
        <time>2011-10-02T09:44:01Z</time>
      </trkpt>
      <trkpt lat="44.77645" lon="5.45087">
        <ele>1147.4370117</ele>
        <time>2011-10-02T09:44:05Z</time>
      </trkpt>
      <trkpt lat="44.77627" lon="5.45089">
        <ele>1145.8549805</ele>
        <time>2011-10-02T09:44:09Z</time>
      </trkpt>
      <trkpt lat="44.77621" lon="5.45085">
        <ele>1145.598999</ele>
        <time>2011-10-02T09:44:10Z</time>
      </trkpt>
      <trkpt lat="44.77593" lon="5.45068">
        <ele>1144.2750244</ele>
        <time>2011-10-02T09:44:16Z</time>
      </trkpt>
      <trkpt lat="44.77588" lon="5.45064">
        <ele>1143.9949951</ele>
        <time>2011-10-02T09:44:17Z</time>
      </trkpt>
      <trkpt lat="44.77563" lon="5.45036">
        <ele>1142.3470459</ele>
        <time>2011-10-02T09:44:22Z</time>
      </trkpt>
      <trkpt lat="44.77545" lon="5.45037">
        <ele>1140.9770508</ele>
        <time>2011-10-02T09:44:27Z</time>
      </trkpt>
      <trkpt lat="44.77538" lon="5.45055">
        <ele>1140.5949707</ele>
        <time>2011-10-02T09:44:30Z</time>
      </trkpt>
      <trkpt lat="44.77529" lon="5.45066">
        <ele>1140.0820313</ele>
        <time>2011-10-02T09:44:32Z</time>
      </trkpt>
      <trkpt lat="44.77516" lon="5.45086">
        <ele>1138.7209473</ele>
        <time>2011-10-02T09:44:36Z</time>
      </trkpt>
      <trkpt lat="44.77506" lon="5.45096">
        <ele>1137.5570068</ele>
        <time>2011-10-02T09:44:39Z</time>
      </trkpt>
      <trkpt lat="44.77503" lon="5.45101">
        <ele>1137.368042</ele>
        <time>2011-10-02T09:44:40Z</time>
      </trkpt>
      <trkpt lat="44.77499" lon="5.45108">
        <ele>1136.4749756</ele>
        <time>2011-10-02T09:44:45Z</time>
      </trkpt>
      <trkpt lat="44.77497" lon="5.45109">
        <ele>1136.2449951</ele>
        <time>2011-10-02T09:44:50Z</time>
      </trkpt>
      <trkpt lat="44.77493" lon="5.45109">
        <ele>1136.0389404</ele>
        <time>2011-10-02T09:44:57Z</time>
      </trkpt>
      <trkpt lat="44.77492" lon="5.45112">
        <ele>1135.0179443</ele>
        <time>2011-10-02T09:46:16Z</time>
      </trkpt>
      <trkpt lat="44.77482" lon="5.45095">
        <ele>1134.6920166</ele>
        <time>2011-10-02T09:46:23Z</time>
      </trkpt>
      <trkpt lat="44.77475" lon="5.45083">
        <ele>1134.0620117</ele>
        <time>2011-10-02T09:46:27Z</time>
      </trkpt>
      <trkpt lat="44.77467" lon="5.45071">
        <ele>1133.0560303</ele>
        <time>2011-10-02T09:46:31Z</time>
      </trkpt>
      <trkpt lat="44.77461" lon="5.45076">
        <ele>1132.5009766</ele>
        <time>2011-10-02T09:46:36Z</time>
      </trkpt>
      <trkpt lat="44.77459" lon="5.45082">
        <ele>1133.0009766</ele>
        <time>2011-10-02T09:46:41Z</time>
      </trkpt>
      <trkpt lat="44.77456" lon="5.45083">
        <ele>1133.3449707</ele>
        <time>2011-10-02T09:46:48Z</time>
      </trkpt>
      <trkpt lat="44.77454" lon="5.45084">
        <ele>1133.0419922</ele>
        <time>2011-10-02T09:46:51Z</time>
      </trkpt>
      <trkpt lat="44.77451" lon="5.45081">
        <ele>1132.8210449</ele>
        <time>2011-10-02T09:46:59Z</time>
      </trkpt>
      <trkpt lat="44.77452" lon="5.45078">
        <ele>1132.7020264</ele>
        <time>2011-10-02T09:47:12Z</time>
      </trkpt>
      <trkpt lat="44.77449" lon="5.45066">
        <ele>1132.4040527</ele>
        <time>2011-10-02T09:47:17Z</time>
      </trkpt>
      <trkpt lat="44.77446" lon="5.45048">
        <ele>1131.4460449</ele>
        <time>2011-10-02T09:47:21Z</time>
      </trkpt>
      <trkpt lat="44.7744" lon="5.45036">
        <ele>1130.4389648</ele>
        <time>2011-10-02T09:47:24Z</time>
      </trkpt>
      <trkpt lat="44.77427" lon="5.45036">
        <ele>1129.6879883</ele>
        <time>2011-10-02T09:47:27Z</time>
      </trkpt>
      <trkpt lat="44.77413" lon="5.45033">
        <ele>1128.5959473</ele>
        <time>2011-10-02T09:47:30Z</time>
      </trkpt>
      <trkpt lat="44.77404" lon="5.45031">
        <ele>1127.723999</ele>
        <time>2011-10-02T09:47:33Z</time>
      </trkpt>
      <trkpt lat="44.77394" lon="5.45039">
        <ele>1126.7110596</ele>
        <time>2011-10-02T09:47:37Z</time>
      </trkpt>
      <trkpt lat="44.77384" lon="5.45043">
        <ele>1125.9610596</ele>
        <time>2011-10-02T09:47:41Z</time>
      </trkpt>
      <trkpt lat="44.77381" lon="5.45044">
        <ele>1125.7530518</ele>
        <time>2011-10-02T09:47:43Z</time>
      </trkpt>
      <trkpt lat="44.7737" lon="5.45046">
        <ele>1125.0419922</ele>
        <time>2011-10-02T09:47:47Z</time>
      </trkpt>
      <trkpt lat="44.77369" lon="5.45045">
        <ele>1124.4110107</ele>
        <time>2011-10-02T09:47:50Z</time>
      </trkpt>
      <trkpt lat="44.77366" lon="5.45046">
        <ele>1123.8790283</ele>
        <time>2011-10-02T09:48:00Z</time>
      </trkpt>
      <trkpt lat="44.77364" lon="5.45047">
        <ele>1123.3380127</ele>
        <time>2011-10-02T09:48:07Z</time>
      </trkpt>
      <trkpt lat="44.7736" lon="5.45042">
        <ele>1123.3969727</ele>
        <time>2011-10-02T09:48:21Z</time>
      </trkpt>
      <trkpt lat="44.77361" lon="5.45028">
        <ele>1123.5999756</ele>
        <time>2011-10-02T09:48:27Z</time>
      </trkpt>
      <trkpt lat="44.77362" lon="5.45021">
        <ele>1123.6070557</ele>
        <time>2011-10-02T09:48:31Z</time>
      </trkpt>
      <trkpt lat="44.77369" lon="5.45005">
        <ele>1123.8730469</ele>
        <time>2011-10-02T09:48:51Z</time>
      </trkpt>
      <trkpt lat="44.77375" lon="5.44989">
        <ele>1123.631958</ele>
        <time>2011-10-02T09:48:55Z</time>
      </trkpt>
      <trkpt lat="44.77376" lon="5.44984">
        <ele>1123.4969482</ele>
        <time>2011-10-02T09:48:56Z</time>
      </trkpt>
      <trkpt lat="44.77371" lon="5.4497">
        <ele>1122.6500244</ele>
        <time>2011-10-02T09:48:59Z</time>
      </trkpt>
      <trkpt lat="44.77356" lon="5.44959">
        <ele>1121.1500244</ele>
        <time>2011-10-02T09:49:03Z</time>
      </trkpt>
      <trkpt lat="44.77323" lon="5.44938">
        <ele>1119.2110596</ele>
        <time>2011-10-02T09:49:09Z</time>
      </trkpt>
      <trkpt lat="44.77296" lon="5.44908">
        <ele>1116.8740234</ele>
        <time>2011-10-02T09:49:15Z</time>
      </trkpt>
      <trkpt lat="44.77284" lon="5.44881">
        <ele>1115.0760498</ele>
        <time>2011-10-02T09:49:19Z</time>
      </trkpt>
      <trkpt lat="44.7728" lon="5.44855">
        <ele>1113.8010254</ele>
        <time>2011-10-02T09:49:22Z</time>
      </trkpt>
      <trkpt lat="44.77287" lon="5.44813">
        <ele>1111.9420166</ele>
        <time>2011-10-02T09:49:27Z</time>
      </trkpt>
      <trkpt lat="44.77289" lon="5.44792">
        <ele>1110.8630371</ele>
        <time>2011-10-02T09:49:30Z</time>
      </trkpt>
      <trkpt lat="44.7729" lon="5.4478">
        <ele>1110.1469727</ele>
        <time>2011-10-02T09:49:32Z</time>
      </trkpt>
      <trkpt lat="44.77291" lon="5.44765">
        <ele>1109.4389648</ele>
        <time>2011-10-02T09:49:35Z</time>
      </trkpt>
      <trkpt lat="44.7728" lon="5.44754">
        <ele>1108.1689453</ele>
        <time>2011-10-02T09:49:40Z</time>
      </trkpt>
      <trkpt lat="44.77267" lon="5.44725">
        <ele>1106.8389893</ele>
        <time>2011-10-02T09:49:45Z</time>
      </trkpt>
      <trkpt lat="44.77265" lon="5.44716">
        <ele>1106.5129395</ele>
        <time>2011-10-02T09:49:46Z</time>
      </trkpt>
      <trkpt lat="44.77254" lon="5.44691">
        <ele>1104.7679443</ele>
        <time>2011-10-02T09:49:51Z</time>
      </trkpt>
      <trkpt lat="44.7725" lon="5.44661">
        <ele>1103.2370605</ele>
        <time>2011-10-02T09:49:55Z</time>
      </trkpt>
      <trkpt lat="44.77259" lon="5.44641">
        <ele>1102.0570068</ele>
        <time>2011-10-02T09:49:58Z</time>
      </trkpt>
      <trkpt lat="44.77252" lon="5.44625">
        <ele>1101.3260498</ele>
        <time>2011-10-02T09:50:01Z</time>
      </trkpt>
      <trkpt lat="44.77242" lon="5.44619">
        <ele>1099.9849854</ele>
        <time>2011-10-02T09:50:05Z</time>
      </trkpt>
      <trkpt lat="44.7724" lon="5.44619">
        <ele>1099.7779541</ele>
        <time>2011-10-02T09:50:06Z</time>
      </trkpt>
      <trkpt lat="44.77237" lon="5.44616">
        <ele>1099.4139404</ele>
        <time>2011-10-02T09:50:08Z</time>
      </trkpt>
      <trkpt lat="44.7723" lon="5.44614">
        <ele>1098.6369629</ele>
        <time>2011-10-02T09:50:13Z</time>
      </trkpt>
      <trkpt lat="44.7723" lon="5.44613">
        <ele>1098.368042</ele>
        <time>2011-10-02T09:50:16Z</time>
      </trkpt>
      <trkpt lat="44.77219" lon="5.44603">
        <ele>1097.81604</ele>
        <time>2011-10-02T09:50:22Z</time>
      </trkpt>
      <trkpt lat="44.77207" lon="5.44591">
        <ele>1097.4530029</ele>
        <time>2011-10-02T09:50:25Z</time>
      </trkpt>
      <trkpt lat="44.77192" lon="5.44576">
        <ele>1096.2860107</ele>
        <time>2011-10-02T09:50:30Z</time>
      </trkpt>
      <trkpt lat="44.77176" lon="5.44567">
        <ele>1094.8890381</ele>
        <time>2011-10-02T09:50:35Z</time>
      </trkpt>
      <trkpt lat="44.77172" lon="5.44558">
        <ele>1094.3320313</ele>
        <time>2011-10-02T09:50:37Z</time>
      </trkpt>
      <trkpt lat="44.77147" lon="5.44527">
        <ele>1092.7509766</ele>
        <time>2011-10-02T09:50:42Z</time>
      </trkpt>
      <trkpt lat="44.77137" lon="5.44514">
        <ele>1091.9489746</ele>
        <time>2011-10-02T09:50:44Z</time>
      </trkpt>
      <trkpt lat="44.77128" lon="5.44499">
        <ele>1091.1719971</ele>
        <time>2011-10-02T09:50:46Z</time>
      </trkpt>
      <trkpt lat="44.77101" lon="5.44476">
        <ele>1089.4919434</ele>
        <time>2011-10-02T09:50:51Z</time>
      </trkpt>
      <trkpt lat="44.77097" lon="5.44474">
        <ele>1089.0100098</ele>
        <time>2011-10-02T09:50:52Z</time>
      </trkpt>
      <trkpt lat="44.77076" lon="5.44483">
        <ele>1086.8320313</ele>
        <time>2011-10-02T09:50:57Z</time>
      </trkpt>
      <trkpt lat="44.77066" lon="5.44503">
        <ele>1085.9790039</ele>
        <time>2011-10-02T09:51:00Z</time>
      </trkpt>
      <trkpt lat="44.77046" lon="5.44529">
        <ele>1084.5909424</ele>
        <time>2011-10-02T09:51:05Z</time>
      </trkpt>
      <trkpt lat="44.77027" lon="5.44553">
        <ele>1083.1340332</ele>
        <time>2011-10-02T09:51:09Z</time>
      </trkpt>
      <trkpt lat="44.77023" lon="5.44559">
        <ele>1082.6960449</ele>
        <time>2011-10-02T09:51:10Z</time>
      </trkpt>
      <trkpt lat="44.77007" lon="5.44595">
        <ele>1081.1030273</ele>
        <time>2011-10-02T09:51:16Z</time>
      </trkpt>
      <trkpt lat="44.76997" lon="5.44618">
        <ele>1080.2449951</ele>
        <time>2011-10-02T09:51:20Z</time>
      </trkpt>
      <trkpt lat="44.76984" lon="5.44628">
        <ele>1079.3449707</ele>
        <time>2011-10-02T09:51:24Z</time>
      </trkpt>
      <trkpt lat="44.76969" lon="5.44631">
        <ele>1078.4160156</ele>
        <time>2011-10-02T09:51:28Z</time>
      </trkpt>
      <trkpt lat="44.76964" lon="5.44637">
        <ele>1077.8530273</ele>
        <time>2011-10-02T09:51:30Z</time>
      </trkpt>
      <trkpt lat="44.76947" lon="5.44635">
        <ele>1076.5529785</ele>
        <time>2011-10-02T09:51:35Z</time>
      </trkpt>
      <trkpt lat="44.76934" lon="5.44596">
        <ele>1075.5699463</ele>
        <time>2011-10-02T09:51:39Z</time>
      </trkpt>
      <trkpt lat="44.7692" lon="5.44573">
        <ele>1074.7370605</ele>
        <time>2011-10-02T09:51:43Z</time>
      </trkpt>
      <trkpt lat="44.76901" lon="5.44561">
        <ele>1073.5200195</ele>
        <time>2011-10-02T09:51:47Z</time>
      </trkpt>
      <trkpt lat="44.76883" lon="5.44544">
        <ele>1072.2769775</ele>
        <time>2011-10-02T09:51:51Z</time>
      </trkpt>
      <trkpt lat="44.76854" lon="5.4452">
        <ele>1070.282959</ele>
        <time>2011-10-02T09:51:57Z</time>
      </trkpt>
      <trkpt lat="44.76839" lon="5.4451">
        <ele>1069.3590088</ele>
        <time>2011-10-02T09:52:00Z</time>
      </trkpt>
      <trkpt lat="44.76815" lon="5.44506">
        <ele>1067.8780518</ele>
        <time>2011-10-02T09:52:05Z</time>
      </trkpt>
      <trkpt lat="44.76802" lon="5.44509">
        <ele>1066.7440186</ele>
        <time>2011-10-02T09:52:10Z</time>
      </trkpt>
      <trkpt lat="44.76812" lon="5.44503">
        <ele>1065.9799805</ele>
        <time>2011-10-02T09:52:15Z</time>
      </trkpt>
      <trkpt lat="44.76831" lon="5.445">
        <ele>1065.348999</ele>
        <time>2011-10-02T09:52:19Z</time>
      </trkpt>
      <trkpt lat="44.76848" lon="5.44506">
        <ele>1064.7459717</ele>
        <time>2011-10-02T09:52:22Z</time>
      </trkpt>
      <trkpt lat="44.76863" lon="5.44513">
        <ele>1063.9250488</ele>
        <time>2011-10-02T09:52:25Z</time>
      </trkpt>
      <trkpt lat="44.76894" lon="5.44535">
        <ele>1062.1560059</ele>
        <time>2011-10-02T09:52:32Z</time>
      </trkpt>
      <trkpt lat="44.76912" lon="5.44539">
        <ele>1060.9899902</ele>
        <time>2011-10-02T09:52:36Z</time>
      </trkpt>
      <trkpt lat="44.76917" lon="5.44541">
        <ele>1060.7039795</ele>
        <time>2011-10-02T09:52:37Z</time>
      </trkpt>
      <trkpt lat="44.76933" lon="5.44549">
        <ele>1059.7299805</ele>
        <time>2011-10-02T09:52:40Z</time>
      </trkpt>
      <trkpt lat="44.76941" lon="5.44558">
        <ele>1059.2340088</ele>
        <time>2011-10-02T09:52:42Z</time>
      </trkpt>
      <trkpt lat="44.76949" lon="5.4457">
        <ele>1058.2290039</ele>
        <time>2011-10-02T09:52:46Z</time>
      </trkpt>
      <trkpt lat="44.7695" lon="5.44572">
        <ele>1057.5009766</ele>
        <time>2011-10-02T09:52:50Z</time>
      </trkpt>
      <trkpt lat="44.76949" lon="5.44559">
        <ele>1056.5510254</ele>
        <time>2011-10-02T09:52:56Z</time>
      </trkpt>
      <trkpt lat="44.76941" lon="5.44547">
        <ele>1055.9620361</ele>
        <time>2011-10-02T09:52:59Z</time>
      </trkpt>
      <trkpt lat="44.7692" lon="5.44521">
        <ele>1055.0400391</ele>
        <time>2011-10-02T09:53:04Z</time>
      </trkpt>
      <trkpt lat="44.76901" lon="5.44511">
        <ele>1054.243042</ele>
        <time>2011-10-02T09:53:07Z</time>
      </trkpt>
      <trkpt lat="44.76886" lon="5.44501">
        <ele>1053.4029541</ele>
        <time>2011-10-02T09:53:10Z</time>
      </trkpt>
      <trkpt lat="44.76872" lon="5.44486">
        <ele>1052.5319824</ele>
        <time>2011-10-02T09:53:13Z</time>
      </trkpt>
      <trkpt lat="44.76844" lon="5.44467">
        <ele>1051.1109619</ele>
        <time>2011-10-02T09:53:18Z</time>
      </trkpt>
      <trkpt lat="44.76839" lon="5.44463">
        <ele>1050.8079834</ele>
        <time>2011-10-02T09:53:19Z</time>
      </trkpt>
      <trkpt lat="44.76808" lon="5.4446">
        <ele>1049.5510254</ele>
        <time>2011-10-02T09:53:24Z</time>
      </trkpt>
      <trkpt lat="44.76794" lon="5.44462">
        <ele>1048.9610596</ele>
        <time>2011-10-02T09:53:26Z</time>
      </trkpt>
      <trkpt lat="44.76774" lon="5.44464">
        <ele>1047.8470459</ele>
        <time>2011-10-02T09:53:29Z</time>
      </trkpt>
      <trkpt lat="44.76748" lon="5.44478">
        <ele>1045.9250488</ele>
        <time>2011-10-02T09:53:34Z</time>
      </trkpt>
      <trkpt lat="44.76743" lon="5.4448">
        <ele>1045.5720215</ele>
        <time>2011-10-02T09:53:35Z</time>
      </trkpt>
      <trkpt lat="44.76713" lon="5.44478">
        <ele>1043.5119629</ele>
        <time>2011-10-02T09:53:41Z</time>
      </trkpt>
      <trkpt lat="44.76703" lon="5.44462">
        <ele>1042.5159912</ele>
        <time>2011-10-02T09:53:44Z</time>
      </trkpt>
      <trkpt lat="44.76693" lon="5.44448">
        <ele>1041.9499512</ele>
        <time>2011-10-02T09:53:46Z</time>
      </trkpt>
      <trkpt lat="44.7667" lon="5.44428">
        <ele>1040.9630127</ele>
        <time>2011-10-02T09:53:50Z</time>
      </trkpt>
      <trkpt lat="44.76651" lon="5.44419">
        <ele>1039.9720459</ele>
        <time>2011-10-02T09:53:53Z</time>
      </trkpt>
      <trkpt lat="44.7664" lon="5.44413">
        <ele>1039.2060547</ele>
        <time>2011-10-02T09:53:55Z</time>
      </trkpt>
      <trkpt lat="44.76615" lon="5.44398">
        <ele>1037.618042</ele>
        <time>2011-10-02T09:54:00Z</time>
      </trkpt>
      <trkpt lat="44.76612" lon="5.44397">
        <ele>1036.9219971</ele>
        <time>2011-10-02T09:54:03Z</time>
      </trkpt>
      <trkpt lat="44.76605" lon="5.44393">
        <ele>1036.1820068</ele>
        <time>2011-10-02T09:54:13Z</time>
      </trkpt>
      <trkpt lat="44.76589" lon="5.44388">
        <ele>1035.7740479</ele>
        <time>2011-10-02T09:54:18Z</time>
      </trkpt>
      <trkpt lat="44.76581" lon="5.44385">
        <ele>1035.4179688</ele>
        <time>2011-10-02T09:54:20Z</time>
      </trkpt>
      <trkpt lat="44.76558" lon="5.44374">
        <ele>1034.3959961</ele>
        <time>2011-10-02T09:54:25Z</time>
      </trkpt>
      <trkpt lat="44.76548" lon="5.44371">
        <ele>1033.9210205</ele>
        <time>2011-10-02T09:54:27Z</time>
      </trkpt>
      <trkpt lat="44.76537" lon="5.44369">
        <ele>1033.322998</ele>
        <time>2011-10-02T09:54:29Z</time>
      </trkpt>
      <trkpt lat="44.76514" lon="5.44376">
        <ele>1032.1219482</ele>
        <time>2011-10-02T09:54:33Z</time>
      </trkpt>
      <trkpt lat="44.76507" lon="5.44395">
        <ele>1031.0720215</ele>
        <time>2011-10-02T09:54:36Z</time>
      </trkpt>
      <trkpt lat="44.76502" lon="5.44416">
        <ele>1030.5059814</ele>
        <time>2011-10-02T09:54:39Z</time>
      </trkpt>
      <trkpt lat="44.76484" lon="5.4444">
        <ele>1029.4279785</ele>
        <time>2011-10-02T09:54:43Z</time>
      </trkpt>
      <trkpt lat="44.76472" lon="5.44464">
        <ele>1028.5620117</ele>
        <time>2011-10-02T09:54:46Z</time>
      </trkpt>
      <trkpt lat="44.76464" lon="5.44502">
        <ele>1026.6920166</ele>
        <time>2011-10-02T09:54:51Z</time>
      </trkpt>
      <trkpt lat="44.7646" lon="5.44533">
        <ele>1025.3780518</ele>
        <time>2011-10-02T09:54:56Z</time>
      </trkpt>
      <trkpt lat="44.76468" lon="5.44557">
        <ele>1024.6550293</ele>
        <time>2011-10-02T09:55:01Z</time>
      </trkpt>
      <trkpt lat="44.76468" lon="5.44562">
        <ele>1024.6929932</ele>
        <time>2011-10-02T09:55:02Z</time>
      </trkpt>
      <trkpt lat="44.76463" lon="5.44571">
        <ele>1024.6240234</ele>
        <time>2011-10-02T09:55:06Z</time>
      </trkpt>
      <trkpt lat="44.76457" lon="5.44577">
        <ele>1024.5240479</ele>
        <time>2011-10-02T09:55:10Z</time>
      </trkpt>
      <trkpt lat="44.76451" lon="5.44589">
        <ele>1023.9210205</ele>
        <time>2011-10-02T09:55:16Z</time>
      </trkpt>
      <trkpt lat="44.76458" lon="5.44579">
        <ele>1024.2910156</ele>
        <time>2011-10-02T09:57:01Z</time>
      </trkpt>
      <trkpt lat="44.76457" lon="5.44582">
        <ele>1024.5419922</ele>
        <time>2011-10-02T09:57:03Z</time>
      </trkpt>
      <trkpt lat="44.76461" lon="5.44589">
        <ele>1024.6629639</ele>
        <time>2011-10-02T09:57:07Z</time>
      </trkpt>
      <trkpt lat="44.76465" lon="5.44592">
        <ele>1024.5939941</ele>
        <time>2011-10-02T09:57:09Z</time>
      </trkpt>
      <trkpt lat="44.76465" lon="5.44608">
        <ele>1024.2779541</ele>
        <time>2011-10-02T09:57:13Z</time>
      </trkpt>
      <trkpt lat="44.76461" lon="5.44616">
        <ele>1023.9630127</ele>
        <time>2011-10-02T09:57:15Z</time>
      </trkpt>
      <trkpt lat="44.76453" lon="5.44628">
        <ele>1023.5349731</ele>
        <time>2011-10-02T09:57:18Z</time>
      </trkpt>
      <trkpt lat="44.76437" lon="5.44643">
        <ele>1022.3040161</ele>
        <time>2011-10-02T09:57:23Z</time>
      </trkpt>
      <trkpt lat="44.76432" lon="5.44656">
        <ele>1021.3900146</ele>
        <time>2011-10-02T09:57:26Z</time>
      </trkpt>
      <trkpt lat="44.76419" lon="5.44671">
        <ele>1020.3690186</ele>
        <time>2011-10-02T09:57:30Z</time>
      </trkpt>
      <trkpt lat="44.76416" lon="5.44676">
        <ele>1020.2310181</ele>
        <time>2011-10-02T09:57:31Z</time>
      </trkpt>
      <trkpt lat="44.76412" lon="5.44683">
        <ele>1019.8759766</ele>
        <time>2011-10-02T09:57:35Z</time>
      </trkpt>
      <trkpt lat="44.76412" lon="5.44683">
        <ele>1019.7930298</ele>
        <time>2011-10-02T09:57:36Z</time>
      </trkpt>
      <trkpt lat="44.76413" lon="5.44678">
        <ele>1019.7730103</ele>
        <time>2011-10-02T09:57:43Z</time>
      </trkpt>
      <trkpt lat="44.76415" lon="5.44675">
        <ele>1019.4949951</ele>
        <time>2011-10-02T09:57:48Z</time>
      </trkpt>
      <trkpt lat="44.76414" lon="5.44668">
        <ele>1018.8519897</ele>
        <time>2011-10-02T09:57:54Z</time>
      </trkpt>
      <trkpt lat="44.76414" lon="5.44665">
        <ele>1018.9349976</ele>
        <time>2011-10-02T09:57:58Z</time>
      </trkpt>
      <trkpt lat="44.76414" lon="5.44659">
        <ele>1019.4240112</ele>
        <time>2011-10-02T09:58:03Z</time>
      </trkpt>
      <trkpt lat="44.76412" lon="5.44647">
        <ele>1019.4760132</ele>
        <time>2011-10-02T09:58:08Z</time>
      </trkpt>
      <trkpt lat="44.7641" lon="5.44641">
        <ele>1019.6400146</ele>
        <time>2011-10-02T09:58:10Z</time>
      </trkpt>
      <trkpt lat="44.76413" lon="5.44623">
        <ele>1019.8590088</ele>
        <time>2011-10-02T09:58:15Z</time>
      </trkpt>
      <trkpt lat="44.76415" lon="5.44618">
        <ele>1019.7639771</ele>
        <time>2011-10-02T09:58:17Z</time>
      </trkpt>
      <trkpt lat="44.76418" lon="5.44604">
        <ele>1020.1019897</ele>
        <time>2011-10-02T09:58:24Z</time>
      </trkpt>
      <trkpt lat="44.76421" lon="5.446">
        <ele>1021.8449707</ele>
        <time>2011-10-02T09:58:29Z</time>
      </trkpt>
      <trkpt lat="44.76419" lon="5.44596">
        <ele>1023.3209839</ele>
        <time>2011-10-02T09:58:33Z</time>
      </trkpt>
      <trkpt lat="44.76409" lon="5.44594">
        <ele>1025.1159668</ele>
        <time>2011-10-02T09:58:39Z</time>
      </trkpt>
      <trkpt lat="44.76408" lon="5.44594">
        <ele>1025.68396</ele>
        <time>2011-10-02T09:58:42Z</time>
      </trkpt>
      <trkpt lat="44.76399" lon="5.44592">
        <ele>1026.6169434</ele>
        <time>2011-10-02T09:58:50Z</time>
      </trkpt>
      <trkpt lat="44.76386" lon="5.44587">
        <ele>1028.644043</ele>
        <time>2011-10-02T09:59:02Z</time>
      </trkpt>
      <trkpt lat="44.76378" lon="5.44584">
        <ele>1030.3830566</ele>
        <time>2011-10-02T09:59:10Z</time>
      </trkpt>
      <trkpt lat="44.76377" lon="5.44584">
        <ele>1030.6030273</ele>
        <time>2011-10-02T09:59:11Z</time>
      </trkpt>
      <trkpt lat="44.7637" lon="5.4458">
        <ele>1031.8249512</ele>
        <time>2011-10-02T09:59:17Z</time>
      </trkpt>
      <trkpt lat="44.76366" lon="5.44578">
        <ele>1033.1350098</ele>
        <time>2011-10-02T09:59:23Z</time>
      </trkpt>
      <trkpt lat="44.76362" lon="5.44574">
        <ele>1034.0179443</ele>
        <time>2011-10-02T09:59:29Z</time>
      </trkpt>
      <trkpt lat="44.76358" lon="5.44572">
        <ele>1035.0119629</ele>
        <time>2011-10-02T09:59:34Z</time>
      </trkpt>
      <trkpt lat="44.76355" lon="5.44571">
        <ele>1035.9940186</ele>
        <time>2011-10-02T09:59:38Z</time>
      </trkpt>
      <trkpt lat="44.7635" lon="5.44567">
        <ele>1036.7199707</ele>
        <time>2011-10-02T09:59:43Z</time>
      </trkpt>
      <trkpt lat="44.76348" lon="5.44565">
        <ele>1037.5140381</ele>
        <time>2011-10-02T09:59:47Z</time>
      </trkpt>
      <trkpt lat="44.76343" lon="5.44561">
        <ele>1039.0710449</ele>
        <time>2011-10-02T09:59:53Z</time>
      </trkpt>
      <trkpt lat="44.76339" lon="5.44558">
        <ele>1040.3210449</ele>
        <time>2011-10-02T09:59:58Z</time>
      </trkpt>
      <trkpt lat="44.76336" lon="5.44557">
        <ele>1041.1850586</ele>
        <time>2011-10-02T10:00:02Z</time>
      </trkpt>
      <trkpt lat="44.76334" lon="5.44554">
        <ele>1041.9019775</ele>
        <time>2011-10-02T10:00:06Z</time>
      </trkpt>
      <trkpt lat="44.7633" lon="5.4455">
        <ele>1042.9859619</ele>
        <time>2011-10-02T10:00:11Z</time>
      </trkpt>
      <trkpt lat="44.76326" lon="5.44546">
        <ele>1044.3719482</ele>
        <time>2011-10-02T10:00:18Z</time>
      </trkpt>
      <trkpt lat="44.76322" lon="5.44543">
        <ele>1045.2939453</ele>
        <time>2011-10-02T10:00:23Z</time>
      </trkpt>
      <trkpt lat="44.76318" lon="5.4454">
        <ele>1046.276001</ele>
        <time>2011-10-02T10:00:28Z</time>
      </trkpt>
      <trkpt lat="44.76312" lon="5.44536">
        <ele>1047.743042</ele>
        <time>2011-10-02T10:00:36Z</time>
      </trkpt>
      <trkpt lat="44.7631" lon="5.44534">
        <ele>1048.7320557</ele>
        <time>2011-10-02T10:00:41Z</time>
      </trkpt>
      <trkpt lat="44.76304" lon="5.44529">
        <ele>1049.9830322</ele>
        <time>2011-10-02T10:00:48Z</time>
      </trkpt>
      <trkpt lat="44.76303" lon="5.44529">
        <ele>1050.6390381</ele>
        <time>2011-10-02T10:00:54Z</time>
      </trkpt>
      <trkpt lat="44.76301" lon="5.44528">
        <ele>1050.6939697</ele>
        <time>2011-10-02T10:01:01Z</time>
      </trkpt>
      <trkpt lat="44.763" lon="5.44529">
        <ele>1050.5300293</ele>
        <time>2011-10-02T10:01:23Z</time>
      </trkpt>
      <trkpt lat="44.76292" lon="5.44525">
        <ele>1050.7950439</ele>
        <time>2011-10-02T10:01:28Z</time>
      </trkpt>
      <trkpt lat="44.76284" lon="5.44524">
        <ele>1051.0570068</ele>
        <time>2011-10-02T10:01:32Z</time>
      </trkpt>
      <trkpt lat="44.76273" lon="5.44532">
        <ele>1051.4859619</ele>
        <time>2011-10-02T10:01:39Z</time>
      </trkpt>
      <trkpt lat="44.76263" lon="5.44538">
        <ele>1051.5090332</ele>
        <time>2011-10-02T10:01:42Z</time>
      </trkpt>
      <trkpt lat="44.76241" lon="5.44563">
        <ele>1050.6810303</ele>
        <time>2011-10-02T10:01:49Z</time>
      </trkpt>
      <trkpt lat="44.76227" lon="5.4458">
        <ele>1049.6929932</ele>
        <time>2011-10-02T10:01:54Z</time>
      </trkpt>
      <trkpt lat="44.76211" lon="5.4459">
        <ele>1049.2220459</ele>
        <time>2011-10-02T10:01:59Z</time>
      </trkpt>
      <trkpt lat="44.76197" lon="5.44593">
        <ele>1049.0400391</ele>
        <time>2011-10-02T10:02:02Z</time>
      </trkpt>
      <trkpt lat="44.76175" lon="5.44596">
        <ele>1048.7960205</ele>
        <time>2011-10-02T10:02:08Z</time>
      </trkpt>
      <trkpt lat="44.76162" lon="5.44603">
        <ele>1048.5980225</ele>
        <time>2011-10-02T10:02:13Z</time>
      </trkpt>
      <trkpt lat="44.76152" lon="5.44621">
        <ele>1047.8570557</ele>
        <time>2011-10-02T10:02:17Z</time>
      </trkpt>
      <trkpt lat="44.76141" lon="5.44654">
        <ele>1045.2729492</ele>
        <time>2011-10-02T10:02:22Z</time>
      </trkpt>
      <trkpt lat="44.76135" lon="5.4467">
        <ele>1043.5410156</ele>
        <time>2011-10-02T10:02:24Z</time>
      </trkpt>
      <trkpt lat="44.76122" lon="5.44704">
        <ele>1040.0780029</ele>
        <time>2011-10-02T10:02:28Z</time>
      </trkpt>
      <trkpt lat="44.761" lon="5.44716">
        <ele>1038.2939453</ele>
        <time>2011-10-02T10:02:33Z</time>
      </trkpt>
      <trkpt lat="44.76084" lon="5.44709">
        <ele>1038.3859863</ele>
        <time>2011-10-02T10:02:37Z</time>
      </trkpt>
      <trkpt lat="44.76071" lon="5.44715">
        <ele>1039.0059814</ele>
        <time>2011-10-02T10:02:42Z</time>
      </trkpt>
      <trkpt lat="44.76064" lon="5.44714">
        <ele>1039.6209717</ele>
        <time>2011-10-02T10:02:46Z</time>
      </trkpt>
      <trkpt lat="44.76059" lon="5.44716">
        <ele>1039.9090576</ele>
        <time>2011-10-02T10:02:51Z</time>
      </trkpt>
      <trkpt lat="44.76055" lon="5.44712">
        <ele>1040.1629639</ele>
        <time>2011-10-02T10:02:55Z</time>
      </trkpt>
      <trkpt lat="44.76044" lon="5.44703">
        <ele>1041.3079834</ele>
        <time>2011-10-02T10:03:01Z</time>
      </trkpt>
      <trkpt lat="44.76042" lon="5.44701">
        <ele>1041.6309814</ele>
        <time>2011-10-02T10:03:02Z</time>
      </trkpt>
      <trkpt lat="44.76033" lon="5.44685">
        <ele>1042.9310303</ele>
        <time>2011-10-02T10:03:08Z</time>
      </trkpt>
      <trkpt lat="44.76029" lon="5.44678">
        <ele>1043.8389893</ele>
        <time>2011-10-02T10:03:13Z</time>
      </trkpt>
      <trkpt lat="44.76022" lon="5.44669">
        <ele>1045.2199707</ele>
        <time>2011-10-02T10:03:19Z</time>
      </trkpt>
      <trkpt lat="44.76014" lon="5.44662">
        <ele>1046.0360107</ele>
        <time>2011-10-02T10:03:25Z</time>
      </trkpt>
      <trkpt lat="44.76007" lon="5.44659">
        <ele>1047.3790283</ele>
        <time>2011-10-02T10:03:31Z</time>
      </trkpt>
      <trkpt lat="44.76001" lon="5.44657">
        <ele>1048.5429688</ele>
        <time>2011-10-02T10:03:36Z</time>
      </trkpt>
      <trkpt lat="44.75996" lon="5.44654">
        <ele>1049.9320068</ele>
        <time>2011-10-02T10:03:42Z</time>
      </trkpt>
      <trkpt lat="44.75987" lon="5.44653">
        <ele>1052.0059814</ele>
        <time>2011-10-02T10:03:48Z</time>
      </trkpt>
      <trkpt lat="44.75986" lon="5.44652">
        <ele>1052.7080078</ele>
        <time>2011-10-02T10:03:50Z</time>
      </trkpt>
      <trkpt lat="44.75979" lon="5.44649">
        <ele>1054.4940186</ele>
        <time>2011-10-02T10:03:56Z</time>
      </trkpt>
      <trkpt lat="44.75978" lon="5.44648">
        <ele>1054.8029785</ele>
        <time>2011-10-02T10:03:57Z</time>
      </trkpt>
      <trkpt lat="44.7597" lon="5.44644">
        <ele>1056.7929688</ele>
        <time>2011-10-02T10:04:05Z</time>
      </trkpt>
      <trkpt lat="44.75968" lon="5.44642">
        <ele>1057.8909912</ele>
        <time>2011-10-02T10:04:09Z</time>
      </trkpt>
      <trkpt lat="44.75962" lon="5.44637">
        <ele>1058.6719971</ele>
        <time>2011-10-02T10:04:19Z</time>
      </trkpt>
      <trkpt lat="44.75959" lon="5.4464">
        <ele>1059.0770264</ele>
        <time>2011-10-02T10:04:26Z</time>
      </trkpt>
      <trkpt lat="44.75953" lon="5.44639">
        <ele>1060.6679688</ele>
        <time>2011-10-02T10:04:35Z</time>
      </trkpt>
      <trkpt lat="44.75953" lon="5.44639">
        <ele>1061.9110107</ele>
        <time>2011-10-02T10:04:42Z</time>
      </trkpt>
      <trkpt lat="44.75943" lon="5.44636">
        <ele>1070.4899902</ele>
        <time>2011-10-02T10:05:25Z</time>
      </trkpt>
      <trkpt lat="44.75911" lon="5.44628">
        <ele>1080.56604</ele>
        <time>2011-10-02T10:06:12Z</time>
      </trkpt>
      <trkpt lat="44.75905" lon="5.44629">
        <ele>1082.1889648</ele>
        <time>2011-10-02T10:06:22Z</time>
      </trkpt>
      <trkpt lat="44.75898" lon="5.44628">
        <ele>1083.3339844</ele>
        <time>2011-10-02T10:06:28Z</time>
      </trkpt>
      <trkpt lat="44.75897" lon="5.44626">
        <ele>1083.8590088</ele>
        <time>2011-10-02T10:06:30Z</time>
      </trkpt>
      <trkpt lat="44.75895" lon="5.44619">
        <ele>1085.5699463</ele>
        <time>2011-10-02T10:06:36Z</time>
      </trkpt>
      <trkpt lat="44.7589" lon="5.44619">
        <ele>1087.8840332</ele>
        <time>2011-10-02T10:06:45Z</time>
      </trkpt>
      <trkpt lat="44.75868" lon="5.44616">
        <ele>1090.9599609</ele>
        <time>2011-10-02T10:06:59Z</time>
      </trkpt>
      <trkpt lat="44.75863" lon="5.44615">
        <ele>1092.7790527</ele>
        <time>2011-10-02T10:07:06Z</time>
      </trkpt>
      <trkpt lat="44.7586" lon="5.44617">
        <ele>1093.9239502</ele>
        <time>2011-10-02T10:07:11Z</time>
      </trkpt>
      <trkpt lat="44.75831" lon="5.44578">
        <ele>1102.7600098</ele>
        <time>2011-10-02T10:08:37Z</time>
      </trkpt>
      <trkpt lat="44.7583" lon="5.44574">
        <ele>1103.9709473</ele>
        <time>2011-10-02T10:08:43Z</time>
      </trkpt>
      <trkpt lat="44.75829" lon="5.44574">
        <ele>1104.4659424</ele>
        <time>2011-10-02T10:08:45Z</time>
      </trkpt>
      <trkpt lat="44.75823" lon="5.44575">
        <ele>1105.5830078</ele>
        <time>2011-10-02T10:08:53Z</time>
      </trkpt>
      <trkpt lat="44.7582" lon="5.44573">
        <ele>1105.9649658</ele>
        <time>2011-10-02T10:09:01Z</time>
      </trkpt>
      <trkpt lat="44.75821" lon="5.44571">
        <ele>1105.6230469</ele>
        <time>2011-10-02T10:09:22Z</time>
      </trkpt>
      <trkpt lat="44.75848" lon="5.44577">
        <ele>1101.5319824</ele>
        <time>2011-10-02T10:41:49Z</time>
      </trkpt>
      <trkpt lat="44.75841" lon="5.44577">
        <ele>1101.7249756</ele>
        <time>2011-10-02T10:41:55Z</time>
      </trkpt>
      <trkpt lat="44.75822" lon="5.44573">
        <ele>1100.5930176</ele>
        <time>2011-10-02T10:44:23Z</time>
      </trkpt>
      <trkpt lat="44.75829" lon="5.44578">
        <ele>1100.1469727</ele>
        <time>2011-10-02T10:45:31Z</time>
      </trkpt>
      <trkpt lat="44.75827" lon="5.44577">
        <ele>1099.9360352</ele>
        <time>2011-10-02T10:45:39Z</time>
      </trkpt>
      <trkpt lat="44.75819" lon="5.44573">
        <ele>1099.7659912</ele>
        <time>2011-10-02T10:45:59Z</time>
      </trkpt>
      <trkpt lat="44.75805" lon="5.44563">
        <ele>1099.7769775</ele>
        <time>2011-10-02T10:46:40Z</time>
      </trkpt>
      <trkpt lat="44.75805" lon="5.44556">
        <ele>1099.6619873</ele>
        <time>2011-10-02T10:46:47Z</time>
      </trkpt>
      <trkpt lat="44.75797" lon="5.44554">
        <ele>1098.7879639</ele>
        <time>2011-10-02T10:46:53Z</time>
      </trkpt>
      <trkpt lat="44.75793" lon="5.44549">
        <ele>1097.9360352</ele>
        <time>2011-10-02T10:46:56Z</time>
      </trkpt>
      <trkpt lat="44.75782" lon="5.44552">
        <ele>1095.9150391</ele>
        <time>2011-10-02T10:46:59Z</time>
      </trkpt>
      <trkpt lat="44.75762" lon="5.44566">
        <ele>1092.7950439</ele>
        <time>2011-10-02T10:47:03Z</time>
      </trkpt>
      <trkpt lat="44.75735" lon="5.44582">
        <ele>1089.2030029</ele>
        <time>2011-10-02T10:47:08Z</time>
      </trkpt>
      <trkpt lat="44.75701" lon="5.44602">
        <ele>1085.0860596</ele>
        <time>2011-10-02T10:47:13Z</time>
      </trkpt>
      <trkpt lat="44.75695" lon="5.44606">
        <ele>1084.118042</ele>
        <time>2011-10-02T10:47:14Z</time>
      </trkpt>
      <trkpt lat="44.75667" lon="5.44623">
        <ele>1078.9689941</ele>
        <time>2011-10-02T10:47:19Z</time>
      </trkpt>
      <trkpt lat="44.75635" lon="5.44632">
        <ele>1075.5350342</ele>
        <time>2011-10-02T10:47:24Z</time>
      </trkpt>
      <trkpt lat="44.75628" lon="5.44634">
        <ele>1074.6920166</ele>
        <time>2011-10-02T10:47:25Z</time>
      </trkpt>
      <trkpt lat="44.75597" lon="5.44633">
        <ele>1070.1750488</ele>
        <time>2011-10-02T10:47:30Z</time>
      </trkpt>
      <trkpt lat="44.75578" lon="5.44631">
        <ele>1067.0760498</ele>
        <time>2011-10-02T10:47:34Z</time>
      </trkpt>
      <trkpt lat="44.75551" lon="5.44625">
        <ele>1064.1719971</ele>
        <time>2011-10-02T10:47:38Z</time>
      </trkpt>
      <trkpt lat="44.75537" lon="5.44623">
        <ele>1062.493042</ele>
        <time>2011-10-02T10:47:40Z</time>
      </trkpt>
      <trkpt lat="44.75516" lon="5.44629">
        <ele>1059.072998</ele>
        <time>2011-10-02T10:47:44Z</time>
      </trkpt>
      <trkpt lat="44.75503" lon="5.44633">
        <ele>1058.3029785</ele>
        <time>2011-10-02T10:47:46Z</time>
      </trkpt>
      <trkpt lat="44.75489" lon="5.44633">
        <ele>1056.7259521</ele>
        <time>2011-10-02T10:47:48Z</time>
      </trkpt>
      <trkpt lat="44.75474" lon="5.44623">
        <ele>1054.5109863</ele>
        <time>2011-10-02T10:47:51Z</time>
      </trkpt>
      <trkpt lat="44.75464" lon="5.44621">
        <ele>1052.8959961</ele>
        <time>2011-10-02T10:47:53Z</time>
      </trkpt>
      <trkpt lat="44.75438" lon="5.44627">
        <ele>1048.9399414</ele>
        <time>2011-10-02T10:47:58Z</time>
      </trkpt>
      <trkpt lat="44.75433" lon="5.44628">
        <ele>1048.1820068</ele>
        <time>2011-10-02T10:47:59Z</time>
      </trkpt>
      <trkpt lat="44.75408" lon="5.44642">
        <ele>1043.9870605</ele>
        <time>2011-10-02T10:48:04Z</time>
      </trkpt>
      <trkpt lat="44.75396" lon="5.44652">
        <ele>1041.5179443</ele>
        <time>2011-10-02T10:48:07Z</time>
      </trkpt>
      <trkpt lat="44.75378" lon="5.4465">
        <ele>1039.1789551</ele>
        <time>2011-10-02T10:48:11Z</time>
      </trkpt>
      <trkpt lat="44.75362" lon="5.4462">
        <ele>1035.7989502</ele>
        <time>2011-10-02T10:48:15Z</time>
      </trkpt>
      <trkpt lat="44.75342" lon="5.44609">
        <ele>1032.1340332</ele>
        <time>2011-10-02T10:48:19Z</time>
      </trkpt>
      <trkpt lat="44.75327" lon="5.44613">
        <ele>1028.3409424</ele>
        <time>2011-10-02T10:48:23Z</time>
      </trkpt>
      <trkpt lat="44.75318" lon="5.44606">
        <ele>1024.9899902</ele>
        <time>2011-10-02T10:48:26Z</time>
      </trkpt>
      <trkpt lat="44.75309" lon="5.44593">
        <ele>1021.5960083</ele>
        <time>2011-10-02T10:48:29Z</time>
      </trkpt>
      <trkpt lat="44.75286" lon="5.44543">
        <ele>1015.5739746</ele>
        <time>2011-10-02T10:48:34Z</time>
      </trkpt>
      <trkpt lat="44.75276" lon="5.44524">
        <ele>1014.3759766</ele>
        <time>2011-10-02T10:48:36Z</time>
      </trkpt>
      <trkpt lat="44.75257" lon="5.44481">
        <ele>1009.6760254</ele>
        <time>2011-10-02T10:48:40Z</time>
      </trkpt>
      <trkpt lat="44.75196" lon="5.44431">
        <ele>1005.0709839</ele>
        <time>2011-10-02T10:48:45Z</time>
      </trkpt>
      <trkpt lat="44.7518" lon="5.44425">
        <ele>1003.6810303</ele>
        <time>2011-10-02T10:48:47Z</time>
      </trkpt>
      <trkpt lat="44.75158" lon="5.44421">
        <ele>1000.6859741</ele>
        <time>2011-10-02T10:48:52Z</time>
      </trkpt>
      <trkpt lat="44.7516" lon="5.44422">
        <ele>999.6329956</ele>
        <time>2011-10-02T10:48:55Z</time>
      </trkpt>
      <trkpt lat="44.75163" lon="5.44425">
        <ele>999.0910034</ele>
        <time>2011-10-02T10:49:02Z</time>
      </trkpt>
      <trkpt lat="44.75164" lon="5.44427">
        <ele>999.2000122</ele>
        <time>2011-10-02T10:49:07Z</time>
      </trkpt>
      <trkpt lat="44.7518" lon="5.44427">
        <ele>999.1160278</ele>
        <time>2011-10-02T10:49:56Z</time>
      </trkpt>
      <trkpt lat="44.75178" lon="5.4443">
        <ele>999.6049805</ele>
        <time>2011-10-02T10:50:03Z</time>
      </trkpt>
      <trkpt lat="44.75175" lon="5.44431">
        <ele>999.6589966</ele>
        <time>2011-10-02T10:50:18Z</time>
      </trkpt>
      <trkpt lat="44.7517" lon="5.44434">
        <ele>999.6669922</ele>
        <time>2011-10-02T10:50:24Z</time>
      </trkpt>
      <trkpt lat="44.75163" lon="5.44442">
        <ele>1000.5620117</ele>
        <time>2011-10-02T10:50:30Z</time>
      </trkpt>
      <trkpt lat="44.75162" lon="5.44446">
        <ele>1001.276001</ele>
        <time>2011-10-02T10:50:33Z</time>
      </trkpt>
      <trkpt lat="44.75158" lon="5.44453">
        <ele>1002.4619751</ele>
        <time>2011-10-02T10:50:40Z</time>
      </trkpt>
      <trkpt lat="44.75156" lon="5.44454">
        <ele>1002.8530273</ele>
        <time>2011-10-02T10:50:42Z</time>
      </trkpt>
      <trkpt lat="44.75151" lon="5.4446">
        <ele>1003.9840088</ele>
        <time>2011-10-02T10:50:48Z</time>
      </trkpt>
      <trkpt lat="44.75145" lon="5.44467">
        <ele>1004.9650269</ele>
        <time>2011-10-02T10:50:54Z</time>
      </trkpt>
      <trkpt lat="44.7514" lon="5.44471">
        <ele>1005.9199829</ele>
        <time>2011-10-02T10:50:59Z</time>
      </trkpt>
      <trkpt lat="44.75138" lon="5.44474">
        <ele>1006.2839966</ele>
        <time>2011-10-02T10:51:01Z</time>
      </trkpt>
      <trkpt lat="44.75134" lon="5.44479">
        <ele>1006.8959961</ele>
        <time>2011-10-02T10:51:06Z</time>
      </trkpt>
      <trkpt lat="44.7513" lon="5.44486">
        <ele>1007.6290283</ele>
        <time>2011-10-02T10:51:13Z</time>
      </trkpt>
      <trkpt lat="44.75127" lon="5.44491">
        <ele>1008.2700195</ele>
        <time>2011-10-02T10:51:18Z</time>
      </trkpt>
      <trkpt lat="44.75122" lon="5.44495">
        <ele>1008.526001</ele>
        <time>2011-10-02T10:51:27Z</time>
      </trkpt>
      <trkpt lat="44.75122" lon="5.44494">
        <ele>1005.5679932</ele>
        <time>2011-10-02T10:54:17Z</time>
      </trkpt>
      <trkpt lat="44.75108" lon="5.44496">
        <ele>1004.8560181</ele>
        <time>2011-10-02T10:55:08Z</time>
      </trkpt>
      <trkpt lat="44.75092" lon="5.44498">
        <ele>1005.9050293</ele>
        <time>2011-10-02T10:57:37Z</time>
      </trkpt>
      <trkpt lat="44.75126" lon="5.44496">
        <ele>1005.09198</ele>
        <time>2011-10-02T10:59:34Z</time>
      </trkpt>
      <trkpt lat="44.75126" lon="5.44496">
        <ele>1004.9849854</ele>
        <time>2011-10-02T10:59:41Z</time>
      </trkpt>
      <trkpt lat="44.75145" lon="5.44496">
        <ele>1004.7139893</ele>
        <time>2011-10-02T11:00:03Z</time>
      </trkpt>
      <trkpt lat="44.75149" lon="5.44496">
        <ele>1004.5679932</ele>
        <time>2011-10-02T11:00:09Z</time>
      </trkpt>
      <trkpt lat="44.75121" lon="5.44494">
        <ele>1002.1530151</ele>
        <time>2011-10-02T11:02:10Z</time>
      </trkpt>
      <trkpt lat="44.75127" lon="5.44493">
        <ele>1001.9829712</ele>
        <time>2011-10-02T11:02:18Z</time>
      </trkpt>
      <trkpt lat="44.75136" lon="5.44509">
        <ele>1000.4050293</ele>
        <time>2011-10-02T11:03:15Z</time>
      </trkpt>
      <trkpt lat="44.75131" lon="5.44494">
        <ele>992.4310303</ele>
        <time>2011-10-02T11:07:03Z</time>
      </trkpt>
      <trkpt lat="44.75111" lon="5.44486">
        <ele>991.8309937</ele>
        <time>2011-10-02T11:08:16Z</time>
      </trkpt>
      <trkpt lat="44.75111" lon="5.44495">
        <ele>991.9000244</ele>
        <time>2011-10-02T11:08:37Z</time>
      </trkpt>
      <trkpt lat="44.75105" lon="5.44507">
        <ele>992.6099854</ele>
        <time>2011-10-02T11:08:44Z</time>
      </trkpt>
      <trkpt lat="44.75098" lon="5.44516">
        <ele>993.5689697</ele>
        <time>2011-10-02T11:08:50Z</time>
      </trkpt>
      <trkpt lat="44.75092" lon="5.44525">
        <ele>994.526001</ele>
        <time>2011-10-02T11:08:56Z</time>
      </trkpt>
      <trkpt lat="44.75083" lon="5.44536">
        <ele>995.6049805</ele>
        <time>2011-10-02T11:09:03Z</time>
      </trkpt>
      <trkpt lat="44.75076" lon="5.44545">
        <ele>996.539978</ele>
        <time>2011-10-02T11:09:09Z</time>
      </trkpt>
      <trkpt lat="44.75068" lon="5.44555">
        <ele>997.5609741</ele>
        <time>2011-10-02T11:09:16Z</time>
      </trkpt>
      <trkpt lat="44.75063" lon="5.44562">
        <ele>998.5390015</ele>
        <time>2011-10-02T11:09:22Z</time>
      </trkpt>
      <trkpt lat="44.75053" lon="5.44571">
        <ele>999.5419922</ele>
        <time>2011-10-02T11:09:28Z</time>
      </trkpt>
      <trkpt lat="44.75047" lon="5.44581">
        <ele>1000.2800293</ele>
        <time>2011-10-02T11:09:34Z</time>
      </trkpt>
      <trkpt lat="44.7504" lon="5.44589">
        <ele>1000.9810181</ele>
        <time>2011-10-02T11:09:40Z</time>
      </trkpt>
      <trkpt lat="44.75029" lon="5.44599">
        <ele>1002.0770264</ele>
        <time>2011-10-02T11:09:47Z</time>
      </trkpt>
      <trkpt lat="44.75023" lon="5.44613">
        <ele>1003.2290039</ele>
        <time>2011-10-02T11:09:54Z</time>
      </trkpt>
      <trkpt lat="44.75016" lon="5.44624">
        <ele>1004.2449951</ele>
        <time>2011-10-02T11:10:00Z</time>
      </trkpt>
      <trkpt lat="44.75012" lon="5.44636">
        <ele>1005.1749878</ele>
        <time>2011-10-02T11:10:06Z</time>
      </trkpt>
      <trkpt lat="44.75006" lon="5.44652">
        <ele>1006.2509766</ele>
        <time>2011-10-02T11:10:13Z</time>
      </trkpt>
      <trkpt lat="44.75002" lon="5.44676">
        <ele>1007.0449829</ele>
        <time>2011-10-02T11:10:20Z</time>
      </trkpt>
      <trkpt lat="44.74999" lon="5.44699">
        <ele>1007.7420044</ele>
        <time>2011-10-02T11:10:27Z</time>
      </trkpt>
      <trkpt lat="44.74997" lon="5.44711">
        <ele>1008.2059937</ele>
        <time>2011-10-02T11:10:32Z</time>
      </trkpt>
      <trkpt lat="44.74993" lon="5.4472">
        <ele>1008.8380127</ele>
        <time>2011-10-02T11:10:37Z</time>
      </trkpt>
      <trkpt lat="44.74987" lon="5.44737">
        <ele>1009.8599854</ele>
        <time>2011-10-02T11:10:42Z</time>
      </trkpt>
      <trkpt lat="44.74982" lon="5.44754">
        <ele>1010.8309937</ele>
        <time>2011-10-02T11:10:48Z</time>
      </trkpt>
      <trkpt lat="44.7498" lon="5.44764">
        <ele>1011.789978</ele>
        <time>2011-10-02T11:10:53Z</time>
      </trkpt>
      <trkpt lat="44.74976" lon="5.44771">
        <ele>1012.335022</ele>
        <time>2011-10-02T11:10:57Z</time>
      </trkpt>
      <trkpt lat="44.7497" lon="5.44782">
        <ele>1013.2059937</ele>
        <time>2011-10-02T11:11:03Z</time>
      </trkpt>
      <trkpt lat="44.74966" lon="5.44795">
        <ele>1014.7630005</ele>
        <time>2011-10-02T11:11:09Z</time>
      </trkpt>
      <trkpt lat="44.74966" lon="5.44802">
        <ele>1015.4489746</ele>
        <time>2011-10-02T11:11:12Z</time>
      </trkpt>
      <trkpt lat="44.74963" lon="5.44814">
        <ele>1016.4589844</ele>
        <time>2011-10-02T11:11:17Z</time>
      </trkpt>
      <trkpt lat="44.74958" lon="5.44821">
        <ele>1016.8300171</ele>
        <time>2011-10-02T11:11:21Z</time>
      </trkpt>
      <trkpt lat="44.74952" lon="5.44832">
        <ele>1017.6950073</ele>
        <time>2011-10-02T11:11:27Z</time>
      </trkpt>
      <trkpt lat="44.74946" lon="5.4484">
        <ele>1018.5960083</ele>
        <time>2011-10-02T11:11:32Z</time>
      </trkpt>
      <trkpt lat="44.74939" lon="5.44845">
        <ele>1019.0869751</ele>
        <time>2011-10-02T11:11:37Z</time>
      </trkpt>
      <trkpt lat="44.74936" lon="5.44852">
        <ele>1019.7440186</ele>
        <time>2011-10-02T11:11:44Z</time>
      </trkpt>
      <trkpt lat="44.74934" lon="5.44856">
        <ele>1020.9290161</ele>
        <time>2011-10-02T11:13:21Z</time>
      </trkpt>
      <trkpt lat="44.74931" lon="5.44849">
        <ele>1021.8709717</ele>
        <time>2011-10-02T11:13:28Z</time>
      </trkpt>
      <trkpt lat="44.74936" lon="5.44871">
        <ele>1026.151001</ele>
        <time>2011-10-02T11:13:55Z</time>
      </trkpt>
      <trkpt lat="44.74932" lon="5.44888">
        <ele>1030.6459961</ele>
        <time>2011-10-02T11:14:17Z</time>
      </trkpt>
      <trkpt lat="44.7492" lon="5.44898">
        <ele>1036.1330566</ele>
        <time>2011-10-02T11:14:46Z</time>
      </trkpt>
      <trkpt lat="44.74911" lon="5.44897">
        <ele>1038.0169678</ele>
        <time>2011-10-02T11:14:55Z</time>
      </trkpt>
      <trkpt lat="44.749" lon="5.44894">
        <ele>1039.7910156</ele>
        <time>2011-10-02T11:15:02Z</time>
      </trkpt>
      <trkpt lat="44.74899" lon="5.44892">
        <ele>1040.907959</ele>
        <time>2011-10-02T11:15:06Z</time>
      </trkpt>
      <trkpt lat="44.74904" lon="5.44879">
        <ele>1046.8959961</ele>
        <time>2011-10-02T11:15:36Z</time>
      </trkpt>
      <trkpt lat="44.74892" lon="5.44882">
        <ele>1051.5550537</ele>
        <time>2011-10-02T11:15:57Z</time>
      </trkpt>
      <trkpt lat="44.74883" lon="5.44877">
        <ele>1056.0939941</ele>
        <time>2011-10-02T11:16:16Z</time>
      </trkpt>
      <trkpt lat="44.74879" lon="5.44876">
        <ele>1057.7929688</ele>
        <time>2011-10-02T11:16:23Z</time>
      </trkpt>
      <trkpt lat="44.74873" lon="5.44871">
        <ele>1059.3800049</ele>
        <time>2011-10-02T11:16:32Z</time>
      </trkpt>
      <trkpt lat="44.74869" lon="5.44868">
        <ele>1060.5529785</ele>
        <time>2011-10-02T11:16:38Z</time>
      </trkpt>
      <trkpt lat="44.74864" lon="5.44866">
        <ele>1061.6350098</ele>
        <time>2011-10-02T11:16:44Z</time>
      </trkpt>
      <trkpt lat="44.7486" lon="5.44862">
        <ele>1062.3959961</ele>
        <time>2011-10-02T11:16:48Z</time>
      </trkpt>
      <trkpt lat="44.74853" lon="5.44856">
        <ele>1063.2629395</ele>
        <time>2011-10-02T11:16:53Z</time>
      </trkpt>
      <trkpt lat="44.7485" lon="5.44856">
        <ele>1063.9000244</ele>
        <time>2011-10-02T11:16:56Z</time>
      </trkpt>
      <trkpt lat="44.7484" lon="5.44853">
        <ele>1065.1960449</ele>
        <time>2011-10-02T11:17:03Z</time>
      </trkpt>
      <trkpt lat="44.74831" lon="5.44847">
        <ele>1066.4310303</ele>
        <time>2011-10-02T11:17:10Z</time>
      </trkpt>
      <trkpt lat="44.74831" lon="5.44845">
        <ele>1067.2840576</ele>
        <time>2011-10-02T11:17:14Z</time>
      </trkpt>
      <trkpt lat="44.74826" lon="5.44848">
        <ele>1068.0620117</ele>
        <time>2011-10-02T11:17:19Z</time>
      </trkpt>
      <trkpt lat="44.74821" lon="5.4485">
        <ele>1069.5269775</ele>
        <time>2011-10-02T11:17:25Z</time>
      </trkpt>
      <trkpt lat="44.7482" lon="5.44849">
        <ele>1070.2600098</ele>
        <time>2011-10-02T11:17:28Z</time>
      </trkpt>
      <trkpt lat="44.74812" lon="5.44847">
        <ele>1071.8120117</ele>
        <time>2011-10-02T11:17:35Z</time>
      </trkpt>
      <trkpt lat="44.74809" lon="5.44844">
        <ele>1073.2089844</ele>
        <time>2011-10-02T11:17:41Z</time>
      </trkpt>
      <trkpt lat="44.74802" lon="5.4484">
        <ele>1075.3170166</ele>
        <time>2011-10-02T11:17:50Z</time>
      </trkpt>
      <trkpt lat="44.74798" lon="5.44835">
        <ele>1076.881958</ele>
        <time>2011-10-02T11:17:56Z</time>
      </trkpt>
      <trkpt lat="44.74794" lon="5.44834">
        <ele>1078.6300049</ele>
        <time>2011-10-02T11:18:03Z</time>
      </trkpt>
      <trkpt lat="44.74793" lon="5.44826">
        <ele>1082.3499756</ele>
        <time>2011-10-02T11:18:21Z</time>
      </trkpt>
      <trkpt lat="44.74786" lon="5.44819">
        <ele>1083.7349854</ele>
        <time>2011-10-02T11:18:27Z</time>
      </trkpt>
      <trkpt lat="44.74784" lon="5.44811">
        <ele>1086.0050049</ele>
        <time>2011-10-02T11:18:37Z</time>
      </trkpt>
      <trkpt lat="44.74779" lon="5.44805">
        <ele>1087.5439453</ele>
        <time>2011-10-02T11:18:43Z</time>
      </trkpt>
      <trkpt lat="44.74775" lon="5.44801">
        <ele>1089.6650391</ele>
        <time>2011-10-02T11:18:52Z</time>
      </trkpt>
      <trkpt lat="44.74765" lon="5.44798">
        <ele>1092.1049805</ele>
        <time>2011-10-02T11:19:02Z</time>
      </trkpt>
      <trkpt lat="44.74754" lon="5.44791">
        <ele>1097.3869629</ele>
        <time>2011-10-02T11:19:24Z</time>
      </trkpt>
      <trkpt lat="44.74749" lon="5.44789">
        <ele>1098.4019775</ele>
        <time>2011-10-02T11:19:28Z</time>
      </trkpt>
      <trkpt lat="44.74747" lon="5.44787">
        <ele>1099.7060547</ele>
        <time>2011-10-02T11:19:34Z</time>
      </trkpt>
      <trkpt lat="44.74746" lon="5.44786">
        <ele>1100.81604</ele>
        <time>2011-10-02T11:19:39Z</time>
      </trkpt>
      <trkpt lat="44.74741" lon="5.44778">
        <ele>1105.7709961</ele>
        <time>2011-10-02T11:19:57Z</time>
      </trkpt>
      <trkpt lat="44.74735" lon="5.44775">
        <ele>1106.7580566</ele>
        <time>2011-10-02T11:20:05Z</time>
      </trkpt>
      <trkpt lat="44.74735" lon="5.44778">
        <ele>1110.9870605</ele>
        <time>2011-10-02T11:20:27Z</time>
      </trkpt>
      <trkpt lat="44.74733" lon="5.44782">
        <ele>1113.6359863</ele>
        <time>2011-10-02T11:20:39Z</time>
      </trkpt>
      <trkpt lat="44.74731" lon="5.44785">
        <ele>1114.8000488</ele>
        <time>2011-10-02T11:20:45Z</time>
      </trkpt>
      <trkpt lat="44.74728" lon="5.44784">
        <ele>1115.7060547</ele>
        <time>2011-10-02T11:20:50Z</time>
      </trkpt>
      <trkpt lat="44.74728" lon="5.44779">
        <ele>1116.2039795</ele>
        <time>2011-10-02T11:20:59Z</time>
      </trkpt>
      <trkpt lat="44.74726" lon="5.44776">
        <ele>1116.4320068</ele>
        <time>2011-10-02T11:21:06Z</time>
      </trkpt>
      <trkpt lat="44.74721" lon="5.4477">
        <ele>1116.7519531</ele>
        <time>2011-10-02T11:21:13Z</time>
      </trkpt>
      <trkpt lat="44.74712" lon="5.44769">
        <ele>1117.18396</ele>
        <time>2011-10-02T11:21:20Z</time>
      </trkpt>
      <trkpt lat="44.74711" lon="5.44769">
        <ele>1117.3399658</ele>
        <time>2011-10-02T11:21:21Z</time>
      </trkpt>
      <trkpt lat="44.74706" lon="5.44771">
        <ele>1118.3399658</ele>
        <time>2011-10-02T11:21:25Z</time>
      </trkpt>
      <trkpt lat="44.74694" lon="5.44772">
        <ele>1120.4639893</ele>
        <time>2011-10-02T11:21:34Z</time>
      </trkpt>
      <trkpt lat="44.7469" lon="5.44773">
        <ele>1122.0560303</ele>
        <time>2011-10-02T11:21:39Z</time>
      </trkpt>
      <trkpt lat="44.74688" lon="5.44773">
        <ele>1123.3370361</ele>
        <time>2011-10-02T11:21:44Z</time>
      </trkpt>
      <trkpt lat="44.74683" lon="5.44775">
        <ele>1124.197998</ele>
        <time>2011-10-02T11:21:49Z</time>
      </trkpt>
      <trkpt lat="44.74681" lon="5.44776">
        <ele>1124.8039551</ele>
        <time>2011-10-02T11:21:51Z</time>
      </trkpt>
      <trkpt lat="44.74672" lon="5.44773">
        <ele>1126.2939453</ele>
        <time>2011-10-02T11:21:59Z</time>
      </trkpt>
      <trkpt lat="44.74666" lon="5.44766">
        <ele>1127.18396</ele>
        <time>2011-10-02T11:22:07Z</time>
      </trkpt>
      <trkpt lat="44.74662" lon="5.44763">
        <ele>1127.5050049</ele>
        <time>2011-10-02T11:22:11Z</time>
      </trkpt>
      <trkpt lat="44.74654" lon="5.44761">
        <ele>1127.9189453</ele>
        <time>2011-10-02T11:22:17Z</time>
      </trkpt>
      <trkpt lat="44.74647" lon="5.44767">
        <ele>1127.7359619</ele>
        <time>2011-10-02T11:22:22Z</time>
      </trkpt>
      <trkpt lat="44.74639" lon="5.44776">
        <ele>1127.6929932</ele>
        <time>2011-10-02T11:22:27Z</time>
      </trkpt>
      <trkpt lat="44.74635" lon="5.44786">
        <ele>1128.9570313</ele>
        <time>2011-10-02T11:22:32Z</time>
      </trkpt>
      <trkpt lat="44.74635" lon="5.44792">
        <ele>1130.4790039</ele>
        <time>2011-10-02T11:22:37Z</time>
      </trkpt>
      <trkpt lat="44.74632" lon="5.44802">
        <ele>1132.822998</ele>
        <time>2011-10-02T11:22:45Z</time>
      </trkpt>
      <trkpt lat="44.7463" lon="5.44811">
        <ele>1134.1409912</ele>
        <time>2011-10-02T11:22:52Z</time>
      </trkpt>
      <trkpt lat="44.74627" lon="5.44817">
        <ele>1135.0469971</ele>
        <time>2011-10-02T11:22:56Z</time>
      </trkpt>
      <trkpt lat="44.74624" lon="5.44824">
        <ele>1136.8840332</ele>
        <time>2011-10-02T11:23:04Z</time>
      </trkpt>
      <trkpt lat="44.74623" lon="5.44825">
        <ele>1137.1870117</ele>
        <time>2011-10-02T11:23:05Z</time>
      </trkpt>
      <trkpt lat="44.7462" lon="5.44827">
        <ele>1138.0369873</ele>
        <time>2011-10-02T11:23:08Z</time>
      </trkpt>
      <trkpt lat="44.74615" lon="5.44832">
        <ele>1139.6109619</ele>
        <time>2011-10-02T11:23:15Z</time>
      </trkpt>
      <trkpt lat="44.74601" lon="5.44845">
        <ele>1141.8709717</ele>
        <time>2011-10-02T11:24:03Z</time>
      </trkpt>
      <trkpt lat="44.74591" lon="5.4486">
        <ele>1145.9830322</ele>
        <time>2011-10-02T11:24:25Z</time>
      </trkpt>
      <trkpt lat="44.74579" lon="5.44861">
        <ele>1148.8199463</ele>
        <time>2011-10-02T11:24:53Z</time>
      </trkpt>
      <trkpt lat="44.74577" lon="5.44856">
        <ele>1149.5870361</ele>
        <time>2011-10-02T11:24:58Z</time>
      </trkpt>
      <trkpt lat="44.74573" lon="5.44851">
        <ele>1150.2039795</ele>
        <time>2011-10-02T11:25:03Z</time>
      </trkpt>
      <trkpt lat="44.74571" lon="5.4484">
        <ele>1150.8780518</ele>
        <time>2011-10-02T11:25:10Z</time>
      </trkpt>
      <trkpt lat="44.74569" lon="5.44835">
        <ele>1152.2629395</ele>
        <time>2011-10-02T11:25:17Z</time>
      </trkpt>
      <trkpt lat="44.74568" lon="5.44829">
        <ele>1153.5510254</ele>
        <time>2011-10-02T11:25:23Z</time>
      </trkpt>
      <trkpt lat="44.74565" lon="5.44822">
        <ele>1155.3220215</ele>
        <time>2011-10-02T11:25:32Z</time>
      </trkpt>
      <trkpt lat="44.74562" lon="5.44824">
        <ele>1156.8840332</ele>
        <time>2011-10-02T11:25:38Z</time>
      </trkpt>
      <trkpt lat="44.74556" lon="5.44821">
        <ele>1158.3010254</ele>
        <time>2011-10-02T11:25:45Z</time>
      </trkpt>
      <trkpt lat="44.74549" lon="5.44815">
        <ele>1160.2889404</ele>
        <time>2011-10-02T11:25:54Z</time>
      </trkpt>
      <trkpt lat="44.74546" lon="5.44814">
        <ele>1160.9119873</ele>
        <time>2011-10-02T11:25:57Z</time>
      </trkpt>
      <trkpt lat="44.7454" lon="5.44816">
        <ele>1162.0839844</ele>
        <time>2011-10-02T11:26:05Z</time>
      </trkpt>
      <trkpt lat="44.74536" lon="5.44812">
        <ele>1162.8570557</ele>
        <time>2011-10-02T11:26:12Z</time>
      </trkpt>
      <trkpt lat="44.74529" lon="5.44796">
        <ele>1165.9439697</ele>
        <time>2011-10-02T11:30:33Z</time>
      </trkpt>
      <trkpt lat="44.74529" lon="5.44801">
        <ele>1166.6159668</ele>
        <time>2011-10-02T11:30:41Z</time>
      </trkpt>
      <trkpt lat="44.7453" lon="5.44802">
        <ele>1168.5810547</ele>
        <time>2011-10-02T11:30:52Z</time>
      </trkpt>
      <trkpt lat="44.74522" lon="5.44801">
        <ele>1172.5209961</ele>
        <time>2011-10-02T11:31:14Z</time>
      </trkpt>
      <trkpt lat="44.7452" lon="5.44804">
        <ele>1173.5109863</ele>
        <time>2011-10-02T11:31:21Z</time>
      </trkpt>
      <trkpt lat="44.74516" lon="5.44808">
        <ele>1174.5870361</ele>
        <time>2011-10-02T11:31:29Z</time>
      </trkpt>
      <trkpt lat="44.745" lon="5.44807">
        <ele>1181.7519531</ele>
        <time>2011-10-02T11:32:07Z</time>
      </trkpt>
      <trkpt lat="44.74493" lon="5.44806">
        <ele>1183.2490234</ele>
        <time>2011-10-02T11:32:14Z</time>
      </trkpt>
      <trkpt lat="44.74488" lon="5.44806">
        <ele>1184.8719482</ele>
        <time>2011-10-02T11:32:21Z</time>
      </trkpt>
      <trkpt lat="44.74485" lon="5.44805">
        <ele>1185.6290283</ele>
        <time>2011-10-02T11:32:26Z</time>
      </trkpt>
      <trkpt lat="44.74483" lon="5.44804">
        <ele>1186.4229736</ele>
        <time>2011-10-02T11:32:33Z</time>
      </trkpt>
      <trkpt lat="44.74483" lon="5.44804">
        <ele>1187.3850098</ele>
        <time>2011-10-02T11:32:38Z</time>
      </trkpt>
      <trkpt lat="44.7448" lon="5.44803">
        <ele>1188.6729736</ele>
        <time>2011-10-02T11:32:45Z</time>
      </trkpt>
      <trkpt lat="44.74475" lon="5.44808">
        <ele>1191.4820557</ele>
        <time>2011-10-02T11:33:01Z</time>
      </trkpt>
      <trkpt lat="44.74469" lon="5.44816">
        <ele>1192.5030518</ele>
        <time>2011-10-02T11:33:09Z</time>
      </trkpt>
      <trkpt lat="44.74468" lon="5.44818">
        <ele>1193.3039551</ele>
        <time>2011-10-02T11:33:14Z</time>
      </trkpt>
      <trkpt lat="44.74459" lon="5.44821">
        <ele>1195.0379639</ele>
        <time>2011-10-02T11:33:26Z</time>
      </trkpt>
      <trkpt lat="44.74453" lon="5.44819">
        <ele>1195.7750244</ele>
        <time>2011-10-02T11:33:33Z</time>
      </trkpt>
      <trkpt lat="44.74446" lon="5.44812">
        <ele>1197.2189941</ele>
        <time>2011-10-02T11:33:41Z</time>
      </trkpt>
      <trkpt lat="44.74443" lon="5.44807">
        <ele>1198.4510498</ele>
        <time>2011-10-02T11:33:49Z</time>
      </trkpt>
      <trkpt lat="44.74438" lon="5.44798">
        <ele>1202.8320313</ele>
        <time>2011-10-02T11:34:09Z</time>
      </trkpt>
      <trkpt lat="44.74433" lon="5.44799">
        <ele>1205.0679932</ele>
        <time>2011-10-02T11:34:20Z</time>
      </trkpt>
      <trkpt lat="44.7443" lon="5.44797">
        <ele>1206.2969971</ele>
        <time>2011-10-02T11:34:26Z</time>
      </trkpt>
      <trkpt lat="44.74425" lon="5.44798">
        <ele>1208.0639648</ele>
        <time>2011-10-02T11:34:34Z</time>
      </trkpt>
      <trkpt lat="44.74421" lon="5.44793">
        <ele>1209.4019775</ele>
        <time>2011-10-02T11:34:43Z</time>
      </trkpt>
      <trkpt lat="44.7442" lon="5.44796">
        <ele>1210.2750244</ele>
        <time>2011-10-02T11:34:48Z</time>
      </trkpt>
      <trkpt lat="44.74413" lon="5.44799">
        <ele>1213.1450195</ele>
        <time>2011-10-02T11:35:02Z</time>
      </trkpt>
      <trkpt lat="44.74407" lon="5.44803">
        <ele>1214.427002</ele>
        <time>2011-10-02T11:35:07Z</time>
      </trkpt>
      <trkpt lat="44.74401" lon="5.44808">
        <ele>1215.4110107</ele>
        <time>2011-10-02T11:35:13Z</time>
      </trkpt>
      <trkpt lat="44.74402" lon="5.44811">
        <ele>1216.2969971</ele>
        <time>2011-10-02T11:35:18Z</time>
      </trkpt>
      <trkpt lat="44.74402" lon="5.44811">
        <ele>1217.1929932</ele>
        <time>2011-10-02T11:35:24Z</time>
      </trkpt>
      <trkpt lat="44.744" lon="5.44808">
        <ele>1217.4709473</ele>
        <time>2011-10-02T11:35:29Z</time>
      </trkpt>
      <trkpt lat="44.74392" lon="5.44812">
        <ele>1216.9189453</ele>
        <time>2011-10-02T11:35:37Z</time>
      </trkpt>
      <trkpt lat="44.74386" lon="5.44822">
        <ele>1216.4589844</ele>
        <time>2011-10-02T11:35:41Z</time>
      </trkpt>
      <trkpt lat="44.74379" lon="5.44834">
        <ele>1216.6350098</ele>
        <time>2011-10-02T11:35:48Z</time>
      </trkpt>
      <trkpt lat="44.7437" lon="5.44846">
        <ele>1216.5909424</ele>
        <time>2011-10-02T11:35:53Z</time>
      </trkpt>
      <trkpt lat="44.74362" lon="5.44856">
        <ele>1216.6689453</ele>
        <time>2011-10-02T11:35:58Z</time>
      </trkpt>
      <trkpt lat="44.74352" lon="5.44862">
        <ele>1217.6450195</ele>
        <time>2011-10-02T11:36:05Z</time>
      </trkpt>
      <trkpt lat="44.74347" lon="5.44861">
        <ele>1218.2259521</ele>
        <time>2011-10-02T11:36:12Z</time>
      </trkpt>
      <trkpt lat="44.74343" lon="5.44865">
        <ele>1219.8000488</ele>
        <time>2011-10-02T11:36:22Z</time>
      </trkpt>
      <trkpt lat="44.74333" lon="5.4487">
        <ele>1221.0620117</ele>
        <time>2011-10-02T11:36:38Z</time>
      </trkpt>
      <trkpt lat="44.74323" lon="5.44874">
        <ele>1221.9110107</ele>
        <time>2011-10-02T11:36:43Z</time>
      </trkpt>
      <trkpt lat="44.7432" lon="5.44874">
        <ele>1222.6889648</ele>
        <time>2011-10-02T11:36:46Z</time>
      </trkpt>
      <trkpt lat="44.74315" lon="5.4487">
        <ele>1222.9689941</ele>
        <time>2011-10-02T11:36:51Z</time>
      </trkpt>
      <trkpt lat="44.74309" lon="5.44872">
        <ele>1222.730957</ele>
        <time>2011-10-02T11:36:59Z</time>
      </trkpt>
      <trkpt lat="44.74305" lon="5.44873">
        <ele>1222.8380127</ele>
        <time>2011-10-02T11:37:04Z</time>
      </trkpt>
      <trkpt lat="44.74302" lon="5.44872">
        <ele>1222.8039551</ele>
        <time>2011-10-02T11:37:08Z</time>
      </trkpt>
      <trkpt lat="44.74293" lon="5.4487">
        <ele>1222.6939697</ele>
        <time>2011-10-02T11:37:14Z</time>
      </trkpt>
      <trkpt lat="44.74291" lon="5.44867">
        <ele>1222.81604</ele>
        <time>2011-10-02T11:37:17Z</time>
      </trkpt>
      <trkpt lat="44.74281" lon="5.44867">
        <ele>1223.9160156</ele>
        <time>2011-10-02T11:37:24Z</time>
      </trkpt>
      <trkpt lat="44.74275" lon="5.4487">
        <ele>1226.1280518</ele>
        <time>2011-10-02T11:37:30Z</time>
      </trkpt>
      <trkpt lat="44.74268" lon="5.44871">
        <ele>1227.5119629</ele>
        <time>2011-10-02T11:37:35Z</time>
      </trkpt>
      <trkpt lat="44.74262" lon="5.44872">
        <ele>1229.355957</ele>
        <time>2011-10-02T11:37:40Z</time>
      </trkpt>
      <trkpt lat="44.74257" lon="5.44874">
        <ele>1230.8370361</ele>
        <time>2011-10-02T11:37:44Z</time>
      </trkpt>
      <trkpt lat="44.74249" lon="5.44873">
        <ele>1231.7810059</ele>
        <time>2011-10-02T11:37:49Z</time>
      </trkpt>
      <trkpt lat="44.74243" lon="5.44872">
        <ele>1232.1070557</ele>
        <time>2011-10-02T11:37:53Z</time>
      </trkpt>
      <trkpt lat="44.74229" lon="5.44868">
        <ele>1232.5240479</ele>
        <time>2011-10-02T11:37:59Z</time>
      </trkpt>
      <trkpt lat="44.74217" lon="5.44869">
        <ele>1232.8990479</ele>
        <time>2011-10-02T11:38:05Z</time>
      </trkpt>
      <trkpt lat="44.74214" lon="5.44868">
        <ele>1234.1500244</ele>
        <time>2011-10-02T11:38:12Z</time>
      </trkpt>
      <trkpt lat="44.74214" lon="5.44864">
        <ele>1234.4470215</ele>
        <time>2011-10-02T11:38:33Z</time>
      </trkpt>
      <trkpt lat="44.74212" lon="5.44865">
        <ele>1235.2810059</ele>
        <time>2011-10-02T11:38:39Z</time>
      </trkpt>
      <trkpt lat="44.74203" lon="5.44874">
        <ele>1240.8430176</ele>
        <time>2011-10-02T11:39:08Z</time>
      </trkpt>
      <trkpt lat="44.74199" lon="5.44874">
        <ele>1241.9460449</ele>
        <time>2011-10-02T11:39:14Z</time>
      </trkpt>
      <trkpt lat="44.74196" lon="5.44877">
        <ele>1243.4830322</ele>
        <time>2011-10-02T11:39:21Z</time>
      </trkpt>
      <trkpt lat="44.74194" lon="5.44882">
        <ele>1244.519043</ele>
        <time>2011-10-02T11:39:27Z</time>
      </trkpt>
      <trkpt lat="44.74195" lon="5.44886">
        <ele>1245.8990479</ele>
        <time>2011-10-02T11:39:34Z</time>
      </trkpt>
      <trkpt lat="44.74194" lon="5.44888">
        <ele>1246.8769531</ele>
        <time>2011-10-02T11:39:41Z</time>
      </trkpt>
      <trkpt lat="44.74196" lon="5.4489">
        <ele>1247.7800293</ele>
        <time>2011-10-02T11:39:46Z</time>
      </trkpt>
      <trkpt lat="44.74196" lon="5.44893">
        <ele>1249.0839844</ele>
        <time>2011-10-02T11:39:52Z</time>
      </trkpt>
      <trkpt lat="44.74201" lon="5.44897">
        <ele>1250.1140137</ele>
        <time>2011-10-02T11:39:58Z</time>
      </trkpt>
      <trkpt lat="44.74203" lon="5.44901">
        <ele>1251.4510498</ele>
        <time>2011-10-02T11:40:04Z</time>
      </trkpt>
      <trkpt lat="44.74205" lon="5.44905">
        <ele>1253.0889893</ele>
        <time>2011-10-02T11:40:12Z</time>
      </trkpt>
      <trkpt lat="44.74207" lon="5.44907">
        <ele>1254.4959717</ele>
        <time>2011-10-02T11:40:19Z</time>
      </trkpt>
      <trkpt lat="44.74205" lon="5.44913">
        <ele>1256.2099609</ele>
        <time>2011-10-02T11:40:27Z</time>
      </trkpt>
      <trkpt lat="44.74205" lon="5.44918">
        <ele>1256.8280029</ele>
        <time>2011-10-02T11:40:32Z</time>
      </trkpt>
      <trkpt lat="44.74209" lon="5.44927">
        <ele>1259.8800049</ele>
        <time>2011-10-02T11:40:46Z</time>
      </trkpt>
      <trkpt lat="44.7421" lon="5.4493">
        <ele>1261.3409424</ele>
        <time>2011-10-02T11:40:52Z</time>
      </trkpt>
      <trkpt lat="44.74211" lon="5.44927">
        <ele>1263.0059814</ele>
        <time>2011-10-02T11:41:01Z</time>
      </trkpt>
      <trkpt lat="44.74212" lon="5.44929">
        <ele>1265.0290527</ele>
        <time>2011-10-02T11:41:10Z</time>
      </trkpt>
      <trkpt lat="44.74214" lon="5.4493">
        <ele>1266.0439453</ele>
        <time>2011-10-02T11:41:16Z</time>
      </trkpt>
      <trkpt lat="44.74219" lon="5.44935">
        <ele>1268.0119629</ele>
        <time>2011-10-02T11:41:27Z</time>
      </trkpt>
      <trkpt lat="44.74225" lon="5.44951">
        <ele>1271.1679688</ele>
        <time>2011-10-02T11:41:46Z</time>
      </trkpt>
      <trkpt lat="44.74228" lon="5.44953">
        <ele>1272.2390137</ele>
        <time>2011-10-02T11:41:51Z</time>
      </trkpt>
      <trkpt lat="44.74225" lon="5.44955">
        <ele>1274.5999756</ele>
        <time>2011-10-02T11:42:03Z</time>
      </trkpt>
      <trkpt lat="44.74229" lon="5.44958">
        <ele>1276.7679443</ele>
        <time>2011-10-02T11:42:14Z</time>
      </trkpt>
      <trkpt lat="44.74231" lon="5.4496">
        <ele>1278.5369873</ele>
        <time>2011-10-02T11:42:22Z</time>
      </trkpt>
      <trkpt lat="44.7423" lon="5.44961">
        <ele>1279.8299561</ele>
        <time>2011-10-02T11:42:28Z</time>
      </trkpt>
      <trkpt lat="44.74232" lon="5.44964">
        <ele>1281.7590332</ele>
        <time>2011-10-02T11:42:37Z</time>
      </trkpt>
      <trkpt lat="44.74233" lon="5.44965">
        <ele>1285.118042</ele>
        <time>2011-10-02T11:42:54Z</time>
      </trkpt>
      <trkpt lat="44.74238" lon="5.44968">
        <ele>1286.3430176</ele>
        <time>2011-10-02T11:43:00Z</time>
      </trkpt>
      <trkpt lat="44.74239" lon="5.4497">
        <ele>1287.3979492</ele>
        <time>2011-10-02T11:43:06Z</time>
      </trkpt>
      <trkpt lat="44.74248" lon="5.44974">
        <ele>1289.3859863</ele>
        <time>2011-10-02T11:43:15Z</time>
      </trkpt>
      <trkpt lat="44.7425" lon="5.44979">
        <ele>1291.2860107</ele>
        <time>2011-10-02T11:43:25Z</time>
      </trkpt>
      <trkpt lat="44.74252" lon="5.44982">
        <ele>1292.5050049</ele>
        <time>2011-10-02T11:43:32Z</time>
      </trkpt>
      <trkpt lat="44.74253" lon="5.44984">
        <ele>1293.0140381</ele>
        <time>2011-10-02T11:43:35Z</time>
      </trkpt>
      <trkpt lat="44.74256" lon="5.44994">
        <ele>1293.5429688</ele>
        <time>2011-10-02T11:43:42Z</time>
      </trkpt>
      <trkpt lat="44.74242" lon="5.45001">
        <ele>1293.7180176</ele>
        <time>2011-10-02T11:45:03Z</time>
      </trkpt>
      <trkpt lat="44.74239" lon="5.45004">
        <ele>1293.7419434</ele>
        <time>2011-10-02T11:45:18Z</time>
      </trkpt>
      <trkpt lat="44.74257" lon="5.44992">
        <ele>1293.8330078</ele>
        <time>2011-10-02T11:46:26Z</time>
      </trkpt>
      <trkpt lat="44.7426" lon="5.44994">
        <ele>1294.2359619</ele>
        <time>2011-10-02T11:47:30Z</time>
      </trkpt>
      <trkpt lat="44.74262" lon="5.44992">
        <ele>1294.8439941</ele>
        <time>2011-10-02T11:47:36Z</time>
      </trkpt>
      <trkpt lat="44.74263" lon="5.45">
        <ele>1297.2449951</ele>
        <time>2011-10-02T11:47:48Z</time>
      </trkpt>
      <trkpt lat="44.74265" lon="5.45003">
        <ele>1298.9379883</ele>
        <time>2011-10-02T11:47:54Z</time>
      </trkpt>
      <trkpt lat="44.74267" lon="5.45005">
        <ele>1301.2270508</ele>
        <time>2011-10-02T11:48:03Z</time>
      </trkpt>
      <trkpt lat="44.74266" lon="5.45008">
        <ele>1302.2969971</ele>
        <time>2011-10-02T11:48:09Z</time>
      </trkpt>
      <trkpt lat="44.74268" lon="5.45012">
        <ele>1303.9129639</ele>
        <time>2011-10-02T11:48:16Z</time>
      </trkpt>
      <trkpt lat="44.74272" lon="5.45014">
        <ele>1305.8520508</ele>
        <time>2011-10-02T11:48:23Z</time>
      </trkpt>
      <trkpt lat="44.74274" lon="5.45018">
        <ele>1307.3909912</ele>
        <time>2011-10-02T11:48:30Z</time>
      </trkpt>
      <trkpt lat="44.74274" lon="5.45022">
        <ele>1308.0909424</ele>
        <time>2011-10-02T11:48:35Z</time>
      </trkpt>
      <trkpt lat="44.74272" lon="5.45026">
        <ele>1310.875</ele>
        <time>2011-10-02T11:48:53Z</time>
      </trkpt>
      <trkpt lat="44.74266" lon="5.45023">
        <ele>1311.8430176</ele>
        <time>2011-10-02T11:49:02Z</time>
      </trkpt>
      <trkpt lat="44.74261" lon="5.45022">
        <ele>1312.993042</ele>
        <time>2011-10-02T11:49:08Z</time>
      </trkpt>
      <trkpt lat="44.74256" lon="5.45023">
        <ele>1314.1490479</ele>
        <time>2011-10-02T11:49:15Z</time>
      </trkpt>
      <trkpt lat="44.74252" lon="5.45023">
        <ele>1315.3840332</ele>
        <time>2011-10-02T11:49:25Z</time>
      </trkpt>
      <trkpt lat="44.74248" lon="5.45026">
        <ele>1316.2060547</ele>
        <time>2011-10-02T11:49:31Z</time>
      </trkpt>
      <trkpt lat="44.74246" lon="5.45028">
        <ele>1316.7110596</ele>
        <time>2011-10-02T11:49:34Z</time>
      </trkpt>
      <trkpt lat="44.74241" lon="5.45029">
        <ele>1318.144043</ele>
        <time>2011-10-02T11:49:41Z</time>
      </trkpt>
      <trkpt lat="44.74236" lon="5.45028">
        <ele>1319.7270508</ele>
        <time>2011-10-02T11:49:48Z</time>
      </trkpt>
      <trkpt lat="44.74234" lon="5.45028">
        <ele>1321.2380371</ele>
        <time>2011-10-02T11:49:55Z</time>
      </trkpt>
      <trkpt lat="44.74231" lon="5.45033">
        <ele>1322.8170166</ele>
        <time>2011-10-02T11:50:02Z</time>
      </trkpt>
      <trkpt lat="44.7423" lon="5.45035">
        <ele>1323.6290283</ele>
        <time>2011-10-02T11:50:06Z</time>
      </trkpt>
      <trkpt lat="44.74228" lon="5.45038">
        <ele>1324.8480225</ele>
        <time>2011-10-02T11:50:13Z</time>
      </trkpt>
      <trkpt lat="44.74226" lon="5.45041">
        <ele>1326.2270508</ele>
        <time>2011-10-02T11:50:20Z</time>
      </trkpt>
      <trkpt lat="44.74227" lon="5.4504">
        <ele>1326.6590576</ele>
        <time>2011-10-02T11:50:25Z</time>
      </trkpt>
      <trkpt lat="44.74229" lon="5.45041">
        <ele>1327.8189697</ele>
        <time>2011-10-02T11:50:31Z</time>
      </trkpt>
      <trkpt lat="44.74232" lon="5.45043">
        <ele>1328.9110107</ele>
        <time>2011-10-02T11:50:37Z</time>
      </trkpt>
      <trkpt lat="44.74233" lon="5.45043">
        <ele>1329.5939941</ele>
        <time>2011-10-02T11:50:43Z</time>
      </trkpt>
      <trkpt lat="44.74235" lon="5.45045">
        <ele>1329.8609619</ele>
        <time>2011-10-02T11:50:50Z</time>
      </trkpt>
      <trkpt lat="44.74236" lon="5.45046">
        <ele>1330.3480225</ele>
        <time>2011-10-02T11:50:53Z</time>
      </trkpt>
      <trkpt lat="44.74242" lon="5.45046">
        <ele>1331.5780029</ele>
        <time>2011-10-02T11:51:00Z</time>
      </trkpt>
      <trkpt lat="44.74245" lon="5.45046">
        <ele>1332.6159668</ele>
        <time>2011-10-02T11:51:06Z</time>
      </trkpt>
      <trkpt lat="44.74247" lon="5.45048">
        <ele>1333.8809814</ele>
        <time>2011-10-02T11:51:11Z</time>
      </trkpt>
      <trkpt lat="44.74251" lon="5.45051">
        <ele>1334.631958</ele>
        <time>2011-10-02T11:51:17Z</time>
      </trkpt>
      <trkpt lat="44.74257" lon="5.45054">
        <ele>1334.8459473</ele>
        <time>2011-10-02T11:51:24Z</time>
      </trkpt>
      <trkpt lat="44.7426" lon="5.45058">
        <ele>1335.3649902</ele>
        <time>2011-10-02T11:51:28Z</time>
      </trkpt>
      <trkpt lat="44.74265" lon="5.45064">
        <ele>1336.4050293</ele>
        <time>2011-10-02T11:51:34Z</time>
      </trkpt>
      <trkpt lat="44.74272" lon="5.45067">
        <ele>1337.355957</ele>
        <time>2011-10-02T11:51:42Z</time>
      </trkpt>
      <trkpt lat="44.74278" lon="5.45073">
        <ele>1338.2020264</ele>
        <time>2011-10-02T11:51:50Z</time>
      </trkpt>
      <trkpt lat="44.74281" lon="5.45076">
        <ele>1338.6479492</ele>
        <time>2011-10-02T11:51:53Z</time>
      </trkpt>
      <trkpt lat="44.74286" lon="5.45078">
        <ele>1339.6729736</ele>
        <time>2011-10-02T11:52:00Z</time>
      </trkpt>
      <trkpt lat="44.74286" lon="5.45079">
        <ele>1339.9360352</ele>
        <time>2011-10-02T11:52:02Z</time>
      </trkpt>
      <trkpt lat="44.74287" lon="5.45073">
        <ele>1340.4870605</ele>
        <time>2011-10-02T11:52:06Z</time>
      </trkpt>
      <trkpt lat="44.74287" lon="5.45075">
        <ele>1340.8499756</ele>
        <time>2011-10-02T11:52:09Z</time>
      </trkpt>
      <trkpt lat="44.74292" lon="5.45078">
        <ele>1341.5450439</ele>
        <time>2011-10-02T11:52:16Z</time>
      </trkpt>
      <trkpt lat="44.74294" lon="5.45081">
        <ele>1342.8780518</ele>
        <time>2011-10-02T11:52:23Z</time>
      </trkpt>
      <trkpt lat="44.74295" lon="5.45084">
        <ele>1344.2399902</ele>
        <time>2011-10-02T11:52:28Z</time>
      </trkpt>
      <trkpt lat="44.74298" lon="5.45089">
        <ele>1345.8900146</ele>
        <time>2011-10-02T11:52:35Z</time>
      </trkpt>
      <trkpt lat="44.74301" lon="5.45091">
        <ele>1347.1750488</ele>
        <time>2011-10-02T11:52:41Z</time>
      </trkpt>
      <trkpt lat="44.74303" lon="5.45091">
        <ele>1348.2020264</ele>
        <time>2011-10-02T11:52:47Z</time>
      </trkpt>
      <trkpt lat="44.74305" lon="5.45093">
        <ele>1348.3900146</ele>
        <time>2011-10-02T11:52:53Z</time>
      </trkpt>
      <trkpt lat="44.74309" lon="5.45093">
        <ele>1348.1719971</ele>
        <time>2011-10-02T11:52:57Z</time>
      </trkpt>
      <trkpt lat="44.74313" lon="5.45094">
        <ele>1347.7469482</ele>
        <time>2011-10-02T11:53:01Z</time>
      </trkpt>
      <trkpt lat="44.74318" lon="5.45094">
        <ele>1347.1739502</ele>
        <time>2011-10-02T11:53:07Z</time>
      </trkpt>
      <trkpt lat="44.74324" lon="5.45099">
        <ele>1347.2709961</ele>
        <time>2011-10-02T11:53:14Z</time>
      </trkpt>
      <trkpt lat="44.7433" lon="5.45101">
        <ele>1348.4320068</ele>
        <time>2011-10-02T11:53:20Z</time>
      </trkpt>
      <trkpt lat="44.74337" lon="5.45106">
        <ele>1349.5250244</ele>
        <time>2011-10-02T11:53:28Z</time>
      </trkpt>
      <trkpt lat="44.7434" lon="5.45108">
        <ele>1349.7189941</ele>
        <time>2011-10-02T11:53:31Z</time>
      </trkpt>
      <trkpt lat="44.74344" lon="5.45112">
        <ele>1350.4699707</ele>
        <time>2011-10-02T11:53:38Z</time>
      </trkpt>
      <trkpt lat="44.74344" lon="5.45112">
        <ele>1350.6629639</ele>
        <time>2011-10-02T11:53:39Z</time>
      </trkpt>
      <trkpt lat="44.74347" lon="5.45117">
        <ele>1351.6400146</ele>
        <time>2011-10-02T11:53:45Z</time>
      </trkpt>
      <trkpt lat="44.7435" lon="5.45118">
        <ele>1353.5059814</ele>
        <time>2011-10-02T11:53:53Z</time>
      </trkpt>
      <trkpt lat="44.74351" lon="5.45118">
        <ele>1354.598999</ele>
        <time>2011-10-02T11:53:58Z</time>
      </trkpt>
      <trkpt lat="44.74355" lon="5.45119">
        <ele>1356.5780029</ele>
        <time>2011-10-02T11:54:08Z</time>
      </trkpt>
      <trkpt lat="44.74356" lon="5.45127">
        <ele>1361.1359863</ele>
        <time>2011-10-02T11:54:30Z</time>
      </trkpt>
      <trkpt lat="44.74356" lon="5.45131">
        <ele>1362.2299805</ele>
        <time>2011-10-02T11:54:42Z</time>
      </trkpt>
      <trkpt lat="44.74354" lon="5.45131">
        <ele>1363.0410156</ele>
        <time>2011-10-02T11:54:48Z</time>
      </trkpt>
      <trkpt lat="44.74355" lon="5.45134">
        <ele>1363.7490234</ele>
        <time>2011-10-02T11:54:54Z</time>
      </trkpt>
      <trkpt lat="44.74355" lon="5.45137">
        <ele>1365.5410156</ele>
        <time>2011-10-02T11:55:02Z</time>
      </trkpt>
      <trkpt lat="44.74356" lon="5.45138">
        <ele>1366.5159912</ele>
        <time>2011-10-02T11:55:07Z</time>
      </trkpt>
      <trkpt lat="44.74356" lon="5.45141">
        <ele>1368.3120117</ele>
        <time>2011-10-02T11:55:14Z</time>
      </trkpt>
      <trkpt lat="44.74353" lon="5.45146">
        <ele>1370.1639404</ele>
        <time>2011-10-02T11:55:22Z</time>
      </trkpt>
      <trkpt lat="44.74351" lon="5.45155">
        <ele>1371.6459961</ele>
        <time>2011-10-02T11:55:30Z</time>
      </trkpt>
      <trkpt lat="44.74348" lon="5.4516">
        <ele>1373.019043</ele>
        <time>2011-10-02T11:55:37Z</time>
      </trkpt>
      <trkpt lat="44.74346" lon="5.45161">
        <ele>1373.618042</ele>
        <time>2011-10-02T11:55:40Z</time>
      </trkpt>
      <trkpt lat="44.7434" lon="5.45163">
        <ele>1374.2629395</ele>
        <time>2011-10-02T11:55:45Z</time>
      </trkpt>
      <trkpt lat="44.74335" lon="5.45165">
        <ele>1375.1679688</ele>
        <time>2011-10-02T11:55:53Z</time>
      </trkpt>
      <trkpt lat="44.74332" lon="5.4517">
        <ele>1376.2110596</ele>
        <time>2011-10-02T11:55:59Z</time>
      </trkpt>
      <trkpt lat="44.74331" lon="5.45171">
        <ele>1376.5469971</ele>
        <time>2011-10-02T11:56:01Z</time>
      </trkpt>
      <trkpt lat="44.74323" lon="5.45179">
        <ele>1378.342041</ele>
        <time>2011-10-02T11:56:10Z</time>
      </trkpt>
      <trkpt lat="44.7432" lon="5.4518">
        <ele>1380.217041</ele>
        <time>2011-10-02T11:56:19Z</time>
      </trkpt>
      <trkpt lat="44.74319" lon="5.45181">
        <ele>1380.8570557</ele>
        <time>2011-10-02T11:56:25Z</time>
      </trkpt>
      <trkpt lat="44.74317" lon="5.45184">
        <ele>1381.8590088</ele>
        <time>2011-10-02T11:56:31Z</time>
      </trkpt>
      <trkpt lat="44.74315" lon="5.45188">
        <ele>1383.4770508</ele>
        <time>2011-10-02T11:56:38Z</time>
      </trkpt>
      <trkpt lat="44.74315" lon="5.4519">
        <ele>1384.7750244</ele>
        <time>2011-10-02T11:56:44Z</time>
      </trkpt>
      <trkpt lat="44.74317" lon="5.45198">
        <ele>1386.4880371</ele>
        <time>2011-10-02T11:56:53Z</time>
      </trkpt>
      <trkpt lat="44.74319" lon="5.45204">
        <ele>1387.881958</ele>
        <time>2011-10-02T11:57:01Z</time>
      </trkpt>
      <trkpt lat="44.7432" lon="5.45205">
        <ele>1388.9990234</ele>
        <time>2011-10-02T11:57:08Z</time>
      </trkpt>
      <trkpt lat="44.74321" lon="5.45205">
        <ele>1389.6870117</ele>
        <time>2011-10-02T11:57:12Z</time>
      </trkpt>
      <trkpt lat="44.74327" lon="5.45212">
        <ele>1390.9639893</ele>
        <time>2011-10-02T11:57:21Z</time>
      </trkpt>
      <trkpt lat="44.7433" lon="5.45219">
        <ele>1392.1140137</ele>
        <time>2011-10-02T11:57:29Z</time>
      </trkpt>
      <trkpt lat="44.74332" lon="5.45227">
        <ele>1392.6949463</ele>
        <time>2011-10-02T11:57:35Z</time>
      </trkpt>
      <trkpt lat="44.74334" lon="5.45229">
        <ele>1393.9899902</ele>
        <time>2011-10-02T11:57:42Z</time>
      </trkpt>
      <trkpt lat="44.74339" lon="5.45229">
        <ele>1394.7469482</ele>
        <time>2011-10-02T11:57:51Z</time>
      </trkpt>
      <trkpt lat="44.74342" lon="5.45232">
        <ele>1395.532959</ele>
        <time>2011-10-02T11:57:55Z</time>
      </trkpt>
      <trkpt lat="44.74345" lon="5.45236">
        <ele>1396.5909424</ele>
        <time>2011-10-02T11:58:00Z</time>
      </trkpt>
      <trkpt lat="44.74348" lon="5.45239">
        <ele>1397.3900146</ele>
        <time>2011-10-02T11:58:05Z</time>
      </trkpt>
      <trkpt lat="44.7435" lon="5.45243">
        <ele>1398.8000488</ele>
        <time>2011-10-02T11:58:12Z</time>
      </trkpt>
      <trkpt lat="44.74353" lon="5.45246">
        <ele>1400.0439453</ele>
        <time>2011-10-02T11:58:19Z</time>
      </trkpt>
      <trkpt lat="44.7436" lon="5.4525">
        <ele>1401.6949463</ele>
        <time>2011-10-02T11:58:28Z</time>
      </trkpt>
      <trkpt lat="44.74364" lon="5.45253">
        <ele>1402.9119873</ele>
        <time>2011-10-02T11:58:34Z</time>
      </trkpt>
      <trkpt lat="44.74371" lon="5.45256">
        <ele>1404.0319824</ele>
        <time>2011-10-02T11:58:41Z</time>
      </trkpt>
      <trkpt lat="44.74375" lon="5.45256">
        <ele>1404.8879395</ele>
        <time>2011-10-02T11:58:46Z</time>
      </trkpt>
      <trkpt lat="44.74379" lon="5.45256">
        <ele>1406.2099609</ele>
        <time>2011-10-02T11:58:54Z</time>
      </trkpt>
      <trkpt lat="44.74383" lon="5.45255">
        <ele>1406.7230225</ele>
        <time>2011-10-02T11:59:01Z</time>
      </trkpt>
      <trkpt lat="44.74384" lon="5.45258">
        <ele>1407.5489502</ele>
        <time>2011-10-02T11:59:07Z</time>
      </trkpt>
      <trkpt lat="44.74386" lon="5.4526">
        <ele>1408.9859619</ele>
        <time>2011-10-02T11:59:14Z</time>
      </trkpt>
      <trkpt lat="44.74385" lon="5.45264">
        <ele>1409.9150391</ele>
        <time>2011-10-02T11:59:19Z</time>
      </trkpt>
      <trkpt lat="44.74383" lon="5.45267">
        <ele>1411.5319824</ele>
        <time>2011-10-02T11:59:26Z</time>
      </trkpt>
      <trkpt lat="44.74385" lon="5.45269">
        <ele>1412.572998</ele>
        <time>2011-10-02T11:59:32Z</time>
      </trkpt>
      <trkpt lat="44.74385" lon="5.45273">
        <ele>1414.1459961</ele>
        <time>2011-10-02T11:59:39Z</time>
      </trkpt>
      <trkpt lat="44.74384" lon="5.45277">
        <ele>1415.5699463</ele>
        <time>2011-10-02T11:59:45Z</time>
      </trkpt>
      <trkpt lat="44.74384" lon="5.45278">
        <ele>1416.1369629</ele>
        <time>2011-10-02T11:59:48Z</time>
      </trkpt>
      <trkpt lat="44.74383" lon="5.45286">
        <ele>1417.697998</ele>
        <time>2011-10-02T11:59:58Z</time>
      </trkpt>
      <trkpt lat="44.7438" lon="5.45292">
        <ele>1419.3249512</ele>
        <time>2011-10-02T12:00:07Z</time>
      </trkpt>
      <trkpt lat="44.74378" lon="5.45298">
        <ele>1420.4749756</ele>
        <time>2011-10-02T12:00:13Z</time>
      </trkpt>
      <trkpt lat="44.74375" lon="5.45303">
        <ele>1421.9919434</ele>
        <time>2011-10-02T12:00:21Z</time>
      </trkpt>
      <trkpt lat="44.74374" lon="5.45308">
        <ele>1423.1820068</ele>
        <time>2011-10-02T12:00:27Z</time>
      </trkpt>
      <trkpt lat="44.74371" lon="5.45311">
        <ele>1424.4350586</ele>
        <time>2011-10-02T12:00:33Z</time>
      </trkpt>
      <trkpt lat="44.74365" lon="5.45315">
        <ele>1426.0510254</ele>
        <time>2011-10-02T12:00:42Z</time>
      </trkpt>
      <trkpt lat="44.74361" lon="5.45318">
        <ele>1426.6379395</ele>
        <time>2011-10-02T12:00:48Z</time>
      </trkpt>
      <trkpt lat="44.74358" lon="5.45316">
        <ele>1427.0040283</ele>
        <time>2011-10-02T12:00:52Z</time>
      </trkpt>
      <trkpt lat="44.74353" lon="5.45318">
        <ele>1427.7640381</ele>
        <time>2011-10-02T12:00:58Z</time>
      </trkpt>
      <trkpt lat="44.74348" lon="5.45322">
        <ele>1429.2159424</ele>
        <time>2011-10-02T12:01:06Z</time>
      </trkpt>
      <trkpt lat="44.74342" lon="5.45326">
        <ele>1430.598999</ele>
        <time>2011-10-02T12:01:14Z</time>
      </trkpt>
      <trkpt lat="44.7434" lon="5.45326">
        <ele>1431.5579834</ele>
        <time>2011-10-02T12:01:20Z</time>
      </trkpt>
      <trkpt lat="44.74335" lon="5.45328">
        <ele>1432.9100342</ele>
        <time>2011-10-02T12:01:27Z</time>
      </trkpt>
      <trkpt lat="44.74334" lon="5.45328">
        <ele>1433.7619629</ele>
        <time>2011-10-02T12:01:32Z</time>
      </trkpt>
      <trkpt lat="44.74332" lon="5.4533">
        <ele>1434.6689453</ele>
        <time>2011-10-02T12:01:38Z</time>
      </trkpt>
      <trkpt lat="44.74329" lon="5.45333">
        <ele>1436.0469971</ele>
        <time>2011-10-02T12:01:45Z</time>
      </trkpt>
      <trkpt lat="44.74327" lon="5.45333">
        <ele>1437.3800049</ele>
        <time>2011-10-02T12:01:54Z</time>
      </trkpt>
      <trkpt lat="44.74323" lon="5.45335">
        <ele>1438.3070068</ele>
        <time>2011-10-02T12:02:01Z</time>
      </trkpt>
      <trkpt lat="44.7432" lon="5.45338">
        <ele>1439.8830566</ele>
        <time>2011-10-02T12:02:09Z</time>
      </trkpt>
      <trkpt lat="44.74317" lon="5.45341">
        <ele>1442.2979736</ele>
        <time>2011-10-02T12:02:21Z</time>
      </trkpt>
      <trkpt lat="44.74317" lon="5.45342">
        <ele>1442.5959473</ele>
        <time>2011-10-02T12:02:23Z</time>
      </trkpt>
      <trkpt lat="44.74318" lon="5.45346">
        <ele>1443.0739746</ele>
        <time>2011-10-02T12:02:30Z</time>
      </trkpt>
      <trkpt lat="44.74321" lon="5.45346">
        <ele>1444.0789795</ele>
        <time>2011-10-02T12:02:37Z</time>
      </trkpt>
      <trkpt lat="44.74323" lon="5.45347">
        <ele>1445.3990479</ele>
        <time>2011-10-02T12:02:44Z</time>
      </trkpt>
      <trkpt lat="44.74326" lon="5.45352">
        <ele>1446.7769775</ele>
        <time>2011-10-02T12:02:53Z</time>
      </trkpt>
      <trkpt lat="44.74328" lon="5.45356">
        <ele>1448.0169678</ele>
        <time>2011-10-02T12:03:01Z</time>
      </trkpt>
      <trkpt lat="44.74332" lon="5.45362">
        <ele>1449.19104</ele>
        <time>2011-10-02T12:03:08Z</time>
      </trkpt>
      <trkpt lat="44.74337" lon="5.45362">
        <ele>1450.3950195</ele>
        <time>2011-10-02T12:03:15Z</time>
      </trkpt>
      <trkpt lat="44.74343" lon="5.45365">
        <ele>1451.2580566</ele>
        <time>2011-10-02T12:03:20Z</time>
      </trkpt>
      <trkpt lat="44.74347" lon="5.45369">
        <ele>1452.427002</ele>
        <time>2011-10-02T12:03:26Z</time>
      </trkpt>
      <trkpt lat="44.74351" lon="5.45378">
        <ele>1454.8699951</ele>
        <time>2011-10-02T12:03:34Z</time>
      </trkpt>
      <trkpt lat="44.74353" lon="5.45382">
        <ele>1455.894043</ele>
        <time>2011-10-02T12:03:40Z</time>
      </trkpt>
      <trkpt lat="44.74354" lon="5.45385">
        <ele>1457.3050537</ele>
        <time>2011-10-02T12:03:49Z</time>
      </trkpt>
      <trkpt lat="44.74354" lon="5.45387">
        <ele>1459.4210205</ele>
        <time>2011-10-02T12:03:59Z</time>
      </trkpt>
      <trkpt lat="44.74353" lon="5.45393">
        <ele>1461.0460205</ele>
        <time>2011-10-02T12:04:08Z</time>
      </trkpt>
      <trkpt lat="44.74352" lon="5.45399">
        <ele>1462.0560303</ele>
        <time>2011-10-02T12:04:14Z</time>
      </trkpt>
      <trkpt lat="44.74351" lon="5.45402">
        <ele>1462.6459961</ele>
        <time>2011-10-02T12:04:17Z</time>
      </trkpt>
      <trkpt lat="44.7435" lon="5.45407">
        <ele>1463.717041</ele>
        <time>2011-10-02T12:04:25Z</time>
      </trkpt>
      <trkpt lat="44.74355" lon="5.45403">
        <ele>1464.1639404</ele>
        <time>2011-10-02T12:05:07Z</time>
      </trkpt>
      <trkpt lat="44.74347" lon="5.45413">
        <ele>1464.43396</ele>
        <time>2011-10-02T12:05:14Z</time>
      </trkpt>
      <trkpt lat="44.74346" lon="5.45415">
        <ele>1464.3239746</ele>
        <time>2011-10-02T12:05:16Z</time>
      </trkpt>
      <trkpt lat="44.74347" lon="5.45415">
        <ele>1464.3079834</ele>
        <time>2011-10-02T12:05:19Z</time>
      </trkpt>
      <trkpt lat="44.74348" lon="5.45415">
        <ele>1464.5529785</ele>
        <time>2011-10-02T12:05:22Z</time>
      </trkpt>
      <trkpt lat="44.74352" lon="5.45415">
        <ele>1465.493042</ele>
        <time>2011-10-02T12:05:28Z</time>
      </trkpt>
      <trkpt lat="44.74355" lon="5.45417">
        <ele>1466.6290283</ele>
        <time>2011-10-02T12:05:34Z</time>
      </trkpt>
      <trkpt lat="44.74357" lon="5.45416">
        <ele>1468.0369873</ele>
        <time>2011-10-02T12:05:40Z</time>
      </trkpt>
      <trkpt lat="44.7436" lon="5.45417">
        <ele>1469.56604</ele>
        <time>2011-10-02T12:05:47Z</time>
      </trkpt>
      <trkpt lat="44.74362" lon="5.45421">
        <ele>1470.2600098</ele>
        <time>2011-10-02T12:05:52Z</time>
      </trkpt>
      <trkpt lat="44.74363" lon="5.45426">
        <ele>1471.0539551</ele>
        <time>2011-10-02T12:05:56Z</time>
      </trkpt>
      <trkpt lat="44.74361" lon="5.45429">
        <ele>1472.2380371</ele>
        <time>2011-10-02T12:06:02Z</time>
      </trkpt>
      <trkpt lat="44.74361" lon="5.45432">
        <ele>1473.177002</ele>
        <time>2011-10-02T12:06:07Z</time>
      </trkpt>
      <trkpt lat="44.74362" lon="5.45431">
        <ele>1474.1949463</ele>
        <time>2011-10-02T12:06:14Z</time>
      </trkpt>
      <trkpt lat="44.74368" lon="5.45436">
        <ele>1476.5760498</ele>
        <time>2011-10-02T12:06:33Z</time>
      </trkpt>
      <trkpt lat="44.74371" lon="5.45443">
        <ele>1477.8690186</ele>
        <time>2011-10-02T12:06:40Z</time>
      </trkpt>
      <trkpt lat="44.74375" lon="5.45446">
        <ele>1479.2320557</ele>
        <time>2011-10-02T12:06:46Z</time>
      </trkpt>
      <trkpt lat="44.74376" lon="5.45446">
        <ele>1480.3409424</ele>
        <time>2011-10-02T12:06:53Z</time>
      </trkpt>
      <trkpt lat="44.74377" lon="5.45446">
        <ele>1480.8900146</ele>
        <time>2011-10-02T12:06:59Z</time>
      </trkpt>
      <trkpt lat="44.74375" lon="5.45455">
        <ele>1482.3459473</ele>
        <time>2011-10-02T12:07:07Z</time>
      </trkpt>
      <trkpt lat="44.74374" lon="5.45459">
        <ele>1484.302002</ele>
        <time>2011-10-02T12:07:14Z</time>
      </trkpt>
      <trkpt lat="44.74374" lon="5.4546">
        <ele>1484.7550049</ele>
        <time>2011-10-02T12:07:16Z</time>
      </trkpt>
      <trkpt lat="44.74373" lon="5.45466">
        <ele>1485.8459473</ele>
        <time>2011-10-02T12:07:22Z</time>
      </trkpt>
      <trkpt lat="44.74373" lon="5.45468">
        <ele>1487.19104</ele>
        <time>2011-10-02T12:07:28Z</time>
      </trkpt>
      <trkpt lat="44.74374" lon="5.45469">
        <ele>1488.2259521</ele>
        <time>2011-10-02T12:07:35Z</time>
      </trkpt>
      <trkpt lat="44.74376" lon="5.45473">
        <ele>1489.9449463</ele>
        <time>2011-10-02T12:07:44Z</time>
      </trkpt>
      <trkpt lat="44.74377" lon="5.45474">
        <ele>1490.9899902</ele>
        <time>2011-10-02T12:07:50Z</time>
      </trkpt>
      <trkpt lat="44.74379" lon="5.45476">
        <ele>1492.7010498</ele>
        <time>2011-10-02T12:08:00Z</time>
      </trkpt>
      <trkpt lat="44.74377" lon="5.45481">
        <ele>1494.1340332</ele>
        <time>2011-10-02T12:08:07Z</time>
      </trkpt>
      <trkpt lat="44.74377" lon="5.45484">
        <ele>1495.7070313</ele>
        <time>2011-10-02T12:08:16Z</time>
      </trkpt>
      <trkpt lat="44.74379" lon="5.45483">
        <ele>1496.355957</ele>
        <time>2011-10-02T12:08:23Z</time>
      </trkpt>
      <trkpt lat="44.74381" lon="5.45483">
        <ele>1496.6419678</ele>
        <time>2011-10-02T12:08:26Z</time>
      </trkpt>
      <trkpt lat="44.74383" lon="5.45485">
        <ele>1497.1569824</ele>
        <time>2011-10-02T12:08:32Z</time>
      </trkpt>
      <trkpt lat="44.74377" lon="5.4548">
        <ele>1505.3780518</ele>
        <time>2011-10-02T12:21:50Z</time>
      </trkpt>
      <trkpt lat="44.7438" lon="5.45488">
        <ele>1505.1860352</ele>
        <time>2011-10-02T12:23:02Z</time>
      </trkpt>
      <trkpt lat="44.74378" lon="5.4549">
        <ele>1505.1669922</ele>
        <time>2011-10-02T12:23:16Z</time>
      </trkpt>
      <trkpt lat="44.74374" lon="5.455">
        <ele>1504.5949707</ele>
        <time>2011-10-02T12:23:23Z</time>
      </trkpt>
      <trkpt lat="44.74373" lon="5.45515">
        <ele>1501.9029541</ele>
        <time>2011-10-02T12:23:29Z</time>
      </trkpt>
      <trkpt lat="44.74372" lon="5.45518">
        <ele>1501.8969727</ele>
        <time>2011-10-02T12:23:30Z</time>
      </trkpt>
      <trkpt lat="44.74372" lon="5.45532">
        <ele>1498.677002</ele>
        <time>2011-10-02T12:23:34Z</time>
      </trkpt>
      <trkpt lat="44.74364" lon="5.4556">
        <ele>1494.6070557</ele>
        <time>2011-10-02T12:23:39Z</time>
      </trkpt>
      <trkpt lat="44.7436" lon="5.45572">
        <ele>1493.2989502</ele>
        <time>2011-10-02T12:23:42Z</time>
      </trkpt>
      <trkpt lat="44.74357" lon="5.45573">
        <ele>1493.2590332</ele>
        <time>2011-10-02T12:23:45Z</time>
      </trkpt>
      <trkpt lat="44.74348" lon="5.45568">
        <ele>1493.2590332</ele>
        <time>2011-10-02T12:24:15Z</time>
      </trkpt>
      <trkpt lat="44.74347" lon="5.45571">
        <ele>1493.3979492</ele>
        <time>2011-10-02T12:24:18Z</time>
      </trkpt>
      <trkpt lat="44.7434" lon="5.4558">
        <ele>1493.151001</ele>
        <time>2011-10-02T12:24:23Z</time>
      </trkpt>
      <trkpt lat="44.74337" lon="5.45592">
        <ele>1492.9949951</ele>
        <time>2011-10-02T12:24:26Z</time>
      </trkpt>
      <trkpt lat="44.74317" lon="5.45613">
        <ele>1491.4169922</ele>
        <time>2011-10-02T12:24:33Z</time>
      </trkpt>
      <trkpt lat="44.74306" lon="5.45617">
        <ele>1488.94104</ele>
        <time>2011-10-02T12:24:37Z</time>
      </trkpt>
      <trkpt lat="44.74302" lon="5.45619">
        <ele>1488.1860352</ele>
        <time>2011-10-02T12:24:38Z</time>
      </trkpt>
      <trkpt lat="44.74295" lon="5.45629">
        <ele>1485.7700195</ele>
        <time>2011-10-02T12:24:43Z</time>
      </trkpt>
      <trkpt lat="44.74283" lon="5.45644">
        <ele>1483.6540527</ele>
        <time>2011-10-02T12:24:49Z</time>
      </trkpt>
      <trkpt lat="44.74277" lon="5.45653">
        <ele>1482.1700439</ele>
        <time>2011-10-02T12:24:53Z</time>
      </trkpt>
      <trkpt lat="44.74278" lon="5.45664">
        <ele>1480.8470459</ele>
        <time>2011-10-02T12:25:06Z</time>
      </trkpt>
      <trkpt lat="44.74276" lon="5.45667">
        <ele>1480.4659424</ele>
        <time>2011-10-02T12:25:11Z</time>
      </trkpt>
      <trkpt lat="44.74274" lon="5.4567">
        <ele>1480.3280029</ele>
        <time>2011-10-02T12:25:15Z</time>
      </trkpt>
      <trkpt lat="44.74272" lon="5.45672">
        <ele>1480.098999</ele>
        <time>2011-10-02T12:25:19Z</time>
      </trkpt>
      <trkpt lat="44.74269" lon="5.45672">
        <ele>1479.5350342</ele>
        <time>2011-10-02T12:25:23Z</time>
      </trkpt>
      <trkpt lat="44.74257" lon="5.45682">
        <ele>1477.7469482</ele>
        <time>2011-10-02T12:25:29Z</time>
      </trkpt>
      <trkpt lat="44.74244" lon="5.457">
        <ele>1475.1650391</ele>
        <time>2011-10-02T12:25:34Z</time>
      </trkpt>
      <trkpt lat="44.74235" lon="5.45703">
        <ele>1473.7559814</ele>
        <time>2011-10-02T12:25:38Z</time>
      </trkpt>
      <trkpt lat="44.74231" lon="5.45704">
        <ele>1472.8509521</ele>
        <time>2011-10-02T12:25:40Z</time>
      </trkpt>
      <trkpt lat="44.74226" lon="5.45718">
        <ele>1471.6540527</ele>
        <time>2011-10-02T12:25:44Z</time>
      </trkpt>
      <trkpt lat="44.7422" lon="5.45721">
        <ele>1471.197998</ele>
        <time>2011-10-02T12:25:46Z</time>
      </trkpt>
      <trkpt lat="44.74191" lon="5.4574">
        <ele>1469.0579834</ele>
        <time>2011-10-02T12:25:54Z</time>
      </trkpt>
      <trkpt lat="44.74188" lon="5.45742">
        <ele>1468.6469727</ele>
        <time>2011-10-02T12:25:55Z</time>
      </trkpt>
      <trkpt lat="44.74171" lon="5.45754">
        <ele>1466.3859863</ele>
        <time>2011-10-02T12:25:59Z</time>
      </trkpt>
      <trkpt lat="44.74154" lon="5.45762">
        <ele>1464.5119629</ele>
        <time>2011-10-02T12:26:04Z</time>
      </trkpt>
      <trkpt lat="44.74147" lon="5.45761">
        <ele>1463.8470459</ele>
        <time>2011-10-02T12:26:06Z</time>
      </trkpt>
      <trkpt lat="44.74125" lon="5.45754">
        <ele>1461.8740234</ele>
        <time>2011-10-02T12:26:11Z</time>
      </trkpt>
      <trkpt lat="44.74097" lon="5.45751">
        <ele>1457.3580322</ele>
        <time>2011-10-02T12:26:20Z</time>
      </trkpt>
      <trkpt lat="44.74077" lon="5.45765">
        <ele>1455.9000244</ele>
        <time>2011-10-02T12:26:25Z</time>
      </trkpt>
      <trkpt lat="44.7407" lon="5.45768">
        <ele>1455.5939941</ele>
        <time>2011-10-02T12:26:28Z</time>
      </trkpt>
      <trkpt lat="44.74048" lon="5.45765">
        <ele>1454.4420166</ele>
        <time>2011-10-02T12:26:33Z</time>
      </trkpt>
      <trkpt lat="44.74031" lon="5.45763">
        <ele>1452.44104</ele>
        <time>2011-10-02T12:26:37Z</time>
      </trkpt>
      <trkpt lat="44.74014" lon="5.45755">
        <ele>1450.5639648</ele>
        <time>2011-10-02T12:26:42Z</time>
      </trkpt>
      <trkpt lat="44.73998" lon="5.45753">
        <ele>1449.7960205</ele>
        <time>2011-10-02T12:26:47Z</time>
      </trkpt>
      <trkpt lat="44.73986" lon="5.45731">
        <ele>1449.80896</ele>
        <time>2011-10-02T12:26:53Z</time>
      </trkpt>
      <trkpt lat="44.7398" lon="5.45734">
        <ele>1449.7939453</ele>
        <time>2011-10-02T12:26:56Z</time>
      </trkpt>
      <trkpt lat="44.73978" lon="5.45736">
        <ele>1448.8790283</ele>
        <time>2011-10-02T12:27:01Z</time>
      </trkpt>
      <trkpt lat="44.73975" lon="5.45736">
        <ele>1448.3149414</ele>
        <time>2011-10-02T12:27:07Z</time>
      </trkpt>
      <trkpt lat="44.73981" lon="5.45744">
        <ele>1448.7860107</ele>
        <time>2011-10-02T12:29:29Z</time>
      </trkpt>
      <trkpt lat="44.73977" lon="5.45751">
        <ele>1448.2390137</ele>
        <time>2011-10-02T12:29:38Z</time>
      </trkpt>
      <trkpt lat="44.73973" lon="5.45757">
        <ele>1447.6569824</ele>
        <time>2011-10-02T12:29:40Z</time>
      </trkpt>
      <trkpt lat="44.73971" lon="5.45762">
        <ele>1446.8339844</ele>
        <time>2011-10-02T12:29:42Z</time>
      </trkpt>
      <trkpt lat="44.73965" lon="5.45767">
        <ele>1443.9820557</ele>
        <time>2011-10-02T12:29:47Z</time>
      </trkpt>
      <trkpt lat="44.73956" lon="5.45774">
        <ele>1441.7230225</ele>
        <time>2011-10-02T12:29:52Z</time>
      </trkpt>
      <trkpt lat="44.73949" lon="5.45782">
        <ele>1439.2590332</ele>
        <time>2011-10-02T12:29:56Z</time>
      </trkpt>
      <trkpt lat="44.73948" lon="5.45782">
        <ele>1438.7139893</ele>
        <time>2011-10-02T12:29:57Z</time>
      </trkpt>
      <trkpt lat="44.7394" lon="5.45789">
        <ele>1436.2869873</ele>
        <time>2011-10-02T12:30:02Z</time>
      </trkpt>
      <trkpt lat="44.73927" lon="5.45807">
        <ele>1434.5970459</ele>
        <time>2011-10-02T12:30:08Z</time>
      </trkpt>
      <trkpt lat="44.73917" lon="5.4582">
        <ele>1433.7659912</ele>
        <time>2011-10-02T12:30:12Z</time>
      </trkpt>
      <trkpt lat="44.73909" lon="5.45829">
        <ele>1433.8480225</ele>
        <time>2011-10-02T12:30:17Z</time>
      </trkpt>
      <trkpt lat="44.73908" lon="5.4583">
        <ele>1434.0860596</ele>
        <time>2011-10-02T12:30:18Z</time>
      </trkpt>
      <trkpt lat="44.73904" lon="5.4583">
        <ele>1435.7060547</ele>
        <time>2011-10-02T12:30:23Z</time>
      </trkpt>
      <trkpt lat="44.73901" lon="5.45827">
        <ele>1436.2159424</ele>
        <time>2011-10-02T12:30:28Z</time>
      </trkpt>
      <trkpt lat="44.73898" lon="5.45827">
        <ele>1435.9749756</ele>
        <time>2011-10-02T12:30:32Z</time>
      </trkpt>
      <trkpt lat="44.73895" lon="5.45827">
        <ele>1435.80896</ele>
        <time>2011-10-02T12:30:37Z</time>
      </trkpt>
      <trkpt lat="44.7389" lon="5.45828">
        <ele>1435.7349854</ele>
        <time>2011-10-02T12:30:41Z</time>
      </trkpt>
      <trkpt lat="44.73881" lon="5.45837">
        <ele>1435.3830566</ele>
        <time>2011-10-02T12:30:47Z</time>
      </trkpt>
      <trkpt lat="44.73864" lon="5.45835">
        <ele>1433.5679932</ele>
        <time>2011-10-02T12:30:54Z</time>
      </trkpt>
      <trkpt lat="44.73854" lon="5.4583">
        <ele>1431.4659424</ele>
        <time>2011-10-02T12:30:59Z</time>
      </trkpt>
      <trkpt lat="44.73844" lon="5.45833">
        <ele>1430.3699951</ele>
        <time>2011-10-02T12:31:04Z</time>
      </trkpt>
      <trkpt lat="44.73833" lon="5.45837">
        <ele>1430.1040039</ele>
        <time>2011-10-02T12:31:09Z</time>
      </trkpt>
      <trkpt lat="44.73819" lon="5.45841">
        <ele>1427.8979492</ele>
        <time>2011-10-02T12:31:14Z</time>
      </trkpt>
      <trkpt lat="44.73808" lon="5.45836">
        <ele>1423.6240234</ele>
        <time>2011-10-02T12:31:20Z</time>
      </trkpt>
      <trkpt lat="44.73798" lon="5.45828">
        <ele>1420.0849609</ele>
        <time>2011-10-02T12:31:25Z</time>
      </trkpt>
      <trkpt lat="44.73789" lon="5.45826">
        <ele>1418.2259521</ele>
        <time>2011-10-02T12:31:29Z</time>
      </trkpt>
      <trkpt lat="44.73784" lon="5.45827">
        <ele>1417.881958</ele>
        <time>2011-10-02T12:31:31Z</time>
      </trkpt>
      <trkpt lat="44.73766" lon="5.45841">
        <ele>1416.7860107</ele>
        <time>2011-10-02T12:31:36Z</time>
      </trkpt>
      <trkpt lat="44.73756" lon="5.45851">
        <ele>1415.5469971</ele>
        <time>2011-10-02T12:31:40Z</time>
      </trkpt>
      <trkpt lat="44.73753" lon="5.45856">
        <ele>1415.8499756</ele>
        <time>2011-10-02T12:31:45Z</time>
      </trkpt>
      <trkpt lat="44.73749" lon="5.45861">
        <ele>1416.2750244</ele>
        <time>2011-10-02T12:31:50Z</time>
      </trkpt>
      <trkpt lat="44.73745" lon="5.45865">
        <ele>1416.782959</ele>
        <time>2011-10-02T12:31:56Z</time>
      </trkpt>
      <trkpt lat="44.73736" lon="5.45871">
        <ele>1416.5429688</ele>
        <time>2011-10-02T12:32:00Z</time>
      </trkpt>
      <trkpt lat="44.73729" lon="5.45875">
        <ele>1415.9429932</ele>
        <time>2011-10-02T12:32:04Z</time>
      </trkpt>
      <trkpt lat="44.73715" lon="5.45878">
        <ele>1414.6340332</ele>
        <time>2011-10-02T12:32:10Z</time>
      </trkpt>
      <trkpt lat="44.73708" lon="5.4588">
        <ele>1413.4069824</ele>
        <time>2011-10-02T12:32:12Z</time>
      </trkpt>
      <trkpt lat="44.73691" lon="5.45877">
        <ele>1409.0479736</ele>
        <time>2011-10-02T12:32:18Z</time>
      </trkpt>
      <trkpt lat="44.73683" lon="5.45874">
        <ele>1407.3969727</ele>
        <time>2011-10-02T12:32:22Z</time>
      </trkpt>
      <trkpt lat="44.73681" lon="5.45874">
        <ele>1405.4749756</ele>
        <time>2011-10-02T12:32:27Z</time>
      </trkpt>
      <trkpt lat="44.7368" lon="5.45874">
        <ele>1405.197998</ele>
        <time>2011-10-02T12:32:28Z</time>
      </trkpt>
      <trkpt lat="44.73678" lon="5.45875">
        <ele>1404.6689453</ele>
        <time>2011-10-02T12:32:31Z</time>
      </trkpt>
      <trkpt lat="44.73677" lon="5.45874">
        <ele>1404.6209717</ele>
        <time>2011-10-02T12:32:33Z</time>
      </trkpt>
      <trkpt lat="44.73671" lon="5.45867">
        <ele>1403.907959</ele>
        <time>2011-10-02T12:32:39Z</time>
      </trkpt>
      <trkpt lat="44.73659" lon="5.45852">
        <ele>1401.1099854</ele>
        <time>2011-10-02T12:32:43Z</time>
      </trkpt>
      <trkpt lat="44.73652" lon="5.45844">
        <ele>1398.8139648</ele>
        <time>2011-10-02T12:32:45Z</time>
      </trkpt>
      <trkpt lat="44.73637" lon="5.45831">
        <ele>1396.1280518</ele>
        <time>2011-10-02T12:32:48Z</time>
      </trkpt>
      <trkpt lat="44.73632" lon="5.45824">
        <ele>1394.8959961</ele>
        <time>2011-10-02T12:32:49Z</time>
      </trkpt>
      <trkpt lat="44.7361" lon="5.45815">
        <ele>1391.5410156</ele>
        <time>2011-10-02T12:32:53Z</time>
      </trkpt>
      <trkpt lat="44.73608" lon="5.45815">
        <ele>1391.256958</ele>
        <time>2011-10-02T12:32:54Z</time>
      </trkpt>
      <trkpt lat="44.73603" lon="5.45812">
        <ele>1390.9589844</ele>
        <time>2011-10-02T12:32:56Z</time>
      </trkpt>
      <trkpt lat="44.7359" lon="5.45799">
        <ele>1390.3959961</ele>
        <time>2011-10-02T12:33:00Z</time>
      </trkpt>
      <trkpt lat="44.73571" lon="5.45792">
        <ele>1388.3520508</ele>
        <time>2011-10-02T12:33:04Z</time>
      </trkpt>
      <trkpt lat="44.73564" lon="5.45785">
        <ele>1387.4980469</ele>
        <time>2011-10-02T12:33:06Z</time>
      </trkpt>
      <trkpt lat="44.73561" lon="5.45783">
        <ele>1387.2149658</ele>
        <time>2011-10-02T12:33:07Z</time>
      </trkpt>
      <trkpt lat="44.73544" lon="5.45763">
        <ele>1386.4549561</ele>
        <time>2011-10-02T12:33:13Z</time>
      </trkpt>
      <trkpt lat="44.73529" lon="5.45737">
        <ele>1384.4320068</ele>
        <time>2011-10-02T12:33:17Z</time>
      </trkpt>
      <trkpt lat="44.73518" lon="5.45724">
        <ele>1382.8530273</ele>
        <time>2011-10-02T12:33:19Z</time>
      </trkpt>
      <trkpt lat="44.73506" lon="5.45697">
        <ele>1379.7299805</ele>
        <time>2011-10-02T12:33:22Z</time>
      </trkpt>
      <trkpt lat="44.73491" lon="5.45658">
        <ele>1373.0209961</ele>
        <time>2011-10-02T12:33:27Z</time>
      </trkpt>
      <trkpt lat="44.7348" lon="5.45646">
        <ele>1368.7120361</ele>
        <time>2011-10-02T12:33:30Z</time>
      </trkpt>
      <trkpt lat="44.73467" lon="5.45647">
        <ele>1364.0880127</ele>
        <time>2011-10-02T12:33:34Z</time>
      </trkpt>
      <trkpt lat="44.73455" lon="5.45653">
        <ele>1360.3959961</ele>
        <time>2011-10-02T12:33:39Z</time>
      </trkpt>
      <trkpt lat="44.73457" lon="5.45643">
        <ele>1357.9830322</ele>
        <time>2011-10-02T12:33:42Z</time>
      </trkpt>
      <trkpt lat="44.73457" lon="5.45625">
        <ele>1354.8979492</ele>
        <time>2011-10-02T12:33:46Z</time>
      </trkpt>
      <trkpt lat="44.73457" lon="5.45615">
        <ele>1351.230957</ele>
        <time>2011-10-02T12:33:50Z</time>
      </trkpt>
      <trkpt lat="44.7345" lon="5.45614">
        <ele>1348.1269531</ele>
        <time>2011-10-02T12:33:54Z</time>
      </trkpt>
      <trkpt lat="44.73448" lon="5.45614">
        <ele>1347.5300293</ele>
        <time>2011-10-02T12:33:55Z</time>
      </trkpt>
      <trkpt lat="44.73442" lon="5.4561">
        <ele>1344.4320068</ele>
        <time>2011-10-02T12:34:01Z</time>
      </trkpt>
      <trkpt lat="44.73435" lon="5.45609">
        <ele>1343.0689697</ele>
        <time>2011-10-02T12:34:04Z</time>
      </trkpt>
      <trkpt lat="44.73428" lon="5.45609">
        <ele>1339.7120361</ele>
        <time>2011-10-02T12:34:08Z</time>
      </trkpt>
      <trkpt lat="44.73428" lon="5.45596">
        <ele>1337.1450195</ele>
        <time>2011-10-02T12:34:11Z</time>
      </trkpt>
      <trkpt lat="44.73427" lon="5.45583">
        <ele>1333.4870605</ele>
        <time>2011-10-02T12:34:15Z</time>
      </trkpt>
      <trkpt lat="44.73422" lon="5.45578">
        <ele>1329.4790039</ele>
        <time>2011-10-02T12:34:20Z</time>
      </trkpt>
      <trkpt lat="44.73422" lon="5.45568">
        <ele>1327.0150146</ele>
        <time>2011-10-02T12:34:24Z</time>
      </trkpt>
      <trkpt lat="44.73415" lon="5.45567">
        <ele>1325.019043</ele>
        <time>2011-10-02T12:34:27Z</time>
      </trkpt>
      <trkpt lat="44.7341" lon="5.45568">
        <ele>1324.1960449</ele>
        <time>2011-10-02T12:34:29Z</time>
      </trkpt>
      <trkpt lat="44.73405" lon="5.45565">
        <ele>1321.1569824</ele>
        <time>2011-10-02T12:34:33Z</time>
      </trkpt>
      <trkpt lat="44.73403" lon="5.45556">
        <ele>1318.026001</ele>
        <time>2011-10-02T12:34:37Z</time>
      </trkpt>
      <trkpt lat="44.73398" lon="5.45551">
        <ele>1315.4110107</ele>
        <time>2011-10-02T12:34:41Z</time>
      </trkpt>
      <trkpt lat="44.734" lon="5.45544">
        <ele>1313.5469971</ele>
        <time>2011-10-02T12:34:44Z</time>
      </trkpt>
      <trkpt lat="44.73404" lon="5.45538">
        <ele>1311.2030029</ele>
        <time>2011-10-02T12:34:47Z</time>
      </trkpt>
      <trkpt lat="44.73404" lon="5.45533">
        <ele>1308.9599609</ele>
        <time>2011-10-02T12:34:50Z</time>
      </trkpt>
      <trkpt lat="44.73405" lon="5.45529">
        <ele>1307.3339844</ele>
        <time>2011-10-02T12:34:52Z</time>
      </trkpt>
      <trkpt lat="44.73409" lon="5.45527">
        <ele>1305.9549561</ele>
        <time>2011-10-02T12:34:54Z</time>
      </trkpt>
      <trkpt lat="44.73405" lon="5.45517">
        <ele>1303.6149902</ele>
        <time>2011-10-02T12:34:58Z</time>
      </trkpt>
      <trkpt lat="44.73398" lon="5.45503">
        <ele>1299.0410156</ele>
        <time>2011-10-02T12:35:03Z</time>
      </trkpt>
      <trkpt lat="44.7339" lon="5.455">
        <ele>1295.4129639</ele>
        <time>2011-10-02T12:35:07Z</time>
      </trkpt>
      <trkpt lat="44.73383" lon="5.45497">
        <ele>1292.9890137</ele>
        <time>2011-10-02T12:35:10Z</time>
      </trkpt>
      <trkpt lat="44.73383" lon="5.45482">
        <ele>1290.3659668</ele>
        <time>2011-10-02T12:35:13Z</time>
      </trkpt>
      <trkpt lat="44.73386" lon="5.45473">
        <ele>1287.7519531</ele>
        <time>2011-10-02T12:35:16Z</time>
      </trkpt>
      <trkpt lat="44.73386" lon="5.45466">
        <ele>1285.3430176</ele>
        <time>2011-10-02T12:35:19Z</time>
      </trkpt>
      <trkpt lat="44.73378" lon="5.45451">
        <ele>1283.5860596</ele>
        <time>2011-10-02T12:35:22Z</time>
      </trkpt>
      <trkpt lat="44.73383" lon="5.45443">
        <ele>1279.8890381</ele>
        <time>2011-10-02T12:35:26Z</time>
      </trkpt>
      <trkpt lat="44.7338" lon="5.45435">
        <ele>1277.5200195</ele>
        <time>2011-10-02T12:35:29Z</time>
      </trkpt>
      <trkpt lat="44.73373" lon="5.45418">
        <ele>1275.2159424</ele>
        <time>2011-10-02T12:35:32Z</time>
      </trkpt>
      <trkpt lat="44.73364" lon="5.45397">
        <ele>1271.5109863</ele>
        <time>2011-10-02T12:35:36Z</time>
      </trkpt>
      <trkpt lat="44.73368" lon="5.45382">
        <ele>1267.4969482</ele>
        <time>2011-10-02T12:35:40Z</time>
      </trkpt>
      <trkpt lat="44.73363" lon="5.4538">
        <ele>1265.1149902</ele>
        <time>2011-10-02T12:35:43Z</time>
      </trkpt>
      <trkpt lat="44.73357" lon="5.45373">
        <ele>1264.4639893</ele>
        <time>2011-10-02T12:35:45Z</time>
      </trkpt>
      <trkpt lat="44.73357" lon="5.45363">
        <ele>1262.5959473</ele>
        <time>2011-10-02T12:35:48Z</time>
      </trkpt>
      <trkpt lat="44.73363" lon="5.45351">
        <ele>1259.651001</ele>
        <time>2011-10-02T12:35:52Z</time>
      </trkpt>
      <trkpt lat="44.73359" lon="5.45342">
        <ele>1257.2469482</ele>
        <time>2011-10-02T12:35:55Z</time>
      </trkpt>
      <trkpt lat="44.7336" lon="5.4533">
        <ele>1254.3010254</ele>
        <time>2011-10-02T12:35:58Z</time>
      </trkpt>
      <trkpt lat="44.73359" lon="5.45318">
        <ele>1249.9179688</ele>
        <time>2011-10-02T12:36:02Z</time>
      </trkpt>
      <trkpt lat="44.73364" lon="5.45317">
        <ele>1246.8699951</ele>
        <time>2011-10-02T12:36:05Z</time>
      </trkpt>
      <trkpt lat="44.73371" lon="5.45307">
        <ele>1242.8079834</ele>
        <time>2011-10-02T12:36:09Z</time>
      </trkpt>
      <trkpt lat="44.7337" lon="5.45301">
        <ele>1241.6140137</ele>
        <time>2011-10-02T12:36:11Z</time>
      </trkpt>
      <trkpt lat="44.73365" lon="5.45291">
        <ele>1239.0739746</ele>
        <time>2011-10-02T12:36:13Z</time>
      </trkpt>
      <trkpt lat="44.73346" lon="5.45254">
        <ele>1232.5739746</ele>
        <time>2011-10-02T12:36:18Z</time>
      </trkpt>
      <trkpt lat="44.73346" lon="5.45251">
        <ele>1229.5340576</ele>
        <time>2011-10-02T12:36:21Z</time>
      </trkpt>
      <trkpt lat="44.73346" lon="5.45252">
        <ele>1227.0119629</ele>
        <time>2011-10-02T12:36:27Z</time>
      </trkpt>
      <trkpt lat="44.73343" lon="5.45253">
        <ele>1224.7049561</ele>
        <time>2011-10-02T12:40:05Z</time>
      </trkpt>
      <trkpt lat="44.73344" lon="5.45243">
        <ele>1224.1230469</ele>
        <time>2011-10-02T12:40:11Z</time>
      </trkpt>
      <trkpt lat="44.73343" lon="5.45238">
        <ele>1223.8070068</ele>
        <time>2011-10-02T12:40:14Z</time>
      </trkpt>
      <trkpt lat="44.73353" lon="5.45237">
        <ele>1222.0639648</ele>
        <time>2011-10-02T12:40:19Z</time>
      </trkpt>
      <trkpt lat="44.73367" lon="5.45244">
        <ele>1219.7860107</ele>
        <time>2011-10-02T12:40:22Z</time>
      </trkpt>
      <trkpt lat="44.73376" lon="5.45245">
        <ele>1218.9169922</ele>
        <time>2011-10-02T12:40:24Z</time>
      </trkpt>
      <trkpt lat="44.73377" lon="5.45243">
        <ele>1218.032959</ele>
        <time>2011-10-02T12:40:25Z</time>
      </trkpt>
      <trkpt lat="44.73366" lon="5.45219">
        <ele>1214.697998</ele>
        <time>2011-10-02T12:40:29Z</time>
      </trkpt>
      <trkpt lat="44.73356" lon="5.4519">
        <ele>1209.7860107</ele>
        <time>2011-10-02T12:40:33Z</time>
      </trkpt>
      <trkpt lat="44.73355" lon="5.45184">
        <ele>1206.9560547</ele>
        <time>2011-10-02T12:40:35Z</time>
      </trkpt>
      <trkpt lat="44.73352" lon="5.45173">
        <ele>1203.8480225</ele>
        <time>2011-10-02T12:40:37Z</time>
      </trkpt>
      <trkpt lat="44.73336" lon="5.45142">
        <ele>1198.3249512</ele>
        <time>2011-10-02T12:40:41Z</time>
      </trkpt>
      <trkpt lat="44.73332" lon="5.45135">
        <ele>1196.8330078</ele>
        <time>2011-10-02T12:40:42Z</time>
      </trkpt>
      <trkpt lat="44.7333" lon="5.45111">
        <ele>1191.4069824</ele>
        <time>2011-10-02T12:40:46Z</time>
      </trkpt>
      <trkpt lat="44.73339" lon="5.45115">
        <ele>1189.2330322</ele>
        <time>2011-10-02T12:40:48Z</time>
      </trkpt>
      <trkpt lat="44.73349" lon="5.45125">
        <ele>1186.5949707</ele>
        <time>2011-10-02T12:40:53Z</time>
      </trkpt>
      <trkpt lat="44.73361" lon="5.45131">
        <ele>1184.8289795</ele>
        <time>2011-10-02T12:40:57Z</time>
      </trkpt>
      <trkpt lat="44.73361" lon="5.45113">
        <ele>1180.6479492</ele>
        <time>2011-10-02T12:41:02Z</time>
      </trkpt>
      <trkpt lat="44.73361" lon="5.451">
        <ele>1177.092041</ele>
        <time>2011-10-02T12:41:05Z</time>
      </trkpt>
      <trkpt lat="44.7336" lon="5.45091">
        <ele>1174.4919434</ele>
        <time>2011-10-02T12:41:07Z</time>
      </trkpt>
      <trkpt lat="44.73353" lon="5.45071">
        <ele>1168.7199707</ele>
        <time>2011-10-02T12:41:12Z</time>
      </trkpt>
      <trkpt lat="44.7335" lon="5.4506">
        <ele>1167.5539551</ele>
        <time>2011-10-02T12:41:14Z</time>
      </trkpt>
      <trkpt lat="44.7334" lon="5.45041">
        <ele>1162.7779541</ele>
        <time>2011-10-02T12:41:19Z</time>
      </trkpt>
      <trkpt lat="44.73333" lon="5.4503">
        <ele>1159.7950439</ele>
        <time>2011-10-02T12:41:25Z</time>
      </trkpt>
      <trkpt lat="44.73322" lon="5.45014">
        <ele>1158.651001</ele>
        <time>2011-10-02T12:41:30Z</time>
      </trkpt>
      <trkpt lat="44.73315" lon="5.45006">
        <ele>1157.7030029</ele>
        <time>2011-10-02T12:41:34Z</time>
      </trkpt>
      <trkpt lat="44.73307" lon="5.44993">
        <ele>1155.0510254</ele>
        <time>2011-10-02T12:41:40Z</time>
      </trkpt>
      <trkpt lat="44.73306" lon="5.44991">
        <ele>1152.9980469</ele>
        <time>2011-10-02T12:41:44Z</time>
      </trkpt>
      <trkpt lat="44.73301" lon="5.44985">
        <ele>1151.7950439</ele>
        <time>2011-10-02T12:41:55Z</time>
      </trkpt>
      <trkpt lat="44.733" lon="5.44981">
        <ele>1150.3310547</ele>
        <time>2011-10-02T12:42:01Z</time>
      </trkpt>
      <trkpt lat="44.73301" lon="5.44983">
        <ele>1150.0200195</ele>
        <time>2011-10-02T12:42:07Z</time>
      </trkpt>
      <trkpt lat="44.73309" lon="5.44984">
        <ele>1149.6140137</ele>
        <time>2011-10-02T12:42:13Z</time>
      </trkpt>
      <trkpt lat="44.73312" lon="5.44984">
        <ele>1148.4730225</ele>
        <time>2011-10-02T12:42:18Z</time>
      </trkpt>
      <trkpt lat="44.73312" lon="5.44983">
        <ele>1147.9489746</ele>
        <time>2011-10-02T12:42:23Z</time>
      </trkpt>
      <trkpt lat="44.7331" lon="5.44982">
        <ele>1147.5059814</ele>
        <time>2011-10-02T12:42:29Z</time>
      </trkpt>
      <trkpt lat="44.73304" lon="5.44975">
        <ele>1147.0880127</ele>
        <time>2011-10-02T12:42:32Z</time>
      </trkpt>
      <trkpt lat="44.73289" lon="5.44971">
        <ele>1145.2390137</ele>
        <time>2011-10-02T12:42:36Z</time>
      </trkpt>
      <trkpt lat="44.73286" lon="5.44973">
        <ele>1144.6290283</ele>
        <time>2011-10-02T12:42:37Z</time>
      </trkpt>
      <trkpt lat="44.73281" lon="5.4497">
        <ele>1141.3179932</ele>
        <time>2011-10-02T12:42:42Z</time>
      </trkpt>
      <trkpt lat="44.73281" lon="5.44965">
        <ele>1138.9069824</ele>
        <time>2011-10-02T12:42:46Z</time>
      </trkpt>
      <trkpt lat="44.73279" lon="5.44964">
        <ele>1138.1099854</ele>
        <time>2011-10-02T12:42:47Z</time>
      </trkpt>
      <trkpt lat="44.73272" lon="5.44961">
        <ele>1135.5229492</ele>
        <time>2011-10-02T12:42:50Z</time>
      </trkpt>
      <trkpt lat="44.73277" lon="5.44954">
        <ele>1131.8759766</ele>
        <time>2011-10-02T12:42:54Z</time>
      </trkpt>
      <trkpt lat="44.7328" lon="5.44951">
        <ele>1131.8699951</ele>
        <time>2011-10-02T12:42:55Z</time>
      </trkpt>
      <trkpt lat="44.73286" lon="5.44942">
        <ele>1129.3120117</ele>
        <time>2011-10-02T12:42:59Z</time>
      </trkpt>
      <trkpt lat="44.73286" lon="5.4494">
        <ele>1128.3380127</ele>
        <time>2011-10-02T12:43:02Z</time>
      </trkpt>
      <trkpt lat="44.73275" lon="5.44939">
        <ele>1126.4169922</ele>
        <time>2011-10-02T12:43:07Z</time>
      </trkpt>
      <trkpt lat="44.73269" lon="5.4494">
        <ele>1123.5159912</ele>
        <time>2011-10-02T12:43:11Z</time>
      </trkpt>
      <trkpt lat="44.73269" lon="5.44939">
        <ele>1120.9849854</ele>
        <time>2011-10-02T12:43:16Z</time>
      </trkpt>
      <trkpt lat="44.7327" lon="5.44939">
        <ele>1120.7180176</ele>
        <time>2011-10-02T12:43:17Z</time>
      </trkpt>
      <trkpt lat="44.73277" lon="5.44931">
        <ele>1119.7330322</ele>
        <time>2011-10-02T12:43:22Z</time>
      </trkpt>
      <trkpt lat="44.73282" lon="5.44915">
        <ele>1116.782959</ele>
        <time>2011-10-02T12:43:27Z</time>
      </trkpt>
      <trkpt lat="44.73277" lon="5.44913">
        <ele>1113.1629639</ele>
        <time>2011-10-02T12:43:31Z</time>
      </trkpt>
      <trkpt lat="44.73279" lon="5.44906">
        <ele>1110.1109619</ele>
        <time>2011-10-02T12:43:35Z</time>
      </trkpt>
      <trkpt lat="44.73281" lon="5.44902">
        <ele>1109.3370361</ele>
        <time>2011-10-02T12:43:36Z</time>
      </trkpt>
      <trkpt lat="44.73288" lon="5.44881">
        <ele>1105.0780029</ele>
        <time>2011-10-02T12:43:41Z</time>
      </trkpt>
      <trkpt lat="44.7329" lon="5.44877">
        <ele>1104.1789551</ele>
        <time>2011-10-02T12:43:42Z</time>
      </trkpt>
      <trkpt lat="44.73296" lon="5.44871">
        <ele>1101.6429443</ele>
        <time>2011-10-02T12:43:46Z</time>
      </trkpt>
      <trkpt lat="44.7329" lon="5.44865">
        <ele>1099.4239502</ele>
        <time>2011-10-02T12:43:49Z</time>
      </trkpt>
      <trkpt lat="44.73286" lon="5.44863">
        <ele>1096.7149658</ele>
        <time>2011-10-02T12:43:53Z</time>
      </trkpt>
      <trkpt lat="44.73282" lon="5.44865">
        <ele>1095.3310547</ele>
        <time>2011-10-02T12:43:55Z</time>
      </trkpt>
      <trkpt lat="44.73275" lon="5.44867">
        <ele>1093.7590332</ele>
        <time>2011-10-02T12:43:57Z</time>
      </trkpt>
      <trkpt lat="44.73259" lon="5.44881">
        <ele>1089.6240234</ele>
        <time>2011-10-02T12:44:01Z</time>
      </trkpt>
      <trkpt lat="44.73254" lon="5.44882">
        <ele>1087.3590088</ele>
        <time>2011-10-02T12:44:03Z</time>
      </trkpt>
      <trkpt lat="44.73247" lon="5.44884">
        <ele>1083.2320557</ele>
        <time>2011-10-02T12:44:07Z</time>
      </trkpt>
      <trkpt lat="44.73247" lon="5.44883">
        <ele>1081.151001</ele>
        <time>2011-10-02T12:44:10Z</time>
      </trkpt>
      <trkpt lat="44.73255" lon="5.44869">
        <ele>1079.5109863</ele>
        <time>2011-10-02T12:44:15Z</time>
      </trkpt>
      <trkpt lat="44.73258" lon="5.44862">
        <ele>1077.7080078</ele>
        <time>2011-10-02T12:44:18Z</time>
      </trkpt>
      <trkpt lat="44.73259" lon="5.44862">
        <ele>1075.2939453</ele>
        <time>2011-10-02T12:44:23Z</time>
      </trkpt>
      <trkpt lat="44.73261" lon="5.44856">
        <ele>1074.4069824</ele>
        <time>2011-10-02T12:44:27Z</time>
      </trkpt>
      <trkpt lat="44.73253" lon="5.44858">
        <ele>1072.7149658</ele>
        <time>2011-10-02T12:44:31Z</time>
      </trkpt>
      <trkpt lat="44.73246" lon="5.44859">
        <ele>1069.8079834</ele>
        <time>2011-10-02T12:44:35Z</time>
      </trkpt>
      <trkpt lat="44.73245" lon="5.44859">
        <ele>1069.1159668</ele>
        <time>2011-10-02T12:44:36Z</time>
      </trkpt>
      <trkpt lat="44.73248" lon="5.4485">
        <ele>1066.3719482</ele>
        <time>2011-10-02T12:44:41Z</time>
      </trkpt>
      <trkpt lat="44.73248" lon="5.4484">
        <ele>1062.7030029</ele>
        <time>2011-10-02T12:44:47Z</time>
      </trkpt>
      <trkpt lat="44.73246" lon="5.44835">
        <ele>1059.9189453</ele>
        <time>2011-10-02T12:47:54Z</time>
      </trkpt>
      <trkpt lat="44.73253" lon="5.44824">
        <ele>1058.2650146</ele>
        <time>2011-10-02T12:47:59Z</time>
      </trkpt>
      <trkpt lat="44.73257" lon="5.44813">
        <ele>1056.8509521</ele>
        <time>2011-10-02T12:48:02Z</time>
      </trkpt>
      <trkpt lat="44.73253" lon="5.44811">
        <ele>1053.1600342</ele>
        <time>2011-10-02T12:48:06Z</time>
      </trkpt>
      <trkpt lat="44.73245" lon="5.44817">
        <ele>1050.8060303</ele>
        <time>2011-10-02T12:48:09Z</time>
      </trkpt>
      <trkpt lat="44.73243" lon="5.44816">
        <ele>1049.1280518</ele>
        <time>2011-10-02T12:48:11Z</time>
      </trkpt>
      <trkpt lat="44.73244" lon="5.44807">
        <ele>1045.4699707</ele>
        <time>2011-10-02T12:48:16Z</time>
      </trkpt>
      <trkpt lat="44.73245" lon="5.44804">
        <ele>1044.7399902</ele>
        <time>2011-10-02T12:48:17Z</time>
      </trkpt>
      <trkpt lat="44.73248" lon="5.44797">
        <ele>1043.4139404</ele>
        <time>2011-10-02T12:48:19Z</time>
      </trkpt>
      <trkpt lat="44.73261" lon="5.4478">
        <ele>1040.2850342</ele>
        <time>2011-10-02T12:48:23Z</time>
      </trkpt>
      <trkpt lat="44.73275" lon="5.44747">
        <ele>1034.7659912</ele>
        <time>2011-10-02T12:48:29Z</time>
      </trkpt>
      <trkpt lat="44.73286" lon="5.44734">
        <ele>1028.7070313</ele>
        <time>2011-10-02T12:48:33Z</time>
      </trkpt>
      <trkpt lat="44.73289" lon="5.44727">
        <ele>1023.934021</ele>
        <time>2011-10-02T12:48:37Z</time>
      </trkpt>
      <trkpt lat="44.73289" lon="5.44724">
        <ele>1022.1090088</ele>
        <time>2011-10-02T12:48:39Z</time>
      </trkpt>
      <trkpt lat="44.73275" lon="5.44721">
        <ele>1018.2379761</ele>
        <time>2011-10-02T12:48:43Z</time>
      </trkpt>
      <trkpt lat="44.73263" lon="5.44719">
        <ele>1014.5180054</ele>
        <time>2011-10-02T12:48:46Z</time>
      </trkpt>
      <trkpt lat="44.73247" lon="5.44719">
        <ele>1010.0159912</ele>
        <time>2011-10-02T12:48:50Z</time>
      </trkpt>
      <trkpt lat="44.73236" lon="5.44727">
        <ele>1005.7479858</ele>
        <time>2011-10-02T12:48:53Z</time>
      </trkpt>
      <trkpt lat="44.73218" lon="5.44731">
        <ele>1000.8289795</ele>
        <time>2011-10-02T12:48:58Z</time>
      </trkpt>
      <trkpt lat="44.73214" lon="5.44731">
        <ele>999.8969727</ele>
        <time>2011-10-02T12:48:59Z</time>
      </trkpt>
      <trkpt lat="44.73196" lon="5.44735">
        <ele>995.6229858</ele>
        <time>2011-10-02T12:49:03Z</time>
      </trkpt>
      <trkpt lat="44.73191" lon="5.44737">
        <ele>993.2589722</ele>
        <time>2011-10-02T12:49:05Z</time>
      </trkpt>
      <trkpt lat="44.7318" lon="5.44736">
        <ele>990.1170044</ele>
        <time>2011-10-02T12:49:08Z</time>
      </trkpt>
      <trkpt lat="44.73184" lon="5.44721">
        <ele>985.1040039</ele>
        <time>2011-10-02T12:49:13Z</time>
      </trkpt>
      <trkpt lat="44.73187" lon="5.44714">
        <ele>983.9819946</ele>
        <time>2011-10-02T12:49:15Z</time>
      </trkpt>
      <trkpt lat="44.73195" lon="5.44704">
        <ele>980.9719849</ele>
        <time>2011-10-02T12:49:18Z</time>
      </trkpt>
      <trkpt lat="44.73202" lon="5.44691">
        <ele>975.7199707</ele>
        <time>2011-10-02T12:49:23Z</time>
      </trkpt>
      <trkpt lat="44.73201" lon="5.44689">
        <ele>973.9310303</ele>
        <time>2011-10-02T12:49:25Z</time>
      </trkpt>
      <trkpt lat="44.73186" lon="5.4469">
        <ele>970.3900146</ele>
        <time>2011-10-02T12:49:30Z</time>
      </trkpt>
      <trkpt lat="44.73173" lon="5.44689">
        <ele>966.7600098</ele>
        <time>2011-10-02T12:49:34Z</time>
      </trkpt>
      <trkpt lat="44.7317" lon="5.4469">
        <ele>964.0529785</ele>
        <time>2011-10-02T12:49:37Z</time>
      </trkpt>
      <trkpt lat="44.73169" lon="5.44687">
        <ele>962.197998</ele>
        <time>2011-10-02T12:49:40Z</time>
      </trkpt>
      <trkpt lat="44.73177" lon="5.44678">
        <ele>960.9630127</ele>
        <time>2011-10-02T12:49:45Z</time>
      </trkpt>
      <trkpt lat="44.73191" lon="5.44656">
        <ele>958.5579834</ele>
        <time>2011-10-02T12:49:49Z</time>
      </trkpt>
      <trkpt lat="44.73203" lon="5.44638">
        <ele>953.2130127</ele>
        <time>2011-10-02T12:49:54Z</time>
      </trkpt>
      <trkpt lat="44.73209" lon="5.44624">
        <ele>949.2839966</ele>
        <time>2011-10-02T12:49:58Z</time>
      </trkpt>
      <trkpt lat="44.73216" lon="5.44608">
        <ele>945.2470093</ele>
        <time>2011-10-02T12:50:02Z</time>
      </trkpt>
      <trkpt lat="44.73218" lon="5.44604">
        <ele>944.052002</ele>
        <time>2011-10-02T12:50:03Z</time>
      </trkpt>
      <trkpt lat="44.73226" lon="5.44589">
        <ele>941.5410156</ele>
        <time>2011-10-02T12:50:06Z</time>
      </trkpt>
      <trkpt lat="44.7324" lon="5.44566">
        <ele>935.9650269</ele>
        <time>2011-10-02T12:50:10Z</time>
      </trkpt>
      <trkpt lat="44.73247" lon="5.44553">
        <ele>931.1619873</ele>
        <time>2011-10-02T12:50:14Z</time>
      </trkpt>
      <trkpt lat="44.73247" lon="5.44551">
        <ele>928.7529907</ele>
        <time>2011-10-02T12:50:17Z</time>
      </trkpt>
      <trkpt lat="44.73243" lon="5.44546">
        <ele>926.315979</ele>
        <time>2011-10-02T12:50:21Z</time>
      </trkpt>
      <trkpt lat="44.73249" lon="5.44526">
        <ele>922.3829956</ele>
        <time>2011-10-02T12:50:26Z</time>
      </trkpt>
      <trkpt lat="44.73255" lon="5.44514">
        <ele>920.4089966</ele>
        <time>2011-10-02T12:50:30Z</time>
      </trkpt>
      <trkpt lat="44.73256" lon="5.44507">
        <ele>919.8920288</ele>
        <time>2011-10-02T12:50:35Z</time>
      </trkpt>
      <trkpt lat="44.73255" lon="5.445">
        <ele>917.2379761</ele>
        <time>2011-10-02T12:53:32Z</time>
      </trkpt>
      <trkpt lat="44.73256" lon="5.44487">
        <ele>916.9119873</ele>
        <time>2011-10-02T12:53:37Z</time>
      </trkpt>
      <trkpt lat="44.73259" lon="5.44468">
        <ele>916.427002</ele>
        <time>2011-10-02T12:53:41Z</time>
      </trkpt>
      <trkpt lat="44.73269" lon="5.44457">
        <ele>915.3610229</ele>
        <time>2011-10-02T12:53:45Z</time>
      </trkpt>
      <trkpt lat="44.73273" lon="5.44454">
        <ele>914.5239868</ele>
        <time>2011-10-02T12:53:47Z</time>
      </trkpt>
      <trkpt lat="44.73277" lon="5.44461">
        <ele>912.8040161</ele>
        <time>2011-10-02T12:53:52Z</time>
      </trkpt>
      <trkpt lat="44.73281" lon="5.4447">
        <ele>912.8309937</ele>
        <time>2011-10-02T12:53:58Z</time>
      </trkpt>
      <trkpt lat="44.73286" lon="5.44481">
        <ele>913.940979</ele>
        <time>2011-10-02T12:54:04Z</time>
      </trkpt>
      <trkpt lat="44.73287" lon="5.44485">
        <ele>914.2670288</ele>
        <time>2011-10-02T12:54:06Z</time>
      </trkpt>
      <trkpt lat="44.73288" lon="5.44492">
        <ele>915.1129761</ele>
        <time>2011-10-02T12:54:11Z</time>
      </trkpt>
      <trkpt lat="44.73293" lon="5.44502">
        <ele>916.3549805</ele>
        <time>2011-10-02T12:54:18Z</time>
      </trkpt>
      <trkpt lat="44.73297" lon="5.4451">
        <ele>917.25</ele>
        <time>2011-10-02T12:54:22Z</time>
      </trkpt>
      <trkpt lat="44.73307" lon="5.44525">
        <ele>918.5050049</ele>
        <time>2011-10-02T12:54:29Z</time>
      </trkpt>
      <trkpt lat="44.73314" lon="5.44537">
        <ele>919.5120239</ele>
        <time>2011-10-02T12:54:35Z</time>
      </trkpt>
      <trkpt lat="44.73321" lon="5.44546">
        <ele>920.5999756</ele>
        <time>2011-10-02T12:54:41Z</time>
      </trkpt>
      <trkpt lat="44.73328" lon="5.44549">
        <ele>921.4180298</ele>
        <time>2011-10-02T12:54:47Z</time>
      </trkpt>
      <trkpt lat="44.73333" lon="5.44556">
        <ele>922.2009888</ele>
        <time>2011-10-02T12:54:51Z</time>
      </trkpt>
      <trkpt lat="44.73344" lon="5.44563">
        <ele>923.8330078</ele>
        <time>2011-10-02T12:54:59Z</time>
      </trkpt>
      <trkpt lat="44.73347" lon="5.44566">
        <ele>924.6079712</ele>
        <time>2011-10-02T12:55:03Z</time>
      </trkpt>
      <trkpt lat="44.73356" lon="5.44576">
        <ele>925.78302</ele>
        <time>2011-10-02T12:55:10Z</time>
      </trkpt>
      <trkpt lat="44.73367" lon="5.44589">
        <ele>927.1480103</ele>
        <time>2011-10-02T12:55:19Z</time>
      </trkpt>
      <trkpt lat="44.73373" lon="5.44594">
        <ele>928.2319946</ele>
        <time>2011-10-02T12:55:24Z</time>
      </trkpt>
      <trkpt lat="44.73378" lon="5.44602">
        <ele>929.4060059</ele>
        <time>2011-10-02T12:55:30Z</time>
      </trkpt>
      <trkpt lat="44.73385" lon="5.44611">
        <ele>930.4089966</ele>
        <time>2011-10-02T12:55:36Z</time>
      </trkpt>
      <trkpt lat="44.73393" lon="5.44624">
        <ele>931.427002</ele>
        <time>2011-10-02T12:55:42Z</time>
      </trkpt>
      <trkpt lat="44.73401" lon="5.44636">
        <ele>932.8950195</ele>
        <time>2011-10-02T12:55:49Z</time>
      </trkpt>
      <trkpt lat="44.73409" lon="5.44645">
        <ele>934.0339966</ele>
        <time>2011-10-02T12:55:55Z</time>
      </trkpt>
      <trkpt lat="44.73412" lon="5.44648">
        <ele>934.4660034</ele>
        <time>2011-10-02T12:55:58Z</time>
      </trkpt>
      <trkpt lat="44.73412" lon="5.44652">
        <ele>934.6569824</ele>
        <time>2011-10-02T12:56:00Z</time>
      </trkpt>
      <trkpt lat="44.73415" lon="5.4466">
        <ele>935.3499756</ele>
        <time>2011-10-02T12:56:04Z</time>
      </trkpt>
      <trkpt lat="44.73426" lon="5.4468">
        <ele>936.8010254</ele>
        <time>2011-10-02T12:56:12Z</time>
      </trkpt>
      <trkpt lat="44.73433" lon="5.44695">
        <ele>938.0130005</ele>
        <time>2011-10-02T12:56:19Z</time>
      </trkpt>
      <trkpt lat="44.73438" lon="5.44708">
        <ele>938.9609985</ele>
        <time>2011-10-02T12:56:25Z</time>
      </trkpt>
      <trkpt lat="44.73444" lon="5.44722">
        <ele>940.0900269</ele>
        <time>2011-10-02T12:56:31Z</time>
      </trkpt>
      <trkpt lat="44.73451" lon="5.44734">
        <ele>941.2399902</ele>
        <time>2011-10-02T12:56:37Z</time>
      </trkpt>
      <trkpt lat="44.73458" lon="5.44744">
        <ele>942.1729736</ele>
        <time>2011-10-02T12:56:43Z</time>
      </trkpt>
      <trkpt lat="44.73463" lon="5.44756">
        <ele>943.1220093</ele>
        <time>2011-10-02T12:56:49Z</time>
      </trkpt>
      <trkpt lat="44.73463" lon="5.44761">
        <ele>943.7119751</ele>
        <time>2011-10-02T12:56:52Z</time>
      </trkpt>
      <trkpt lat="44.73466" lon="5.44765">
        <ele>944.1259766</ele>
        <time>2011-10-02T12:56:54Z</time>
      </trkpt>
      <trkpt lat="44.73467" lon="5.44772">
        <ele>944.9110107</ele>
        <time>2011-10-02T12:56:58Z</time>
      </trkpt>
      <trkpt lat="44.73474" lon="5.44785">
        <ele>946.190979</ele>
        <time>2011-10-02T12:57:05Z</time>
      </trkpt>
      <trkpt lat="44.73479" lon="5.44794">
        <ele>947.3200073</ele>
        <time>2011-10-02T12:57:11Z</time>
      </trkpt>
      <trkpt lat="44.73484" lon="5.44808">
        <ele>948.3610229</ele>
        <time>2011-10-02T12:57:18Z</time>
      </trkpt>
      <trkpt lat="44.7349" lon="5.44819">
        <ele>949.3610229</ele>
        <time>2011-10-02T12:57:24Z</time>
      </trkpt>
      <trkpt lat="44.73494" lon="5.44832">
        <ele>950.3870239</ele>
        <time>2011-10-02T12:57:30Z</time>
      </trkpt>
      <trkpt lat="44.73498" lon="5.44843">
        <ele>951.21698</ele>
        <time>2011-10-02T12:57:36Z</time>
      </trkpt>
      <trkpt lat="44.73499" lon="5.44851">
        <ele>951.7360229</ele>
        <time>2011-10-02T12:57:40Z</time>
      </trkpt>
      <trkpt lat="44.73507" lon="5.4487">
        <ele>953.1929932</ele>
        <time>2011-10-02T12:57:48Z</time>
      </trkpt>
      <trkpt lat="44.73509" lon="5.4488">
        <ele>954.3569946</ele>
        <time>2011-10-02T12:57:53Z</time>
      </trkpt>
      <trkpt lat="44.73507" lon="5.4489">
        <ele>955.315979</ele>
        <time>2011-10-02T12:57:59Z</time>
      </trkpt>
      <trkpt lat="44.73506" lon="5.44892">
        <ele>955.6680298</ele>
        <time>2011-10-02T12:58:01Z</time>
      </trkpt>
      <trkpt lat="44.73513" lon="5.44904">
        <ele>956.5089722</ele>
        <time>2011-10-02T12:58:07Z</time>
      </trkpt>
      <trkpt lat="44.7352" lon="5.44916">
        <ele>957.7340088</ele>
        <time>2011-10-02T12:58:14Z</time>
      </trkpt>
      <trkpt lat="44.73528" lon="5.44926">
        <ele>959.1329956</ele>
        <time>2011-10-02T12:58:21Z</time>
      </trkpt>
      <trkpt lat="44.73534" lon="5.4494">
        <ele>960.6389771</ele>
        <time>2011-10-02T12:58:29Z</time>
      </trkpt>
      <trkpt lat="44.73528" lon="5.44944">
        <ele>961.5339966</ele>
        <time>2011-10-02T12:58:35Z</time>
      </trkpt>
      <trkpt lat="44.73523" lon="5.44949">
        <ele>962.4110107</ele>
        <time>2011-10-02T12:58:40Z</time>
      </trkpt>
      <trkpt lat="44.73524" lon="5.44959">
        <ele>963.2479858</ele>
        <time>2011-10-02T12:58:45Z</time>
      </trkpt>
      <trkpt lat="44.73526" lon="5.44966">
        <ele>963.8480225</ele>
        <time>2011-10-02T12:58:49Z</time>
      </trkpt>
      <trkpt lat="44.73531" lon="5.44976">
        <ele>964.2579956</ele>
        <time>2011-10-02T12:58:54Z</time>
      </trkpt>
      <trkpt lat="44.7353" lon="5.44986">
        <ele>964.5369873</ele>
        <time>2011-10-02T12:58:59Z</time>
      </trkpt>
      <trkpt lat="44.73529" lon="5.44988">
        <ele>964.6660156</ele>
        <time>2011-10-02T12:59:00Z</time>
      </trkpt>
      <trkpt lat="44.73527" lon="5.45001">
        <ele>965.6459961</ele>
        <time>2011-10-02T12:59:07Z</time>
      </trkpt>
      <trkpt lat="44.73526" lon="5.45008">
        <ele>965.9229736</ele>
        <time>2011-10-02T12:59:11Z</time>
      </trkpt>
      <trkpt lat="44.73527" lon="5.45015">
        <ele>966.414978</ele>
        <time>2011-10-02T12:59:14Z</time>
      </trkpt>
      <trkpt lat="44.73531" lon="5.45028">
        <ele>967.710022</ele>
        <time>2011-10-02T12:59:20Z</time>
      </trkpt>
      <trkpt lat="44.73529" lon="5.45032">
        <ele>967.9539795</ele>
        <time>2011-10-02T12:59:23Z</time>
      </trkpt>
      <trkpt lat="44.73529" lon="5.45037">
        <ele>968.1640015</ele>
        <time>2011-10-02T12:59:25Z</time>
      </trkpt>
      <trkpt lat="44.73532" lon="5.4505">
        <ele>969.2199707</ele>
        <time>2011-10-02T12:59:31Z</time>
      </trkpt>
      <trkpt lat="44.73531" lon="5.45055">
        <ele>970.1859741</ele>
        <time>2011-10-02T12:59:35Z</time>
      </trkpt>
      <trkpt lat="44.73538" lon="5.45059">
        <ele>970.414978</ele>
        <time>2011-10-02T12:59:45Z</time>
      </trkpt>
      <trkpt lat="44.73542" lon="5.45061">
        <ele>969.6240234</ele>
        <time>2011-10-02T12:59:51Z</time>
      </trkpt>
      <trkpt lat="44.73542" lon="5.45062">
        <ele>969.3920288</ele>
        <time>2011-10-02T12:59:53Z</time>
      </trkpt>
      <trkpt lat="44.73547" lon="5.4507">
        <ele>969.632019</ele>
        <time>2011-10-02T12:59:59Z</time>
      </trkpt>
      <trkpt lat="44.7355" lon="5.45089">
        <ele>970.0280151</ele>
        <time>2011-10-02T13:00:06Z</time>
      </trkpt>
      <trkpt lat="44.73551" lon="5.45092">
        <ele>970.065979</ele>
        <time>2011-10-02T13:00:07Z</time>
      </trkpt>
      <trkpt lat="44.73557" lon="5.45095">
        <ele>970.3560181</ele>
        <time>2011-10-02T13:00:12Z</time>
      </trkpt>
      <trkpt lat="44.73561" lon="5.45094">
        <ele>970.5960083</ele>
        <time>2011-10-02T13:00:15Z</time>
      </trkpt>
      <trkpt lat="44.73567" lon="5.45094">
        <ele>970.6220093</ele>
        <time>2011-10-02T13:00:20Z</time>
      </trkpt>
      <trkpt lat="44.73575" lon="5.45094">
        <ele>970.473999</ele>
        <time>2011-10-02T13:00:25Z</time>
      </trkpt>
      <trkpt lat="44.73583" lon="5.45099">
        <ele>970.6480103</ele>
        <time>2011-10-02T13:00:30Z</time>
      </trkpt>
      <trkpt lat="44.73589" lon="5.45112">
        <ele>971.3330078</ele>
        <time>2011-10-02T13:00:35Z</time>
      </trkpt>
      <trkpt lat="44.73597" lon="5.45121">
        <ele>972.0700073</ele>
        <time>2011-10-02T13:00:40Z</time>
      </trkpt>
      <trkpt lat="44.73605" lon="5.45121">
        <ele>972.7360229</ele>
        <time>2011-10-02T13:00:45Z</time>
      </trkpt>
      <trkpt lat="44.7361" lon="5.45121">
        <ele>973.1459961</ele>
        <time>2011-10-02T13:00:49Z</time>
      </trkpt>
      <trkpt lat="44.73611" lon="5.45128">
        <ele>973.6989746</ele>
        <time>2011-10-02T13:00:53Z</time>
      </trkpt>
      <trkpt lat="44.73613" lon="5.45129">
        <ele>973.8800049</ele>
        <time>2011-10-02T13:00:55Z</time>
      </trkpt>
      <trkpt lat="44.73621" lon="5.45121">
        <ele>973.8699951</ele>
        <time>2011-10-02T13:01:01Z</time>
      </trkpt>
      <trkpt lat="44.73621" lon="5.45114">
        <ele>974.3839722</ele>
        <time>2011-10-02T13:01:06Z</time>
      </trkpt>
      <trkpt lat="44.73623" lon="5.45101">
        <ele>975.0880127</ele>
        <time>2011-10-02T13:01:11Z</time>
      </trkpt>
      <trkpt lat="44.73624" lon="5.45088">
        <ele>975.0490112</ele>
        <time>2011-10-02T13:01:15Z</time>
      </trkpt>
      <trkpt lat="44.73627" lon="5.45073">
        <ele>975.7520142</ele>
        <time>2011-10-02T13:01:22Z</time>
      </trkpt>
      <trkpt lat="44.7363" lon="5.45073">
        <ele>976.4990234</ele>
        <time>2011-10-02T13:01:26Z</time>
      </trkpt>
      <trkpt lat="44.73625" lon="5.45072">
        <ele>977.8330078</ele>
        <time>2011-10-02T13:01:34Z</time>
      </trkpt>
      <trkpt lat="44.73626" lon="5.45076">
        <ele>978.1279907</ele>
        <time>2011-10-02T13:01:36Z</time>
      </trkpt>
      <trkpt lat="44.73629" lon="5.45093">
        <ele>979.565979</ele>
        <time>2011-10-02T13:01:44Z</time>
      </trkpt>
      <trkpt lat="44.7363" lon="5.45097">
        <ele>980.3439941</ele>
        <time>2011-10-02T13:01:47Z</time>
      </trkpt>
      <trkpt lat="44.73629" lon="5.451">
        <ele>980.7119751</ele>
        <time>2011-10-02T13:01:50Z</time>
      </trkpt>
      <trkpt lat="44.73627" lon="5.4511">
        <ele>981.7730103</ele>
        <time>2011-10-02T13:01:59Z</time>
      </trkpt>
      <trkpt lat="44.73627" lon="5.45115">
        <ele>982.9359741</ele>
        <time>2011-10-02T13:02:04Z</time>
      </trkpt>
      <trkpt lat="44.73627" lon="5.45119">
        <ele>984.0120239</ele>
        <time>2011-10-02T13:02:10Z</time>
      </trkpt>
      <trkpt lat="44.73627" lon="5.45109">
        <ele>985.6729736</ele>
        <time>2011-10-02T13:02:26Z</time>
      </trkpt>
      <trkpt lat="44.73631" lon="5.45106">
        <ele>986.4060059</ele>
        <time>2011-10-02T13:02:31Z</time>
      </trkpt>
      <trkpt lat="44.73634" lon="5.45104">
        <ele>986.8740234</ele>
        <time>2011-10-02T13:02:35Z</time>
      </trkpt>
      <trkpt lat="44.73637" lon="5.45099">
        <ele>988.0930176</ele>
        <time>2011-10-02T13:02:43Z</time>
      </trkpt>
      <trkpt lat="44.73643" lon="5.45086">
        <ele>989.0460205</ele>
        <time>2011-10-02T13:02:52Z</time>
      </trkpt>
      <trkpt lat="44.73644" lon="5.45085">
        <ele>989.4550171</ele>
        <time>2011-10-02T13:02:54Z</time>
      </trkpt>
      <trkpt lat="44.73653" lon="5.45079">
        <ele>991.0770264</ele>
        <time>2011-10-02T13:03:04Z</time>
      </trkpt>
      <trkpt lat="44.73653" lon="5.45078">
        <ele>991.2600098</ele>
        <time>2011-10-02T13:03:05Z</time>
      </trkpt>
      <trkpt lat="44.73659" lon="5.45077">
        <ele>992.4899902</ele>
        <time>2011-10-02T13:03:12Z</time>
      </trkpt>
      <trkpt lat="44.73661" lon="5.45078">
        <ele>993.598999</ele>
        <time>2011-10-02T13:03:16Z</time>
      </trkpt>
      <trkpt lat="44.73663" lon="5.45082">
        <ele>994.8870239</ele>
        <time>2011-10-02T13:03:22Z</time>
      </trkpt>
      <trkpt lat="44.73664" lon="5.45082">
        <ele>995.0100098</ele>
        <time>2011-10-02T13:03:23Z</time>
      </trkpt>
      <trkpt lat="44.73674" lon="5.45086">
        <ele>994.8930054</ele>
        <time>2011-10-02T13:03:28Z</time>
      </trkpt>
      <trkpt lat="44.73683" lon="5.45087">
        <ele>994.6519775</ele>
        <time>2011-10-02T13:03:32Z</time>
      </trkpt>
      <trkpt lat="44.73693" lon="5.45087">
        <ele>995.2789917</ele>
        <time>2011-10-02T13:03:38Z</time>
      </trkpt>
      <trkpt lat="44.73703" lon="5.45086">
        <ele>995.677002</ele>
        <time>2011-10-02T13:03:43Z</time>
      </trkpt>
      <trkpt lat="44.73706" lon="5.45086">
        <ele>995.492981</ele>
        <time>2011-10-02T13:03:44Z</time>
      </trkpt>
      <trkpt lat="44.73723" lon="5.451">
        <ele>993.7260132</ele>
        <time>2011-10-02T13:03:49Z</time>
      </trkpt>
      <trkpt lat="44.73726" lon="5.45102">
        <ele>993.3530273</ele>
        <time>2011-10-02T13:03:53Z</time>
      </trkpt>
      <trkpt lat="44.7373" lon="5.45106">
        <ele>993.7260132</ele>
        <time>2011-10-02T13:03:57Z</time>
      </trkpt>
      <trkpt lat="44.73732" lon="5.45107">
        <ele>993.7680054</ele>
        <time>2011-10-02T13:04:01Z</time>
      </trkpt>
      <trkpt lat="44.73742" lon="5.45114">
        <ele>993.8720093</ele>
        <time>2011-10-02T13:04:06Z</time>
      </trkpt>
      <trkpt lat="44.73753" lon="5.45122">
        <ele>995.2609863</ele>
        <time>2011-10-02T13:04:13Z</time>
      </trkpt>
      <trkpt lat="44.73763" lon="5.45126">
        <ele>996.8709717</ele>
        <time>2011-10-02T13:04:20Z</time>
      </trkpt>
      <trkpt lat="44.7377" lon="5.45129">
        <ele>997.9199829</ele>
        <time>2011-10-02T13:04:26Z</time>
      </trkpt>
      <trkpt lat="44.73774" lon="5.45127">
        <ele>998.7739868</ele>
        <time>2011-10-02T13:04:36Z</time>
      </trkpt>
      <trkpt lat="44.73777" lon="5.45126">
        <ele>999.0150146</ele>
        <time>2011-10-02T13:04:40Z</time>
      </trkpt>
      <trkpt lat="44.73784" lon="5.45124">
        <ele>1000.2520142</ele>
        <time>2011-10-02T13:04:48Z</time>
      </trkpt>
      <trkpt lat="44.73783" lon="5.45122">
        <ele>1000.7949829</ele>
        <time>2011-10-02T13:04:58Z</time>
      </trkpt>
      <trkpt lat="44.73786" lon="5.45115">
        <ele>1000.8200073</ele>
        <time>2011-10-02T13:05:13Z</time>
      </trkpt>
      <trkpt lat="44.73787" lon="5.45113">
        <ele>1000.914978</ele>
        <time>2011-10-02T13:05:19Z</time>
      </trkpt>
      <trkpt lat="44.73785" lon="5.45113">
        <ele>1001.2210083</ele>
        <time>2011-10-02T13:05:22Z</time>
      </trkpt>
      <trkpt lat="44.73777" lon="5.45111">
        <ele>1002.677002</ele>
        <time>2011-10-02T13:05:28Z</time>
      </trkpt>
      <trkpt lat="44.73761" lon="5.45104">
        <ele>1003.7349854</ele>
        <time>2011-10-02T13:05:34Z</time>
      </trkpt>
      <trkpt lat="44.7376" lon="5.45101">
        <ele>1003.8010254</ele>
        <time>2011-10-02T13:05:35Z</time>
      </trkpt>
      <trkpt lat="44.73761" lon="5.45084">
        <ele>1004.0859985</ele>
        <time>2011-10-02T13:05:40Z</time>
      </trkpt>
      <trkpt lat="44.73767" lon="5.45069">
        <ele>1004.7630005</ele>
        <time>2011-10-02T13:05:46Z</time>
      </trkpt>
      <trkpt lat="44.73774" lon="5.45054">
        <ele>1005.3129883</ele>
        <time>2011-10-02T13:05:52Z</time>
      </trkpt>
      <trkpt lat="44.73774" lon="5.45049">
        <ele>1005.3699951</ele>
        <time>2011-10-02T13:05:54Z</time>
      </trkpt>
      <trkpt lat="44.73782" lon="5.45042">
        <ele>1005.6810303</ele>
        <time>2011-10-02T13:05:59Z</time>
      </trkpt>
      <trkpt lat="44.73783" lon="5.45036">
        <ele>1006.0960083</ele>
        <time>2011-10-02T13:06:06Z</time>
      </trkpt>
      <trkpt lat="44.7378" lon="5.45031">
        <ele>1006.3579712</ele>
        <time>2011-10-02T13:06:12Z</time>
      </trkpt>
      <trkpt lat="44.73773" lon="5.45022">
        <ele>1006.1049805</ele>
        <time>2011-10-02T13:06:17Z</time>
      </trkpt>
      <trkpt lat="44.73775" lon="5.45005">
        <ele>1005.4619751</ele>
        <time>2011-10-02T13:06:21Z</time>
      </trkpt>
      <trkpt lat="44.73769" lon="5.44985">
        <ele>1005.0280151</ele>
        <time>2011-10-02T13:06:26Z</time>
      </trkpt>
      <trkpt lat="44.73761" lon="5.44965">
        <ele>1004.4559937</ele>
        <time>2011-10-02T13:06:31Z</time>
      </trkpt>
      <trkpt lat="44.7376" lon="5.44961">
        <ele>1004.1779785</ele>
        <time>2011-10-02T13:06:33Z</time>
      </trkpt>
      <trkpt lat="44.73771" lon="5.44955">
        <ele>1003.6660156</ele>
        <time>2011-10-02T13:06:39Z</time>
      </trkpt>
      <trkpt lat="44.73788" lon="5.44946">
        <ele>1004.6040039</ele>
        <time>2011-10-02T13:06:47Z</time>
      </trkpt>
      <trkpt lat="44.73799" lon="5.44938">
        <ele>1005.2340088</ele>
        <time>2011-10-02T13:06:53Z</time>
      </trkpt>
      <trkpt lat="44.73801" lon="5.44936">
        <ele>1005.5050049</ele>
        <time>2011-10-02T13:06:57Z</time>
      </trkpt>
      <trkpt lat="44.73805" lon="5.44935">
        <ele>1005.9550171</ele>
        <time>2011-10-02T13:07:08Z</time>
      </trkpt>
      <trkpt lat="44.73806" lon="5.44931">
        <ele>1006.1589966</ele>
        <time>2011-10-02T13:07:12Z</time>
      </trkpt>
      <trkpt lat="44.73808" lon="5.44927">
        <ele>1007.0819702</ele>
        <time>2011-10-02T13:07:20Z</time>
      </trkpt>
      <trkpt lat="44.73807" lon="5.44923">
        <ele>1007.5750122</ele>
        <time>2011-10-02T13:07:27Z</time>
      </trkpt>
      <trkpt lat="44.73805" lon="5.44917">
        <ele>1007.5770264</ele>
        <time>2011-10-02T13:07:29Z</time>
      </trkpt>
      <trkpt lat="44.73809" lon="5.44907">
        <ele>1007.7160034</ele>
        <time>2011-10-02T13:07:33Z</time>
      </trkpt>
      <trkpt lat="44.73823" lon="5.44895">
        <ele>1008.9379883</ele>
        <time>2011-10-02T13:07:40Z</time>
      </trkpt>
      <trkpt lat="44.7383" lon="5.4488">
        <ele>1010.1900024</ele>
        <time>2011-10-02T13:07:46Z</time>
      </trkpt>
      <trkpt lat="44.73839" lon="5.44869">
        <ele>1011.7340088</ele>
        <time>2011-10-02T13:07:53Z</time>
      </trkpt>
      <trkpt lat="44.73846" lon="5.44854">
        <ele>1013.1290283</ele>
        <time>2011-10-02T13:08:01Z</time>
      </trkpt>
      <trkpt lat="44.73846" lon="5.44839">
        <ele>1014.223999</ele>
        <time>2011-10-02T13:08:09Z</time>
      </trkpt>
      <trkpt lat="44.73849" lon="5.44825">
        <ele>1014.8499756</ele>
        <time>2011-10-02T13:08:15Z</time>
      </trkpt>
      <trkpt lat="44.73859" lon="5.44814">
        <ele>1015.7919922</ele>
        <time>2011-10-02T13:08:22Z</time>
      </trkpt>
      <trkpt lat="44.73871" lon="5.44803">
        <ele>1016.7420044</ele>
        <time>2011-10-02T13:08:29Z</time>
      </trkpt>
      <trkpt lat="44.73885" lon="5.44799">
        <ele>1017.934021</ele>
        <time>2011-10-02T13:08:37Z</time>
      </trkpt>
      <trkpt lat="44.73894" lon="5.44798">
        <ele>1019.3400269</ele>
        <time>2011-10-02T13:08:43Z</time>
      </trkpt>
      <trkpt lat="44.73907" lon="5.44797">
        <ele>1021.1199951</ele>
        <time>2011-10-02T13:08:51Z</time>
      </trkpt>
      <trkpt lat="44.73913" lon="5.44792">
        <ele>1022.0239868</ele>
        <time>2011-10-02T13:08:56Z</time>
      </trkpt>
      <trkpt lat="44.73911" lon="5.44782">
        <ele>1023.1199951</ele>
        <time>2011-10-02T13:09:01Z</time>
      </trkpt>
      <trkpt lat="44.7392" lon="5.44776">
        <ele>1023.7130127</ele>
        <time>2011-10-02T13:09:06Z</time>
      </trkpt>
      <trkpt lat="44.73927" lon="5.44771">
        <ele>1025.06604</ele>
        <time>2011-10-02T13:09:12Z</time>
      </trkpt>
      <trkpt lat="44.7393" lon="5.44765">
        <ele>1026.1099854</ele>
        <time>2011-10-02T13:09:17Z</time>
      </trkpt>
      <trkpt lat="44.73931" lon="5.44759">
        <ele>1026.8139648</ele>
        <time>2011-10-02T13:09:21Z</time>
      </trkpt>
      <trkpt lat="44.73933" lon="5.44752">
        <ele>1027.4019775</ele>
        <time>2011-10-02T13:09:25Z</time>
      </trkpt>
      <trkpt lat="44.73938" lon="5.44745">
        <ele>1027.8630371</ele>
        <time>2011-10-02T13:09:30Z</time>
      </trkpt>
      <trkpt lat="44.73942" lon="5.44726">
        <ele>1028.4129639</ele>
        <time>2011-10-02T13:09:37Z</time>
      </trkpt>
      <trkpt lat="44.73945" lon="5.44707">
        <ele>1028.8919678</ele>
        <time>2011-10-02T13:09:43Z</time>
      </trkpt>
      <trkpt lat="44.73947" lon="5.44689">
        <ele>1029.6269531</ele>
        <time>2011-10-02T13:09:49Z</time>
      </trkpt>
      <trkpt lat="44.73945" lon="5.44676">
        <ele>1029.9379883</ele>
        <time>2011-10-02T13:09:54Z</time>
      </trkpt>
      <trkpt lat="44.73949" lon="5.44659">
        <ele>1030.5450439</ele>
        <time>2011-10-02T13:10:01Z</time>
      </trkpt>
      <trkpt lat="44.73954" lon="5.44644">
        <ele>1031.5460205</ele>
        <time>2011-10-02T13:10:07Z</time>
      </trkpt>
      <trkpt lat="44.73954" lon="5.44626">
        <ele>1032.5419922</ele>
        <time>2011-10-02T13:10:14Z</time>
      </trkpt>
      <trkpt lat="44.73962" lon="5.44615">
        <ele>1033.3050537</ele>
        <time>2011-10-02T13:10:21Z</time>
      </trkpt>
      <trkpt lat="44.73971" lon="5.44615">
        <ele>1034.7619629</ele>
        <time>2011-10-02T13:10:27Z</time>
      </trkpt>
      <trkpt lat="44.7398" lon="5.44613">
        <ele>1036.4890137</ele>
        <time>2011-10-02T13:10:33Z</time>
      </trkpt>
      <trkpt lat="44.73985" lon="5.44611">
        <ele>1037.2490234</ele>
        <time>2011-10-02T13:10:36Z</time>
      </trkpt>
      <trkpt lat="44.73992" lon="5.44602">
        <ele>1038.5639648</ele>
        <time>2011-10-02T13:10:42Z</time>
      </trkpt>
      <trkpt lat="44.73998" lon="5.44593">
        <ele>1039.6030273</ele>
        <time>2011-10-02T13:10:48Z</time>
      </trkpt>
      <trkpt lat="44.74004" lon="5.44587">
        <ele>1040.7449951</ele>
        <time>2011-10-02T13:10:55Z</time>
      </trkpt>
      <trkpt lat="44.74003" lon="5.44578">
        <ele>1041.3029785</ele>
        <time>2011-10-02T13:10:59Z</time>
      </trkpt>
      <trkpt lat="44.74" lon="5.44574">
        <ele>1041.5970459</ele>
        <time>2011-10-02T13:11:01Z</time>
      </trkpt>
      <trkpt lat="44.74" lon="5.44556">
        <ele>1042.06604</ele>
        <time>2011-10-02T13:11:07Z</time>
      </trkpt>
      <trkpt lat="44.73998" lon="5.44542">
        <ele>1042.9510498</ele>
        <time>2011-10-02T13:11:13Z</time>
      </trkpt>
      <trkpt lat="44.73997" lon="5.44524">
        <ele>1044.7490234</ele>
        <time>2011-10-02T13:11:21Z</time>
      </trkpt>
      <trkpt lat="44.73995" lon="5.44514">
        <ele>1045.3360596</ele>
        <time>2011-10-02T13:11:26Z</time>
      </trkpt>
      <trkpt lat="44.73987" lon="5.44506">
        <ele>1046.0689697</ele>
        <time>2011-10-02T13:11:33Z</time>
      </trkpt>
      <trkpt lat="44.73978" lon="5.44493">
        <ele>1046.6379395</ele>
        <time>2011-10-02T13:11:39Z</time>
      </trkpt>
      <trkpt lat="44.73973" lon="5.44475">
        <ele>1047.4899902</ele>
        <time>2011-10-02T13:11:47Z</time>
      </trkpt>
      <trkpt lat="44.73971" lon="5.44458">
        <ele>1048.8129883</ele>
        <time>2011-10-02T13:11:54Z</time>
      </trkpt>
      <trkpt lat="44.73976" lon="5.44446">
        <ele>1049.6400146</ele>
        <time>2011-10-02T13:12:01Z</time>
      </trkpt>
      <trkpt lat="44.73989" lon="5.44434">
        <ele>1050.8709717</ele>
        <time>2011-10-02T13:12:11Z</time>
      </trkpt>
      <trkpt lat="44.73998" lon="5.44434">
        <ele>1051.8339844</ele>
        <time>2011-10-02T13:12:17Z</time>
      </trkpt>
      <trkpt lat="44.73999" lon="5.44433">
        <ele>1051.9360352</ele>
        <time>2011-10-02T13:12:18Z</time>
      </trkpt>
      <trkpt lat="44.74003" lon="5.44428">
        <ele>1052.0550537</ele>
        <time>2011-10-02T13:12:22Z</time>
      </trkpt>
      <trkpt lat="44.74015" lon="5.44418">
        <ele>1053.4870605</ele>
        <time>2011-10-02T13:12:30Z</time>
      </trkpt>
      <trkpt lat="44.74024" lon="5.44403">
        <ele>1054.7020264</ele>
        <time>2011-10-02T13:12:38Z</time>
      </trkpt>
      <trkpt lat="44.74031" lon="5.4439">
        <ele>1055.657959</ele>
        <time>2011-10-02T13:12:45Z</time>
      </trkpt>
      <trkpt lat="44.74037" lon="5.44375">
        <ele>1056.2049561</ele>
        <time>2011-10-02T13:12:52Z</time>
      </trkpt>
      <trkpt lat="44.74048" lon="5.44367">
        <ele>1056.4780273</ele>
        <time>2011-10-02T13:12:58Z</time>
      </trkpt>
      <trkpt lat="44.74061" lon="5.44354">
        <ele>1057.6739502</ele>
        <time>2011-10-02T13:13:07Z</time>
      </trkpt>
      <trkpt lat="44.7407" lon="5.44344">
        <ele>1058.6280518</ele>
        <time>2011-10-02T13:13:14Z</time>
      </trkpt>
      <trkpt lat="44.74077" lon="5.44334">
        <ele>1059.3060303</ele>
        <time>2011-10-02T13:13:20Z</time>
      </trkpt>
      <trkpt lat="44.74085" lon="5.44316">
        <ele>1058.8100586</ele>
        <time>2011-10-02T13:13:26Z</time>
      </trkpt>
      <trkpt lat="44.74092" lon="5.44288">
        <ele>1056.5780029</ele>
        <time>2011-10-02T13:13:31Z</time>
      </trkpt>
      <trkpt lat="44.74094" lon="5.44263">
        <ele>1053.9320068</ele>
        <time>2011-10-02T13:13:36Z</time>
      </trkpt>
      <trkpt lat="44.74093" lon="5.44256">
        <ele>1053.0489502</ele>
        <time>2011-10-02T13:13:38Z</time>
      </trkpt>
      <trkpt lat="44.74097" lon="5.44217">
        <ele>1050.4530029</ele>
        <time>2011-10-02T13:13:44Z</time>
      </trkpt>
      <trkpt lat="44.74105" lon="5.44206">
        <ele>1048.3280029</ele>
        <time>2011-10-02T13:13:47Z</time>
      </trkpt>
      <trkpt lat="44.74126" lon="5.44204">
        <ele>1044.7779541</ele>
        <time>2011-10-02T13:13:52Z</time>
      </trkpt>
      <trkpt lat="44.74136" lon="5.44218">
        <ele>1042.8000488</ele>
        <time>2011-10-02T13:13:55Z</time>
      </trkpt>
      <trkpt lat="44.74156" lon="5.44246">
        <ele>1039.9969482</ele>
        <time>2011-10-02T13:13:59Z</time>
      </trkpt>
      <trkpt lat="44.74177" lon="5.44285">
        <ele>1035.4179688</ele>
        <time>2011-10-02T13:14:04Z</time>
      </trkpt>
      <trkpt lat="44.74187" lon="5.44303">
        <ele>1033.5939941</ele>
        <time>2011-10-02T13:14:07Z</time>
      </trkpt>
      <trkpt lat="44.74201" lon="5.44329">
        <ele>1030.7960205</ele>
        <time>2011-10-02T13:14:10Z</time>
      </trkpt>
      <trkpt lat="44.7421" lon="5.44346">
        <ele>1028.8139648</ele>
        <time>2011-10-02T13:14:12Z</time>
      </trkpt>
      <trkpt lat="44.74233" lon="5.44389">
        <ele>1023.4840088</ele>
        <time>2011-10-02T13:14:17Z</time>
      </trkpt>
      <trkpt lat="44.74254" lon="5.44403">
        <ele>1019.4639893</ele>
        <time>2011-10-02T13:14:21Z</time>
      </trkpt>
      <trkpt lat="44.74266" lon="5.44402">
        <ele>1016.1539917</ele>
        <time>2011-10-02T13:14:24Z</time>
      </trkpt>
      <trkpt lat="44.74276" lon="5.44401">
        <ele>1014.2719727</ele>
        <time>2011-10-02T13:14:26Z</time>
      </trkpt>
      <trkpt lat="44.7431" lon="5.444">
        <ele>1010.4240112</ele>
        <time>2011-10-02T13:14:31Z</time>
      </trkpt>
      <trkpt lat="44.74313" lon="5.44391">
        <ele>1010.4169922</ele>
        <time>2011-10-02T13:14:32Z</time>
      </trkpt>
      <trkpt lat="44.74316" lon="5.44382">
        <ele>1009.6569824</ele>
        <time>2011-10-02T13:14:33Z</time>
      </trkpt>
      <trkpt lat="44.74355" lon="5.44344">
        <ele>1004.2579956</ele>
        <time>2011-10-02T13:14:39Z</time>
      </trkpt>
      <trkpt lat="44.7436" lon="5.44345">
        <ele>1003.1920166</ele>
        <time>2011-10-02T13:14:40Z</time>
      </trkpt>
      <trkpt lat="44.74372" lon="5.44345">
        <ele>1001.0189819</ele>
        <time>2011-10-02T13:14:42Z</time>
      </trkpt>
      <trkpt lat="44.74398" lon="5.44345">
        <ele>996.9530029</ele>
        <time>2011-10-02T13:14:46Z</time>
      </trkpt>
      <trkpt lat="44.74429" lon="5.44317">
        <ele>992.098999</ele>
        <time>2011-10-02T13:14:51Z</time>
      </trkpt>
      <trkpt lat="44.7446" lon="5.44302">
        <ele>986.8510132</ele>
        <time>2011-10-02T13:14:56Z</time>
      </trkpt>
      <trkpt lat="44.74468" lon="5.44312">
        <ele>985.9039917</ele>
        <time>2011-10-02T13:14:58Z</time>
      </trkpt>
      <trkpt lat="44.74474" lon="5.44328">
        <ele>984.085022</ele>
        <time>2011-10-02T13:15:00Z</time>
      </trkpt>
      <trkpt lat="44.74483" lon="5.44351">
        <ele>981.723999</ele>
        <time>2011-10-02T13:15:03Z</time>
      </trkpt>
      <trkpt lat="44.74493" lon="5.44382">
        <ele>977.4699707</ele>
        <time>2011-10-02T13:15:08Z</time>
      </trkpt>
      <trkpt lat="44.74503" lon="5.44401">
        <ele>974.4910278</ele>
        <time>2011-10-02T13:15:11Z</time>
      </trkpt>
      <trkpt lat="44.74515" lon="5.44428">
        <ele>970.4710083</ele>
        <time>2011-10-02T13:15:15Z</time>
      </trkpt>
      <trkpt lat="44.74526" lon="5.44447">
        <ele>966.1669922</ele>
        <time>2011-10-02T13:15:20Z</time>
      </trkpt>
      <trkpt lat="44.74528" lon="5.44447">
        <ele>965.5139771</ele>
        <time>2011-10-02T13:15:21Z</time>
      </trkpt>
      <trkpt lat="44.7453" lon="5.44445">
        <ele>964.9530029</ele>
        <time>2011-10-02T13:15:23Z</time>
      </trkpt>
      <trkpt lat="44.74529" lon="5.44438">
        <ele>963.5289917</ele>
        <time>2011-10-02T13:15:26Z</time>
      </trkpt>
      <trkpt lat="44.74535" lon="5.44416">
        <ele>961.7620239</ele>
        <time>2011-10-02T13:15:30Z</time>
      </trkpt>
      <trkpt lat="44.74535" lon="5.44399">
        <ele>959.7479858</ele>
        <time>2011-10-02T13:15:33Z</time>
      </trkpt>
      <trkpt lat="44.7453" lon="5.44365">
        <ele>954.9379883</ele>
        <time>2011-10-02T13:15:39Z</time>
      </trkpt>
      <trkpt lat="44.74529" lon="5.44357">
        <ele>954.059021</ele>
        <time>2011-10-02T13:15:40Z</time>
      </trkpt>
      <trkpt lat="44.74531" lon="5.44327">
        <ele>950.4279785</ele>
        <time>2011-10-02T13:15:44Z</time>
      </trkpt>
      <trkpt lat="44.74526" lon="5.44314">
        <ele>947.9509888</ele>
        <time>2011-10-02T13:15:47Z</time>
      </trkpt>
      <trkpt lat="44.74524" lon="5.44309">
        <ele>947.9509888</ele>
        <time>2011-10-02T13:15:48Z</time>
      </trkpt>
      <trkpt lat="44.74521" lon="5.44296">
        <ele>946.3980103</ele>
        <time>2011-10-02T13:15:50Z</time>
      </trkpt>
      <trkpt lat="44.74519" lon="5.44274">
        <ele>943.382019</ele>
        <time>2011-10-02T13:15:54Z</time>
      </trkpt>
      <trkpt lat="44.74518" lon="5.44268">
        <ele>940.7069702</ele>
        <time>2011-10-02T13:15:58Z</time>
      </trkpt>
      <trkpt lat="44.74518" lon="5.44267">
        <ele>939.1459961</ele>
        <time>2011-10-02T13:16:02Z</time>
      </trkpt>
      <trkpt lat="44.74521" lon="5.4428">
        <ele>938.0289917</ele>
        <time>2011-10-02T13:16:07Z</time>
      </trkpt>
      <trkpt lat="44.74523" lon="5.44285">
        <ele>937.1019897</ele>
        <time>2011-10-02T13:16:11Z</time>
      </trkpt>
      <trkpt lat="44.74524" lon="5.44285">
        <ele>936.8049927</ele>
        <time>2011-10-02T13:16:13Z</time>
      </trkpt>
      <trkpt lat="44.74526" lon="5.4429">
        <ele>936.4589844</ele>
        <time>2011-10-02T13:16:19Z</time>
      </trkpt>
      <trkpt lat="44.74531" lon="5.44298">
        <ele>936.0209961</ele>
        <time>2011-10-02T13:16:22Z</time>
      </trkpt>
      <trkpt lat="44.74544" lon="5.4431">
        <ele>934.5839844</ele>
        <time>2011-10-02T13:16:26Z</time>
      </trkpt>
      <trkpt lat="44.74548" lon="5.44339">
        <ele>932.552002</ele>
        <time>2011-10-02T13:16:30Z</time>
      </trkpt>
      <trkpt lat="44.74554" lon="5.44358">
        <ele>930.677002</ele>
        <time>2011-10-02T13:16:33Z</time>
      </trkpt>
      <trkpt lat="44.74553" lon="5.44384">
        <ele>927.8519897</ele>
        <time>2011-10-02T13:16:37Z</time>
      </trkpt>
      <trkpt lat="44.74554" lon="5.44386">
        <ele>927.1660156</ele>
        <time>2011-10-02T13:16:39Z</time>
      </trkpt>
      <trkpt lat="44.74561" lon="5.44384">
        <ele>925.8309937</ele>
        <time>2011-10-02T13:16:42Z</time>
      </trkpt>
      <trkpt lat="44.74577" lon="5.4439">
        <ele>924.3049927</ele>
        <time>2011-10-02T13:19:42Z</time>
      </trkpt>
      <trkpt lat="44.74577" lon="5.44392">
        <ele>923.5789795</ele>
        <time>2011-10-02T13:19:48Z</time>
      </trkpt>
      <trkpt lat="44.74575" lon="5.4439">
        <ele>922.5369873</ele>
        <time>2011-10-02T13:19:53Z</time>
      </trkpt>
      <trkpt lat="44.74571" lon="5.4439">
        <ele>923.1879883</ele>
        <time>2011-10-02T13:20:00Z</time>
      </trkpt>
      <trkpt lat="44.74569" lon="5.44387">
        <ele>924.2969971</ele>
        <time>2011-10-02T13:20:09Z</time>
      </trkpt>
      <trkpt lat="44.7457" lon="5.44391">
        <ele>924.2039795</ele>
        <time>2011-10-02T13:20:12Z</time>
      </trkpt>
      <trkpt lat="44.74569" lon="5.4439">
        <ele>922.9229736</ele>
        <time>2011-10-02T13:20:19Z</time>
      </trkpt>
      <trkpt lat="44.74567" lon="5.44388">
        <ele>923.4760132</ele>
        <time>2011-10-02T13:20:32Z</time>
      </trkpt>
      <trkpt lat="44.74569" lon="5.44386">
        <ele>924.2059937</ele>
        <time>2011-10-02T13:20:39Z</time>
      </trkpt>
      <trkpt lat="44.74567" lon="5.44387">
        <ele>924.289978</ele>
        <time>2011-10-02T13:20:43Z</time>
      </trkpt>
      <trkpt lat="44.74569" lon="5.4439">
        <ele>923.3880005</ele>
        <time>2011-10-02T13:20:49Z</time>
      </trkpt>
      <trkpt lat="44.74569" lon="5.44389">
        <ele>922.9509888</ele>
        <time>2011-10-02T13:20:51Z</time>
      </trkpt>
      <trkpt lat="44.74569" lon="5.44383">
        <ele>921.9160156</ele>
        <time>2011-10-02T13:20:57Z</time>
      </trkpt>
      <trkpt lat="44.74569" lon="5.44377">
        <ele>921.0469971</ele>
        <time>2011-10-02T13:21:02Z</time>
      </trkpt>
      <trkpt lat="44.74574" lon="5.44377">
        <ele>920.8239746</ele>
        <time>2011-10-02T13:21:09Z</time>
      </trkpt>
      <trkpt lat="44.74575" lon="5.4437">
        <ele>920.6300049</ele>
        <time>2011-10-02T13:21:13Z</time>
      </trkpt>
      <trkpt lat="44.74575" lon="5.44346">
        <ele>919.4840088</ele>
        <time>2011-10-02T13:21:18Z</time>
      </trkpt>
      <trkpt lat="44.7457" lon="5.44317">
        <ele>916.5969849</ele>
        <time>2011-10-02T13:21:23Z</time>
      </trkpt>
      <trkpt lat="44.74563" lon="5.44286">
        <ele>913.6220093</ele>
        <time>2011-10-02T13:21:27Z</time>
      </trkpt>
      <trkpt lat="44.74545" lon="5.44237">
        <ele>908.1539917</ele>
        <time>2011-10-02T13:21:33Z</time>
      </trkpt>
      <trkpt lat="44.74521" lon="5.44194">
        <ele>902.2810059</ele>
        <time>2011-10-02T13:21:39Z</time>
      </trkpt>
      <trkpt lat="44.74514" lon="5.44192">
        <ele>899.8480225</ele>
        <time>2011-10-02T13:21:42Z</time>
      </trkpt>
      <trkpt lat="44.74522" lon="5.44205">
        <ele>897.3549805</ele>
        <time>2011-10-02T13:21:48Z</time>
      </trkpt>
      <trkpt lat="44.74534" lon="5.44225">
        <ele>895.7769775</ele>
        <time>2011-10-02T13:21:52Z</time>
      </trkpt>
      <trkpt lat="44.74558" lon="5.44231">
        <ele>892.9959717</ele>
        <time>2011-10-02T13:21:57Z</time>
      </trkpt>
      <trkpt lat="44.74566" lon="5.4424">
        <ele>891.2020264</ele>
        <time>2011-10-02T13:22:00Z</time>
      </trkpt>
      <trkpt lat="44.74566" lon="5.44251">
        <ele>890.1350098</ele>
        <time>2011-10-02T13:22:02Z</time>
      </trkpt>
      <trkpt lat="44.74565" lon="5.44263">
        <ele>889.1160278</ele>
        <time>2011-10-02T13:22:04Z</time>
      </trkpt>
      <trkpt lat="44.74577" lon="5.44284">
        <ele>887.4890137</ele>
        <time>2011-10-02T13:22:08Z</time>
      </trkpt>
      <trkpt lat="44.74578" lon="5.44286">
        <ele>886.4130249</ele>
        <time>2011-10-02T13:22:10Z</time>
      </trkpt>
      <trkpt lat="44.74581" lon="5.44275">
        <ele>884.367981</ele>
        <time>2011-10-02T13:22:14Z</time>
      </trkpt>
      <trkpt lat="44.74579" lon="5.44269">
        <ele>883.8880005</ele>
        <time>2011-10-02T13:22:15Z</time>
      </trkpt>
      <trkpt lat="44.74581" lon="5.44234">
        <ele>880.6129761</ele>
        <time>2011-10-02T13:22:20Z</time>
      </trkpt>
      <trkpt lat="44.74584" lon="5.44214">
        <ele>878.1480103</ele>
        <time>2011-10-02T13:22:23Z</time>
      </trkpt>
      <trkpt lat="44.7458" lon="5.442">
        <ele>875.4370117</ele>
        <time>2011-10-02T13:22:27Z</time>
      </trkpt>
      <trkpt lat="44.74558" lon="5.44182">
        <ele>872.6660156</ele>
        <time>2011-10-02T13:22:32Z</time>
      </trkpt>
      <trkpt lat="44.74537" lon="5.44158">
        <ele>870.4450073</ele>
        <time>2011-10-02T13:22:36Z</time>
      </trkpt>
      <trkpt lat="44.74532" lon="5.44151">
        <ele>869.6610107</ele>
        <time>2011-10-02T13:22:37Z</time>
      </trkpt>
      <trkpt lat="44.74529" lon="5.44145">
        <ele>867.197998</ele>
        <time>2011-10-02T13:22:40Z</time>
      </trkpt>
      <trkpt lat="44.74524" lon="5.44145">
        <ele>864.9780273</ele>
        <time>2011-10-02T13:22:52Z</time>
      </trkpt>
      <trkpt lat="44.74524" lon="5.44148">
        <ele>865.3449707</ele>
        <time>2011-10-02T13:22:59Z</time>
      </trkpt>
      <trkpt lat="44.74522" lon="5.44151">
        <ele>865.7689819</ele>
        <time>2011-10-02T13:23:09Z</time>
      </trkpt>
      <trkpt lat="44.74521" lon="5.44148">
        <ele>865.6359863</ele>
        <time>2011-10-02T13:23:11Z</time>
      </trkpt>
      <trkpt lat="44.74522" lon="5.44146">
        <ele>865.0819702</ele>
        <time>2011-10-02T13:23:17Z</time>
      </trkpt>
      <trkpt lat="44.74524" lon="5.44152">
        <ele>865.4160156</ele>
        <time>2011-10-02T13:23:24Z</time>
      </trkpt>
      <trkpt lat="44.74525" lon="5.4415">
        <ele>865.7319946</ele>
        <time>2011-10-02T13:23:29Z</time>
      </trkpt>
      <trkpt lat="44.74526" lon="5.44146">
        <ele>865.4349976</ele>
        <time>2011-10-02T13:23:34Z</time>
      </trkpt>
      <trkpt lat="44.74527" lon="5.44147">
        <ele>865.3189697</ele>
        <time>2011-10-02T13:23:35Z</time>
      </trkpt>
      <trkpt lat="44.74532" lon="5.44162">
        <ele>864.4920044</ele>
        <time>2011-10-02T13:23:40Z</time>
      </trkpt>
      <trkpt lat="44.74538" lon="5.4417">
        <ele>864.151001</ele>
        <time>2011-10-02T13:23:42Z</time>
      </trkpt>
      <trkpt lat="44.7456" lon="5.44178">
        <ele>862.2399902</ele>
        <time>2011-10-02T13:23:46Z</time>
      </trkpt>
      <trkpt lat="44.74583" lon="5.44188">
        <ele>860.4160156</ele>
        <time>2011-10-02T13:23:50Z</time>
      </trkpt>
      <trkpt lat="44.74598" lon="5.44198">
        <ele>858.6370239</ele>
        <time>2011-10-02T13:23:53Z</time>
      </trkpt>
      <trkpt lat="44.74611" lon="5.44221">
        <ele>856.6060181</ele>
        <time>2011-10-02T13:23:57Z</time>
      </trkpt>
      <trkpt lat="44.74616" lon="5.44248">
        <ele>853.5089722</ele>
        <time>2011-10-02T13:24:03Z</time>
      </trkpt>
      <trkpt lat="44.74607" lon="5.4426">
        <ele>851.9869995</ele>
        <time>2011-10-02T13:24:08Z</time>
      </trkpt>
      <trkpt lat="44.74609" lon="5.4427">
        <ele>851.4730225</ele>
        <time>2011-10-02T13:24:12Z</time>
      </trkpt>
      <trkpt lat="44.74611" lon="5.44274">
        <ele>851.1170044</ele>
        <time>2011-10-02T13:24:14Z</time>
      </trkpt>
      <trkpt lat="44.74618" lon="5.44281">
        <ele>850.3969727</ele>
        <time>2011-10-02T13:24:18Z</time>
      </trkpt>
      <trkpt lat="44.74625" lon="5.44284">
        <ele>849.4860229</ele>
        <time>2011-10-02T13:24:21Z</time>
      </trkpt>
      <trkpt lat="44.74639" lon="5.4428">
        <ele>848.3599854</ele>
        <time>2011-10-02T13:24:25Z</time>
      </trkpt>
      <trkpt lat="44.74653" lon="5.44275">
        <ele>847.3220215</ele>
        <time>2011-10-02T13:24:28Z</time>
      </trkpt>
      <trkpt lat="44.74667" lon="5.44262">
        <ele>845.8859863</ele>
        <time>2011-10-02T13:24:31Z</time>
      </trkpt>
      <trkpt lat="44.74688" lon="5.44261">
        <ele>842.6459961</ele>
        <time>2011-10-02T13:24:36Z</time>
      </trkpt>
      <trkpt lat="44.74706" lon="5.44267">
        <ele>840.6220093</ele>
        <time>2011-10-02T13:24:40Z</time>
      </trkpt>
      <trkpt lat="44.74734" lon="5.44257">
        <ele>837.5980225</ele>
        <time>2011-10-02T13:24:44Z</time>
      </trkpt>
      <trkpt lat="44.74739" lon="5.44255">
        <ele>836.7789917</ele>
        <time>2011-10-02T13:24:45Z</time>
      </trkpt>
      <trkpt lat="44.7474" lon="5.44243">
        <ele>832.6140137</ele>
        <time>2011-10-02T13:24:50Z</time>
      </trkpt>
      <trkpt lat="44.74727" lon="5.44239">
        <ele>830.440979</ele>
        <time>2011-10-02T13:24:53Z</time>
      </trkpt>
      <trkpt lat="44.74717" lon="5.44232">
        <ele>828.9190063</ele>
        <time>2011-10-02T13:24:55Z</time>
      </trkpt>
      <trkpt lat="44.74702" lon="5.44218">
        <ele>826.742981</ele>
        <time>2011-10-02T13:24:58Z</time>
      </trkpt>
      <trkpt lat="44.74685" lon="5.44216">
        <ele>824.4790039</ele>
        <time>2011-10-02T13:25:01Z</time>
      </trkpt>
      <trkpt lat="44.7466" lon="5.44211">
        <ele>822.3839722</ele>
        <time>2011-10-02T13:25:05Z</time>
      </trkpt>
      <trkpt lat="44.74655" lon="5.44199">
        <ele>820.4780273</ele>
        <time>2011-10-02T13:25:08Z</time>
      </trkpt>
      <trkpt lat="44.74658" lon="5.44166">
        <ele>818.0549927</ele>
        <time>2011-10-02T13:25:12Z</time>
      </trkpt>
      <trkpt lat="44.74657" lon="5.44157">
        <ele>817.3920288</ele>
        <time>2011-10-02T13:25:13Z</time>
      </trkpt>
      <trkpt lat="44.74648" lon="5.44115">
        <ele>813.0029907</ele>
        <time>2011-10-02T13:25:18Z</time>
      </trkpt>
      <trkpt lat="44.74628" lon="5.44089">
        <ele>808.8519897</ele>
        <time>2011-10-02T13:25:22Z</time>
      </trkpt>
      <trkpt lat="44.746" lon="5.44079">
        <ele>803.2219849</ele>
        <time>2011-10-02T13:25:27Z</time>
      </trkpt>
      <trkpt lat="44.74588" lon="5.44073">
        <ele>801.3010254</ele>
        <time>2011-10-02T13:25:29Z</time>
      </trkpt>
      <trkpt lat="44.74571" lon="5.44037">
        <ele>798.3389893</ele>
        <time>2011-10-02T13:25:34Z</time>
      </trkpt>
      <trkpt lat="44.74549" lon="5.44005">
        <ele>794.8909912</ele>
        <time>2011-10-02T13:25:38Z</time>
      </trkpt>
      <trkpt lat="44.74539" lon="5.4399">
        <ele>792.8510132</ele>
        <time>2011-10-02T13:25:40Z</time>
      </trkpt>
      <trkpt lat="44.74509" lon="5.43977">
        <ele>789.0239868</ele>
        <time>2011-10-02T13:25:44Z</time>
      </trkpt>
      <trkpt lat="44.74492" lon="5.43981">
        <ele>787.4580078</ele>
        <time>2011-10-02T13:25:46Z</time>
      </trkpt>
      <trkpt lat="44.74472" lon="5.43987">
        <ele>785.4060059</ele>
        <time>2011-10-02T13:25:49Z</time>
      </trkpt>
      <trkpt lat="44.74468" lon="5.43976">
        <ele>781.9949951</ele>
        <time>2011-10-02T13:25:53Z</time>
      </trkpt>
      <trkpt lat="44.74474" lon="5.43972">
        <ele>779.8549805</ele>
        <time>2011-10-02T13:25:56Z</time>
      </trkpt>
      <trkpt lat="44.74475" lon="5.43976">
        <ele>776.2769775</ele>
        <time>2011-10-02T13:26:03Z</time>
      </trkpt>
      <trkpt lat="44.74481" lon="5.43974">
        <ele>776.2630005</ele>
        <time>2011-10-02T13:26:18Z</time>
      </trkpt>
      <trkpt lat="44.74509" lon="5.43968">
        <ele>776.0230103</ele>
        <time>2011-10-02T13:26:23Z</time>
      </trkpt>
      <trkpt lat="44.74524" lon="5.4396">
        <ele>774.7329712</ele>
        <time>2011-10-02T13:26:28Z</time>
      </trkpt>
      <trkpt lat="44.74548" lon="5.43957">
        <ele>772.2739868</ele>
        <time>2011-10-02T13:26:33Z</time>
      </trkpt>
      <trkpt lat="44.74564" lon="5.43961">
        <ele>769.6699829</ele>
        <time>2011-10-02T13:26:37Z</time>
      </trkpt>
      <trkpt lat="44.74579" lon="5.43974">
        <ele>766.46698</ele>
        <time>2011-10-02T13:26:41Z</time>
      </trkpt>
      <trkpt lat="44.74602" lon="5.43987">
        <ele>762.7440186</ele>
        <time>2011-10-02T13:26:45Z</time>
      </trkpt>
      <trkpt lat="44.74621" lon="5.43981">
        <ele>759.2940063</ele>
        <time>2011-10-02T13:26:49Z</time>
      </trkpt>
      <trkpt lat="44.74639" lon="5.4397">
        <ele>755.2080078</ele>
        <time>2011-10-02T13:26:53Z</time>
      </trkpt>
      <trkpt lat="44.74659" lon="5.43981">
        <ele>751.2589722</ele>
        <time>2011-10-02T13:26:59Z</time>
      </trkpt>
      <trkpt lat="44.74692" lon="5.43962">
        <ele>748.9240112</ele>
        <time>2011-10-02T13:27:03Z</time>
      </trkpt>
      <trkpt lat="44.74701" lon="5.4396">
        <ele>747.4180298</ele>
        <time>2011-10-02T13:27:06Z</time>
      </trkpt>
      <trkpt lat="44.74701" lon="5.43959">
        <ele>746.6400146</ele>
        <time>2011-10-02T13:27:08Z</time>
      </trkpt>
      <trkpt lat="44.74703" lon="5.43954">
        <ele>746.0109863</ele>
        <time>2011-10-02T13:27:12Z</time>
      </trkpt>
      <trkpt lat="44.74691" lon="5.43935">
        <ele>744.7949829</ele>
        <time>2011-10-02T13:27:17Z</time>
      </trkpt>
      <trkpt lat="44.74673" lon="5.43898">
        <ele>741.3709717</ele>
        <time>2011-10-02T13:27:22Z</time>
      </trkpt>
      <trkpt lat="44.7467" lon="5.43891">
        <ele>740.3170166</ele>
        <time>2011-10-02T13:27:23Z</time>
      </trkpt>
      <trkpt lat="44.7465" lon="5.43854">
        <ele>735.3619995</ele>
        <time>2011-10-02T13:27:27Z</time>
      </trkpt>
      <trkpt lat="44.74646" lon="5.43846">
        <ele>734.1569824</ele>
        <time>2011-10-02T13:27:28Z</time>
      </trkpt>
      <trkpt lat="44.74638" lon="5.438">
        <ele>728.4329834</ele>
        <time>2011-10-02T13:27:33Z</time>
      </trkpt>
      <trkpt lat="44.74635" lon="5.43768">
        <ele>725.2420044</ele>
        <time>2011-10-02T13:27:37Z</time>
      </trkpt>
      <trkpt lat="44.74637" lon="5.43754">
        <ele>722.9199829</ele>
        <time>2011-10-02T13:27:39Z</time>
      </trkpt>
      <trkpt lat="44.74632" lon="5.43723">
        <ele>718.4869995</ele>
        <time>2011-10-02T13:27:43Z</time>
      </trkpt>
      <trkpt lat="44.74622" lon="5.4371">
        <ele>714.2199707</ele>
        <time>2011-10-02T13:27:48Z</time>
      </trkpt>
      <trkpt lat="44.74623" lon="5.4371">
        <ele>713.5560303</ele>
        <time>2011-10-02T13:27:50Z</time>
      </trkpt>
      <trkpt lat="44.74625" lon="5.43711">
        <ele>713.2280273</ele>
        <time>2011-10-02T13:27:56Z</time>
      </trkpt>
      <trkpt lat="44.74623" lon="5.43712">
        <ele>713.2310181</ele>
        <time>2011-10-02T13:28:04Z</time>
      </trkpt>
      <trkpt lat="44.74626" lon="5.43713">
        <ele>713.2529907</ele>
        <time>2011-10-02T13:28:05Z</time>
      </trkpt>
      <trkpt lat="44.74626" lon="5.43715">
        <ele>713.1550293</ele>
        <time>2011-10-02T13:28:11Z</time>
      </trkpt>
      <trkpt lat="44.74641" lon="5.43718">
        <ele>713.0910034</ele>
        <time>2011-10-02T13:28:20Z</time>
      </trkpt>
      <trkpt lat="44.74646" lon="5.43718">
        <ele>713.1920166</ele>
        <time>2011-10-02T13:28:29Z</time>
      </trkpt>
      <trkpt lat="44.74638" lon="5.43723">
        <ele>712.2340088</ele>
        <time>2011-10-02T13:30:33Z</time>
      </trkpt>
      <trkpt lat="44.74641" lon="5.43725">
        <ele>712.276001</ele>
        <time>2011-10-02T13:30:35Z</time>
      </trkpt>
      <trkpt lat="44.7464" lon="5.43715">
        <ele>711.8740234</ele>
        <time>2011-10-02T13:30:39Z</time>
      </trkpt>
      <trkpt lat="44.7464" lon="5.43705">
        <ele>711.2990112</ele>
        <time>2011-10-02T13:30:41Z</time>
      </trkpt>
      <trkpt lat="44.74649" lon="5.4368">
        <ele>709.3699951</ele>
        <time>2011-10-02T13:30:45Z</time>
      </trkpt>
      <trkpt lat="44.74651" lon="5.43666">
        <ele>708.0780029</ele>
        <time>2011-10-02T13:30:47Z</time>
      </trkpt>
      <trkpt lat="44.74642" lon="5.43633">
        <ele>704.2860107</ele>
        <time>2011-10-02T13:30:52Z</time>
      </trkpt>
      <trkpt lat="44.74639" lon="5.43584">
        <ele>699.9769897</ele>
        <time>2011-10-02T13:30:58Z</time>
      </trkpt>
      <trkpt lat="44.74638" lon="5.43577">
        <ele>699.960022</ele>
        <time>2011-10-02T13:30:59Z</time>
      </trkpt>
      <trkpt lat="44.7464" lon="5.43574">
        <ele>699.2739868</ele>
        <time>2011-10-02T13:31:00Z</time>
      </trkpt>
      <trkpt lat="44.7464" lon="5.43568">
        <ele>696.6110229</ele>
        <time>2011-10-02T13:31:05Z</time>
      </trkpt>
      <trkpt lat="44.74642" lon="5.43561">
        <ele>695.802002</ele>
        <time>2011-10-02T13:31:09Z</time>
      </trkpt>
      <trkpt lat="44.74641" lon="5.43549">
        <ele>695.4550171</ele>
        <time>2011-10-02T13:31:12Z</time>
      </trkpt>
      <trkpt lat="44.7464" lon="5.43528">
        <ele>694.4459839</ele>
        <time>2011-10-02T13:31:15Z</time>
      </trkpt>
      <trkpt lat="44.74635" lon="5.43472">
        <ele>690.4420166</ele>
        <time>2011-10-02T13:31:20Z</time>
      </trkpt>
      <trkpt lat="44.74632" lon="5.43428">
        <ele>686.9429932</ele>
        <time>2011-10-02T13:31:24Z</time>
      </trkpt>
      <trkpt lat="44.7463" lon="5.43408">
        <ele>684.4769897</ele>
        <time>2011-10-02T13:31:26Z</time>
      </trkpt>
      <trkpt lat="44.74628" lon="5.43376">
        <ele>679.4710083</ele>
        <time>2011-10-02T13:31:30Z</time>
      </trkpt>
      <trkpt lat="44.74623" lon="5.43363">
        <ele>676.4869995</ele>
        <time>2011-10-02T13:31:33Z</time>
      </trkpt>
      <trkpt lat="44.74611" lon="5.43356">
        <ele>673.3920288</ele>
        <time>2011-10-02T13:31:37Z</time>
      </trkpt>
      <trkpt lat="44.74606" lon="5.43355">
        <ele>672.0770264</ele>
        <time>2011-10-02T13:31:39Z</time>
      </trkpt>
      <trkpt lat="44.74596" lon="5.4335">
        <ele>669.9500122</ele>
        <time>2011-10-02T13:31:45Z</time>
      </trkpt>
      <trkpt lat="44.74589" lon="5.43339">
        <ele>669.0430298</ele>
        <time>2011-10-02T13:31:49Z</time>
      </trkpt>
      <trkpt lat="44.74589" lon="5.43337">
        <ele>667.6259766</ele>
        <time>2011-10-02T13:31:55Z</time>
      </trkpt>
      <trkpt lat="44.74602" lon="5.43341">
        <ele>666.3359985</ele>
        <time>2011-10-02T13:32:20Z</time>
      </trkpt>
      <trkpt lat="44.74604" lon="5.43341">
        <ele>666.4249878</ele>
        <time>2011-10-02T13:32:23Z</time>
      </trkpt>
      <trkpt lat="44.74607" lon="5.43332">
        <ele>666.1090088</ele>
        <time>2011-10-02T13:32:28Z</time>
      </trkpt>
      <trkpt lat="44.7461" lon="5.43328">
        <ele>665.6929932</ele>
        <time>2011-10-02T13:32:30Z</time>
      </trkpt>
      <trkpt lat="44.74614" lon="5.43301">
        <ele>664.6740112</ele>
        <time>2011-10-02T13:32:36Z</time>
      </trkpt>
      <trkpt lat="44.74624" lon="5.43287">
        <ele>664.4279785</ele>
        <time>2011-10-02T13:32:39Z</time>
      </trkpt>
      <trkpt lat="44.74628" lon="5.43284">
        <ele>664.2940063</ele>
        <time>2011-10-02T13:32:40Z</time>
      </trkpt>
      <trkpt lat="44.74643" lon="5.43269">
        <ele>664.2009888</ele>
        <time>2011-10-02T13:32:46Z</time>
      </trkpt>
      <trkpt lat="44.74649" lon="5.4325">
        <ele>664.5650024</ele>
        <time>2011-10-02T13:32:52Z</time>
      </trkpt>
      <trkpt lat="44.74652" lon="5.43238">
        <ele>664.6240234</ele>
        <time>2011-10-02T13:32:58Z</time>
      </trkpt>
      <trkpt lat="44.74653" lon="5.43238">
        <ele>664.3060303</ele>
        <time>2011-10-02T13:33:06Z</time>
      </trkpt>
      <trkpt lat="44.74654" lon="5.43239">
        <ele>663.973999</ele>
        <time>2011-10-02T13:33:25Z</time>
      </trkpt>
      <trkpt lat="44.74651" lon="5.43245">
        <ele>663.8410034</ele>
        <time>2011-10-02T13:33:29Z</time>
      </trkpt>
      <trkpt lat="44.74646" lon="5.43261">
        <ele>663.8469849</ele>
        <time>2011-10-02T13:33:36Z</time>
      </trkpt>
      <trkpt lat="44.74638" lon="5.43273">
        <ele>663.7490234</ele>
        <time>2011-10-02T13:33:41Z</time>
      </trkpt>
      <trkpt lat="44.74629" lon="5.43273">
        <ele>663.3980103</ele>
        <time>2011-10-02T13:33:45Z</time>
      </trkpt>
      <trkpt lat="44.74618" lon="5.43267">
        <ele>662.1010132</ele>
        <time>2011-10-02T13:33:50Z</time>
      </trkpt>
      <trkpt lat="44.746" lon="5.43258">
        <ele>660.1329956</ele>
        <time>2011-10-02T13:34:50Z</time>
      </trkpt>
      <trkpt lat="44.74604" lon="5.4325">
        <ele>660.3410034</ele>
        <time>2011-10-02T13:34:56Z</time>
      </trkpt>
      <trkpt lat="44.74601" lon="5.43238">
        <ele>659.6190186</ele>
        <time>2011-10-02T13:35:02Z</time>
      </trkpt>
      <trkpt lat="44.74591" lon="5.43229">
        <ele>658.4760132</ele>
        <time>2011-10-02T13:35:08Z</time>
      </trkpt>
      <trkpt lat="44.74581" lon="5.43224">
        <ele>658.0280151</ele>
        <time>2011-10-02T13:35:13Z</time>
      </trkpt>
      <trkpt lat="44.74578" lon="5.43222">
        <ele>657.7800293</ele>
        <time>2011-10-02T13:35:17Z</time>
      </trkpt>
      <trkpt lat="44.74577" lon="5.43216">
        <ele>657.6350098</ele>
        <time>2011-10-02T13:35:36Z</time>
      </trkpt>
      <trkpt lat="44.74588" lon="5.43233">
        <ele>657.9229736</ele>
        <time>2011-10-02T13:35:45Z</time>
      </trkpt>
      <trkpt lat="44.74592" lon="5.4324">
        <ele>658.2130127</ele>
        <time>2011-10-02T13:35:51Z</time>
      </trkpt>
      <trkpt lat="44.74608" lon="5.43241">
        <ele>657.3770142</ele>
        <time>2011-10-02T13:36:58Z</time>
      </trkpt>
      <trkpt lat="44.74582" lon="5.43232">
        <ele>657.117981</ele>
        <time>2011-10-02T13:38:33Z</time>
      </trkpt>
      <trkpt lat="44.74583" lon="5.4323">
        <ele>657.3720093</ele>
        <time>2011-10-02T13:38:36Z</time>
      </trkpt>
      <trkpt lat="44.74588" lon="5.43233">
        <ele>657.6359863</ele>
        <time>2011-10-02T13:38:42Z</time>
      </trkpt>
      <trkpt lat="44.74606" lon="5.43241">
        <ele>657.9890137</ele>
        <time>2011-10-02T13:40:15Z</time>
      </trkpt>
      <trkpt lat="44.74606" lon="5.43242">
        <ele>658.28302</ele>
        <time>2011-10-02T13:40:20Z</time>
      </trkpt>
      <trkpt lat="44.74611" lon="5.43251">
        <ele>659.177002</ele>
        <time>2011-10-02T13:40:27Z</time>
      </trkpt>
      <trkpt lat="44.74611" lon="5.43255">
        <ele>659.7420044</ele>
        <time>2011-10-02T13:40:32Z</time>
      </trkpt>
      <trkpt lat="44.74612" lon="5.43257">
        <ele>659.7709961</ele>
        <time>2011-10-02T13:40:33Z</time>
      </trkpt>
      <trkpt lat="44.7462" lon="5.43264">
        <ele>660.1420288</ele>
        <time>2011-10-02T13:40:37Z</time>
      </trkpt>
      <trkpt lat="44.74624" lon="5.43266">
        <ele>660.4329834</ele>
        <time>2011-10-02T13:40:39Z</time>
      </trkpt>
      <trkpt lat="44.74625" lon="5.43274">
        <ele>661.1099854</ele>
        <time>2011-10-02T13:40:43Z</time>
      </trkpt>
      <trkpt lat="44.74625" lon="5.43277">
        <ele>662.0310059</ele>
        <time>2011-10-02T13:40:48Z</time>
      </trkpt>
      <trkpt lat="44.74628" lon="5.43278">
        <ele>661.8959961</ele>
        <time>2011-10-02T13:41:14Z</time>
      </trkpt>
      <trkpt lat="44.74629" lon="5.4328">
        <ele>659.4439697</ele>
        <time>2011-10-02T13:45:26Z</time>
      </trkpt>
      <trkpt lat="44.74628" lon="5.43277">
        <ele>659.6500244</ele>
        <time>2011-10-02T13:45:32Z</time>
      </trkpt>
      <trkpt lat="44.74629" lon="5.43276">
        <ele>659.6849976</ele>
        <time>2011-10-02T13:45:37Z</time>
      </trkpt>
      <trkpt lat="44.7463" lon="5.43275">
        <ele>659.3049927</ele>
        <time>2011-10-02T13:45:44Z</time>
      </trkpt>
      <trkpt lat="44.74638" lon="5.43264">
        <ele>659.0560303</ele>
        <time>2011-10-02T13:45:51Z</time>
      </trkpt>
      <trkpt lat="44.74644" lon="5.43248">
        <ele>659.4279785</ele>
        <time>2011-10-02T13:45:58Z</time>
      </trkpt>
      <trkpt lat="44.7465" lon="5.43229">
        <ele>659.5079956</ele>
        <time>2011-10-02T13:46:05Z</time>
      </trkpt>
      <trkpt lat="44.74656" lon="5.43207">
        <ele>658.8040161</ele>
        <time>2011-10-02T13:46:10Z</time>
      </trkpt>
      <trkpt lat="44.74657" lon="5.43188">
        <ele>657.7689819</ele>
        <time>2011-10-02T13:46:15Z</time>
      </trkpt>
      <trkpt lat="44.74647" lon="5.43175">
        <ele>656.7329712</ele>
        <time>2011-10-02T13:46:19Z</time>
      </trkpt>
      <trkpt lat="44.74647" lon="5.43163">
        <ele>655.8610229</ele>
        <time>2011-10-02T13:46:22Z</time>
      </trkpt>
      <trkpt lat="44.74651" lon="5.43151">
        <ele>654.9310303</ele>
        <time>2011-10-02T13:46:27Z</time>
      </trkpt>
      <trkpt lat="44.74651" lon="5.43147">
        <ele>654.5570068</ele>
        <time>2011-10-02T13:46:35Z</time>
      </trkpt>
      <trkpt lat="44.74652" lon="5.43148">
        <ele>654.4699707</ele>
        <time>2011-10-02T13:46:40Z</time>
      </trkpt>
      <trkpt lat="44.74656" lon="5.43146">
        <ele>653.5689697</ele>
        <time>2011-10-02T13:47:05Z</time>
      </trkpt>
      <trkpt lat="44.74654" lon="5.43147">
        <ele>653.7550049</ele>
        <time>2011-10-02T13:47:08Z</time>
      </trkpt>
      <trkpt lat="44.74657" lon="5.43137">
        <ele>654.2540283</ele>
        <time>2011-10-02T13:47:13Z</time>
      </trkpt>
      <trkpt lat="44.7466" lon="5.43107">
        <ele>654.4509888</ele>
        <time>2011-10-02T13:47:18Z</time>
      </trkpt>
      <trkpt lat="44.7466" lon="5.43101">
        <ele>654.4730225</ele>
        <time>2011-10-02T13:47:19Z</time>
      </trkpt>
      <trkpt lat="44.74655" lon="5.43037">
        <ele>654.6900024</ele>
        <time>2011-10-02T13:47:28Z</time>
      </trkpt>
      <trkpt lat="44.74651" lon="5.43004">
        <ele>654.5960083</ele>
        <time>2011-10-02T13:47:33Z</time>
      </trkpt>
      <trkpt lat="44.74658" lon="5.42973">
        <ele>654.4069824</ele>
        <time>2011-10-02T13:47:39Z</time>
      </trkpt>
      <trkpt lat="44.74673" lon="5.42964">
        <ele>654.2249756</ele>
        <time>2011-10-02T13:47:43Z</time>
      </trkpt>
      <trkpt lat="44.74693" lon="5.42962">
        <ele>654.2839966</ele>
        <time>2011-10-02T13:47:48Z</time>
      </trkpt>
      <trkpt lat="44.74718" lon="5.42951">
        <ele>654.309021</ele>
        <time>2011-10-02T13:47:54Z</time>
      </trkpt>
      <trkpt lat="44.74742" lon="5.4294">
        <ele>653.9320068</ele>
        <time>2011-10-02T13:48:00Z</time>
      </trkpt>
      <trkpt lat="44.7477" lon="5.42943">
        <ele>652.9630127</ele>
        <time>2011-10-02T13:48:05Z</time>
      </trkpt>
      <trkpt lat="44.74783" lon="5.42949">
        <ele>652.3969727</ele>
        <time>2011-10-02T13:48:07Z</time>
      </trkpt>
      <trkpt lat="44.74795" lon="5.4296">
        <ele>651.8560181</ele>
        <time>2011-10-02T13:48:09Z</time>
      </trkpt>
      <trkpt lat="44.74811" lon="5.42957">
        <ele>651.0300293</ele>
        <time>2011-10-02T13:48:12Z</time>
      </trkpt>
      <trkpt lat="44.74815" lon="5.42935">
        <ele>650.5449829</ele>
        <time>2011-10-02T13:48:15Z</time>
      </trkpt>
      <trkpt lat="44.74807" lon="5.42912">
        <ele>650.3259888</ele>
        <time>2011-10-02T13:48:18Z</time>
      </trkpt>
      <trkpt lat="44.74812" lon="5.42896">
        <ele>650.5180054</ele>
        <time>2011-10-02T13:48:21Z</time>
      </trkpt>
      <trkpt lat="44.74824" lon="5.42892">
        <ele>650.8530273</ele>
        <time>2011-10-02T13:48:24Z</time>
      </trkpt>
      <trkpt lat="44.74831" lon="5.42888">
        <ele>651.3510132</ele>
        <time>2011-10-02T13:48:26Z</time>
      </trkpt>
      <trkpt lat="44.74852" lon="5.42869">
        <ele>653.5750122</ele>
        <time>2011-10-02T13:48:33Z</time>
      </trkpt>
      <trkpt lat="44.74852" lon="5.42867">
        <ele>653.9910278</ele>
        <time>2011-10-02T13:48:37Z</time>
      </trkpt>
      <trkpt lat="44.74855" lon="5.42867">
        <ele>653.7160034</ele>
        <time>2011-10-02T13:49:09Z</time>
      </trkpt>
      <trkpt lat="44.74866" lon="5.42859">
        <ele>654.6270142</ele>
        <time>2011-10-02T13:49:15Z</time>
      </trkpt>
      <trkpt lat="44.74883" lon="5.42849">
        <ele>655.3239746</ele>
        <time>2011-10-02T13:49:22Z</time>
      </trkpt>
      <trkpt lat="44.74895" lon="5.42843">
        <ele>656.3510132</ele>
        <time>2011-10-02T13:49:28Z</time>
      </trkpt>
      <trkpt lat="44.74909" lon="5.42826">
        <ele>656.8870239</ele>
        <time>2011-10-02T13:49:35Z</time>
      </trkpt>
      <trkpt lat="44.74919" lon="5.42809">
        <ele>656.0040283</ele>
        <time>2011-10-02T13:49:40Z</time>
      </trkpt>
      <trkpt lat="44.7492" lon="5.42795">
        <ele>655.0819702</ele>
        <time>2011-10-02T13:49:47Z</time>
      </trkpt>
      <trkpt lat="44.74918" lon="5.42788">
        <ele>654.9370117</ele>
        <time>2011-10-02T13:49:52Z</time>
      </trkpt>
      <trkpt lat="44.74922" lon="5.42793">
        <ele>654.5219727</ele>
        <time>2011-10-02T13:50:30Z</time>
      </trkpt>
      <trkpt lat="44.74922" lon="5.42794">
        <ele>654.53302</ele>
        <time>2011-10-02T13:50:37Z</time>
      </trkpt>
      <trkpt lat="44.74925" lon="5.42795">
        <ele>653.5809937</ele>
        <time>2011-10-02T13:52:22Z</time>
      </trkpt>
      <trkpt lat="44.74921" lon="5.42787">
        <ele>653.8170166</ele>
        <time>2011-10-02T13:52:28Z</time>
      </trkpt>
      <trkpt lat="44.74921" lon="5.42773">
        <ele>654.3590088</ele>
        <time>2011-10-02T13:52:33Z</time>
      </trkpt>
      <trkpt lat="44.74921" lon="5.42763">
        <ele>655.4799805</ele>
        <time>2011-10-02T13:52:37Z</time>
      </trkpt>
      <trkpt lat="44.74923" lon="5.42755">
        <ele>656.84198</ele>
        <time>2011-10-02T13:52:41Z</time>
      </trkpt>
      <trkpt lat="44.74928" lon="5.4274">
        <ele>659.0960083</ele>
        <time>2011-10-02T13:52:49Z</time>
      </trkpt>
      <trkpt lat="44.74934" lon="5.42725">
        <ele>660.6370239</ele>
        <time>2011-10-02T13:52:57Z</time>
      </trkpt>
      <trkpt lat="44.7494" lon="5.42712">
        <ele>662.3200073</ele>
        <time>2011-10-02T13:53:05Z</time>
      </trkpt>
      <trkpt lat="44.74949" lon="5.42699">
        <ele>664.0100098</ele>
        <time>2011-10-02T13:53:14Z</time>
      </trkpt>
      <trkpt lat="44.74956" lon="5.42689">
        <ele>665.7639771</ele>
        <time>2011-10-02T13:53:21Z</time>
      </trkpt>
      <trkpt lat="44.74964" lon="5.4268">
        <ele>667.0360107</ele>
        <time>2011-10-02T13:53:29Z</time>
      </trkpt>
      <trkpt lat="44.74971" lon="5.42669">
        <ele>669.1640015</ele>
        <time>2011-10-02T13:53:38Z</time>
      </trkpt>
      <trkpt lat="44.7498" lon="5.42662">
        <ele>670.651001</ele>
        <time>2011-10-02T13:53:46Z</time>
      </trkpt>
      <trkpt lat="44.74981" lon="5.42662">
        <ele>670.9619751</ele>
        <time>2011-10-02T13:53:47Z</time>
      </trkpt>
      <trkpt lat="44.74989" lon="5.42655">
        <ele>673.2479858</ele>
        <time>2011-10-02T13:53:55Z</time>
      </trkpt>
      <trkpt lat="44.74995" lon="5.42648">
        <ele>675.3060303</ele>
        <time>2011-10-02T13:54:03Z</time>
      </trkpt>
      <trkpt lat="44.75001" lon="5.42644">
        <ele>677.1409912</ele>
        <time>2011-10-02T13:54:09Z</time>
      </trkpt>
      <trkpt lat="44.75011" lon="5.4264">
        <ele>678.9680176</ele>
        <time>2011-10-02T13:54:17Z</time>
      </trkpt>
      <trkpt lat="44.75021" lon="5.42637">
        <ele>680.7949829</ele>
        <time>2011-10-02T13:54:25Z</time>
      </trkpt>
      <trkpt lat="44.7503" lon="5.42637">
        <ele>682.1469727</ele>
        <time>2011-10-02T13:54:32Z</time>
      </trkpt>
      <trkpt lat="44.75038" lon="5.42635">
        <ele>683.4509888</ele>
        <time>2011-10-02T13:54:39Z</time>
      </trkpt>
      <trkpt lat="44.75042" lon="5.42633">
        <ele>684.2839966</ele>
        <time>2011-10-02T13:54:43Z</time>
      </trkpt>
      <trkpt lat="44.75046" lon="5.42632">
        <ele>684.9860229</ele>
        <time>2011-10-02T13:54:46Z</time>
      </trkpt>
      <trkpt lat="44.75048" lon="5.42631">
        <ele>685.4039917</ele>
        <time>2011-10-02T13:54:48Z</time>
      </trkpt>
      <trkpt lat="44.75049" lon="5.42627">
        <ele>686.059021</ele>
        <time>2011-10-02T13:54:51Z</time>
      </trkpt>
      <trkpt lat="44.75048" lon="5.42613">
        <ele>687.6380005</ele>
        <time>2011-10-02T13:54:59Z</time>
      </trkpt>
      <trkpt lat="44.75046" lon="5.42608">
        <ele>688.3430176</ele>
        <time>2011-10-02T13:55:02Z</time>
      </trkpt>
      <trkpt lat="44.75039" lon="5.42595">
        <ele>690.6279907</ele>
        <time>2011-10-02T13:55:12Z</time>
      </trkpt>
      <trkpt lat="44.75032" lon="5.42585">
        <ele>692.6090088</ele>
        <time>2011-10-02T13:55:20Z</time>
      </trkpt>
      <trkpt lat="44.75024" lon="5.42578">
        <ele>693.9509888</ele>
        <time>2011-10-02T13:55:28Z</time>
      </trkpt>
      <trkpt lat="44.75018" lon="5.42567">
        <ele>695.026001</ele>
        <time>2011-10-02T13:55:36Z</time>
      </trkpt>
      <trkpt lat="44.75019" lon="5.42555">
        <ele>696.2639771</ele>
        <time>2011-10-02T13:55:43Z</time>
      </trkpt>
      <trkpt lat="44.75024" lon="5.42538">
        <ele>698.0180054</ele>
        <time>2011-10-02T13:55:53Z</time>
      </trkpt>
      <trkpt lat="44.7503" lon="5.42522">
        <ele>699.2109985</ele>
        <time>2011-10-02T13:56:01Z</time>
      </trkpt>
      <trkpt lat="44.75031" lon="5.42506">
        <ele>700.8740234</ele>
        <time>2011-10-02T13:56:09Z</time>
      </trkpt>
      <trkpt lat="44.75033" lon="5.42493">
        <ele>701.7839966</ele>
        <time>2011-10-02T13:56:16Z</time>
      </trkpt>
      <trkpt lat="44.75037" lon="5.42478">
        <ele>703.3540039</ele>
        <time>2011-10-02T13:56:24Z</time>
      </trkpt>
      <trkpt lat="44.75045" lon="5.42465">
        <ele>704.6929932</ele>
        <time>2011-10-02T13:56:32Z</time>
      </trkpt>
      <trkpt lat="44.7505" lon="5.4245">
        <ele>705.6929932</ele>
        <time>2011-10-02T13:56:39Z</time>
      </trkpt>
      <trkpt lat="44.75055" lon="5.4243">
        <ele>706.3220215</ele>
        <time>2011-10-02T13:56:46Z</time>
      </trkpt>
      <trkpt lat="44.75061" lon="5.42415">
        <ele>706.9639893</ele>
        <time>2011-10-02T13:56:53Z</time>
      </trkpt>
      <trkpt lat="44.75069" lon="5.42395">
        <ele>707.4459839</ele>
        <time>2011-10-02T13:57:00Z</time>
      </trkpt>
      <trkpt lat="44.75073" lon="5.42365">
        <ele>707.3649902</ele>
        <time>2011-10-02T13:57:08Z</time>
      </trkpt>
      <trkpt lat="44.75072" lon="5.42336">
        <ele>707.7349854</ele>
        <time>2011-10-02T13:57:16Z</time>
      </trkpt>
      <trkpt lat="44.75072" lon="5.42313">
        <ele>709.3909912</ele>
        <time>2011-10-02T13:57:24Z</time>
      </trkpt>
      <trkpt lat="44.75073" lon="5.42296">
        <ele>711.0219727</ele>
        <time>2011-10-02T13:57:31Z</time>
      </trkpt>
      <trkpt lat="44.75078" lon="5.42279">
        <ele>713.1099854</ele>
        <time>2011-10-02T13:57:39Z</time>
      </trkpt>
      <trkpt lat="44.75083" lon="5.42257">
        <ele>715.7960205</ele>
        <time>2011-10-02T13:57:49Z</time>
      </trkpt>
      <trkpt lat="44.75085" lon="5.42241">
        <ele>717.2080078</ele>
        <time>2011-10-02T13:57:56Z</time>
      </trkpt>
      <trkpt lat="44.75089" lon="5.42222">
        <ele>718.2910156</ele>
        <time>2011-10-02T13:58:06Z</time>
      </trkpt>
      <trkpt lat="44.75086" lon="5.42207">
        <ele>719.1989746</ele>
        <time>2011-10-02T13:58:13Z</time>
      </trkpt>
      <trkpt lat="44.75082" lon="5.42194">
        <ele>721.0170288</ele>
        <time>2011-10-02T13:58:20Z</time>
      </trkpt>
      <trkpt lat="44.75076" lon="5.42181">
        <ele>722.8280029</ele>
        <time>2011-10-02T13:58:28Z</time>
      </trkpt>
      <trkpt lat="44.7507" lon="5.4217">
        <ele>724.5300293</ele>
        <time>2011-10-02T13:58:35Z</time>
      </trkpt>
      <trkpt lat="44.75062" lon="5.4216">
        <ele>726.4279785</ele>
        <time>2011-10-02T13:58:43Z</time>
      </trkpt>
      <trkpt lat="44.75054" lon="5.42151">
        <ele>727.78302</ele>
        <time>2011-10-02T13:58:50Z</time>
      </trkpt>
      <trkpt lat="44.75044" lon="5.42143">
        <ele>728.2349854</ele>
        <time>2011-10-02T13:58:57Z</time>
      </trkpt>
      <trkpt lat="44.7503" lon="5.42135">
        <ele>728.3920288</ele>
        <time>2011-10-02T13:59:05Z</time>
      </trkpt>
      <trkpt lat="44.75019" lon="5.42129">
        <ele>728.1799927</ele>
        <time>2011-10-02T13:59:10Z</time>
      </trkpt>
      <trkpt lat="44.75003" lon="5.42122">
        <ele>728.6589966</ele>
        <time>2011-10-02T13:59:17Z</time>
      </trkpt>
      <trkpt lat="44.74986" lon="5.42124">
        <ele>730.3170166</ele>
        <time>2011-10-02T13:59:24Z</time>
      </trkpt>
      <trkpt lat="44.7497" lon="5.4212">
        <ele>731.1619873</ele>
        <time>2011-10-02T13:59:31Z</time>
      </trkpt>
      <trkpt lat="44.74965" lon="5.4212">
        <ele>731.1950073</ele>
        <time>2011-10-02T13:59:33Z</time>
      </trkpt>
      <trkpt lat="44.74964" lon="5.42107">
        <ele>730.8720093</ele>
        <time>2011-10-02T13:59:38Z</time>
      </trkpt>
      <trkpt lat="44.74964" lon="5.42103">
        <ele>730.723999</ele>
        <time>2011-10-02T13:59:40Z</time>
      </trkpt>
      <trkpt lat="44.74963" lon="5.42085">
        <ele>729.2340088</ele>
        <time>2011-10-02T13:59:46Z</time>
      </trkpt>
      <trkpt lat="44.74969" lon="5.42072">
        <ele>727.1370239</ele>
        <time>2011-10-02T13:59:51Z</time>
      </trkpt>
      <trkpt lat="44.74969" lon="5.42061">
        <ele>724.8519897</ele>
        <time>2011-10-02T14:00:30Z</time>
      </trkpt>
      <trkpt lat="44.74982" lon="5.42035">
        <ele>723.6640015</ele>
        <time>2011-10-02T14:00:35Z</time>
      </trkpt>
      <trkpt lat="44.74989" lon="5.42019">
        <ele>723.065979</ele>
        <time>2011-10-02T14:00:39Z</time>
      </trkpt>
      <trkpt lat="44.74998" lon="5.42003">
        <ele>723.4110107</ele>
        <time>2011-10-02T14:00:44Z</time>
      </trkpt>
      <trkpt lat="44.75009" lon="5.41986">
        <ele>724.6060181</ele>
        <time>2011-10-02T14:00:51Z</time>
      </trkpt>
      <trkpt lat="44.75025" lon="5.41967">
        <ele>725.7609863</ele>
        <time>2011-10-02T14:00:59Z</time>
      </trkpt>
      <trkpt lat="44.75039" lon="5.41953">
        <ele>726.3319702</ele>
        <time>2011-10-02T14:01:07Z</time>
      </trkpt>
      <trkpt lat="44.75042" lon="5.41949">
        <ele>726.6469727</ele>
        <time>2011-10-02T14:01:11Z</time>
      </trkpt>
      <trkpt lat="44.75051" lon="5.41934">
        <ele>727.3410034</ele>
        <time>2011-10-02T14:01:21Z</time>
      </trkpt>
      <trkpt lat="44.75054" lon="5.41932">
        <ele>727.6190186</ele>
        <time>2011-10-02T14:01:28Z</time>
      </trkpt>
      <trkpt lat="44.75057" lon="5.41927">
        <ele>727.3619995</ele>
        <time>2011-10-02T14:01:47Z</time>
      </trkpt>
      <trkpt lat="44.75058" lon="5.41923">
        <ele>727.5549927</ele>
        <time>2011-10-02T14:01:52Z</time>
      </trkpt>
      <trkpt lat="44.75056" lon="5.41923">
        <ele>727.0880127</ele>
        <time>2011-10-02T14:02:08Z</time>
      </trkpt>
      <trkpt lat="44.75063" lon="5.41922">
        <ele>727.098999</ele>
        <time>2011-10-02T14:02:12Z</time>
      </trkpt>
      <trkpt lat="44.75081" lon="5.41916">
        <ele>727.2109985</ele>
        <time>2011-10-02T14:02:20Z</time>
      </trkpt>
      <trkpt lat="44.75109" lon="5.41904">
        <ele>726.4229736</ele>
        <time>2011-10-02T14:02:29Z</time>
      </trkpt>
      <trkpt lat="44.75119" lon="5.41897">
        <ele>725.8330078</ele>
        <time>2011-10-02T14:02:34Z</time>
      </trkpt>
      <trkpt lat="44.75125" lon="5.41892">
        <ele>725.3800049</ele>
        <time>2011-10-02T14:02:41Z</time>
      </trkpt>
      <trkpt lat="44.75126" lon="5.41889">
        <ele>725.0689697</ele>
        <time>2011-10-02T14:02:49Z</time>
      </trkpt>
      <trkpt lat="44.75126" lon="5.41888">
        <ele>725.1220093</ele>
        <time>2011-10-02T14:02:51Z</time>
      </trkpt>
      <trkpt lat="44.75122" lon="5.41884">
        <ele>725.71698</ele>
        <time>2011-10-02T14:02:59Z</time>
      </trkpt>
      <trkpt lat="44.75119" lon="5.41883">
        <ele>726.2050171</ele>
        <time>2011-10-02T14:03:08Z</time>
      </trkpt>
      <trkpt lat="44.75119" lon="5.41883">
        <ele>726.4390259</ele>
        <time>2011-10-02T14:03:24Z</time>
      </trkpt>
      <trkpt lat="44.75113" lon="5.41878">
        <ele>726.572998</ele>
        <time>2011-10-02T14:03:29Z</time>
      </trkpt>
      <trkpt lat="44.75101" lon="5.4187">
        <ele>728.3540039</ele>
        <time>2011-10-02T14:03:38Z</time>
      </trkpt>
      <trkpt lat="44.75089" lon="5.41861">
        <ele>730.1890259</ele>
        <time>2011-10-02T14:03:48Z</time>
      </trkpt>
      <trkpt lat="44.75076" lon="5.41851">
        <ele>731.6719971</ele>
        <time>2011-10-02T14:03:58Z</time>
      </trkpt>
      <trkpt lat="44.75063" lon="5.41844">
        <ele>733.4699707</ele>
        <time>2011-10-02T14:04:08Z</time>
      </trkpt>
      <trkpt lat="44.75056" lon="5.41837">
        <ele>734.3740234</ele>
        <time>2011-10-02T14:04:14Z</time>
      </trkpt>
      <trkpt lat="44.75054" lon="5.41829">
        <ele>735.6690063</ele>
        <time>2011-10-02T14:04:21Z</time>
      </trkpt>
      <trkpt lat="44.75053" lon="5.41822">
        <ele>737.0020142</ele>
        <time>2011-10-02T14:04:27Z</time>
      </trkpt>
      <trkpt lat="44.75051" lon="5.41819">
        <ele>738.3359985</ele>
        <time>2011-10-02T14:04:33Z</time>
      </trkpt>
      <trkpt lat="44.75048" lon="5.41814">
        <ele>739.3209839</ele>
        <time>2011-10-02T14:04:39Z</time>
      </trkpt>
      <trkpt lat="44.75043" lon="5.41811">
        <ele>740.6350098</ele>
        <time>2011-10-02T14:04:47Z</time>
      </trkpt>
      <trkpt lat="44.75043" lon="5.41808">
        <ele>741.427002</ele>
        <time>2011-10-02T14:04:53Z</time>
      </trkpt>
      <trkpt lat="44.75044" lon="5.41808">
        <ele>741.4249878</ele>
        <time>2011-10-02T14:04:58Z</time>
      </trkpt>
      <trkpt lat="44.7505" lon="5.41805">
        <ele>741.6569824</ele>
        <time>2011-10-02T14:05:03Z</time>
      </trkpt>
      <trkpt lat="44.75065" lon="5.41801">
        <ele>742.8790283</ele>
        <time>2011-10-02T14:05:11Z</time>
      </trkpt>
      <trkpt lat="44.75075" lon="5.41792">
        <ele>744.5100098</ele>
        <time>2011-10-02T14:05:18Z</time>
      </trkpt>
      <trkpt lat="44.75083" lon="5.41786">
        <ele>745.7089844</ele>
        <time>2011-10-02T14:05:24Z</time>
      </trkpt>
      <trkpt lat="44.75088" lon="5.4178">
        <ele>746.3359985</ele>
        <time>2011-10-02T14:05:32Z</time>
      </trkpt>
      <trkpt lat="44.75089" lon="5.41775">
        <ele>745.5759888</ele>
        <time>2011-10-02T14:11:51Z</time>
      </trkpt>
      <trkpt lat="44.75092" lon="5.41775">
        <ele>745.2719727</ele>
        <time>2011-10-02T14:13:16Z</time>
      </trkpt>
      <trkpt lat="44.75086" lon="5.41776">
        <ele>744.9370117</ele>
        <time>2011-10-02T14:14:32Z</time>
      </trkpt>
      <trkpt lat="44.75096" lon="5.41784">
        <ele>744.2520142</ele>
        <time>2011-10-02T14:14:38Z</time>
      </trkpt>
      <trkpt lat="44.75109" lon="5.41802">
        <ele>740.8800049</ele>
        <time>2011-10-02T14:14:44Z</time>
      </trkpt>
      <trkpt lat="44.75114" lon="5.41808">
        <ele>739.3599854</ele>
        <time>2011-10-02T14:14:46Z</time>
      </trkpt>
      <trkpt lat="44.75133" lon="5.41804">
        <ele>736.7479858</ele>
        <time>2011-10-02T14:14:51Z</time>
      </trkpt>
      <trkpt lat="44.75144" lon="5.41799">
        <ele>735.5089722</ele>
        <time>2011-10-02T14:14:54Z</time>
      </trkpt>
      <trkpt lat="44.75162" lon="5.41791">
        <ele>734.9459839</ele>
        <time>2011-10-02T14:15:00Z</time>
      </trkpt>
      <trkpt lat="44.75186" lon="5.41786">
        <ele>733.3670044</ele>
        <time>2011-10-02T14:15:05Z</time>
      </trkpt>
      <trkpt lat="44.75195" lon="5.41777">
        <ele>731.5230103</ele>
        <time>2011-10-02T14:15:08Z</time>
      </trkpt>
      <trkpt lat="44.75201" lon="5.41783">
        <ele>729.4539795</ele>
        <time>2011-10-02T14:15:11Z</time>
      </trkpt>
      <trkpt lat="44.75208" lon="5.41784">
        <ele>726.8049927</ele>
        <time>2011-10-02T14:15:15Z</time>
      </trkpt>
      <trkpt lat="44.7521" lon="5.41777">
        <ele>726.1829834</ele>
        <time>2011-10-02T14:15:17Z</time>
      </trkpt>
      <trkpt lat="44.75211" lon="5.41765">
        <ele>724.8909912</ele>
        <time>2011-10-02T14:15:21Z</time>
      </trkpt>
      <trkpt lat="44.75216" lon="5.41749">
        <ele>725.2360229</ele>
        <time>2011-10-02T14:15:26Z</time>
      </trkpt>
      <trkpt lat="44.7522" lon="5.41739">
        <ele>725.6430054</ele>
        <time>2011-10-02T14:15:30Z</time>
      </trkpt>
      <trkpt lat="44.75227" lon="5.41729">
        <ele>725.9260254</ele>
        <time>2011-10-02T14:15:34Z</time>
      </trkpt>
      <trkpt lat="44.7523" lon="5.41725">
        <ele>725.8670044</ele>
        <time>2011-10-02T14:15:35Z</time>
      </trkpt>
      <trkpt lat="44.75248" lon="5.41715">
        <ele>724.9450073</ele>
        <time>2011-10-02T14:15:39Z</time>
      </trkpt>
      <trkpt lat="44.75258" lon="5.41709">
        <ele>724.6400146</ele>
        <time>2011-10-02T14:15:41Z</time>
      </trkpt>
      <trkpt lat="44.75273" lon="5.41689">
        <ele>723.875</ele>
        <time>2011-10-02T14:15:46Z</time>
      </trkpt>
      <trkpt lat="44.75284" lon="5.4167">
        <ele>723.9580078</ele>
        <time>2011-10-02T14:15:51Z</time>
      </trkpt>
      <trkpt lat="44.75298" lon="5.41645">
        <ele>724.4130249</ele>
        <time>2011-10-02T14:15:57Z</time>
      </trkpt>
      <trkpt lat="44.7531" lon="5.41632">
        <ele>724.3430176</ele>
        <time>2011-10-02T14:16:01Z</time>
      </trkpt>
      <trkpt lat="44.7533" lon="5.41615">
        <ele>722.9520264</ele>
        <time>2011-10-02T14:16:07Z</time>
      </trkpt>
      <trkpt lat="44.7534" lon="5.41614">
        <ele>722.6079712</ele>
        <time>2011-10-02T14:16:10Z</time>
      </trkpt>
      <trkpt lat="44.75357" lon="5.41628">
        <ele>721.5689697</ele>
        <time>2011-10-02T14:16:14Z</time>
      </trkpt>
      <trkpt lat="44.75364" lon="5.41629">
        <ele>720.3540039</ele>
        <time>2011-10-02T14:16:17Z</time>
      </trkpt>
      <trkpt lat="44.75365" lon="5.41616">
        <ele>719.1309814</ele>
        <time>2011-10-02T14:16:20Z</time>
      </trkpt>
      <trkpt lat="44.75364" lon="5.41574">
        <ele>717.2670288</ele>
        <time>2011-10-02T14:16:26Z</time>
      </trkpt>
      <trkpt lat="44.75376" lon="5.41543">
        <ele>715.5689697</ele>
        <time>2011-10-02T14:16:31Z</time>
      </trkpt>
      <trkpt lat="44.75391" lon="5.41531">
        <ele>714.9060059</ele>
        <time>2011-10-02T14:16:36Z</time>
      </trkpt>
      <trkpt lat="44.75397" lon="5.41525">
        <ele>715.6110229</ele>
        <time>2011-10-02T14:16:39Z</time>
      </trkpt>
      <trkpt lat="44.754" lon="5.41511">
        <ele>717.8469849</ele>
        <time>2011-10-02T14:16:45Z</time>
      </trkpt>
      <trkpt lat="44.75407" lon="5.41486">
        <ele>717.7659912</ele>
        <time>2011-10-02T14:16:49Z</time>
      </trkpt>
      <trkpt lat="44.75409" lon="5.41468">
        <ele>716.7869873</ele>
        <time>2011-10-02T14:16:51Z</time>
      </trkpt>
      <trkpt lat="44.7541" lon="5.4144">
        <ele>713.5640259</ele>
        <time>2011-10-02T14:16:55Z</time>
      </trkpt>
      <trkpt lat="44.75412" lon="5.41427">
        <ele>712.5720215</ele>
        <time>2011-10-02T14:16:58Z</time>
      </trkpt>
      <trkpt lat="44.75417" lon="5.41408">
        <ele>713.2030029</ele>
        <time>2011-10-02T14:17:05Z</time>
      </trkpt>
      <trkpt lat="44.75422" lon="5.41397">
        <ele>714.4990234</ele>
        <time>2011-10-02T14:17:11Z</time>
      </trkpt>
      <trkpt lat="44.75423" lon="5.41385">
        <ele>715.9680176</ele>
        <time>2011-10-02T14:17:17Z</time>
      </trkpt>
      <trkpt lat="44.75423" lon="5.41379">
        <ele>716.8519897</ele>
        <time>2011-10-02T14:17:20Z</time>
      </trkpt>
      <trkpt lat="44.75423" lon="5.41376">
        <ele>717.367981</ele>
        <time>2011-10-02T14:17:26Z</time>
      </trkpt>
      <trkpt lat="44.75423" lon="5.41376">
        <ele>717.2459717</ele>
        <time>2011-10-02T14:17:27Z</time>
      </trkpt>
      <trkpt lat="44.75425" lon="5.41375">
        <ele>716.9390259</ele>
        <time>2011-10-02T14:17:30Z</time>
      </trkpt>
      <trkpt lat="44.75435" lon="5.41379">
        <ele>716.5139771</ele>
        <time>2011-10-02T14:17:37Z</time>
      </trkpt>
      <trkpt lat="44.75444" lon="5.41379">
        <ele>717.6810303</ele>
        <time>2011-10-02T14:17:43Z</time>
      </trkpt>
      <trkpt lat="44.75454" lon="5.41385">
        <ele>718.8120117</ele>
        <time>2011-10-02T14:17:49Z</time>
      </trkpt>
      <trkpt lat="44.7546" lon="5.41388">
        <ele>718.8720093</ele>
        <time>2011-10-02T14:17:52Z</time>
      </trkpt>
      <trkpt lat="44.75471" lon="5.41389">
        <ele>718.3010254</ele>
        <time>2011-10-02T14:17:57Z</time>
      </trkpt>
      <trkpt lat="44.75477" lon="5.41397">
        <ele>717.9219971</ele>
        <time>2011-10-02T14:18:02Z</time>
      </trkpt>
      <trkpt lat="44.75484" lon="5.41402">
        <ele>717.552002</ele>
        <time>2011-10-02T14:18:06Z</time>
      </trkpt>
      <trkpt lat="44.75486" lon="5.41402">
        <ele>717.4299927</ele>
        <time>2011-10-02T14:18:07Z</time>
      </trkpt>
      <trkpt lat="44.75495" lon="5.41403">
        <ele>717.5460205</ele>
        <time>2011-10-02T14:18:12Z</time>
      </trkpt>
      <trkpt lat="44.75503" lon="5.41397">
        <ele>717.8920288</ele>
        <time>2011-10-02T14:18:17Z</time>
      </trkpt>
      <trkpt lat="44.75512" lon="5.41388">
        <ele>718.3339844</ele>
        <time>2011-10-02T14:18:21Z</time>
      </trkpt>
      <trkpt lat="44.75517" lon="5.41376">
        <ele>719.8779907</ele>
        <time>2011-10-02T14:18:27Z</time>
      </trkpt>
      <trkpt lat="44.75524" lon="5.41363">
        <ele>721.4320068</ele>
        <time>2011-10-02T14:18:33Z</time>
      </trkpt>
      <trkpt lat="44.75532" lon="5.41354">
        <ele>721.8449707</ele>
        <time>2011-10-02T14:18:38Z</time>
      </trkpt>
      <trkpt lat="44.75541" lon="5.41339">
        <ele>722.5339966</ele>
        <time>2011-10-02T14:18:44Z</time>
      </trkpt>
      <trkpt lat="44.75541" lon="5.41335">
        <ele>723.1939697</ele>
        <time>2011-10-02T14:18:46Z</time>
      </trkpt>
      <trkpt lat="44.75546" lon="5.4132">
        <ele>724.7789917</ele>
        <time>2011-10-02T14:18:52Z</time>
      </trkpt>
      <trkpt lat="44.75552" lon="5.41305">
        <ele>724.5219727</ele>
        <time>2011-10-02T14:18:56Z</time>
      </trkpt>
      <trkpt lat="44.75563" lon="5.41285">
        <ele>723.3549805</ele>
        <time>2011-10-02T14:19:01Z</time>
      </trkpt>
      <trkpt lat="44.75568" lon="5.41278">
        <ele>723.4249878</ele>
        <time>2011-10-02T14:19:05Z</time>
      </trkpt>
      <trkpt lat="44.75579" lon="5.41272">
        <ele>723.8209839</ele>
        <time>2011-10-02T14:19:09Z</time>
      </trkpt>
      <trkpt lat="44.75589" lon="5.41276">
        <ele>724.8770142</ele>
        <time>2011-10-02T14:19:16Z</time>
      </trkpt>
      <trkpt lat="44.75599" lon="5.41276">
        <ele>725.5269775</ele>
        <time>2011-10-02T14:19:22Z</time>
      </trkpt>
      <trkpt lat="44.75605" lon="5.41276">
        <ele>727.2670288</ele>
        <time>2011-10-02T14:19:28Z</time>
      </trkpt>
      <trkpt lat="44.75614" lon="5.4128">
        <ele>729.3699951</ele>
        <time>2011-10-02T14:19:34Z</time>
      </trkpt>
      <trkpt lat="44.75624" lon="5.41289">
        <ele>730.2839966</ele>
        <time>2011-10-02T14:19:41Z</time>
      </trkpt>
      <trkpt lat="44.75635" lon="5.41291">
        <ele>731.9279785</ele>
        <time>2011-10-02T14:19:49Z</time>
      </trkpt>
      <trkpt lat="44.75644" lon="5.41293">
        <ele>732.2540283</ele>
        <time>2011-10-02T14:19:55Z</time>
      </trkpt>
      <trkpt lat="44.75653" lon="5.41292">
        <ele>732.4660034</ele>
        <time>2011-10-02T14:20:00Z</time>
      </trkpt>
      <trkpt lat="44.75668" lon="5.4129">
        <ele>733.9559937</ele>
        <time>2011-10-02T14:20:08Z</time>
      </trkpt>
      <trkpt lat="44.75681" lon="5.41285">
        <ele>734.1810303</ele>
        <time>2011-10-02T14:20:14Z</time>
      </trkpt>
      <trkpt lat="44.75687" lon="5.41279">
        <ele>734.4710083</ele>
        <time>2011-10-02T14:20:19Z</time>
      </trkpt>
      <trkpt lat="44.75688" lon="5.41277">
        <ele>734.4719849</ele>
        <time>2011-10-02T14:20:20Z</time>
      </trkpt>
      <trkpt lat="44.75695" lon="5.41271">
        <ele>735.5999756</ele>
        <time>2011-10-02T14:20:27Z</time>
      </trkpt>
      <trkpt lat="44.75702" lon="5.41268">
        <ele>735.815979</ele>
        <time>2011-10-02T14:20:30Z</time>
      </trkpt>
      <trkpt lat="44.75715" lon="5.41268">
        <ele>735.0629883</ele>
        <time>2011-10-02T14:20:35Z</time>
      </trkpt>
      <trkpt lat="44.75719" lon="5.41275">
        <ele>734.3270264</ele>
        <time>2011-10-02T14:20:38Z</time>
      </trkpt>
      <trkpt lat="44.7572" lon="5.41277">
        <ele>734.2470093</ele>
        <time>2011-10-02T14:20:39Z</time>
      </trkpt>
      <trkpt lat="44.7573" lon="5.41291">
        <ele>734.9890137</ele>
        <time>2011-10-02T14:20:47Z</time>
      </trkpt>
      <trkpt lat="44.75742" lon="5.413">
        <ele>736.7319946</ele>
        <time>2011-10-02T14:20:55Z</time>
      </trkpt>
      <trkpt lat="44.75748" lon="5.41311">
        <ele>737.6350098</ele>
        <time>2011-10-02T14:21:01Z</time>
      </trkpt>
      <trkpt lat="44.75757" lon="5.41318">
        <ele>738.5750122</ele>
        <time>2011-10-02T14:21:08Z</time>
      </trkpt>
      <trkpt lat="44.75764" lon="5.4132">
        <ele>739.5170288</ele>
        <time>2011-10-02T14:21:13Z</time>
      </trkpt>
      <trkpt lat="44.75767" lon="5.41321">
        <ele>739.8660278</ele>
        <time>2011-10-02T14:21:15Z</time>
      </trkpt>
      <trkpt lat="44.75777" lon="5.41327">
        <ele>739.9920044</ele>
        <time>2011-10-02T14:21:20Z</time>
      </trkpt>
      <trkpt lat="44.75787" lon="5.41324">
        <ele>740.0910034</ele>
        <time>2011-10-02T14:21:25Z</time>
      </trkpt>
      <trkpt lat="44.75801" lon="5.41317">
        <ele>740.6929932</ele>
        <time>2011-10-02T14:21:31Z</time>
      </trkpt>
      <trkpt lat="44.75818" lon="5.41308">
        <ele>740.7410278</ele>
        <time>2011-10-02T14:21:38Z</time>
      </trkpt>
      <trkpt lat="44.75836" lon="5.41301">
        <ele>740.6669922</ele>
        <time>2011-10-02T14:21:43Z</time>
      </trkpt>
      <trkpt lat="44.75851" lon="5.41296">
        <ele>740.1589966</ele>
        <time>2011-10-02T14:21:47Z</time>
      </trkpt>
      <trkpt lat="44.75872" lon="5.41281">
        <ele>738.776001</ele>
        <time>2011-10-02T14:21:52Z</time>
      </trkpt>
      <trkpt lat="44.75876" lon="5.41277">
        <ele>738.5</ele>
        <time>2011-10-02T14:21:53Z</time>
      </trkpt>
      <trkpt lat="44.75898" lon="5.41258">
        <ele>738.15802</ele>
        <time>2011-10-02T14:21:59Z</time>
      </trkpt>
      <trkpt lat="44.75916" lon="5.41239">
        <ele>737.5830078</ele>
        <time>2011-10-02T14:22:03Z</time>
      </trkpt>
      <trkpt lat="44.75928" lon="5.41229">
        <ele>736.1060181</ele>
        <time>2011-10-02T14:22:06Z</time>
      </trkpt>
      <trkpt lat="44.75932" lon="5.41221">
        <ele>734.539978</ele>
        <time>2011-10-02T14:22:09Z</time>
      </trkpt>
      <trkpt lat="44.75938" lon="5.41225">
        <ele>734.098999</ele>
        <time>2011-10-02T14:22:12Z</time>
      </trkpt>
      <trkpt lat="44.7595" lon="5.41227">
        <ele>733.992981</ele>
        <time>2011-10-02T14:22:15Z</time>
      </trkpt>
      <trkpt lat="44.75979" lon="5.41218">
        <ele>732.3220215</ele>
        <time>2011-10-02T14:22:21Z</time>
      </trkpt>
      <trkpt lat="44.76003" lon="5.41209">
        <ele>731.6939697</ele>
        <time>2011-10-02T14:22:27Z</time>
      </trkpt>
      <trkpt lat="44.76024" lon="5.41203">
        <ele>731.6389771</ele>
        <time>2011-10-02T14:22:32Z</time>
      </trkpt>
      <trkpt lat="44.76042" lon="5.41181">
        <ele>730.6110229</ele>
        <time>2011-10-02T14:22:36Z</time>
      </trkpt>
      <trkpt lat="44.76045" lon="5.41169">
        <ele>730.0479736</ele>
        <time>2011-10-02T14:22:38Z</time>
      </trkpt>
      <trkpt lat="44.76051" lon="5.41137">
        <ele>730.6859741</ele>
        <time>2011-10-02T14:22:45Z</time>
      </trkpt>
      <trkpt lat="44.7606" lon="5.41123">
        <ele>732.0339966</ele>
        <time>2011-10-02T14:22:50Z</time>
      </trkpt>
      <trkpt lat="44.76065" lon="5.41117">
        <ele>732.2449951</ele>
        <time>2011-10-02T14:22:52Z</time>
      </trkpt>
      <trkpt lat="44.76072" lon="5.41112">
        <ele>732.1550293</ele>
        <time>2011-10-02T14:22:55Z</time>
      </trkpt>
      <trkpt lat="44.76076" lon="5.41101">
        <ele>732.5410156</ele>
        <time>2011-10-02T14:23:00Z</time>
      </trkpt>
      <trkpt lat="44.76085" lon="5.41086">
        <ele>733.9370117</ele>
        <time>2011-10-02T14:23:05Z</time>
      </trkpt>
      <trkpt lat="44.76096" lon="5.4109">
        <ele>734.1669922</ele>
        <time>2011-10-02T14:23:09Z</time>
      </trkpt>
      <trkpt lat="44.76105" lon="5.41107">
        <ele>732.757019</ele>
        <time>2011-10-02T14:23:13Z</time>
      </trkpt>
      <trkpt lat="44.76115" lon="5.41117">
        <ele>731.4760132</ele>
        <time>2011-10-02T14:23:17Z</time>
      </trkpt>
      <trkpt lat="44.7612" lon="5.41118">
        <ele>730.7509766</ele>
        <time>2011-10-02T14:23:21Z</time>
      </trkpt>
      <trkpt lat="44.76121" lon="5.41117">
        <ele>730.78302</ele>
        <time>2011-10-02T14:23:38Z</time>
      </trkpt>
      <trkpt lat="44.76122" lon="5.41116">
        <ele>730.882019</ele>
        <time>2011-10-02T14:23:39Z</time>
      </trkpt>
      <trkpt lat="44.76125" lon="5.41114">
        <ele>731.8460083</ele>
        <time>2011-10-02T14:23:44Z</time>
      </trkpt>
      <trkpt lat="44.76128" lon="5.41112">
        <ele>732.8740234</ele>
        <time>2011-10-02T14:23:48Z</time>
      </trkpt>
      <trkpt lat="44.76134" lon="5.41106">
        <ele>735.085022</ele>
        <time>2011-10-02T14:23:57Z</time>
      </trkpt>
      <trkpt lat="44.76136" lon="5.41105">
        <ele>735.7109985</ele>
        <time>2011-10-02T14:24:00Z</time>
      </trkpt>
      <trkpt lat="44.76141" lon="5.41098">
        <ele>736.9030151</ele>
        <time>2011-10-02T14:24:07Z</time>
      </trkpt>
      <trkpt lat="44.76144" lon="5.41096">
        <ele>737.5200195</ele>
        <time>2011-10-02T14:24:11Z</time>
      </trkpt>
      <trkpt lat="44.76146" lon="5.41092">
        <ele>738.1170044</ele>
        <time>2011-10-02T14:24:15Z</time>
      </trkpt>
      <trkpt lat="44.7615" lon="5.41089">
        <ele>738.8770142</ele>
        <time>2011-10-02T14:24:19Z</time>
      </trkpt>
      <trkpt lat="44.76155" lon="5.41086">
        <ele>740.5120239</ele>
        <time>2011-10-02T14:24:27Z</time>
      </trkpt>
      <trkpt lat="44.76157" lon="5.41084">
        <ele>741.1119995</ele>
        <time>2011-10-02T14:24:30Z</time>
      </trkpt>
      <trkpt lat="44.76162" lon="5.41075">
        <ele>742.6220093</ele>
        <time>2011-10-02T14:24:38Z</time>
      </trkpt>
      <trkpt lat="44.76165" lon="5.41074">
        <ele>743.6030273</ele>
        <time>2011-10-02T14:24:43Z</time>
      </trkpt>
      <trkpt lat="44.76167" lon="5.41073">
        <ele>743.6459961</ele>
        <time>2011-10-02T14:24:48Z</time>
      </trkpt>
      <trkpt lat="44.76173" lon="5.41053">
        <ele>743.9229736</ele>
        <time>2011-10-02T14:24:55Z</time>
      </trkpt>
      <trkpt lat="44.76181" lon="5.4104">
        <ele>744.2440186</ele>
        <time>2011-10-02T14:25:00Z</time>
      </trkpt>
      <trkpt lat="44.76187" lon="5.41026">
        <ele>745.4509888</ele>
        <time>2011-10-02T14:25:06Z</time>
      </trkpt>
      <trkpt lat="44.76197" lon="5.41009">
        <ele>746.677002</ele>
        <time>2011-10-02T14:25:14Z</time>
      </trkpt>
      <trkpt lat="44.76204" lon="5.40999">
        <ele>747.5</ele>
        <time>2011-10-02T14:25:21Z</time>
      </trkpt>
      <trkpt lat="44.76207" lon="5.40989">
        <ele>748.2869873</ele>
        <time>2011-10-02T14:25:27Z</time>
      </trkpt>
      <trkpt lat="44.76209" lon="5.40987">
        <ele>749.1569824</ele>
        <time>2011-10-02T14:25:31Z</time>
      </trkpt>
      <trkpt lat="44.76213" lon="5.40981">
        <ele>750.151001</ele>
        <time>2011-10-02T14:25:37Z</time>
      </trkpt>
      <trkpt lat="44.76215" lon="5.40979">
        <ele>750.6569824</ele>
        <time>2011-10-02T14:25:39Z</time>
      </trkpt>
      <trkpt lat="44.76218" lon="5.40974">
        <ele>751.7819824</ele>
        <time>2011-10-02T14:25:43Z</time>
      </trkpt>
      <trkpt lat="44.76219" lon="5.4097">
        <ele>752.132019</ele>
        <time>2011-10-02T14:25:45Z</time>
      </trkpt>
      <trkpt lat="44.76216" lon="5.40962">
        <ele>752.1500244</ele>
        <time>2011-10-02T14:25:52Z</time>
      </trkpt>
      <trkpt lat="44.76214" lon="5.40962">
        <ele>751.6170044</ele>
        <time>2011-10-02T14:26:01Z</time>
      </trkpt>
      <trkpt lat="44.76213" lon="5.40961">
        <ele>750.0059814</ele>
        <time>2011-10-02T14:31:21Z</time>
      </trkpt>
      <trkpt lat="44.76209" lon="5.40957">
        <ele>750.1430054</ele>
        <time>2011-10-02T14:31:25Z</time>
      </trkpt>
      <trkpt lat="44.76203" lon="5.40943">
        <ele>750.8850098</ele>
        <time>2011-10-02T14:31:32Z</time>
      </trkpt>
      <trkpt lat="44.76195" lon="5.40936">
        <ele>751.53302</ele>
        <time>2011-10-02T14:31:37Z</time>
      </trkpt>
      <trkpt lat="44.7619" lon="5.40931">
        <ele>751.9219971</ele>
        <time>2011-10-02T14:31:40Z</time>
      </trkpt>
      <trkpt lat="44.76185" lon="5.40921">
        <ele>752.9890137</ele>
        <time>2011-10-02T14:31:46Z</time>
      </trkpt>
      <trkpt lat="44.76182" lon="5.40915">
        <ele>754.2059937</ele>
        <time>2011-10-02T14:31:50Z</time>
      </trkpt>
      <trkpt lat="44.76181" lon="5.40912">
        <ele>755.117981</ele>
        <time>2011-10-02T14:31:53Z</time>
      </trkpt>
      <trkpt lat="44.76177" lon="5.409">
        <ele>756.0419922</ele>
        <time>2011-10-02T14:31:59Z</time>
      </trkpt>
      <trkpt lat="44.76168" lon="5.40885">
        <ele>756.0430298</ele>
        <time>2011-10-02T14:32:04Z</time>
      </trkpt>
      <trkpt lat="44.7616" lon="5.40876">
        <ele>756.4899902</ele>
        <time>2011-10-02T14:32:09Z</time>
      </trkpt>
      <trkpt lat="44.76155" lon="5.40871">
        <ele>757.1160278</ele>
        <time>2011-10-02T14:32:14Z</time>
      </trkpt>
      <trkpt lat="44.76145" lon="5.40865">
        <ele>758.6370239</ele>
        <time>2011-10-02T14:32:20Z</time>
      </trkpt>
      <trkpt lat="44.76137" lon="5.40861">
        <ele>760.3439941</ele>
        <time>2011-10-02T14:32:26Z</time>
      </trkpt>
      <trkpt lat="44.76131" lon="5.40859">
        <ele>761.3930054</ele>
        <time>2011-10-02T14:32:31Z</time>
      </trkpt>
      <trkpt lat="44.7613" lon="5.40859">
        <ele>761.7979736</ele>
        <time>2011-10-02T14:32:33Z</time>
      </trkpt>
      <trkpt lat="44.76121" lon="5.40856">
        <ele>763.0349731</ele>
        <time>2011-10-02T14:32:40Z</time>
      </trkpt>
      <trkpt lat="44.76115" lon="5.40848">
        <ele>764.6779785</ele>
        <time>2011-10-02T14:32:46Z</time>
      </trkpt>
      <trkpt lat="44.76114" lon="5.40846">
        <ele>765.1439819</ele>
        <time>2011-10-02T14:32:48Z</time>
      </trkpt>
      <trkpt lat="44.76113" lon="5.40844">
        <ele>766.1409912</ele>
        <time>2011-10-02T14:32:56Z</time>
      </trkpt>
      <trkpt lat="44.76113" lon="5.40844">
        <ele>766.1820068</ele>
        <time>2011-10-02T14:32:57Z</time>
      </trkpt>
      <trkpt lat="44.76109" lon="5.40838">
        <ele>767.0360107</ele>
        <time>2011-10-02T14:33:04Z</time>
      </trkpt>
      <trkpt lat="44.76107" lon="5.40835">
        <ele>768.0130005</ele>
        <time>2011-10-02T14:33:09Z</time>
      </trkpt>
      <trkpt lat="44.76107" lon="5.40834">
        <ele>768.2369995</ele>
        <time>2011-10-02T14:33:12Z</time>
      </trkpt>
      <trkpt lat="44.76104" lon="5.40822">
        <ele>769.1879883</ele>
        <time>2011-10-02T14:33:20Z</time>
      </trkpt>
      <trkpt lat="44.76104" lon="5.4082">
        <ele>769.3579712</ele>
        <time>2011-10-02T14:33:21Z</time>
      </trkpt>
      <trkpt lat="44.76102" lon="5.40814">
        <ele>770.0050049</ele>
        <time>2011-10-02T14:33:25Z</time>
      </trkpt>
      <trkpt lat="44.76097" lon="5.40803">
        <ele>771.9799805</ele>
        <time>2011-10-02T14:33:32Z</time>
      </trkpt>
      <trkpt lat="44.76092" lon="5.40796">
        <ele>773.1870117</ele>
        <time>2011-10-02T14:33:37Z</time>
      </trkpt>
      <trkpt lat="44.76084" lon="5.40784">
        <ele>774.7180176</ele>
        <time>2011-10-02T14:33:45Z</time>
      </trkpt>
      <trkpt lat="44.76077" lon="5.40762">
        <ele>775.3410034</ele>
        <time>2011-10-02T14:33:53Z</time>
      </trkpt>
      <trkpt lat="44.76067" lon="5.40737">
        <ele>774.651001</ele>
        <time>2011-10-02T14:33:59Z</time>
      </trkpt>
      <trkpt lat="44.76059" lon="5.40726">
        <ele>774.2800293</ele>
        <time>2011-10-02T14:34:03Z</time>
      </trkpt>
      <trkpt lat="44.76054" lon="5.4072">
        <ele>775.1170044</ele>
        <time>2011-10-02T14:34:08Z</time>
      </trkpt>
      <trkpt lat="44.76048" lon="5.40708">
        <ele>776.809021</ele>
        <time>2011-10-02T14:34:14Z</time>
      </trkpt>
      <trkpt lat="44.76046" lon="5.407">
        <ele>778.0579834</ele>
        <time>2011-10-02T14:34:20Z</time>
      </trkpt>
      <trkpt lat="44.76041" lon="5.40688">
        <ele>779.7709961</ele>
        <time>2011-10-02T14:34:27Z</time>
      </trkpt>
      <trkpt lat="44.7604" lon="5.40672">
        <ele>780.6469727</ele>
        <time>2011-10-02T14:34:33Z</time>
      </trkpt>
      <trkpt lat="44.7604" lon="5.40663">
        <ele>780.5900269</ele>
        <time>2011-10-02T14:34:36Z</time>
      </trkpt>
      <trkpt lat="44.7604" lon="5.40647">
        <ele>780.8649902</ele>
        <time>2011-10-02T14:34:43Z</time>
      </trkpt>
      <trkpt lat="44.76041" lon="5.40633">
        <ele>781.8410034</ele>
        <time>2011-10-02T14:34:48Z</time>
      </trkpt>
      <trkpt lat="44.7604" lon="5.40614">
        <ele>782.6959839</ele>
        <time>2011-10-02T14:34:55Z</time>
      </trkpt>
      <trkpt lat="44.76041" lon="5.406">
        <ele>783.132019</ele>
        <time>2011-10-02T14:35:00Z</time>
      </trkpt>
      <trkpt lat="44.76043" lon="5.40595">
        <ele>783.3430176</ele>
        <time>2011-10-02T14:35:02Z</time>
      </trkpt>
      <trkpt lat="44.76046" lon="5.4057">
        <ele>784.276001</ele>
        <time>2011-10-02T14:35:11Z</time>
      </trkpt>
      <trkpt lat="44.76046" lon="5.40552">
        <ele>785.2160034</ele>
        <time>2011-10-02T14:35:19Z</time>
      </trkpt>
      <trkpt lat="44.76042" lon="5.40534">
        <ele>785.4199829</ele>
        <time>2011-10-02T14:35:25Z</time>
      </trkpt>
      <trkpt lat="44.76036" lon="5.40512">
        <ele>785.2940063</ele>
        <time>2011-10-02T14:35:31Z</time>
      </trkpt>
      <trkpt lat="44.76034" lon="5.40505">
        <ele>785.0999756</ele>
        <time>2011-10-02T14:35:32Z</time>
      </trkpt>
      <trkpt lat="44.76031" lon="5.40482">
        <ele>784.3099976</ele>
        <time>2011-10-02T14:35:37Z</time>
      </trkpt>
      <trkpt lat="44.7603" lon="5.40478">
        <ele>784.2659912</ele>
        <time>2011-10-02T14:35:39Z</time>
      </trkpt>
      <trkpt lat="44.7603" lon="5.40471">
        <ele>785.0969849</ele>
        <time>2011-10-02T14:35:43Z</time>
      </trkpt>
      <trkpt lat="44.76035" lon="5.40457">
        <ele>787.6129761</ele>
        <time>2011-10-02T14:35:52Z</time>
      </trkpt>
      <trkpt lat="44.76041" lon="5.40447">
        <ele>789.4039917</ele>
        <time>2011-10-02T14:35:59Z</time>
      </trkpt>
      <trkpt lat="44.76046" lon="5.40431">
        <ele>790.65802</ele>
        <time>2011-10-02T14:36:07Z</time>
      </trkpt>
      <trkpt lat="44.76049" lon="5.40422">
        <ele>792.3629761</ele>
        <time>2011-10-02T14:36:13Z</time>
      </trkpt>
      <trkpt lat="44.76054" lon="5.40411">
        <ele>794.065979</ele>
        <time>2011-10-02T14:36:19Z</time>
      </trkpt>
      <trkpt lat="44.76054" lon="5.40408">
        <ele>794.4210205</ele>
        <time>2011-10-02T14:36:21Z</time>
      </trkpt>
      <trkpt lat="44.7606" lon="5.4039">
        <ele>796.7630005</ele>
        <time>2011-10-02T14:36:30Z</time>
      </trkpt>
      <trkpt lat="44.76062" lon="5.40382">
        <ele>797.7930298</ele>
        <time>2011-10-02T14:36:35Z</time>
      </trkpt>
      <trkpt lat="44.76063" lon="5.40365">
        <ele>799.1209717</ele>
        <time>2011-10-02T14:36:44Z</time>
      </trkpt>
      <trkpt lat="44.7606" lon="5.40357">
        <ele>799.9240112</ele>
        <time>2011-10-02T14:36:49Z</time>
      </trkpt>
      <trkpt lat="44.7606" lon="5.4035">
        <ele>800.9719849</ele>
        <time>2011-10-02T14:36:53Z</time>
      </trkpt>
      <trkpt lat="44.76062" lon="5.40341">
        <ele>801.6040039</ele>
        <time>2011-10-02T14:36:57Z</time>
      </trkpt>
      <trkpt lat="44.76064" lon="5.40335">
        <ele>802.0960083</ele>
        <time>2011-10-02T14:37:01Z</time>
      </trkpt>
      <trkpt lat="44.76067" lon="5.40328">
        <ele>803.539978</ele>
        <time>2011-10-02T14:37:07Z</time>
      </trkpt>
      <trkpt lat="44.76068" lon="5.40325">
        <ele>803.9379883</ele>
        <time>2011-10-02T14:37:09Z</time>
      </trkpt>
      <trkpt lat="44.76075" lon="5.4032">
        <ele>804.8779907</ele>
        <time>2011-10-02T14:37:15Z</time>
      </trkpt>
      <trkpt lat="44.76075" lon="5.4031">
        <ele>806.1749878</ele>
        <time>2011-10-02T14:37:21Z</time>
      </trkpt>
      <trkpt lat="44.76074" lon="5.40303">
        <ele>807.164978</ele>
        <time>2011-10-02T14:37:27Z</time>
      </trkpt>
      <trkpt lat="44.76075" lon="5.40303">
        <ele>807.2869873</ele>
        <time>2011-10-02T14:37:29Z</time>
      </trkpt>
      <trkpt lat="44.76075" lon="5.40298">
        <ele>807.5059814</ele>
        <time>2011-10-02T14:37:35Z</time>
      </trkpt>
      <trkpt lat="44.76074" lon="5.403">
        <ele>807.4580078</ele>
        <time>2011-10-02T14:37:40Z</time>
      </trkpt>
      <trkpt lat="44.76072" lon="5.40297">
        <ele>807.5739746</ele>
        <time>2011-10-02T14:38:08Z</time>
      </trkpt>
      <trkpt lat="44.76065" lon="5.4029">
        <ele>806.572998</ele>
        <time>2011-10-02T14:41:49Z</time>
      </trkpt>
      <trkpt lat="44.76054" lon="5.40282">
        <ele>805.8880005</ele>
        <time>2011-10-02T14:41:55Z</time>
      </trkpt>
      <trkpt lat="44.76039" lon="5.40272">
        <ele>804.4390259</ele>
        <time>2011-10-02T14:42:00Z</time>
      </trkpt>
      <trkpt lat="44.76028" lon="5.40257">
        <ele>802.7689819</ele>
        <time>2011-10-02T14:42:04Z</time>
      </trkpt>
      <trkpt lat="44.7602" lon="5.40247">
        <ele>800.4860229</ele>
        <time>2011-10-02T14:42:09Z</time>
      </trkpt>
      <trkpt lat="44.76021" lon="5.40248">
        <ele>799.4799805</ele>
        <time>2011-10-02T14:42:19Z</time>
      </trkpt>
      <trkpt lat="44.7602" lon="5.40245">
        <ele>799.3460083</ele>
        <time>2011-10-02T14:42:43Z</time>
      </trkpt>
      <trkpt lat="44.76021" lon="5.40244">
        <ele>799.0839844</ele>
        <time>2011-10-02T14:42:46Z</time>
      </trkpt>
      <trkpt lat="44.76032" lon="5.40247">
        <ele>797.7689819</ele>
        <time>2011-10-02T14:42:52Z</time>
      </trkpt>
      <trkpt lat="44.7604" lon="5.40252">
        <ele>796.6699829</ele>
        <time>2011-10-02T14:42:55Z</time>
      </trkpt>
      <trkpt lat="44.76049" lon="5.40247">
        <ele>794.7379761</ele>
        <time>2011-10-02T14:42:59Z</time>
      </trkpt>
      <trkpt lat="44.76041" lon="5.40234">
        <ele>792.9089966</ele>
        <time>2011-10-02T14:43:02Z</time>
      </trkpt>
      <trkpt lat="44.76025" lon="5.40219">
        <ele>789.9210205</ele>
        <time>2011-10-02T14:43:06Z</time>
      </trkpt>
      <trkpt lat="44.76014" lon="5.40212">
        <ele>788.572998</ele>
        <time>2011-10-02T14:43:09Z</time>
      </trkpt>
      <trkpt lat="44.7601" lon="5.40212">
        <ele>787.9879761</ele>
        <time>2011-10-02T14:43:10Z</time>
      </trkpt>
      <trkpt lat="44.75984" lon="5.40208">
        <ele>785.0020142</ele>
        <time>2011-10-02T14:43:15Z</time>
      </trkpt>
      <trkpt lat="44.75967" lon="5.40195">
        <ele>781.6019897</ele>
        <time>2011-10-02T14:43:20Z</time>
      </trkpt>
      <trkpt lat="44.75957" lon="5.4018">
        <ele>779.5310059</ele>
        <time>2011-10-02T14:43:24Z</time>
      </trkpt>
      <trkpt lat="44.75951" lon="5.40172">
        <ele>778.6959839</ele>
        <time>2011-10-02T14:43:26Z</time>
      </trkpt>
      <trkpt lat="44.7595" lon="5.40165">
        <ele>776.8720093</ele>
        <time>2011-10-02T14:43:32Z</time>
      </trkpt>
      <trkpt lat="44.7596" lon="5.40172">
        <ele>775.9699707</ele>
        <time>2011-10-02T14:43:38Z</time>
      </trkpt>
      <trkpt lat="44.75967" lon="5.40176">
        <ele>774.4000244</ele>
        <time>2011-10-02T14:43:43Z</time>
      </trkpt>
      <trkpt lat="44.7597" lon="5.40178">
        <ele>774.1069946</ele>
        <time>2011-10-02T14:43:44Z</time>
      </trkpt>
      <trkpt lat="44.75983" lon="5.40178">
        <ele>772.5759888</ele>
        <time>2011-10-02T14:43:49Z</time>
      </trkpt>
      <trkpt lat="44.75987" lon="5.40177">
        <ele>772.2509766</ele>
        <time>2011-10-02T14:43:50Z</time>
      </trkpt>
      <trkpt lat="44.76015" lon="5.4017">
        <ele>768.7210083</ele>
        <time>2011-10-02T14:43:56Z</time>
      </trkpt>
      <trkpt lat="44.76023" lon="5.40167">
        <ele>768.0410156</ele>
        <time>2011-10-02T14:43:58Z</time>
      </trkpt>
      <trkpt lat="44.76033" lon="5.40163">
        <ele>765.6879883</ele>
        <time>2011-10-02T14:44:02Z</time>
      </trkpt>
      <trkpt lat="44.76036" lon="5.40164">
        <ele>763.6209717</ele>
        <time>2011-10-02T14:44:07Z</time>
      </trkpt>
      <trkpt lat="44.76026" lon="5.40165">
        <ele>762.3779907</ele>
        <time>2011-10-02T14:44:11Z</time>
      </trkpt>
      <trkpt lat="44.76001" lon="5.40157">
        <ele>760.2369995</ele>
        <time>2011-10-02T14:44:16Z</time>
      </trkpt>
      <trkpt lat="44.75992" lon="5.40152">
        <ele>759.0130005</ele>
        <time>2011-10-02T14:44:18Z</time>
      </trkpt>
      <trkpt lat="44.7598" lon="5.40135">
        <ele>756.8549805</ele>
        <time>2011-10-02T14:44:22Z</time>
      </trkpt>
      <trkpt lat="44.75972" lon="5.40126">
        <ele>755.4959717</ele>
        <time>2011-10-02T14:44:24Z</time>
      </trkpt>
      <trkpt lat="44.75957" lon="5.40104">
        <ele>752.3410034</ele>
        <time>2011-10-02T14:44:29Z</time>
      </trkpt>
      <trkpt lat="44.75956" lon="5.40098">
        <ele>750.3880005</ele>
        <time>2011-10-02T14:44:33Z</time>
      </trkpt>
      <trkpt lat="44.7596" lon="5.40098">
        <ele>749.0679932</ele>
        <time>2011-10-02T14:44:40Z</time>
      </trkpt>
      <trkpt lat="44.75962" lon="5.40105">
        <ele>748.3850098</ele>
        <time>2011-10-02T14:44:44Z</time>
      </trkpt>
      <trkpt lat="44.75975" lon="5.40116">
        <ele>747.1599731</ele>
        <time>2011-10-02T14:44:50Z</time>
      </trkpt>
      <trkpt lat="44.75991" lon="5.40129">
        <ele>745.5029907</ele>
        <time>2011-10-02T14:44:54Z</time>
      </trkpt>
      <trkpt lat="44.76006" lon="5.40128">
        <ele>743.8969727</ele>
        <time>2011-10-02T14:44:57Z</time>
      </trkpt>
      <trkpt lat="44.76016" lon="5.40128">
        <ele>742.1929932</ele>
        <time>2011-10-02T14:45:00Z</time>
      </trkpt>
      <trkpt lat="44.76025" lon="5.40127">
        <ele>740.9860229</ele>
        <time>2011-10-02T14:45:02Z</time>
      </trkpt>
      <trkpt lat="44.76046" lon="5.40121">
        <ele>738.0390015</ele>
        <time>2011-10-02T14:45:07Z</time>
      </trkpt>
      <trkpt lat="44.76048" lon="5.40119">
        <ele>736.5529785</ele>
        <time>2011-10-02T14:45:10Z</time>
      </trkpt>
      <trkpt lat="44.76049" lon="5.40117">
        <ele>735.6119995</ele>
        <time>2011-10-02T14:45:13Z</time>
      </trkpt>
      <trkpt lat="44.76036" lon="5.40119">
        <ele>733.8939819</ele>
        <time>2011-10-02T14:45:18Z</time>
      </trkpt>
      <trkpt lat="44.76025" lon="5.4012">
        <ele>732.6939697</ele>
        <time>2011-10-02T14:45:22Z</time>
      </trkpt>
      <trkpt lat="44.76015" lon="5.40116">
        <ele>731.6810303</ele>
        <time>2011-10-02T14:45:25Z</time>
      </trkpt>
      <trkpt lat="44.76004" lon="5.40106">
        <ele>730.5720215</ele>
        <time>2011-10-02T14:45:28Z</time>
      </trkpt>
      <trkpt lat="44.75986" lon="5.40079">
        <ele>727.6370239</ele>
        <time>2011-10-02T14:45:34Z</time>
      </trkpt>
      <trkpt lat="44.75983" lon="5.40074">
        <ele>727.0469971</ele>
        <time>2011-10-02T14:45:35Z</time>
      </trkpt>
      <trkpt lat="44.75978" lon="5.40047">
        <ele>724.3289795</ele>
        <time>2011-10-02T14:45:40Z</time>
      </trkpt>
      <trkpt lat="44.75977" lon="5.40036">
        <ele>723.3449707</ele>
        <time>2011-10-02T14:45:43Z</time>
      </trkpt>
      <trkpt lat="44.75977" lon="5.4003">
        <ele>721.7160034</ele>
        <time>2011-10-02T14:45:49Z</time>
      </trkpt>
      <trkpt lat="44.75979" lon="5.40028">
        <ele>720.7589722</ele>
        <time>2011-10-02T14:45:55Z</time>
      </trkpt>
      <trkpt lat="44.75979" lon="5.40029">
        <ele>720.3690186</ele>
        <time>2011-10-02T14:45:57Z</time>
      </trkpt>
      <trkpt lat="44.75982" lon="5.40037">
        <ele>719.8900146</ele>
        <time>2011-10-02T14:46:01Z</time>
      </trkpt>
      <trkpt lat="44.75994" lon="5.40063">
        <ele>717.9450073</ele>
        <time>2011-10-02T14:46:07Z</time>
      </trkpt>
      <trkpt lat="44.76008" lon="5.40076">
        <ele>714.9030151</ele>
        <time>2011-10-02T14:46:11Z</time>
      </trkpt>
      <trkpt lat="44.76011" lon="5.40075">
        <ele>714.1630249</ele>
        <time>2011-10-02T14:46:12Z</time>
      </trkpt>
      <trkpt lat="44.76026" lon="5.40077">
        <ele>711.3300171</ele>
        <time>2011-10-02T14:46:17Z</time>
      </trkpt>
      <trkpt lat="44.76035" lon="5.40067">
        <ele>710.1160278</ele>
        <time>2011-10-02T14:46:21Z</time>
      </trkpt>
      <trkpt lat="44.7604" lon="5.4006">
        <ele>709.3530273</ele>
        <time>2011-10-02T14:46:23Z</time>
      </trkpt>
      <trkpt lat="44.76048" lon="5.40053">
        <ele>707.5109863</ele>
        <time>2011-10-02T14:46:27Z</time>
      </trkpt>
      <trkpt lat="44.76054" lon="5.40049">
        <ele>706.3499756</ele>
        <time>2011-10-02T14:46:40Z</time>
      </trkpt>
      <trkpt lat="44.76056" lon="5.40048">
        <ele>706.1690063</ele>
        <time>2011-10-02T14:46:42Z</time>
      </trkpt>
      <trkpt lat="44.76049" lon="5.4005">
        <ele>705.1220093</ele>
        <time>2011-10-02T14:46:47Z</time>
      </trkpt>
      <trkpt lat="44.76042" lon="5.40055">
        <ele>704.0939941</ele>
        <time>2011-10-02T14:46:50Z</time>
      </trkpt>
      <trkpt lat="44.76032" lon="5.40061">
        <ele>702.9420166</ele>
        <time>2011-10-02T14:46:54Z</time>
      </trkpt>
      <trkpt lat="44.76025" lon="5.40057">
        <ele>701.7089844</ele>
        <time>2011-10-02T14:46:57Z</time>
      </trkpt>
      <trkpt lat="44.76024" lon="5.40054">
        <ele>701.4039917</ele>
        <time>2011-10-02T14:46:58Z</time>
      </trkpt>
      <trkpt lat="44.7602" lon="5.40037">
        <ele>699.4890137</ele>
        <time>2011-10-02T14:47:02Z</time>
      </trkpt>
      <trkpt lat="44.76016" lon="5.40023">
        <ele>698.0739746</ele>
        <time>2011-10-02T14:47:04Z</time>
      </trkpt>
      <trkpt lat="44.76006" lon="5.39986">
        <ele>693.8870239</ele>
        <time>2011-10-02T14:47:09Z</time>
      </trkpt>
      <trkpt lat="44.76006" lon="5.39984">
        <ele>691.8250122</ele>
        <time>2011-10-02T14:47:13Z</time>
      </trkpt>
      <trkpt lat="44.76007" lon="5.39979">
        <ele>690.9899902</ele>
        <time>2011-10-02T14:47:21Z</time>
      </trkpt>
      <trkpt lat="44.76009" lon="5.3998">
        <ele>690.5939941</ele>
        <time>2011-10-02T14:47:24Z</time>
      </trkpt>
      <trkpt lat="44.7601" lon="5.39982">
        <ele>690.0369873</ele>
        <time>2011-10-02T14:47:29Z</time>
      </trkpt>
      <trkpt lat="44.76014" lon="5.39985">
        <ele>689.4349976</ele>
        <time>2011-10-02T14:47:42Z</time>
      </trkpt>
      <trkpt lat="44.76015" lon="5.39984">
        <ele>689.007019</ele>
        <time>2011-10-02T14:48:00Z</time>
      </trkpt>
      <trkpt lat="44.76014" lon="5.39982">
        <ele>689.3060303</ele>
        <time>2011-10-02T14:48:06Z</time>
      </trkpt>
      <trkpt lat="44.76013" lon="5.39983">
        <ele>689.2990112</ele>
        <time>2011-10-02T14:48:22Z</time>
      </trkpt>
      <trkpt lat="44.76012" lon="5.3999">
        <ele>689.2349854</ele>
        <time>2011-10-02T14:48:26Z</time>
      </trkpt>
      <trkpt lat="44.76015" lon="5.39994">
        <ele>688.7369995</ele>
        <time>2011-10-02T14:48:29Z</time>
      </trkpt>
      <trkpt lat="44.76025" lon="5.40008">
        <ele>687.4190063</ele>
        <time>2011-10-02T14:48:34Z</time>
      </trkpt>
      <trkpt lat="44.76034" lon="5.4002">
        <ele>686.1430054</ele>
        <time>2011-10-02T14:48:37Z</time>
      </trkpt>
      <trkpt lat="44.76045" lon="5.40017">
        <ele>684.6119995</ele>
        <time>2011-10-02T14:48:41Z</time>
      </trkpt>
      <trkpt lat="44.76056" lon="5.40004">
        <ele>682.4190063</ele>
        <time>2011-10-02T14:48:45Z</time>
      </trkpt>
      <trkpt lat="44.76058" lon="5.39998">
        <ele>680.2789917</ele>
        <time>2011-10-02T14:48:50Z</time>
      </trkpt>
      <trkpt lat="44.76059" lon="5.39996">
        <ele>678.9780273</ele>
        <time>2011-10-02T14:48:56Z</time>
      </trkpt>
      <trkpt lat="44.76058" lon="5.39996">
        <ele>678.8140259</ele>
        <time>2011-10-02T14:48:57Z</time>
      </trkpt>
      <trkpt lat="44.76049" lon="5.40002">
        <ele>677.8930054</ele>
        <time>2011-10-02T14:49:02Z</time>
      </trkpt>
      <trkpt lat="44.76044" lon="5.40008">
        <ele>677.7310181</ele>
        <time>2011-10-02T14:49:04Z</time>
      </trkpt>
      <trkpt lat="44.76036" lon="5.39991">
        <ele>675.3410034</ele>
        <time>2011-10-02T14:49:10Z</time>
      </trkpt>
      <trkpt lat="44.76035" lon="5.3998">
        <ele>674.6090088</ele>
        <time>2011-10-02T14:49:11Z</time>
      </trkpt>
      <trkpt lat="44.76031" lon="5.39942">
        <ele>671.0430298</ele>
        <time>2011-10-02T14:49:16Z</time>
      </trkpt>
      <trkpt lat="44.7603" lon="5.39915">
        <ele>667.7199707</ele>
        <time>2011-10-02T14:49:21Z</time>
      </trkpt>
      <trkpt lat="44.76026" lon="5.39898">
        <ele>665.7470093</ele>
        <time>2011-10-02T14:49:24Z</time>
      </trkpt>
      <trkpt lat="44.76028" lon="5.39886">
        <ele>665.0969849</ele>
        <time>2011-10-02T14:49:26Z</time>
      </trkpt>
      <trkpt lat="44.76035" lon="5.39866">
        <ele>662.7589722</ele>
        <time>2011-10-02T14:49:29Z</time>
      </trkpt>
      <trkpt lat="44.76037" lon="5.39859">
        <ele>661.9630127</ele>
        <time>2011-10-02T14:49:30Z</time>
      </trkpt>
      <trkpt lat="44.76035" lon="5.39831">
        <ele>658.4210205</ele>
        <time>2011-10-02T14:49:34Z</time>
      </trkpt>
      <trkpt lat="44.76036" lon="5.39802">
        <ele>655.1329956</ele>
        <time>2011-10-02T14:49:38Z</time>
      </trkpt>
      <trkpt lat="44.76022" lon="5.39744">
        <ele>650.7849731</ele>
        <time>2011-10-02T14:49:43Z</time>
      </trkpt>
      <trkpt lat="44.76011" lon="5.39704">
        <ele>647.0349731</ele>
        <time>2011-10-02T14:49:47Z</time>
      </trkpt>
      <trkpt lat="44.76008" lon="5.39693">
        <ele>646.0289917</ele>
        <time>2011-10-02T14:49:48Z</time>
      </trkpt>
      <trkpt lat="44.75999" lon="5.39664">
        <ele>643.1049805</ele>
        <time>2011-10-02T14:49:52Z</time>
      </trkpt>
      <trkpt lat="44.75998" lon="5.39662">
        <ele>641.5360107</ele>
        <time>2011-10-02T14:49:54Z</time>
      </trkpt>
      <trkpt lat="44.75998" lon="5.39659">
        <ele>639.5839844</ele>
        <time>2011-10-02T14:49:59Z</time>
      </trkpt>
      <trkpt lat="44.76003" lon="5.39664">
        <ele>638.5830078</ele>
        <time>2011-10-02T14:50:06Z</time>
      </trkpt>
      <trkpt lat="44.76012" lon="5.39675">
        <ele>637.9240112</ele>
        <time>2011-10-02T14:50:11Z</time>
      </trkpt>
      <trkpt lat="44.76018" lon="5.39686">
        <ele>637.0609741</ele>
        <time>2011-10-02T14:50:14Z</time>
      </trkpt>
      <trkpt lat="44.76019" lon="5.3968">
        <ele>635.2849731</ele>
        <time>2011-10-02T14:50:18Z</time>
      </trkpt>
      <trkpt lat="44.76015" lon="5.39666">
        <ele>633.4879761</ele>
        <time>2011-10-02T14:50:22Z</time>
      </trkpt>
      <trkpt lat="44.76014" lon="5.39663">
        <ele>632.8759766</ele>
        <time>2011-10-02T14:50:23Z</time>
      </trkpt>
      <trkpt lat="44.76014" lon="5.39658">
        <ele>631.5130005</ele>
        <time>2011-10-02T14:50:25Z</time>
      </trkpt>
      <trkpt lat="44.76025" lon="5.39668">
        <ele>628.6430054</ele>
        <time>2011-10-02T14:50:29Z</time>
      </trkpt>
      <trkpt lat="44.76031" lon="5.39676">
        <ele>626.4210205</ele>
        <time>2011-10-02T14:50:32Z</time>
      </trkpt>
      <trkpt lat="44.76033" lon="5.39663">
        <ele>624.1740112</ele>
        <time>2011-10-02T14:50:35Z</time>
      </trkpt>
      <trkpt lat="44.76045" lon="5.39636">
        <ele>621.5079956</ele>
        <time>2011-10-02T14:50:38Z</time>
      </trkpt>
      <trkpt lat="44.76039" lon="5.3961">
        <ele>617.2109985</ele>
        <time>2011-10-02T14:50:42Z</time>
      </trkpt>
      <trkpt lat="44.76036" lon="5.39599">
        <ele>615.1680298</ele>
        <time>2011-10-02T14:50:45Z</time>
      </trkpt>
      <trkpt lat="44.76038" lon="5.39598">
        <ele>613.3010254</ele>
        <time>2011-10-02T14:50:47Z</time>
      </trkpt>
      <trkpt lat="44.76049" lon="5.39585">
        <ele>609.9539795</ele>
        <time>2011-10-02T14:50:51Z</time>
      </trkpt>
      <trkpt lat="44.76052" lon="5.39582">
        <ele>608.9509888</ele>
        <time>2011-10-02T14:50:52Z</time>
      </trkpt>
      <trkpt lat="44.76057" lon="5.39575">
        <ele>607.1680298</ele>
        <time>2011-10-02T14:50:54Z</time>
      </trkpt>
      <trkpt lat="44.76063" lon="5.39583">
        <ele>603.5089722</ele>
        <time>2011-10-02T14:50:58Z</time>
      </trkpt>
      <trkpt lat="44.76064" lon="5.39593">
        <ele>601.1389771</ele>
        <time>2011-10-02T14:51:01Z</time>
      </trkpt>
      <trkpt lat="44.76071" lon="5.39585">
        <ele>599.5750122</ele>
        <time>2011-10-02T14:51:03Z</time>
      </trkpt>
      <trkpt lat="44.7608" lon="5.39555">
        <ele>595.9180298</ele>
        <time>2011-10-02T14:51:07Z</time>
      </trkpt>
      <trkpt lat="44.76081" lon="5.39531">
        <ele>593.8649902</ele>
        <time>2011-10-02T14:51:10Z</time>
      </trkpt>
      <trkpt lat="44.7608" lon="5.39526">
        <ele>591.8729858</ele>
        <time>2011-10-02T14:51:12Z</time>
      </trkpt>
      <trkpt lat="44.76089" lon="5.39547">
        <ele>588.6530151</ele>
        <time>2011-10-02T14:51:16Z</time>
      </trkpt>
      <trkpt lat="44.76096" lon="5.39574">
        <ele>585.0709839</ele>
        <time>2011-10-02T14:51:21Z</time>
      </trkpt>
      <trkpt lat="44.76097" lon="5.39568">
        <ele>583.5180054</ele>
        <time>2011-10-02T14:51:23Z</time>
      </trkpt>
      <trkpt lat="44.761" lon="5.39558">
        <ele>581.8319702</ele>
        <time>2011-10-02T14:51:25Z</time>
      </trkpt>
      <trkpt lat="44.76102" lon="5.39526">
        <ele>578.5029907</ele>
        <time>2011-10-02T14:51:29Z</time>
      </trkpt>
      <trkpt lat="44.76102" lon="5.39514">
        <ele>576.177002</ele>
        <time>2011-10-02T14:51:32Z</time>
      </trkpt>
      <trkpt lat="44.76105" lon="5.39516">
        <ele>573.5380249</ele>
        <time>2011-10-02T14:51:39Z</time>
      </trkpt>
      <trkpt lat="44.76111" lon="5.39525">
        <ele>573.2819824</ele>
        <time>2011-10-02T14:51:47Z</time>
      </trkpt>
      <trkpt lat="44.76113" lon="5.39529">
        <ele>573.1480103</ele>
        <time>2011-10-02T14:51:48Z</time>
      </trkpt>
      <trkpt lat="44.76117" lon="5.3954">
        <ele>572.7399902</ele>
        <time>2011-10-02T14:51:50Z</time>
      </trkpt>
      <trkpt lat="44.76123" lon="5.39533">
        <ele>570.7930298</ele>
        <time>2011-10-02T14:51:54Z</time>
      </trkpt>
      <trkpt lat="44.76123" lon="5.39513">
        <ele>568.7249756</ele>
        <time>2011-10-02T14:51:57Z</time>
      </trkpt>
      <trkpt lat="44.76123" lon="5.39506">
        <ele>568.7150269</ele>
        <time>2011-10-02T14:51:58Z</time>
      </trkpt>
      <trkpt lat="44.76121" lon="5.39493">
        <ele>566.2050171</ele>
        <time>2011-10-02T14:52:01Z</time>
      </trkpt>
      <trkpt lat="44.76128" lon="5.39495">
        <ele>562.6199951</ele>
        <time>2011-10-02T14:52:05Z</time>
      </trkpt>
      <trkpt lat="44.76134" lon="5.39506">
        <ele>560.0009766</ele>
        <time>2011-10-02T14:52:08Z</time>
      </trkpt>
      <trkpt lat="44.76138" lon="5.39499">
        <ele>556.2210083</ele>
        <time>2011-10-02T14:52:12Z</time>
      </trkpt>
      <trkpt lat="44.76137" lon="5.39493">
        <ele>555.2940063</ele>
        <time>2011-10-02T14:52:13Z</time>
      </trkpt>
      <trkpt lat="44.76137" lon="5.39476">
        <ele>551.7329712</ele>
        <time>2011-10-02T14:52:17Z</time>
      </trkpt>
      <trkpt lat="44.76138" lon="5.39476">
        <ele>551.0089722</ele>
        <time>2011-10-02T14:52:18Z</time>
      </trkpt>
      <trkpt lat="44.76139" lon="5.3949">
        <ele>548.6090088</ele>
        <time>2011-10-02T14:52:23Z</time>
      </trkpt>
      <trkpt lat="44.76143" lon="5.39485">
        <ele>546.927002</ele>
        <time>2011-10-02T14:52:26Z</time>
      </trkpt>
      <trkpt lat="44.76148" lon="5.39464">
        <ele>543.7990112</ele>
        <time>2011-10-02T14:52:30Z</time>
      </trkpt>
      <trkpt lat="44.7615" lon="5.39455">
        <ele>541.9790039</ele>
        <time>2011-10-02T14:52:32Z</time>
      </trkpt>
      <trkpt lat="44.76148" lon="5.39445">
        <ele>539.1829834</ele>
        <time>2011-10-02T14:52:35Z</time>
      </trkpt>
      <trkpt lat="44.76153" lon="5.39442">
        <ele>536.0139771</ele>
        <time>2011-10-02T14:52:39Z</time>
      </trkpt>
      <trkpt lat="44.76152" lon="5.39427">
        <ele>533.4249878</ele>
        <time>2011-10-02T14:52:42Z</time>
      </trkpt>
      <trkpt lat="44.76152" lon="5.39423">
        <ele>531.6119995</ele>
        <time>2011-10-02T14:52:44Z</time>
      </trkpt>
      <trkpt lat="44.76164" lon="5.39426">
        <ele>527.0269775</ele>
        <time>2011-10-02T14:52:49Z</time>
      </trkpt>
      <trkpt lat="44.76167" lon="5.39432">
        <ele>526.289978</ele>
        <time>2011-10-02T14:52:51Z</time>
      </trkpt>
      <trkpt lat="44.76172" lon="5.39426">
        <ele>523.6959839</ele>
        <time>2011-10-02T14:52:54Z</time>
      </trkpt>
      <trkpt lat="44.76171" lon="5.39403">
        <ele>520.7109985</ele>
        <time>2011-10-02T14:52:57Z</time>
      </trkpt>
      <trkpt lat="44.76169" lon="5.39396">
        <ele>519.5300293</ele>
        <time>2011-10-02T14:52:58Z</time>
      </trkpt>
      <trkpt lat="44.76167" lon="5.39387">
        <ele>515.9190063</ele>
        <time>2011-10-02T14:53:01Z</time>
      </trkpt>
      <trkpt lat="44.76179" lon="5.39377">
        <ele>512.0549927</ele>
        <time>2011-10-02T14:53:05Z</time>
      </trkpt>
      <trkpt lat="44.7618" lon="5.39368">
        <ele>510.5409851</ele>
        <time>2011-10-02T14:53:07Z</time>
      </trkpt>
      <trkpt lat="44.76183" lon="5.39355">
        <ele>508.026001</ele>
        <time>2011-10-02T14:53:10Z</time>
      </trkpt>
      <trkpt lat="44.76187" lon="5.39335">
        <ele>505.2770081</ele>
        <time>2011-10-02T14:53:13Z</time>
      </trkpt>
      <trkpt lat="44.7619" lon="5.39319">
        <ele>503.428009</ele>
        <time>2011-10-02T14:53:15Z</time>
      </trkpt>
      <trkpt lat="44.76185" lon="5.3931">
        <ele>501.6610107</ele>
        <time>2011-10-02T14:53:18Z</time>
      </trkpt>
      <trkpt lat="44.76182" lon="5.39313">
        <ele>500.8619995</ele>
        <time>2011-10-02T14:53:19Z</time>
      </trkpt>
      <trkpt lat="44.76174" lon="5.39327">
        <ele>498.6000061</ele>
        <time>2011-10-02T14:53:22Z</time>
      </trkpt>
      <trkpt lat="44.76166" lon="5.39322">
        <ele>496.230011</ele>
        <time>2011-10-02T14:53:26Z</time>
      </trkpt>
      <trkpt lat="44.7616" lon="5.39302">
        <ele>493.9100037</ele>
        <time>2011-10-02T14:53:29Z</time>
      </trkpt>
      <trkpt lat="44.76155" lon="5.39295">
        <ele>492.9490051</ele>
        <time>2011-10-02T14:53:30Z</time>
      </trkpt>
      <trkpt lat="44.76135" lon="5.39274">
        <ele>488.3110046</ele>
        <time>2011-10-02T14:53:34Z</time>
      </trkpt>
      <trkpt lat="44.76136" lon="5.39263">
        <ele>484.7369995</ele>
        <time>2011-10-02T14:53:37Z</time>
      </trkpt>
      <trkpt lat="44.7614" lon="5.3925">
        <ele>483.5820007</ele>
        <time>2011-10-02T14:53:39Z</time>
      </trkpt>
      <trkpt lat="44.7614" lon="5.39235">
        <ele>481.1340027</ele>
        <time>2011-10-02T14:53:41Z</time>
      </trkpt>
      <trkpt lat="44.76138" lon="5.3922">
        <ele>478.9519958</ele>
        <time>2011-10-02T14:53:43Z</time>
      </trkpt>
      <trkpt lat="44.7613" lon="5.39175">
        <ele>473.1919861</ele>
        <time>2011-10-02T14:53:48Z</time>
      </trkpt>
      <trkpt lat="44.76129" lon="5.39157">
        <ele>470.8580017</ele>
        <time>2011-10-02T14:53:50Z</time>
      </trkpt>
      <trkpt lat="44.76122" lon="5.39136">
        <ele>466.5190125</ele>
        <time>2011-10-02T14:53:54Z</time>
      </trkpt>
      <trkpt lat="44.76121" lon="5.39131">
        <ele>466.5039978</ele>
        <time>2011-10-02T14:53:55Z</time>
      </trkpt>
      <trkpt lat="44.76114" lon="5.39119">
        <ele>463.4360046</ele>
        <time>2011-10-02T14:53:59Z</time>
      </trkpt>
      <trkpt lat="44.76114" lon="5.39118">
        <ele>461.5889893</ele>
        <time>2011-10-02T14:54:09Z</time>
      </trkpt>
      <trkpt lat="44.76113" lon="5.39118">
        <ele>461.54599</ele>
        <time>2011-10-02T14:54:13Z</time>
      </trkpt>
      <trkpt lat="44.76111" lon="5.39116">
        <ele>461.0499878</ele>
        <time>2011-10-02T14:54:20Z</time>
      </trkpt>
      <trkpt lat="44.7611" lon="5.39116">
        <ele>458.9979858</ele>
        <time>2011-10-02T14:57:06Z</time>
      </trkpt>
      <trkpt lat="44.76107" lon="5.3911">
        <ele>458.9159851</ele>
        <time>2011-10-02T14:57:10Z</time>
      </trkpt>
      <trkpt lat="44.76097" lon="5.39087">
        <ele>457.6749878</ele>
        <time>2011-10-02T14:57:17Z</time>
      </trkpt>
      <trkpt lat="44.76085" lon="5.39071">
        <ele>456.4339905</ele>
        <time>2011-10-02T14:57:21Z</time>
      </trkpt>
      <trkpt lat="44.76081" lon="5.39067">
        <ele>456.0450134</ele>
        <time>2011-10-02T14:57:22Z</time>
      </trkpt>
      <trkpt lat="44.76069" lon="5.39044">
        <ele>455.0780029</ele>
        <time>2011-10-02T14:57:26Z</time>
      </trkpt>
      <trkpt lat="44.7606" lon="5.39023">
        <ele>453.9070129</ele>
        <time>2011-10-02T14:57:29Z</time>
      </trkpt>
      <trkpt lat="44.76042" lon="5.38996">
        <ele>452.3999939</ele>
        <time>2011-10-02T14:57:33Z</time>
      </trkpt>
      <trkpt lat="44.76003" lon="5.38961">
        <ele>450.0209961</ele>
        <time>2011-10-02T14:57:40Z</time>
      </trkpt>
      <trkpt lat="44.75998" lon="5.38958">
        <ele>449.6919861</ele>
        <time>2011-10-02T14:57:41Z</time>
      </trkpt>
      <trkpt lat="44.75983" lon="5.38935">
        <ele>448.2250061</ele>
        <time>2011-10-02T14:57:45Z</time>
      </trkpt>
      <trkpt lat="44.75961" lon="5.38878">
        <ele>446.0920105</ele>
        <time>2011-10-02T14:57:51Z</time>
      </trkpt>
      <trkpt lat="44.75944" lon="5.38816">
        <ele>442.9159851</ele>
        <time>2011-10-02T14:57:56Z</time>
      </trkpt>
      <trkpt lat="44.7593" lon="5.38732">
        <ele>438.0450134</ele>
        <time>2011-10-02T14:58:02Z</time>
      </trkpt>
      <trkpt lat="44.75925" lon="5.38695">
        <ele>435.4909973</ele>
        <time>2011-10-02T14:58:05Z</time>
      </trkpt>
      <trkpt lat="44.75924" lon="5.38633">
        <ele>431.5950012</ele>
        <time>2011-10-02T14:58:10Z</time>
      </trkpt>
      <trkpt lat="44.75927" lon="5.38593">
        <ele>429.4880066</ele>
        <time>2011-10-02T14:58:13Z</time>
      </trkpt>
      <trkpt lat="44.75931" lon="5.38567">
        <ele>428.8269958</ele>
        <time>2011-10-02T14:58:15Z</time>
      </trkpt>
      <trkpt lat="44.75936" lon="5.38543">
        <ele>427.4729919</ele>
        <time>2011-10-02T14:58:17Z</time>
      </trkpt>
      <trkpt lat="44.75938" lon="5.38482">
        <ele>423.8999939</ele>
        <time>2011-10-02T14:58:22Z</time>
      </trkpt>
      <trkpt lat="44.75946" lon="5.38427">
        <ele>421.625</ele>
        <time>2011-10-02T14:58:27Z</time>
      </trkpt>
      <trkpt lat="44.75948" lon="5.38414">
        <ele>420.9190063</ele>
        <time>2011-10-02T14:58:30Z</time>
      </trkpt>
      <trkpt lat="44.7594" lon="5.38399">
        <ele>420.6010132</ele>
        <time>2011-10-02T14:58:36Z</time>
      </trkpt>
      <trkpt lat="44.75921" lon="5.38386">
        <ele>420.5830078</ele>
        <time>2011-10-02T14:58:41Z</time>
      </trkpt>
      <trkpt lat="44.75888" lon="5.38361">
        <ele>420.473999</ele>
        <time>2011-10-02T14:58:48Z</time>
      </trkpt>
      <trkpt lat="44.75846" lon="5.38321">
        <ele>419.0679932</ele>
        <time>2011-10-02T14:58:57Z</time>
      </trkpt>
      <trkpt lat="44.75818" lon="5.38287">
        <ele>418.1589966</ele>
        <time>2011-10-02T14:59:03Z</time>
      </trkpt>
      <trkpt lat="44.75779" lon="5.38239">
        <ele>416.9729919</ele>
        <time>2011-10-02T14:59:10Z</time>
      </trkpt>
      <trkpt lat="44.75735" lon="5.38186">
        <ele>415.7250061</ele>
        <time>2011-10-02T14:59:18Z</time>
      </trkpt>
      <trkpt lat="44.75693" lon="5.38133">
        <ele>414.4689941</ele>
        <time>2011-10-02T14:59:26Z</time>
      </trkpt>
      <trkpt lat="44.75639" lon="5.38067">
        <ele>413.368988</ele>
        <time>2011-10-02T14:59:36Z</time>
      </trkpt>
      <trkpt lat="44.75607" lon="5.38023">
        <ele>411.6839905</ele>
        <time>2011-10-02T14:59:42Z</time>
      </trkpt>
      <trkpt lat="44.75581" lon="5.37972">
        <ele>410.4140015</ele>
        <time>2011-10-02T14:59:48Z</time>
      </trkpt>
      <trkpt lat="44.75577" lon="5.37964">
        <ele>410.2640076</ele>
        <time>2011-10-02T14:59:49Z</time>
      </trkpt>
      <trkpt lat="44.75547" lon="5.37935">
        <ele>409.177002</ele>
        <time>2011-10-02T14:59:54Z</time>
      </trkpt>
      <trkpt lat="44.75499" lon="5.37896">
        <ele>408.25</ele>
        <time>2011-10-02T15:00:02Z</time>
      </trkpt>
      <trkpt lat="44.75478" lon="5.37872">
        <ele>407.848999</ele>
        <time>2011-10-02T15:00:06Z</time>
      </trkpt>
      <trkpt lat="44.75464" lon="5.37841">
        <ele>407.3900146</ele>
        <time>2011-10-02T15:00:10Z</time>
      </trkpt>
      <trkpt lat="44.75454" lon="5.37798">
        <ele>406.9899902</ele>
        <time>2011-10-02T15:00:15Z</time>
      </trkpt>
      <trkpt lat="44.7544" lon="5.37768">
        <ele>406.7149963</ele>
        <time>2011-10-02T15:00:19Z</time>
      </trkpt>
      <trkpt lat="44.75389" lon="5.37697">
        <ele>405.7780151</ele>
        <time>2011-10-02T15:00:30Z</time>
      </trkpt>
      <trkpt lat="44.75355" lon="5.37655">
        <ele>404.855011</ele>
        <time>2011-10-02T15:00:37Z</time>
      </trkpt>
      <trkpt lat="44.75353" lon="5.37652">
        <ele>404.7609863</ele>
        <time>2011-10-02T15:00:38Z</time>
      </trkpt>
      <trkpt lat="44.75346" lon="5.37641">
        <ele>404.1260071</ele>
        <time>2011-10-02T15:00:42Z</time>
      </trkpt>
      <trkpt lat="44.75323" lon="5.37616">
        <ele>403.6879883</ele>
        <time>2011-10-02T15:00:48Z</time>
      </trkpt>
      <trkpt lat="44.75288" lon="5.37576">
        <ele>402.8139954</ele>
        <time>2011-10-02T15:00:57Z</time>
      </trkpt>
      <trkpt lat="44.75259" lon="5.37541">
        <ele>401.9200134</ele>
        <time>2011-10-02T15:01:03Z</time>
      </trkpt>
      <trkpt lat="44.75225" lon="5.37503">
        <ele>400.3580017</ele>
        <time>2011-10-02T15:01:10Z</time>
      </trkpt>
      <trkpt lat="44.75211" lon="5.3749">
        <ele>399.7279968</ele>
        <time>2011-10-02T15:01:14Z</time>
      </trkpt>
      <trkpt lat="44.75206" lon="5.37472">
        <ele>398.8829956</ele>
        <time>2011-10-02T15:01:18Z</time>
      </trkpt>
      <trkpt lat="44.75211" lon="5.37464">
        <ele>398.6919861</ele>
        <time>2011-10-02T15:01:20Z</time>
      </trkpt>
      <trkpt lat="44.75237" lon="5.37433">
        <ele>398.6000061</ele>
        <time>2011-10-02T15:01:29Z</time>
      </trkpt>
      <trkpt lat="44.75263" lon="5.374">
        <ele>398.5220032</ele>
        <time>2011-10-02T15:01:37Z</time>
      </trkpt>
      <trkpt lat="44.75283" lon="5.37374">
        <ele>398.5109863</ele>
        <time>2011-10-02T15:01:43Z</time>
      </trkpt>
      <trkpt lat="44.75312" lon="5.37336">
        <ele>399.0639954</ele>
        <time>2011-10-02T15:01:52Z</time>
      </trkpt>
      <trkpt lat="44.75338" lon="5.37301">
        <ele>399.2380066</ele>
        <time>2011-10-02T15:02:00Z</time>
      </trkpt>
      <trkpt lat="44.75346" lon="5.37294">
        <ele>399.3500061</ele>
        <time>2011-10-02T15:02:02Z</time>
      </trkpt>
      <trkpt lat="44.75352" lon="5.37268">
        <ele>399.9240112</ele>
        <time>2011-10-02T15:02:07Z</time>
      </trkpt>
      <trkpt lat="44.75357" lon="5.37236">
        <ele>401.0159912</ele>
        <time>2011-10-02T15:02:13Z</time>
      </trkpt>
      <trkpt lat="44.75358" lon="5.3723">
        <ele>401.1860046</ele>
        <time>2011-10-02T15:02:14Z</time>
      </trkpt>
      <trkpt lat="44.7537" lon="5.37202">
        <ele>402.0270081</ele>
        <time>2011-10-02T15:02:20Z</time>
      </trkpt>
      <trkpt lat="44.75388" lon="5.37168">
        <ele>401.8640137</ele>
        <time>2011-10-02T15:02:27Z</time>
      </trkpt>
      <trkpt lat="44.75405" lon="5.37126">
        <ele>400.8320007</ele>
        <time>2011-10-02T15:02:34Z</time>
      </trkpt>
      <trkpt lat="44.7542" lon="5.37099">
        <ele>399.9519958</ele>
        <time>2011-10-02T15:02:40Z</time>
      </trkpt>
      <trkpt lat="44.75435" lon="5.37073">
        <ele>399.4200134</ele>
        <time>2011-10-02T15:02:45Z</time>
      </trkpt>
      <trkpt lat="44.75456" lon="5.37034">
        <ele>398.5050049</ele>
        <time>2011-10-02T15:02:53Z</time>
      </trkpt>
      <trkpt lat="44.75467" lon="5.37017">
        <ele>397.9849854</ele>
        <time>2011-10-02T15:02:57Z</time>
      </trkpt>
      <trkpt lat="44.75492" lon="5.36979">
        <ele>397.3080139</ele>
        <time>2011-10-02T15:03:05Z</time>
      </trkpt>
      <trkpt lat="44.75511" lon="5.36943">
        <ele>396.9379883</ele>
        <time>2011-10-02T15:03:12Z</time>
      </trkpt>
      <trkpt lat="44.75513" lon="5.36937">
        <ele>396.881012</ele>
        <time>2011-10-02T15:03:13Z</time>
      </trkpt>
      <trkpt lat="44.75528" lon="5.36914">
        <ele>396.1690063</ele>
        <time>2011-10-02T15:03:19Z</time>
      </trkpt>
      <trkpt lat="44.75543" lon="5.36894">
        <ele>395.32901</ele>
        <time>2011-10-02T15:03:25Z</time>
      </trkpt>
      <trkpt lat="44.75562" lon="5.36861">
        <ele>394.7330017</ele>
        <time>2011-10-02T15:03:32Z</time>
      </trkpt>
      <trkpt lat="44.75579" lon="5.36834">
        <ele>393.9549866</ele>
        <time>2011-10-02T15:03:38Z</time>
      </trkpt>
      <trkpt lat="44.75599" lon="5.368">
        <ele>393.019989</ele>
        <time>2011-10-02T15:03:44Z</time>
      </trkpt>
      <trkpt lat="44.75627" lon="5.3675">
        <ele>391.5159912</ele>
        <time>2011-10-02T15:03:52Z</time>
      </trkpt>
      <trkpt lat="44.75656" lon="5.36701">
        <ele>390.0669861</ele>
        <time>2011-10-02T15:03:59Z</time>
      </trkpt>
      <trkpt lat="44.75697" lon="5.36631">
        <ele>387.6260071</ele>
        <time>2011-10-02T15:04:08Z</time>
      </trkpt>
      <trkpt lat="44.75731" lon="5.36574">
        <ele>385.8240051</ele>
        <time>2011-10-02T15:04:15Z</time>
      </trkpt>
      <trkpt lat="44.75755" lon="5.3653">
        <ele>384.3200073</ele>
        <time>2011-10-02T15:04:21Z</time>
      </trkpt>
      <trkpt lat="44.75764" lon="5.36498">
        <ele>383.3909912</ele>
        <time>2011-10-02T15:04:25Z</time>
      </trkpt>
      <trkpt lat="44.75787" lon="5.36449">
        <ele>381.7420044</ele>
        <time>2011-10-02T15:04:31Z</time>
      </trkpt>
      <trkpt lat="44.75823" lon="5.36382">
        <ele>379.7369995</ele>
        <time>2011-10-02T15:04:39Z</time>
      </trkpt>
      <trkpt lat="44.75848" lon="5.36327">
        <ele>378.1480103</ele>
        <time>2011-10-02T15:04:46Z</time>
      </trkpt>
      <trkpt lat="44.75857" lon="5.36305">
        <ele>377.7690125</ele>
        <time>2011-10-02T15:04:50Z</time>
      </trkpt>
      <trkpt lat="44.75858" lon="5.36304">
        <ele>377.677002</ele>
        <time>2011-10-02T15:04:54Z</time>
      </trkpt>
      <trkpt lat="44.7586" lon="5.36305">
        <ele>377.6210022</ele>
        <time>2011-10-02T15:04:59Z</time>
      </trkpt>
      <trkpt lat="44.75856" lon="5.3631">
        <ele>376.8989868</ele>
        <time>2011-10-02T15:06:11Z</time>
      </trkpt>
    </trkseg>
  </trk>
</gpx>